<?xml version="1.0" encoding="UTF-8" standalone="no" ?>
<gpx xmlns="http://www.topografix.com/GPX/1/1" xmlns:xsi="http://www.w3.org/2001/XMLSchema-instance" xsi:schemaLocation="http://www.topografix.com/GPX/1/1 http://www.topografix.com/GPX/1/1/gpx.xsd" version="1.1" creator="VisuGPX - https://www.visugpx.com">
  <metadata>
    <name>Sortie 100km </name>
    <desc><![CDATA[pppppppppppppppppppppppppppppppppppppppppppppppppppppppppppppppppppppppppppppppppppp]]></desc>
  </metadata>
  <trk>
    <name><![CDATA[Sortie 100km 😜et sans crampes 😝]]></name>
    <trkseg>
      <trkpt lat="44.65631" lon="0.55765">
        <ele>132</ele>
        <time>2021-07-23T05:10:16Z</time>
      </trkpt>
      <trkpt lat="44.65636" lon="0.55776">
        <ele>132</ele>
        <time>2021-07-23T05:10:20Z</time>
      </trkpt>
      <trkpt lat="44.65641" lon="0.55798">
        <ele>132</ele>
        <time>2021-07-23T05:10:26Z</time>
      </trkpt>
      <trkpt lat="44.65647" lon="0.55834">
        <ele>132</ele>
        <time>2021-07-23T05:10:34Z</time>
      </trkpt>
      <trkpt lat="44.6565" lon="0.55859">
        <ele>131.9</ele>
        <time>2021-07-23T05:10:41Z</time>
      </trkpt>
      <trkpt lat="44.6565" lon="0.55903">
        <ele>131.8</ele>
        <time>2021-07-23T05:10:51Z</time>
      </trkpt>
      <trkpt lat="44.65645" lon="0.55933">
        <ele>131.8</ele>
        <time>2021-07-23T05:10:58Z</time>
      </trkpt>
      <trkpt lat="44.6564" lon="0.55954">
        <ele>131.8</ele>
        <time>2021-07-23T05:11:03Z</time>
      </trkpt>
      <trkpt lat="44.65629" lon="0.55975">
        <ele>131.8</ele>
        <time>2021-07-23T05:11:08Z</time>
      </trkpt>
      <trkpt lat="44.6562" lon="0.55998">
        <ele>131.2</ele>
        <time>2021-07-23T05:11:13Z</time>
      </trkpt>
      <trkpt lat="44.656" lon="0.56037">
        <ele>130.3</ele>
        <time>2021-07-23T05:11:20Z</time>
      </trkpt>
      <trkpt lat="44.65571" lon="0.5608">
        <ele>130.6</ele>
        <time>2021-07-23T05:11:29Z</time>
      </trkpt>
      <trkpt lat="44.65554" lon="0.56104">
        <ele>131</ele>
        <time>2021-07-23T05:11:35Z</time>
      </trkpt>
      <trkpt lat="44.6554" lon="0.56126">
        <ele>131.1</ele>
        <time>2021-07-23T05:11:42Z</time>
      </trkpt>
      <trkpt lat="44.65524" lon="0.56161">
        <ele>130.8</ele>
        <time>2021-07-23T05:11:50Z</time>
      </trkpt>
      <trkpt lat="44.65505" lon="0.56204">
        <ele>130.5</ele>
        <time>2021-07-23T05:11:58Z</time>
      </trkpt>
      <trkpt lat="44.65484" lon="0.56253">
        <ele>130.5</ele>
        <time>2021-07-23T05:12:06Z</time>
      </trkpt>
      <trkpt lat="44.65459" lon="0.56291">
        <ele>130.5</ele>
        <time>2021-07-23T05:12:13Z</time>
      </trkpt>
      <trkpt lat="44.6543" lon="0.56323">
        <ele>131</ele>
        <time>2021-07-23T05:12:20Z</time>
      </trkpt>
      <trkpt lat="44.65396" lon="0.56352">
        <ele>131.8</ele>
        <time>2021-07-23T05:12:28Z</time>
      </trkpt>
      <trkpt lat="44.65367" lon="0.56372">
        <ele>131.8</ele>
        <time>2021-07-23T05:12:34Z</time>
      </trkpt>
      <trkpt lat="44.65351" lon="0.56393">
        <ele>131.9</ele>
        <time>2021-07-23T05:12:38Z</time>
      </trkpt>
      <trkpt lat="44.65348" lon="0.56399">
        <ele>131.9</ele>
        <time>2021-07-23T05:12:39Z</time>
      </trkpt>
      <trkpt lat="44.65335" lon="0.56433">
        <ele>131.5</ele>
        <time>2021-07-23T05:12:45Z</time>
      </trkpt>
      <trkpt lat="44.65323" lon="0.56472">
        <ele>130.1</ele>
        <time>2021-07-23T05:12:51Z</time>
      </trkpt>
      <trkpt lat="44.65302" lon="0.56535">
        <ele>126.7</ele>
        <time>2021-07-23T05:12:59Z</time>
      </trkpt>
      <trkpt lat="44.65292" lon="0.56561">
        <ele>125.1</ele>
        <time>2021-07-23T05:13:03Z</time>
      </trkpt>
      <trkpt lat="44.65282" lon="0.56598">
        <ele>122.8</ele>
        <time>2021-07-23T05:13:08Z</time>
      </trkpt>
      <trkpt lat="44.65281" lon="0.56607">
        <ele>122.3</ele>
        <time>2021-07-23T05:13:09Z</time>
      </trkpt>
      <trkpt lat="44.65275" lon="0.56651">
        <ele>120.4</ele>
        <time>2021-07-23T05:13:13Z</time>
      </trkpt>
      <trkpt lat="44.65272" lon="0.56661">
        <ele>120.1</ele>
        <time>2021-07-23T05:13:14Z</time>
      </trkpt>
      <trkpt lat="44.65269" lon="0.56671">
        <ele>119.9</ele>
        <time>2021-07-23T05:13:15Z</time>
      </trkpt>
      <trkpt lat="44.65259" lon="0.56688">
        <ele>119.4</ele>
        <time>2021-07-23T05:13:17Z</time>
      </trkpt>
      <trkpt lat="44.65253" lon="0.56694">
        <ele>119.1</ele>
        <time>2021-07-23T05:13:18Z</time>
      </trkpt>
      <trkpt lat="44.65219" lon="0.5672">
        <ele>116.7</ele>
        <time>2021-07-23T05:13:23Z</time>
      </trkpt>
      <trkpt lat="44.65188" lon="0.56743">
        <ele>113.9</ele>
        <time>2021-07-23T05:13:27Z</time>
      </trkpt>
      <trkpt lat="44.65181" lon="0.56751">
        <ele>113.1</ele>
        <time>2021-07-23T05:13:28Z</time>
      </trkpt>
      <trkpt lat="44.65169" lon="0.56768">
        <ele>111.7</ele>
        <time>2021-07-23T05:13:30Z</time>
      </trkpt>
      <trkpt lat="44.65164" lon="0.56777">
        <ele>111.2</ele>
        <time>2021-07-23T05:13:31Z</time>
      </trkpt>
      <trkpt lat="44.65161" lon="0.56784">
        <ele>110.8</ele>
        <time>2021-07-23T05:13:32Z</time>
      </trkpt>
      <trkpt lat="44.65157" lon="0.56797">
        <ele>110.3</ele>
        <time>2021-07-23T05:13:34Z</time>
      </trkpt>
      <trkpt lat="44.65154" lon="0.56804">
        <ele>110.6</ele>
        <time>2021-07-23T05:13:36Z</time>
      </trkpt>
      <trkpt lat="44.65152" lon="0.56804">
        <ele>110.7</ele>
        <time>2021-07-23T05:13:37Z</time>
      </trkpt>
      <trkpt lat="44.65151" lon="0.56802">
        <ele>110.7</ele>
        <time>2021-07-23T05:13:38Z</time>
      </trkpt>
      <trkpt lat="44.65151" lon="0.56794">
        <ele>111</ele>
        <time>2021-07-23T05:13:40Z</time>
      </trkpt>
      <trkpt lat="44.6515" lon="0.56778">
        <ele>111.6</ele>
        <time>2021-07-23T05:13:43Z</time>
      </trkpt>
      <trkpt lat="44.65151" lon="0.56766">
        <ele>112.1</ele>
        <time>2021-07-23T05:13:45Z</time>
      </trkpt>
      <trkpt lat="44.65152" lon="0.5676">
        <ele>112.4</ele>
        <time>2021-07-23T05:13:46Z</time>
      </trkpt>
      <trkpt lat="44.65163" lon="0.56744">
        <ele>113.4</ele>
        <time>2021-07-23T05:13:50Z</time>
      </trkpt>
      <trkpt lat="44.65173" lon="0.5673">
        <ele>114.3</ele>
        <time>2021-07-23T05:13:54Z</time>
      </trkpt>
      <trkpt lat="44.65186" lon="0.56718">
        <ele>115.3</ele>
        <time>2021-07-23T05:13:58Z</time>
      </trkpt>
      <trkpt lat="44.65201" lon="0.56707">
        <ele>116.4</ele>
        <time>2021-07-23T05:14:03Z</time>
      </trkpt>
      <trkpt lat="44.65217" lon="0.56695">
        <ele>117.4</ele>
        <time>2021-07-23T05:14:08Z</time>
      </trkpt>
      <trkpt lat="44.65225" lon="0.56684">
        <ele>118</ele>
        <time>2021-07-23T05:14:12Z</time>
      </trkpt>
      <trkpt lat="44.65232" lon="0.56667">
        <ele>120.2</ele>
        <time>2021-07-23T05:14:16Z</time>
      </trkpt>
      <trkpt lat="44.65242" lon="0.56645">
        <ele>122.5</ele>
        <time>2021-07-23T05:14:21Z</time>
      </trkpt>
      <trkpt lat="44.65242" lon="0.56639">
        <ele>123.1</ele>
        <time>2021-07-23T05:14:23Z</time>
      </trkpt>
      <trkpt lat="44.6524" lon="0.56632">
        <ele>123.1</ele>
        <time>2021-07-23T05:14:25Z</time>
      </trkpt>
      <trkpt lat="44.65235" lon="0.56624">
        <ele>122.8</ele>
        <time>2021-07-23T05:14:27Z</time>
      </trkpt>
      <trkpt lat="44.65233" lon="0.56618">
        <ele>123.2</ele>
        <time>2021-07-23T05:14:29Z</time>
      </trkpt>
      <trkpt lat="44.65229" lon="0.5661">
        <ele>122.6</ele>
        <time>2021-07-23T05:14:31Z</time>
      </trkpt>
      <trkpt lat="44.65226" lon="0.56604">
        <ele>122.3</ele>
        <time>2021-07-23T05:14:32Z</time>
      </trkpt>
      <trkpt lat="44.65218" lon="0.56583">
        <ele>121.5</ele>
        <time>2021-07-23T05:14:36Z</time>
      </trkpt>
      <trkpt lat="44.65216" lon="0.5656">
        <ele>121</ele>
        <time>2021-07-23T05:14:40Z</time>
      </trkpt>
      <trkpt lat="44.65222" lon="0.56538">
        <ele>122.4</ele>
        <time>2021-07-23T05:14:44Z</time>
      </trkpt>
      <trkpt lat="44.65228" lon="0.56516">
        <ele>123.5</ele>
        <time>2021-07-23T05:14:49Z</time>
      </trkpt>
      <trkpt lat="44.65224" lon="0.56507">
        <ele>122.9</ele>
        <time>2021-07-23T05:14:51Z</time>
      </trkpt>
      <trkpt lat="44.65219" lon="0.56504">
        <ele>121.6</ele>
        <time>2021-07-23T05:14:52Z</time>
      </trkpt>
      <trkpt lat="44.65213" lon="0.56503">
        <ele>120.4</ele>
        <time>2021-07-23T05:14:53Z</time>
      </trkpt>
      <trkpt lat="44.65194" lon="0.56501">
        <ele>115.7</ele>
        <time>2021-07-23T05:14:56Z</time>
      </trkpt>
      <trkpt lat="44.65166" lon="0.56501">
        <ele>107.3</ele>
        <time>2021-07-23T05:14:59Z</time>
      </trkpt>
      <trkpt lat="44.65146" lon="0.56502">
        <ele>101</ele>
        <time>2021-07-23T05:15:01Z</time>
      </trkpt>
      <trkpt lat="44.65128" lon="0.56501">
        <ele>95.8</ele>
        <time>2021-07-23T05:15:03Z</time>
      </trkpt>
      <trkpt lat="44.65113" lon="0.56501">
        <ele>92.7</ele>
        <time>2021-07-23T05:15:05Z</time>
      </trkpt>
      <trkpt lat="44.65097" lon="0.56505">
        <ele>88.3</ele>
        <time>2021-07-23T05:15:07Z</time>
      </trkpt>
      <trkpt lat="44.65072" lon="0.56514">
        <ele>84.4</ele>
        <time>2021-07-23T05:15:10Z</time>
      </trkpt>
      <trkpt lat="44.65064" lon="0.56515">
        <ele>83.6</ele>
        <time>2021-07-23T05:15:11Z</time>
      </trkpt>
      <trkpt lat="44.65035" lon="0.56519">
        <ele>81.3</ele>
        <time>2021-07-23T05:15:15Z</time>
      </trkpt>
      <trkpt lat="44.6498" lon="0.56527">
        <ele>79.1</ele>
        <time>2021-07-23T05:15:22Z</time>
      </trkpt>
      <trkpt lat="44.64972" lon="0.56528">
        <ele>79.2</ele>
        <time>2021-07-23T05:15:23Z</time>
      </trkpt>
      <trkpt lat="44.64957" lon="0.56529">
        <ele>79.4</ele>
        <time>2021-07-23T05:15:25Z</time>
      </trkpt>
      <trkpt lat="44.64934" lon="0.56528">
        <ele>79</ele>
        <time>2021-07-23T05:15:28Z</time>
      </trkpt>
      <trkpt lat="44.64912" lon="0.56529">
        <ele>78.5</ele>
        <time>2021-07-23T05:15:31Z</time>
      </trkpt>
      <trkpt lat="44.64898" lon="0.56534">
        <ele>78.3</ele>
        <time>2021-07-23T05:15:33Z</time>
      </trkpt>
      <trkpt lat="44.64877" lon="0.5654">
        <ele>78.3</ele>
        <time>2021-07-23T05:15:36Z</time>
      </trkpt>
      <trkpt lat="44.6487" lon="0.5654">
        <ele>78.4</ele>
        <time>2021-07-23T05:15:37Z</time>
      </trkpt>
      <trkpt lat="44.64865" lon="0.56538">
        <ele>78.6</ele>
        <time>2021-07-23T05:15:38Z</time>
      </trkpt>
      <trkpt lat="44.64861" lon="0.56534">
        <ele>78.7</ele>
        <time>2021-07-23T05:15:39Z</time>
      </trkpt>
      <trkpt lat="44.64843" lon="0.56517">
        <ele>78.9</ele>
        <time>2021-07-23T05:15:44Z</time>
      </trkpt>
      <trkpt lat="44.64835" lon="0.5651">
        <ele>79</ele>
        <time>2021-07-23T05:15:46Z</time>
      </trkpt>
      <trkpt lat="44.64817" lon="0.56502">
        <ele>79.1</ele>
        <time>2021-07-23T05:15:51Z</time>
      </trkpt>
      <trkpt lat="44.64803" lon="0.56501">
        <ele>79.3</ele>
        <time>2021-07-23T05:15:54Z</time>
      </trkpt>
      <trkpt lat="44.6479" lon="0.56504">
        <ele>79.6</ele>
        <time>2021-07-23T05:15:57Z</time>
      </trkpt>
      <trkpt lat="44.64766" lon="0.56507">
        <ele>79.9</ele>
        <time>2021-07-23T05:16:02Z</time>
      </trkpt>
      <trkpt lat="44.64751" lon="0.56504">
        <ele>79.8</ele>
        <time>2021-07-23T05:16:05Z</time>
      </trkpt>
      <trkpt lat="44.64719" lon="0.56497">
        <ele>79.6</ele>
        <time>2021-07-23T05:16:12Z</time>
      </trkpt>
      <trkpt lat="44.64685" lon="0.56489">
        <ele>79.5</ele>
        <time>2021-07-23T05:16:20Z</time>
      </trkpt>
      <trkpt lat="44.64666" lon="0.56485">
        <ele>79.5</ele>
        <time>2021-07-23T05:16:25Z</time>
      </trkpt>
      <trkpt lat="44.64662" lon="0.56484">
        <ele>79.5</ele>
        <time>2021-07-23T05:16:26Z</time>
      </trkpt>
      <trkpt lat="44.64622" lon="0.56476">
        <ele>79.6</ele>
        <time>2021-07-23T05:16:36Z</time>
      </trkpt>
      <trkpt lat="44.64593" lon="0.56477">
        <ele>79.9</ele>
        <time>2021-07-23T05:16:43Z</time>
      </trkpt>
      <trkpt lat="44.6456" lon="0.56475">
        <ele>80.5</ele>
        <time>2021-07-23T05:16:52Z</time>
      </trkpt>
      <trkpt lat="44.64541" lon="0.56471">
        <ele>81</ele>
        <time>2021-07-23T05:16:58Z</time>
      </trkpt>
      <trkpt lat="44.64527" lon="0.56461">
        <ele>81.5</ele>
        <time>2021-07-23T05:17:04Z</time>
      </trkpt>
      <trkpt lat="44.64516" lon="0.56452">
        <ele>83</ele>
        <time>2021-07-23T05:17:10Z</time>
      </trkpt>
      <trkpt lat="44.645" lon="0.56443">
        <ele>84.7</ele>
        <time>2021-07-23T05:17:17Z</time>
      </trkpt>
      <trkpt lat="44.64486" lon="0.56442">
        <ele>85.6</ele>
        <time>2021-07-23T05:17:22Z</time>
      </trkpt>
      <trkpt lat="44.64461" lon="0.56446">
        <ele>87.2</ele>
        <time>2021-07-23T05:17:30Z</time>
      </trkpt>
      <trkpt lat="44.64441" lon="0.56451">
        <ele>88.3</ele>
        <time>2021-07-23T05:17:37Z</time>
      </trkpt>
      <trkpt lat="44.6442" lon="0.56461">
        <ele>89.7</ele>
        <time>2021-07-23T05:17:45Z</time>
      </trkpt>
      <trkpt lat="44.64397" lon="0.56467">
        <ele>91.2</ele>
        <time>2021-07-23T05:17:53Z</time>
      </trkpt>
      <trkpt lat="44.64385" lon="0.56477">
        <ele>92.5</ele>
        <time>2021-07-23T05:17:59Z</time>
      </trkpt>
      <trkpt lat="44.64375" lon="0.5649">
        <ele>94.1</ele>
        <time>2021-07-23T05:18:05Z</time>
      </trkpt>
      <trkpt lat="44.64372" lon="0.56504">
        <ele>95.4</ele>
        <time>2021-07-23T05:18:10Z</time>
      </trkpt>
      <trkpt lat="44.64365" lon="0.56518">
        <ele>97</ele>
        <time>2021-07-23T05:18:16Z</time>
      </trkpt>
      <trkpt lat="44.64365" lon="0.56521">
        <ele>97.2</ele>
        <time>2021-07-23T05:18:17Z</time>
      </trkpt>
      <trkpt lat="44.64362" lon="0.56533">
        <ele>98.4</ele>
        <time>2021-07-23T05:18:21Z</time>
      </trkpt>
      <trkpt lat="44.64353" lon="0.56549">
        <ele>100.4</ele>
        <time>2021-07-23T05:18:29Z</time>
      </trkpt>
      <trkpt lat="44.64353" lon="0.56552">
        <ele>100.7</ele>
        <time>2021-07-23T05:18:30Z</time>
      </trkpt>
      <trkpt lat="44.64352" lon="0.56557">
        <ele>101.2</ele>
        <time>2021-07-23T05:18:32Z</time>
      </trkpt>
      <trkpt lat="44.64351" lon="0.56561">
        <ele>101.7</ele>
        <time>2021-07-23T05:18:34Z</time>
      </trkpt>
      <trkpt lat="44.64345" lon="0.56574">
        <ele>103.2</ele>
        <time>2021-07-23T05:18:40Z</time>
      </trkpt>
      <trkpt lat="44.64344" lon="0.56575">
        <ele>103.3</ele>
        <time>2021-07-23T05:18:41Z</time>
      </trkpt>
      <trkpt lat="44.64342" lon="0.56578">
        <ele>103.8</ele>
        <time>2021-07-23T05:18:43Z</time>
      </trkpt>
      <trkpt lat="44.6434" lon="0.56584">
        <ele>104.6</ele>
        <time>2021-07-23T05:18:46Z</time>
      </trkpt>
      <trkpt lat="44.64336" lon="0.56594">
        <ele>105.8</ele>
        <time>2021-07-23T05:18:51Z</time>
      </trkpt>
      <trkpt lat="44.64335" lon="0.56596">
        <ele>106</ele>
        <time>2021-07-23T05:18:52Z</time>
      </trkpt>
      <trkpt lat="44.64332" lon="0.56602">
        <ele>107.9</ele>
        <time>2021-07-23T05:18:57Z</time>
      </trkpt>
      <trkpt lat="44.6433" lon="0.56601">
        <ele>108</ele>
        <time>2021-07-23T05:18:59Z</time>
      </trkpt>
      <trkpt lat="44.64328" lon="0.56598">
        <ele>108</ele>
        <time>2021-07-23T05:19:01Z</time>
      </trkpt>
      <trkpt lat="44.64326" lon="0.56597">
        <ele>108.1</ele>
        <time>2021-07-23T05:19:03Z</time>
      </trkpt>
      <trkpt lat="44.64322" lon="0.56594">
        <ele>108.2</ele>
        <time>2021-07-23T05:19:06Z</time>
      </trkpt>
      <trkpt lat="44.64321" lon="0.56594">
        <ele>108.2</ele>
        <time>2021-07-23T05:19:08Z</time>
      </trkpt>
      <trkpt lat="44.64317" lon="0.56592">
        <ele>109.3</ele>
        <time>2021-07-23T05:19:12Z</time>
      </trkpt>
      <trkpt lat="44.64311" lon="0.5659">
        <ele>110.6</ele>
        <time>2021-07-23T05:19:17Z</time>
      </trkpt>
      <trkpt lat="44.64304" lon="0.56587">
        <ele>112</ele>
        <time>2021-07-23T05:19:22Z</time>
      </trkpt>
      <trkpt lat="44.64289" lon="0.56582">
        <ele>115.1</ele>
        <time>2021-07-23T05:19:36Z</time>
      </trkpt>
      <trkpt lat="44.64285" lon="0.56582">
        <ele>115.9</ele>
        <time>2021-07-23T05:19:38Z</time>
      </trkpt>
      <trkpt lat="44.6428" lon="0.56581">
        <ele>116.9</ele>
        <time>2021-07-23T05:19:40Z</time>
      </trkpt>
      <trkpt lat="44.64278" lon="0.56581">
        <ele>117.3</ele>
        <time>2021-07-23T05:19:41Z</time>
      </trkpt>
      <trkpt lat="44.64276" lon="0.56581">
        <ele>117.7</ele>
        <time>2021-07-23T05:19:42Z</time>
      </trkpt>
      <trkpt lat="44.64268" lon="0.5658">
        <ele>119.3</ele>
        <time>2021-07-23T05:19:48Z</time>
      </trkpt>
      <trkpt lat="44.64267" lon="0.5658">
        <ele>119.6</ele>
        <time>2021-07-23T05:19:49Z</time>
      </trkpt>
      <trkpt lat="44.64263" lon="0.56582">
        <ele>120.3</ele>
        <time>2021-07-23T05:19:53Z</time>
      </trkpt>
      <trkpt lat="44.64256" lon="0.56586">
        <ele>121.6</ele>
        <time>2021-07-23T05:19:59Z</time>
      </trkpt>
      <trkpt lat="44.64255" lon="0.56588">
        <ele>121.8</ele>
        <time>2021-07-23T05:20:00Z</time>
      </trkpt>
      <trkpt lat="44.6425" lon="0.56592">
        <ele>122.6</ele>
        <time>2021-07-23T05:20:04Z</time>
      </trkpt>
      <trkpt lat="44.64248" lon="0.56597">
        <ele>122.9</ele>
        <time>2021-07-23T05:20:07Z</time>
      </trkpt>
      <trkpt lat="44.64242" lon="0.56604">
        <ele>123.6</ele>
        <time>2021-07-23T05:20:13Z</time>
      </trkpt>
      <trkpt lat="44.64234" lon="0.56621">
        <ele>124</ele>
        <time>2021-07-23T05:20:19Z</time>
      </trkpt>
      <trkpt lat="44.64229" lon="0.56638">
        <ele>124.1</ele>
        <time>2021-07-23T05:20:25Z</time>
      </trkpt>
      <trkpt lat="44.64219" lon="0.56663">
        <ele>123.8</ele>
        <time>2021-07-23T05:20:31Z</time>
      </trkpt>
      <trkpt lat="44.64216" lon="0.56666">
        <ele>123.8</ele>
        <time>2021-07-23T05:20:32Z</time>
      </trkpt>
      <trkpt lat="44.64209" lon="0.56665">
        <ele>123.7</ele>
        <time>2021-07-23T05:20:34Z</time>
      </trkpt>
      <trkpt lat="44.64195" lon="0.56657">
        <ele>123.7</ele>
        <time>2021-07-23T05:20:39Z</time>
      </trkpt>
      <trkpt lat="44.64179" lon="0.56649">
        <ele>123.8</ele>
        <time>2021-07-23T05:20:44Z</time>
      </trkpt>
      <trkpt lat="44.6416" lon="0.56642">
        <ele>123.9</ele>
        <time>2021-07-23T05:20:49Z</time>
      </trkpt>
      <trkpt lat="44.64141" lon="0.56634">
        <ele>123.9</ele>
        <time>2021-07-23T05:20:54Z</time>
      </trkpt>
      <trkpt lat="44.64117" lon="0.56626">
        <ele>123.8</ele>
        <time>2021-07-23T05:21:00Z</time>
      </trkpt>
      <trkpt lat="44.64103" lon="0.56621">
        <ele>123.8</ele>
        <time>2021-07-23T05:21:04Z</time>
      </trkpt>
      <trkpt lat="44.64081" lon="0.56613">
        <ele>123.8</ele>
        <time>2021-07-23T05:21:10Z</time>
      </trkpt>
      <trkpt lat="44.64059" lon="0.56605">
        <ele>124</ele>
        <time>2021-07-23T05:21:16Z</time>
      </trkpt>
      <trkpt lat="44.64033" lon="0.56597">
        <ele>124.2</ele>
        <time>2021-07-23T05:21:22Z</time>
      </trkpt>
      <trkpt lat="44.64006" lon="0.56586">
        <ele>124.4</ele>
        <time>2021-07-23T05:21:29Z</time>
      </trkpt>
      <trkpt lat="44.63981" lon="0.56576">
        <ele>124.5</ele>
        <time>2021-07-23T05:21:35Z</time>
      </trkpt>
      <trkpt lat="44.63947" lon="0.56562">
        <ele>123.9</ele>
        <time>2021-07-23T05:21:43Z</time>
      </trkpt>
      <trkpt lat="44.6392" lon="0.56548">
        <ele>123.2</ele>
        <time>2021-07-23T05:21:50Z</time>
      </trkpt>
      <trkpt lat="44.63908" lon="0.5654">
        <ele>123.2</ele>
        <time>2021-07-23T05:21:53Z</time>
      </trkpt>
      <trkpt lat="44.63903" lon="0.56536">
        <ele>123.2</ele>
        <time>2021-07-23T05:21:54Z</time>
      </trkpt>
      <trkpt lat="44.63877" lon="0.56517">
        <ele>123.9</ele>
        <time>2021-07-23T05:22:00Z</time>
      </trkpt>
      <trkpt lat="44.63855" lon="0.565">
        <ele>124.6</ele>
        <time>2021-07-23T05:22:06Z</time>
      </trkpt>
      <trkpt lat="44.63832" lon="0.56485">
        <ele>125.3</ele>
        <time>2021-07-23T05:22:12Z</time>
      </trkpt>
      <trkpt lat="44.63815" lon="0.56476">
        <ele>125.8</ele>
        <time>2021-07-23T05:22:17Z</time>
      </trkpt>
      <trkpt lat="44.638" lon="0.56461">
        <ele>126.4</ele>
        <time>2021-07-23T05:22:22Z</time>
      </trkpt>
      <trkpt lat="44.63796" lon="0.56459">
        <ele>126.4</ele>
        <time>2021-07-23T05:22:23Z</time>
      </trkpt>
      <trkpt lat="44.63788" lon="0.56455">
        <ele>126.4</ele>
        <time>2021-07-23T05:22:25Z</time>
      </trkpt>
      <trkpt lat="44.63776" lon="0.56454">
        <ele>126.4</ele>
        <time>2021-07-23T05:22:28Z</time>
      </trkpt>
      <trkpt lat="44.63751" lon="0.56456">
        <ele>126.4</ele>
        <time>2021-07-23T05:22:34Z</time>
      </trkpt>
      <trkpt lat="44.63746" lon="0.56459">
        <ele>126.3</ele>
        <time>2021-07-23T05:22:35Z</time>
      </trkpt>
      <trkpt lat="44.63742" lon="0.56461">
        <ele>126.3</ele>
        <time>2021-07-23T05:22:36Z</time>
      </trkpt>
      <trkpt lat="44.63732" lon="0.56463">
        <ele>126.4</ele>
        <time>2021-07-23T05:22:38Z</time>
      </trkpt>
      <trkpt lat="44.63727" lon="0.56462">
        <ele>126.4</ele>
        <time>2021-07-23T05:22:39Z</time>
      </trkpt>
      <trkpt lat="44.63717" lon="0.56461">
        <ele>126.4</ele>
        <time>2021-07-23T05:22:41Z</time>
      </trkpt>
      <trkpt lat="44.63702" lon="0.56455">
        <ele>126.4</ele>
        <time>2021-07-23T05:22:44Z</time>
      </trkpt>
      <trkpt lat="44.63695" lon="0.56463">
        <ele>126.6</ele>
        <time>2021-07-23T05:22:46Z</time>
      </trkpt>
      <trkpt lat="44.63691" lon="0.56474">
        <ele>126.7</ele>
        <time>2021-07-23T05:22:48Z</time>
      </trkpt>
      <trkpt lat="44.63687" lon="0.56492">
        <ele>126.9</ele>
        <time>2021-07-23T05:22:51Z</time>
      </trkpt>
      <trkpt lat="44.63683" lon="0.56508">
        <ele>127.1</ele>
        <time>2021-07-23T05:22:54Z</time>
      </trkpt>
      <trkpt lat="44.63682" lon="0.56514">
        <ele>127.1</ele>
        <time>2021-07-23T05:22:55Z</time>
      </trkpt>
      <trkpt lat="44.63678" lon="0.56533">
        <ele>127.1</ele>
        <time>2021-07-23T05:22:58Z</time>
      </trkpt>
      <trkpt lat="44.63672" lon="0.56551">
        <ele>127</ele>
        <time>2021-07-23T05:23:01Z</time>
      </trkpt>
      <trkpt lat="44.63665" lon="0.56569">
        <ele>126.9</ele>
        <time>2021-07-23T05:23:04Z</time>
      </trkpt>
      <trkpt lat="44.63658" lon="0.56579">
        <ele>126.9</ele>
        <time>2021-07-23T05:23:06Z</time>
      </trkpt>
      <trkpt lat="44.6364" lon="0.56593">
        <ele>127</ele>
        <time>2021-07-23T05:23:10Z</time>
      </trkpt>
      <trkpt lat="44.63635" lon="0.56596">
        <ele>127</ele>
        <time>2021-07-23T05:23:11Z</time>
      </trkpt>
      <trkpt lat="44.63605" lon="0.56613">
        <ele>126.5</ele>
        <time>2021-07-23T05:23:17Z</time>
      </trkpt>
      <trkpt lat="44.63589" lon="0.5662">
        <ele>126</ele>
        <time>2021-07-23T05:23:20Z</time>
      </trkpt>
      <trkpt lat="44.63578" lon="0.56627">
        <ele>125.8</ele>
        <time>2021-07-23T05:23:22Z</time>
      </trkpt>
      <trkpt lat="44.63553" lon="0.56641">
        <ele>125.8</ele>
        <time>2021-07-23T05:23:27Z</time>
      </trkpt>
      <trkpt lat="44.63544" lon="0.56648">
        <ele>125.9</ele>
        <time>2021-07-23T05:23:29Z</time>
      </trkpt>
      <trkpt lat="44.63537" lon="0.56654">
        <ele>126</ele>
        <time>2021-07-23T05:23:31Z</time>
      </trkpt>
      <trkpt lat="44.63533" lon="0.56657">
        <ele>126.1</ele>
        <time>2021-07-23T05:23:32Z</time>
      </trkpt>
      <trkpt lat="44.63513" lon="0.56676">
        <ele>126.8</ele>
        <time>2021-07-23T05:23:37Z</time>
      </trkpt>
      <trkpt lat="44.63509" lon="0.56679">
        <ele>126.9</ele>
        <time>2021-07-23T05:23:38Z</time>
      </trkpt>
      <trkpt lat="44.63487" lon="0.56693">
        <ele>127</ele>
        <time>2021-07-23T05:23:44Z</time>
      </trkpt>
      <trkpt lat="44.63479" lon="0.56697">
        <ele>127</ele>
        <time>2021-07-23T05:23:46Z</time>
      </trkpt>
      <trkpt lat="44.6347" lon="0.56705">
        <ele>127.1</ele>
        <time>2021-07-23T05:23:48Z</time>
      </trkpt>
      <trkpt lat="44.63462" lon="0.56713">
        <ele>127.1</ele>
        <time>2021-07-23T05:23:50Z</time>
      </trkpt>
      <trkpt lat="44.63453" lon="0.5672">
        <ele>127.2</ele>
        <time>2021-07-23T05:23:52Z</time>
      </trkpt>
      <trkpt lat="44.6345" lon="0.56724">
        <ele>127.2</ele>
        <time>2021-07-23T05:23:53Z</time>
      </trkpt>
      <trkpt lat="44.63444" lon="0.56736">
        <ele>127.1</ele>
        <time>2021-07-23T05:23:56Z</time>
      </trkpt>
      <trkpt lat="44.63435" lon="0.5675">
        <ele>126.6</ele>
        <time>2021-07-23T05:23:59Z</time>
      </trkpt>
      <trkpt lat="44.63432" lon="0.56755">
        <ele>126.2</ele>
        <time>2021-07-23T05:24:00Z</time>
      </trkpt>
      <trkpt lat="44.63419" lon="0.56786">
        <ele>123.4</ele>
        <time>2021-07-23T05:24:04Z</time>
      </trkpt>
      <trkpt lat="44.63398" lon="0.56824">
        <ele>119.8</ele>
        <time>2021-07-23T05:24:08Z</time>
      </trkpt>
      <trkpt lat="44.63383" lon="0.56868">
        <ele>115.9</ele>
        <time>2021-07-23T05:24:12Z</time>
      </trkpt>
      <trkpt lat="44.63381" lon="0.56889">
        <ele>114.5</ele>
        <time>2021-07-23T05:24:14Z</time>
      </trkpt>
      <trkpt lat="44.63384" lon="0.56898">
        <ele>113.7</ele>
        <time>2021-07-23T05:24:15Z</time>
      </trkpt>
      <trkpt lat="44.63402" lon="0.56939">
        <ele>108.2</ele>
        <time>2021-07-23T05:24:19Z</time>
      </trkpt>
      <trkpt lat="44.63427" lon="0.56982">
        <ele>101.6</ele>
        <time>2021-07-23T05:24:23Z</time>
      </trkpt>
      <trkpt lat="44.63441" lon="0.57006">
        <ele>99.4</ele>
        <time>2021-07-23T05:24:26Z</time>
      </trkpt>
      <trkpt lat="44.63442" lon="0.57011">
        <ele>99.1</ele>
        <time>2021-07-23T05:24:27Z</time>
      </trkpt>
      <trkpt lat="44.63441" lon="0.57014">
        <ele>98</ele>
        <time>2021-07-23T05:24:28Z</time>
      </trkpt>
      <trkpt lat="44.63435" lon="0.57014">
        <ele>97.9</ele>
        <time>2021-07-23T05:24:30Z</time>
      </trkpt>
      <trkpt lat="44.63415" lon="0.5701">
        <ele>97.5</ele>
        <time>2021-07-23T05:24:35Z</time>
      </trkpt>
      <trkpt lat="44.63383" lon="0.57012">
        <ele>97.1</ele>
        <time>2021-07-23T05:24:41Z</time>
      </trkpt>
      <trkpt lat="44.63349" lon="0.57016">
        <ele>97.1</ele>
        <time>2021-07-23T05:24:48Z</time>
      </trkpt>
      <trkpt lat="44.63336" lon="0.57014">
        <ele>97.1</ele>
        <time>2021-07-23T05:24:51Z</time>
      </trkpt>
      <trkpt lat="44.63324" lon="0.57011">
        <ele>97</ele>
        <time>2021-07-23T05:24:54Z</time>
      </trkpt>
      <trkpt lat="44.63319" lon="0.5701">
        <ele>97</ele>
        <time>2021-07-23T05:24:55Z</time>
      </trkpt>
      <trkpt lat="44.63302" lon="0.56999">
        <ele>96.5</ele>
        <time>2021-07-23T05:24:59Z</time>
      </trkpt>
      <trkpt lat="44.63267" lon="0.56968">
        <ele>95</ele>
        <time>2021-07-23T05:25:07Z</time>
      </trkpt>
      <trkpt lat="44.63246" lon="0.56953">
        <ele>94.3</ele>
        <time>2021-07-23T05:25:11Z</time>
      </trkpt>
      <trkpt lat="44.63199" lon="0.56917">
        <ele>92</ele>
        <time>2021-07-23T05:25:20Z</time>
      </trkpt>
      <trkpt lat="44.63174" lon="0.56904">
        <ele>91.1</ele>
        <time>2021-07-23T05:25:24Z</time>
      </trkpt>
      <trkpt lat="44.63167" lon="0.56902">
        <ele>90.9</ele>
        <time>2021-07-23T05:25:25Z</time>
      </trkpt>
      <trkpt lat="44.63161" lon="0.56901">
        <ele>90.8</ele>
        <time>2021-07-23T05:25:26Z</time>
      </trkpt>
      <trkpt lat="44.63143" lon="0.56903">
        <ele>90.6</ele>
        <time>2021-07-23T05:25:29Z</time>
      </trkpt>
      <trkpt lat="44.63133" lon="0.56905">
        <ele>90.7</ele>
        <time>2021-07-23T05:25:31Z</time>
      </trkpt>
      <trkpt lat="44.63123" lon="0.56904">
        <ele>90.8</ele>
        <time>2021-07-23T05:25:33Z</time>
      </trkpt>
      <trkpt lat="44.63118" lon="0.56904">
        <ele>90.9</ele>
        <time>2021-07-23T05:25:34Z</time>
      </trkpt>
      <trkpt lat="44.63104" lon="0.56904">
        <ele>91.3</ele>
        <time>2021-07-23T05:25:37Z</time>
      </trkpt>
      <trkpt lat="44.631" lon="0.56905">
        <ele>91.4</ele>
        <time>2021-07-23T05:25:38Z</time>
      </trkpt>
      <trkpt lat="44.63067" lon="0.56906">
        <ele>92.2</ele>
        <time>2021-07-23T05:25:45Z</time>
      </trkpt>
      <trkpt lat="44.63062" lon="0.56906">
        <ele>92.3</ele>
        <time>2021-07-23T05:25:46Z</time>
      </trkpt>
      <trkpt lat="44.63038" lon="0.56912">
        <ele>92.9</ele>
        <time>2021-07-23T05:25:51Z</time>
      </trkpt>
      <trkpt lat="44.6303" lon="0.56917">
        <ele>93.2</ele>
        <time>2021-07-23T05:25:53Z</time>
      </trkpt>
      <trkpt lat="44.63016" lon="0.56922">
        <ele>93.6</ele>
        <time>2021-07-23T05:25:56Z</time>
      </trkpt>
      <trkpt lat="44.62987" lon="0.56932">
        <ele>94.6</ele>
        <time>2021-07-23T05:26:03Z</time>
      </trkpt>
      <trkpt lat="44.62961" lon="0.56939">
        <ele>95.2</ele>
        <time>2021-07-23T05:26:10Z</time>
      </trkpt>
      <trkpt lat="44.62957" lon="0.56941">
        <ele>95.3</ele>
        <time>2021-07-23T05:26:11Z</time>
      </trkpt>
      <trkpt lat="44.62955" lon="0.56951">
        <ele>95.5</ele>
        <time>2021-07-23T05:26:13Z</time>
      </trkpt>
      <trkpt lat="44.62961" lon="0.56999">
        <ele>96.8</ele>
        <time>2021-07-23T05:26:20Z</time>
      </trkpt>
      <trkpt lat="44.62966" lon="0.57045">
        <ele>99</ele>
        <time>2021-07-23T05:26:26Z</time>
      </trkpt>
      <trkpt lat="44.62969" lon="0.5706">
        <ele>99.8</ele>
        <time>2021-07-23T05:26:28Z</time>
      </trkpt>
      <trkpt lat="44.62971" lon="0.57073">
        <ele>100.6</ele>
        <time>2021-07-23T05:26:30Z</time>
      </trkpt>
      <trkpt lat="44.62974" lon="0.57107">
        <ele>102.3</ele>
        <time>2021-07-23T05:26:35Z</time>
      </trkpt>
      <trkpt lat="44.62977" lon="0.57141">
        <ele>103.5</ele>
        <time>2021-07-23T05:26:40Z</time>
      </trkpt>
      <trkpt lat="44.62977" lon="0.57157">
        <ele>103.9</ele>
        <time>2021-07-23T05:26:42Z</time>
      </trkpt>
      <trkpt lat="44.62975" lon="0.57164">
        <ele>103.9</ele>
        <time>2021-07-23T05:26:43Z</time>
      </trkpt>
      <trkpt lat="44.62972" lon="0.57168">
        <ele>103.9</ele>
        <time>2021-07-23T05:26:44Z</time>
      </trkpt>
      <trkpt lat="44.62965" lon="0.57173">
        <ele>103.8</ele>
        <time>2021-07-23T05:26:46Z</time>
      </trkpt>
      <trkpt lat="44.62944" lon="0.57182">
        <ele>103.8</ele>
        <time>2021-07-23T05:26:50Z</time>
      </trkpt>
      <trkpt lat="44.62924" lon="0.57194">
        <ele>103.7</ele>
        <time>2021-07-23T05:26:55Z</time>
      </trkpt>
      <trkpt lat="44.62901" lon="0.57205">
        <ele>103.7</ele>
        <time>2021-07-23T05:27:01Z</time>
      </trkpt>
      <trkpt lat="44.62885" lon="0.57211">
        <ele>103.6</ele>
        <time>2021-07-23T05:27:06Z</time>
      </trkpt>
      <trkpt lat="44.62863" lon="0.57215">
        <ele>103.5</ele>
        <time>2021-07-23T05:27:11Z</time>
      </trkpt>
      <trkpt lat="44.62842" lon="0.57219">
        <ele>103.5</ele>
        <time>2021-07-23T05:27:16Z</time>
      </trkpt>
      <trkpt lat="44.62822" lon="0.57228">
        <ele>103.4</ele>
        <time>2021-07-23T05:27:22Z</time>
      </trkpt>
      <trkpt lat="44.62816" lon="0.57235">
        <ele>103.5</ele>
        <time>2021-07-23T05:27:24Z</time>
      </trkpt>
      <trkpt lat="44.62816" lon="0.57244">
        <ele>103.9</ele>
        <time>2021-07-23T05:27:26Z</time>
      </trkpt>
      <trkpt lat="44.62819" lon="0.57264">
        <ele>104.7</ele>
        <time>2021-07-23T05:27:30Z</time>
      </trkpt>
      <trkpt lat="44.62821" lon="0.57276">
        <ele>105</ele>
        <time>2021-07-23T05:27:32Z</time>
      </trkpt>
      <trkpt lat="44.62822" lon="0.57288">
        <ele>105.2</ele>
        <time>2021-07-23T05:27:34Z</time>
      </trkpt>
      <trkpt lat="44.62822" lon="0.57299">
        <ele>105.2</ele>
        <time>2021-07-23T05:27:36Z</time>
      </trkpt>
      <trkpt lat="44.62825" lon="0.57322">
        <ele>105.3</ele>
        <time>2021-07-23T05:27:41Z</time>
      </trkpt>
      <trkpt lat="44.62827" lon="0.57345">
        <ele>104.8</ele>
        <time>2021-07-23T05:27:46Z</time>
      </trkpt>
      <trkpt lat="44.62827" lon="0.5737">
        <ele>103.8</ele>
        <time>2021-07-23T05:27:50Z</time>
      </trkpt>
      <trkpt lat="44.6283" lon="0.57379">
        <ele>103.3</ele>
        <time>2021-07-23T05:27:51Z</time>
      </trkpt>
      <trkpt lat="44.62835" lon="0.57399">
        <ele>102.4</ele>
        <time>2021-07-23T05:27:53Z</time>
      </trkpt>
      <trkpt lat="44.62837" lon="0.57418">
        <ele>101.6</ele>
        <time>2021-07-23T05:27:55Z</time>
      </trkpt>
      <trkpt lat="44.62839" lon="0.57437">
        <ele>100.9</ele>
        <time>2021-07-23T05:27:57Z</time>
      </trkpt>
      <trkpt lat="44.62839" lon="0.57456">
        <ele>100.3</ele>
        <time>2021-07-23T05:27:59Z</time>
      </trkpt>
      <trkpt lat="44.62838" lon="0.57504">
        <ele>98.5</ele>
        <time>2021-07-23T05:28:04Z</time>
      </trkpt>
      <trkpt lat="44.62836" lon="0.57544">
        <ele>96.7</ele>
        <time>2021-07-23T05:28:08Z</time>
      </trkpt>
      <trkpt lat="44.62835" lon="0.57555">
        <ele>96.2</ele>
        <time>2021-07-23T05:28:09Z</time>
      </trkpt>
      <trkpt lat="44.62832" lon="0.57602">
        <ele>94.1</ele>
        <time>2021-07-23T05:28:13Z</time>
      </trkpt>
      <trkpt lat="44.62834" lon="0.57679">
        <ele>90</ele>
        <time>2021-07-23T05:28:19Z</time>
      </trkpt>
      <trkpt lat="44.62834" lon="0.57692">
        <ele>89.3</ele>
        <time>2021-07-23T05:28:20Z</time>
      </trkpt>
      <trkpt lat="44.62838" lon="0.57754">
        <ele>86.9</ele>
        <time>2021-07-23T05:28:25Z</time>
      </trkpt>
      <trkpt lat="44.6284" lon="0.5779">
        <ele>85.5</ele>
        <time>2021-07-23T05:28:28Z</time>
      </trkpt>
      <trkpt lat="44.62839" lon="0.57815">
        <ele>84.3</ele>
        <time>2021-07-23T05:28:30Z</time>
      </trkpt>
      <trkpt lat="44.62838" lon="0.57887">
        <ele>79.5</ele>
        <time>2021-07-23T05:28:36Z</time>
      </trkpt>
      <trkpt lat="44.62836" lon="0.57906">
        <ele>78.5</ele>
        <time>2021-07-23T05:28:38Z</time>
      </trkpt>
      <trkpt lat="44.62834" lon="0.57915">
        <ele>78.2</ele>
        <time>2021-07-23T05:28:39Z</time>
      </trkpt>
      <trkpt lat="44.62831" lon="0.57921">
        <ele>78</ele>
        <time>2021-07-23T05:28:40Z</time>
      </trkpt>
      <trkpt lat="44.62823" lon="0.57926">
        <ele>78.2</ele>
        <time>2021-07-23T05:28:42Z</time>
      </trkpt>
      <trkpt lat="44.62814" lon="0.57931">
        <ele>78.4</ele>
        <time>2021-07-23T05:28:44Z</time>
      </trkpt>
      <trkpt lat="44.62807" lon="0.57941">
        <ele>78.4</ele>
        <time>2021-07-23T05:28:46Z</time>
      </trkpt>
      <trkpt lat="44.62803" lon="0.57953">
        <ele>78.3</ele>
        <time>2021-07-23T05:28:48Z</time>
      </trkpt>
      <trkpt lat="44.62801" lon="0.57967">
        <ele>78.1</ele>
        <time>2021-07-23T05:28:50Z</time>
      </trkpt>
      <trkpt lat="44.628" lon="0.57975">
        <ele>78</ele>
        <time>2021-07-23T05:28:51Z</time>
      </trkpt>
      <trkpt lat="44.62801" lon="0.58007">
        <ele>77.7</ele>
        <time>2021-07-23T05:28:55Z</time>
      </trkpt>
      <trkpt lat="44.62801" lon="0.5806">
        <ele>77.6</ele>
        <time>2021-07-23T05:29:02Z</time>
      </trkpt>
      <trkpt lat="44.628" lon="0.58066">
        <ele>77.6</ele>
        <time>2021-07-23T05:29:03Z</time>
      </trkpt>
      <trkpt lat="44.62798" lon="0.58071">
        <ele>77.6</ele>
        <time>2021-07-23T05:29:04Z</time>
      </trkpt>
      <trkpt lat="44.62795" lon="0.58073">
        <ele>77.6</ele>
        <time>2021-07-23T05:29:05Z</time>
      </trkpt>
      <trkpt lat="44.62786" lon="0.58072">
        <ele>77.7</ele>
        <time>2021-07-23T05:29:07Z</time>
      </trkpt>
      <trkpt lat="44.62773" lon="0.58069">
        <ele>77.7</ele>
        <time>2021-07-23T05:29:10Z</time>
      </trkpt>
      <trkpt lat="44.62755" lon="0.58068">
        <ele>77.9</ele>
        <time>2021-07-23T05:29:14Z</time>
      </trkpt>
      <trkpt lat="44.62742" lon="0.58064">
        <ele>78</ele>
        <time>2021-07-23T05:29:17Z</time>
      </trkpt>
      <trkpt lat="44.62706" lon="0.58058">
        <ele>78.2</ele>
        <time>2021-07-23T05:29:25Z</time>
      </trkpt>
      <trkpt lat="44.62663" lon="0.58052">
        <ele>78.5</ele>
        <time>2021-07-23T05:29:34Z</time>
      </trkpt>
      <trkpt lat="44.62619" lon="0.58046">
        <ele>79</ele>
        <time>2021-07-23T05:29:43Z</time>
      </trkpt>
      <trkpt lat="44.62577" lon="0.5804">
        <ele>79.4</ele>
        <time>2021-07-23T05:29:52Z</time>
      </trkpt>
      <trkpt lat="44.62539" lon="0.58037">
        <ele>79.6</ele>
        <time>2021-07-23T05:30:00Z</time>
      </trkpt>
      <trkpt lat="44.62535" lon="0.58039">
        <ele>79.6</ele>
        <time>2021-07-23T05:30:01Z</time>
      </trkpt>
      <trkpt lat="44.62532" lon="0.58043">
        <ele>79.7</ele>
        <time>2021-07-23T05:30:02Z</time>
      </trkpt>
      <trkpt lat="44.62529" lon="0.58056">
        <ele>79.6</ele>
        <time>2021-07-23T05:30:04Z</time>
      </trkpt>
      <trkpt lat="44.62527" lon="0.58069">
        <ele>79.5</ele>
        <time>2021-07-23T05:30:06Z</time>
      </trkpt>
      <trkpt lat="44.62526" lon="0.58089">
        <ele>79.4</ele>
        <time>2021-07-23T05:30:09Z</time>
      </trkpt>
      <trkpt lat="44.62524" lon="0.58123">
        <ele>79.6</ele>
        <time>2021-07-23T05:30:14Z</time>
      </trkpt>
      <trkpt lat="44.62523" lon="0.5813">
        <ele>79.7</ele>
        <time>2021-07-23T05:30:15Z</time>
      </trkpt>
      <trkpt lat="44.62519" lon="0.58169">
        <ele>80.2</ele>
        <time>2021-07-23T05:30:21Z</time>
      </trkpt>
      <trkpt lat="44.62514" lon="0.58205">
        <ele>80.2</ele>
        <time>2021-07-23T05:30:27Z</time>
      </trkpt>
      <trkpt lat="44.62511" lon="0.58247">
        <ele>80.2</ele>
        <time>2021-07-23T05:30:34Z</time>
      </trkpt>
      <trkpt lat="44.62514" lon="0.5826">
        <ele>80.3</ele>
        <time>2021-07-23T05:30:37Z</time>
      </trkpt>
      <trkpt lat="44.62517" lon="0.58262">
        <ele>80.3</ele>
        <time>2021-07-23T05:30:38Z</time>
      </trkpt>
      <trkpt lat="44.62533" lon="0.58276">
        <ele>80.5</ele>
        <time>2021-07-23T05:30:43Z</time>
      </trkpt>
      <trkpt lat="44.62555" lon="0.58296">
        <ele>81</ele>
        <time>2021-07-23T05:30:49Z</time>
      </trkpt>
      <trkpt lat="44.62575" lon="0.5831">
        <ele>81.7</ele>
        <time>2021-07-23T05:30:54Z</time>
      </trkpt>
      <trkpt lat="44.62593" lon="0.5833">
        <ele>82.8</ele>
        <time>2021-07-23T05:31:00Z</time>
      </trkpt>
      <trkpt lat="44.62604" lon="0.58356">
        <ele>84.1</ele>
        <time>2021-07-23T05:31:06Z</time>
      </trkpt>
      <trkpt lat="44.62616" lon="0.58381">
        <ele>86.1</ele>
        <time>2021-07-23T05:31:13Z</time>
      </trkpt>
      <trkpt lat="44.62626" lon="0.58406">
        <ele>87.9</ele>
        <time>2021-07-23T05:31:20Z</time>
      </trkpt>
      <trkpt lat="44.6263" lon="0.58435">
        <ele>89.3</ele>
        <time>2021-07-23T05:31:28Z</time>
      </trkpt>
      <trkpt lat="44.62633" lon="0.58465">
        <ele>90.9</ele>
        <time>2021-07-23T05:31:37Z</time>
      </trkpt>
      <trkpt lat="44.62633" lon="0.58478">
        <ele>91.9</ele>
        <time>2021-07-23T05:31:42Z</time>
      </trkpt>
      <trkpt lat="44.62634" lon="0.58501">
        <ele>93.7</ele>
        <time>2021-07-23T05:31:50Z</time>
      </trkpt>
      <trkpt lat="44.62635" lon="0.58529">
        <ele>95.6</ele>
        <time>2021-07-23T05:32:00Z</time>
      </trkpt>
      <trkpt lat="44.62636" lon="0.58542">
        <ele>96.7</ele>
        <time>2021-07-23T05:32:06Z</time>
      </trkpt>
      <trkpt lat="44.62636" lon="0.58562">
        <ele>98.8</ele>
        <time>2021-07-23T05:32:16Z</time>
      </trkpt>
      <trkpt lat="44.62637" lon="0.58581">
        <ele>101</ele>
        <time>2021-07-23T05:32:24Z</time>
      </trkpt>
      <trkpt lat="44.6264" lon="0.58598">
        <ele>103.2</ele>
        <time>2021-07-23T05:32:32Z</time>
      </trkpt>
      <trkpt lat="44.62643" lon="0.58607">
        <ele>104.6</ele>
        <time>2021-07-23T05:32:38Z</time>
      </trkpt>
      <trkpt lat="44.62647" lon="0.58617">
        <ele>106.1</ele>
        <time>2021-07-23T05:32:45Z</time>
      </trkpt>
      <trkpt lat="44.62647" lon="0.58631">
        <ele>107.8</ele>
        <time>2021-07-23T05:32:52Z</time>
      </trkpt>
      <trkpt lat="44.62647" lon="0.5864">
        <ele>108.9</ele>
        <time>2021-07-23T05:32:58Z</time>
      </trkpt>
      <trkpt lat="44.62646" lon="0.58648">
        <ele>109.8</ele>
        <time>2021-07-23T05:33:04Z</time>
      </trkpt>
      <trkpt lat="44.62645" lon="0.58657">
        <ele>110.8</ele>
        <time>2021-07-23T05:33:09Z</time>
      </trkpt>
      <trkpt lat="44.62646" lon="0.58671">
        <ele>112</ele>
        <time>2021-07-23T05:33:16Z</time>
      </trkpt>
      <trkpt lat="44.62647" lon="0.58677">
        <ele>112.6</ele>
        <time>2021-07-23T05:33:20Z</time>
      </trkpt>
      <trkpt lat="44.62647" lon="0.5868">
        <ele>112.8</ele>
        <time>2021-07-23T05:33:22Z</time>
      </trkpt>
      <trkpt lat="44.62647" lon="0.58682">
        <ele>113</ele>
        <time>2021-07-23T05:33:23Z</time>
      </trkpt>
      <trkpt lat="44.62645" lon="0.58696">
        <ele>114</ele>
        <time>2021-07-23T05:33:31Z</time>
      </trkpt>
      <trkpt lat="44.62642" lon="0.58705">
        <ele>114.7</ele>
        <time>2021-07-23T05:33:36Z</time>
      </trkpt>
      <trkpt lat="44.62641" lon="0.58714">
        <ele>115.4</ele>
        <time>2021-07-23T05:33:42Z</time>
      </trkpt>
      <trkpt lat="44.62638" lon="0.58724">
        <ele>116</ele>
        <time>2021-07-23T05:33:48Z</time>
      </trkpt>
      <trkpt lat="44.62634" lon="0.58736">
        <ele>116.8</ele>
        <time>2021-07-23T05:33:55Z</time>
      </trkpt>
      <trkpt lat="44.62632" lon="0.58742">
        <ele>117.2</ele>
        <time>2021-07-23T05:33:59Z</time>
      </trkpt>
      <trkpt lat="44.62628" lon="0.58754">
        <ele>117.9</ele>
        <time>2021-07-23T05:34:05Z</time>
      </trkpt>
      <trkpt lat="44.62624" lon="0.58771">
        <ele>119</ele>
        <time>2021-07-23T05:34:12Z</time>
      </trkpt>
      <trkpt lat="44.62618" lon="0.58789">
        <ele>120.3</ele>
        <time>2021-07-23T05:34:20Z</time>
      </trkpt>
      <trkpt lat="44.62615" lon="0.58808">
        <ele>122.4</ele>
        <time>2021-07-23T05:34:29Z</time>
      </trkpt>
      <trkpt lat="44.62617" lon="0.58811">
        <ele>122.6</ele>
        <time>2021-07-23T05:34:31Z</time>
      </trkpt>
      <trkpt lat="44.62622" lon="0.58813">
        <ele>123.1</ele>
        <time>2021-07-23T05:34:34Z</time>
      </trkpt>
      <trkpt lat="44.6263" lon="0.58821">
        <ele>123.9</ele>
        <time>2021-07-23T05:34:41Z</time>
      </trkpt>
      <trkpt lat="44.6264" lon="0.58829">
        <ele>125</ele>
        <time>2021-07-23T05:34:48Z</time>
      </trkpt>
      <trkpt lat="44.62646" lon="0.58836">
        <ele>125.8</ele>
        <time>2021-07-23T05:34:53Z</time>
      </trkpt>
      <trkpt lat="44.62657" lon="0.58842">
        <ele>126.8</ele>
        <time>2021-07-23T05:35:00Z</time>
      </trkpt>
      <trkpt lat="44.62666" lon="0.58842">
        <ele>127.3</ele>
        <time>2021-07-23T05:35:04Z</time>
      </trkpt>
      <trkpt lat="44.62668" lon="0.58843">
        <ele>127.5</ele>
        <time>2021-07-23T05:35:05Z</time>
      </trkpt>
      <trkpt lat="44.62686" lon="0.58853">
        <ele>127</ele>
        <time>2021-07-23T05:35:11Z</time>
      </trkpt>
      <trkpt lat="44.62704" lon="0.58869">
        <ele>125.1</ele>
        <time>2021-07-23T05:35:16Z</time>
      </trkpt>
      <trkpt lat="44.6271" lon="0.58873">
        <ele>124.4</ele>
        <time>2021-07-23T05:35:17Z</time>
      </trkpt>
      <trkpt lat="44.62728" lon="0.58885">
        <ele>123.1</ele>
        <time>2021-07-23T05:35:20Z</time>
      </trkpt>
      <trkpt lat="44.62741" lon="0.58887">
        <ele>123.1</ele>
        <time>2021-07-23T05:35:22Z</time>
      </trkpt>
      <trkpt lat="44.62746" lon="0.58886">
        <ele>123.2</ele>
        <time>2021-07-23T05:35:23Z</time>
      </trkpt>
      <trkpt lat="44.6276" lon="0.58881">
        <ele>123.8</ele>
        <time>2021-07-23T05:35:27Z</time>
      </trkpt>
      <trkpt lat="44.62771" lon="0.58875">
        <ele>124</ele>
        <time>2021-07-23T05:35:31Z</time>
      </trkpt>
      <trkpt lat="44.62782" lon="0.58873">
        <ele>123.9</ele>
        <time>2021-07-23T05:35:34Z</time>
      </trkpt>
      <trkpt lat="44.62786" lon="0.58874">
        <ele>123.8</ele>
        <time>2021-07-23T05:35:35Z</time>
      </trkpt>
      <trkpt lat="44.62797" lon="0.58884">
        <ele>123.1</ele>
        <time>2021-07-23T05:35:38Z</time>
      </trkpt>
      <trkpt lat="44.628" lon="0.58888">
        <ele>122.9</ele>
        <time>2021-07-23T05:35:39Z</time>
      </trkpt>
      <trkpt lat="44.62808" lon="0.58898">
        <ele>122.3</ele>
        <time>2021-07-23T05:35:41Z</time>
      </trkpt>
      <trkpt lat="44.62815" lon="0.58912">
        <ele>121.8</ele>
        <time>2021-07-23T05:35:43Z</time>
      </trkpt>
      <trkpt lat="44.62832" lon="0.58946">
        <ele>121.9</ele>
        <time>2021-07-23T05:35:48Z</time>
      </trkpt>
      <trkpt lat="44.62835" lon="0.5895">
        <ele>122.1</ele>
        <time>2021-07-23T05:35:49Z</time>
      </trkpt>
      <trkpt lat="44.62838" lon="0.58953">
        <ele>122.4</ele>
        <time>2021-07-23T05:35:50Z</time>
      </trkpt>
      <trkpt lat="44.62846" lon="0.58954">
        <ele>123</ele>
        <time>2021-07-23T05:35:52Z</time>
      </trkpt>
      <trkpt lat="44.62856" lon="0.58955">
        <ele>124</ele>
        <time>2021-07-23T05:35:56Z</time>
      </trkpt>
      <trkpt lat="44.62854" lon="0.58965">
        <ele>124.6</ele>
        <time>2021-07-23T05:36:00Z</time>
      </trkpt>
      <trkpt lat="44.62845" lon="0.58986">
        <ele>125.5</ele>
        <time>2021-07-23T05:36:06Z</time>
      </trkpt>
      <trkpt lat="44.62835" lon="0.59009">
        <ele>126.3</ele>
        <time>2021-07-23T05:36:13Z</time>
      </trkpt>
      <trkpt lat="44.62828" lon="0.59027">
        <ele>126.9</ele>
        <time>2021-07-23T05:36:18Z</time>
      </trkpt>
      <trkpt lat="44.62821" lon="0.5905">
        <ele>128.1</ele>
        <time>2021-07-23T05:36:25Z</time>
      </trkpt>
      <trkpt lat="44.62822" lon="0.59075">
        <ele>129.3</ele>
        <time>2021-07-23T05:36:32Z</time>
      </trkpt>
      <trkpt lat="44.6283" lon="0.59091">
        <ele>130.6</ele>
        <time>2021-07-23T05:36:38Z</time>
      </trkpt>
      <trkpt lat="44.62839" lon="0.5911">
        <ele>132.2</ele>
        <time>2021-07-23T05:36:45Z</time>
      </trkpt>
      <trkpt lat="44.62848" lon="0.59124">
        <ele>133.6</ele>
        <time>2021-07-23T05:36:51Z</time>
      </trkpt>
      <trkpt lat="44.62859" lon="0.59139">
        <ele>135.2</ele>
        <time>2021-07-23T05:36:58Z</time>
      </trkpt>
      <trkpt lat="44.62875" lon="0.5916">
        <ele>136.8</ele>
        <time>2021-07-23T05:37:08Z</time>
      </trkpt>
      <trkpt lat="44.62887" lon="0.59175">
        <ele>137.1</ele>
        <time>2021-07-23T05:37:15Z</time>
      </trkpt>
      <trkpt lat="44.62893" lon="0.59197">
        <ele>136.3</ele>
        <time>2021-07-23T05:37:21Z</time>
      </trkpt>
      <trkpt lat="44.62899" lon="0.59224">
        <ele>134.3</ele>
        <time>2021-07-23T05:37:25Z</time>
      </trkpt>
      <trkpt lat="44.62902" lon="0.59233">
        <ele>133.6</ele>
        <time>2021-07-23T05:37:26Z</time>
      </trkpt>
      <trkpt lat="44.62914" lon="0.59261">
        <ele>131.4</ele>
        <time>2021-07-23T05:37:29Z</time>
      </trkpt>
      <trkpt lat="44.62922" lon="0.59273">
        <ele>130.7</ele>
        <time>2021-07-23T05:37:30Z</time>
      </trkpt>
      <trkpt lat="44.62935" lon="0.59294">
        <ele>129.5</ele>
        <time>2021-07-23T05:37:32Z</time>
      </trkpt>
      <trkpt lat="44.62975" lon="0.59349">
        <ele>127.8</ele>
        <time>2021-07-23T05:37:38Z</time>
      </trkpt>
      <trkpt lat="44.62991" lon="0.59367">
        <ele>128.1</ele>
        <time>2021-07-23T05:37:40Z</time>
      </trkpt>
      <trkpt lat="44.63011" lon="0.59389">
        <ele>129.7</ele>
        <time>2021-07-23T05:37:44Z</time>
      </trkpt>
      <trkpt lat="44.63029" lon="0.59404">
        <ele>131.8</ele>
        <time>2021-07-23T05:37:49Z</time>
      </trkpt>
      <trkpt lat="44.63037" lon="0.59422">
        <ele>132.8</ele>
        <time>2021-07-23T05:37:54Z</time>
      </trkpt>
      <trkpt lat="44.63038" lon="0.59445">
        <ele>133.2</ele>
        <time>2021-07-23T05:38:00Z</time>
      </trkpt>
      <trkpt lat="44.63021" lon="0.59457">
        <ele>133.5</ele>
        <time>2021-07-23T05:38:05Z</time>
      </trkpt>
      <trkpt lat="44.6301" lon="0.59458">
        <ele>133.7</ele>
        <time>2021-07-23T05:38:06Z</time>
      </trkpt>
      <trkpt lat="44.62982" lon="0.59473">
        <ele>134.4</ele>
        <time>2021-07-23T05:38:13Z</time>
      </trkpt>
      <trkpt lat="44.62951" lon="0.59501">
        <ele>135.4</ele>
        <time>2021-07-23T05:38:23Z</time>
      </trkpt>
      <trkpt lat="44.62912" lon="0.59537">
        <ele>136.9</ele>
        <time>2021-07-23T05:38:35Z</time>
      </trkpt>
      <trkpt lat="44.62884" lon="0.59565">
        <ele>138.6</ele>
        <time>2021-07-23T05:38:44Z</time>
      </trkpt>
      <trkpt lat="44.62877" lon="0.59581">
        <ele>139.3</ele>
        <time>2021-07-23T05:38:48Z</time>
      </trkpt>
      <trkpt lat="44.62872" lon="0.59605">
        <ele>140.1</ele>
        <time>2021-07-23T05:38:54Z</time>
      </trkpt>
      <trkpt lat="44.62862" lon="0.59619">
        <ele>140.4</ele>
        <time>2021-07-23T05:38:58Z</time>
      </trkpt>
      <trkpt lat="44.62859" lon="0.59623">
        <ele>140.4</ele>
        <time>2021-07-23T05:38:59Z</time>
      </trkpt>
      <trkpt lat="44.62857" lon="0.59634">
        <ele>140.5</ele>
        <time>2021-07-23T05:39:01Z</time>
      </trkpt>
      <trkpt lat="44.62857" lon="0.59639">
        <ele>140.5</ele>
        <time>2021-07-23T05:39:02Z</time>
      </trkpt>
      <trkpt lat="44.62861" lon="0.59653">
        <ele>140.5</ele>
        <time>2021-07-23T05:39:05Z</time>
      </trkpt>
      <trkpt lat="44.62868" lon="0.59677">
        <ele>140.6</ele>
        <time>2021-07-23T05:39:10Z</time>
      </trkpt>
      <trkpt lat="44.62879" lon="0.59699">
        <ele>140.7</ele>
        <time>2021-07-23T05:39:15Z</time>
      </trkpt>
      <trkpt lat="44.62891" lon="0.59718">
        <ele>141</ele>
        <time>2021-07-23T05:39:20Z</time>
      </trkpt>
      <trkpt lat="44.629" lon="0.59745">
        <ele>141.3</ele>
        <time>2021-07-23T05:39:25Z</time>
      </trkpt>
      <trkpt lat="44.62901" lon="0.59771">
        <ele>141.5</ele>
        <time>2021-07-23T05:39:29Z</time>
      </trkpt>
      <trkpt lat="44.62896" lon="0.59804">
        <ele>141.6</ele>
        <time>2021-07-23T05:39:34Z</time>
      </trkpt>
      <trkpt lat="44.62894" lon="0.59826">
        <ele>141.8</ele>
        <time>2021-07-23T05:39:38Z</time>
      </trkpt>
      <trkpt lat="44.62901" lon="0.59858">
        <ele>141.8</ele>
        <time>2021-07-23T05:39:43Z</time>
      </trkpt>
      <trkpt lat="44.62918" lon="0.59889">
        <ele>141.8</ele>
        <time>2021-07-23T05:39:49Z</time>
      </trkpt>
      <trkpt lat="44.6292" lon="0.59894">
        <ele>141.8</ele>
        <time>2021-07-23T05:39:50Z</time>
      </trkpt>
      <trkpt lat="44.62926" lon="0.5992">
        <ele>141.7</ele>
        <time>2021-07-23T05:39:54Z</time>
      </trkpt>
      <trkpt lat="44.62935" lon="0.59958">
        <ele>141.3</ele>
        <time>2021-07-23T05:40:00Z</time>
      </trkpt>
      <trkpt lat="44.62942" lon="0.59988">
        <ele>140.9</ele>
        <time>2021-07-23T05:40:05Z</time>
      </trkpt>
      <trkpt lat="44.62949" lon="0.6002">
        <ele>140.5</ele>
        <time>2021-07-23T05:40:10Z</time>
      </trkpt>
      <trkpt lat="44.62962" lon="0.60063">
        <ele>140</ele>
        <time>2021-07-23T05:40:17Z</time>
      </trkpt>
      <trkpt lat="44.62964" lon="0.60077">
        <ele>139.9</ele>
        <time>2021-07-23T05:40:19Z</time>
      </trkpt>
      <trkpt lat="44.62969" lon="0.60103">
        <ele>139.7</ele>
        <time>2021-07-23T05:40:23Z</time>
      </trkpt>
      <trkpt lat="44.6298" lon="0.60145">
        <ele>139.5</ele>
        <time>2021-07-23T05:40:30Z</time>
      </trkpt>
      <trkpt lat="44.62981" lon="0.60152">
        <ele>139.5</ele>
        <time>2021-07-23T05:40:31Z</time>
      </trkpt>
      <trkpt lat="44.62985" lon="0.60171">
        <ele>139.3</ele>
        <time>2021-07-23T05:40:34Z</time>
      </trkpt>
      <trkpt lat="44.62987" lon="0.60184">
        <ele>139.2</ele>
        <time>2021-07-23T05:40:36Z</time>
      </trkpt>
      <trkpt lat="44.62992" lon="0.60204">
        <ele>139</ele>
        <time>2021-07-23T05:40:39Z</time>
      </trkpt>
      <trkpt lat="44.62996" lon="0.60226">
        <ele>138.8</ele>
        <time>2021-07-23T05:40:42Z</time>
      </trkpt>
      <trkpt lat="44.63009" lon="0.60281">
        <ele>138.1</ele>
        <time>2021-07-23T05:40:49Z</time>
      </trkpt>
      <trkpt lat="44.6302" lon="0.60332">
        <ele>137.3</ele>
        <time>2021-07-23T05:40:55Z</time>
      </trkpt>
      <trkpt lat="44.63034" lon="0.60388">
        <ele>136.5</ele>
        <time>2021-07-23T05:41:02Z</time>
      </trkpt>
      <trkpt lat="44.63035" lon="0.60396">
        <ele>136.3</ele>
        <time>2021-07-23T05:41:03Z</time>
      </trkpt>
      <trkpt lat="44.63031" lon="0.60411">
        <ele>136</ele>
        <time>2021-07-23T05:41:05Z</time>
      </trkpt>
      <trkpt lat="44.63011" lon="0.60431">
        <ele>135.3</ele>
        <time>2021-07-23T05:41:09Z</time>
      </trkpt>
      <trkpt lat="44.62985" lon="0.6046">
        <ele>134.4</ele>
        <time>2021-07-23T05:41:15Z</time>
      </trkpt>
      <trkpt lat="44.62986" lon="0.60476">
        <ele>133.9</ele>
        <time>2021-07-23T05:41:17Z</time>
      </trkpt>
      <trkpt lat="44.63" lon="0.60494">
        <ele>132.6</ele>
        <time>2021-07-23T05:41:20Z</time>
      </trkpt>
      <trkpt lat="44.63029" lon="0.60526">
        <ele>129.7</ele>
        <time>2021-07-23T05:41:25Z</time>
      </trkpt>
      <trkpt lat="44.63072" lon="0.60576">
        <ele>126.3</ele>
        <time>2021-07-23T05:41:31Z</time>
      </trkpt>
      <trkpt lat="44.63116" lon="0.60625">
        <ele>124.3</ele>
        <time>2021-07-23T05:41:37Z</time>
      </trkpt>
      <trkpt lat="44.63138" lon="0.60649">
        <ele>124.1</ele>
        <time>2021-07-23T05:41:40Z</time>
      </trkpt>
      <trkpt lat="44.63161" lon="0.60676">
        <ele>124.9</ele>
        <time>2021-07-23T05:41:44Z</time>
      </trkpt>
      <trkpt lat="44.63188" lon="0.60708">
        <ele>126</ele>
        <time>2021-07-23T05:41:50Z</time>
      </trkpt>
      <trkpt lat="44.63218" lon="0.60742">
        <ele>126.4</ele>
        <time>2021-07-23T05:41:57Z</time>
      </trkpt>
      <trkpt lat="44.63251" lon="0.60782">
        <ele>125.3</ele>
        <time>2021-07-23T05:42:04Z</time>
      </trkpt>
      <trkpt lat="44.63287" lon="0.60824">
        <ele>122.1</ele>
        <time>2021-07-23T05:42:10Z</time>
      </trkpt>
      <trkpt lat="44.63322" lon="0.60864">
        <ele>120.1</ele>
        <time>2021-07-23T05:42:15Z</time>
      </trkpt>
      <trkpt lat="44.63344" lon="0.60896">
        <ele>119.9</ele>
        <time>2021-07-23T05:42:19Z</time>
      </trkpt>
      <trkpt lat="44.6337" lon="0.60936">
        <ele>119.9</ele>
        <time>2021-07-23T05:42:25Z</time>
      </trkpt>
      <trkpt lat="44.63412" lon="0.60995">
        <ele>120.4</ele>
        <time>2021-07-23T05:42:35Z</time>
      </trkpt>
      <trkpt lat="44.6342" lon="0.61007">
        <ele>120.5</ele>
        <time>2021-07-23T05:42:37Z</time>
      </trkpt>
      <trkpt lat="44.63423" lon="0.61013">
        <ele>120.5</ele>
        <time>2021-07-23T05:42:38Z</time>
      </trkpt>
      <trkpt lat="44.63425" lon="0.61027">
        <ele>120.5</ele>
        <time>2021-07-23T05:42:40Z</time>
      </trkpt>
      <trkpt lat="44.63426" lon="0.61054">
        <ele>120.5</ele>
        <time>2021-07-23T05:42:44Z</time>
      </trkpt>
      <trkpt lat="44.63432" lon="0.61075">
        <ele>120.3</ele>
        <time>2021-07-23T05:42:47Z</time>
      </trkpt>
      <trkpt lat="44.63435" lon="0.61089">
        <ele>120.2</ele>
        <time>2021-07-23T05:42:49Z</time>
      </trkpt>
      <trkpt lat="44.63434" lon="0.61103">
        <ele>120</ele>
        <time>2021-07-23T05:42:51Z</time>
      </trkpt>
      <trkpt lat="44.63426" lon="0.61112">
        <ele>119.8</ele>
        <time>2021-07-23T05:42:53Z</time>
      </trkpt>
      <trkpt lat="44.6342" lon="0.61113">
        <ele>119.6</ele>
        <time>2021-07-23T05:42:54Z</time>
      </trkpt>
      <trkpt lat="44.6338" lon="0.61127">
        <ele>117.3</ele>
        <time>2021-07-23T05:43:01Z</time>
      </trkpt>
      <trkpt lat="44.63374" lon="0.61132">
        <ele>116.4</ele>
        <time>2021-07-23T05:43:02Z</time>
      </trkpt>
      <trkpt lat="44.63371" lon="0.61139">
        <ele>115.5</ele>
        <time>2021-07-23T05:43:03Z</time>
      </trkpt>
      <trkpt lat="44.63369" lon="0.61148">
        <ele>114.4</ele>
        <time>2021-07-23T05:43:04Z</time>
      </trkpt>
      <trkpt lat="44.63369" lon="0.61157">
        <ele>113.3</ele>
        <time>2021-07-23T05:43:05Z</time>
      </trkpt>
      <trkpt lat="44.63373" lon="0.61177">
        <ele>110.9</ele>
        <time>2021-07-23T05:43:07Z</time>
      </trkpt>
      <trkpt lat="44.6339" lon="0.61243">
        <ele>104.7</ele>
        <time>2021-07-23T05:43:12Z</time>
      </trkpt>
      <trkpt lat="44.63408" lon="0.61311">
        <ele>101.7</ele>
        <time>2021-07-23T05:43:17Z</time>
      </trkpt>
      <trkpt lat="44.63427" lon="0.61383">
        <ele>100.4</ele>
        <time>2021-07-23T05:43:23Z</time>
      </trkpt>
      <trkpt lat="44.63429" lon="0.61394">
        <ele>100.4</ele>
        <time>2021-07-23T05:43:24Z</time>
      </trkpt>
      <trkpt lat="44.63441" lon="0.61444">
        <ele>100.4</ele>
        <time>2021-07-23T05:43:29Z</time>
      </trkpt>
      <trkpt lat="44.63445" lon="0.61461">
        <ele>100.2</ele>
        <time>2021-07-23T05:43:31Z</time>
      </trkpt>
      <trkpt lat="44.63449" lon="0.61478">
        <ele>99.9</ele>
        <time>2021-07-23T05:43:33Z</time>
      </trkpt>
      <trkpt lat="44.63451" lon="0.61487">
        <ele>99.7</ele>
        <time>2021-07-23T05:43:34Z</time>
      </trkpt>
      <trkpt lat="44.63453" lon="0.61496">
        <ele>99.6</ele>
        <time>2021-07-23T05:43:35Z</time>
      </trkpt>
      <trkpt lat="44.63453" lon="0.6151">
        <ele>99.3</ele>
        <time>2021-07-23T05:43:37Z</time>
      </trkpt>
      <trkpt lat="44.63447" lon="0.61518">
        <ele>99</ele>
        <time>2021-07-23T05:43:39Z</time>
      </trkpt>
      <trkpt lat="44.63443" lon="0.61518">
        <ele>98.9</ele>
        <time>2021-07-23T05:43:40Z</time>
      </trkpt>
      <trkpt lat="44.63424" lon="0.61518">
        <ele>98.4</ele>
        <time>2021-07-23T05:43:44Z</time>
      </trkpt>
      <trkpt lat="44.63391" lon="0.61521">
        <ele>99.2</ele>
        <time>2021-07-23T05:43:51Z</time>
      </trkpt>
      <trkpt lat="44.63374" lon="0.61523">
        <ele>100.1</ele>
        <time>2021-07-23T05:43:56Z</time>
      </trkpt>
      <trkpt lat="44.63351" lon="0.61525">
        <ele>101.9</ele>
        <time>2021-07-23T05:44:03Z</time>
      </trkpt>
      <trkpt lat="44.63332" lon="0.61529">
        <ele>103.5</ele>
        <time>2021-07-23T05:44:09Z</time>
      </trkpt>
      <trkpt lat="44.63317" lon="0.61532">
        <ele>104.7</ele>
        <time>2021-07-23T05:44:15Z</time>
      </trkpt>
      <trkpt lat="44.63306" lon="0.61536">
        <ele>105.6</ele>
        <time>2021-07-23T05:44:20Z</time>
      </trkpt>
      <trkpt lat="44.63292" lon="0.61548">
        <ele>106.6</ele>
        <time>2021-07-23T05:44:25Z</time>
      </trkpt>
      <trkpt lat="44.6327" lon="0.61567">
        <ele>108.2</ele>
        <time>2021-07-23T05:44:33Z</time>
      </trkpt>
      <trkpt lat="44.63249" lon="0.61581">
        <ele>109.4</ele>
        <time>2021-07-23T05:44:41Z</time>
      </trkpt>
      <trkpt lat="44.63226" lon="0.61585">
        <ele>109.3</ele>
        <time>2021-07-23T05:44:48Z</time>
      </trkpt>
      <trkpt lat="44.63207" lon="0.61586">
        <ele>109</ele>
        <time>2021-07-23T05:44:53Z</time>
      </trkpt>
      <trkpt lat="44.6319" lon="0.6159">
        <ele>108.6</ele>
        <time>2021-07-23T05:44:57Z</time>
      </trkpt>
      <trkpt lat="44.63185" lon="0.61592">
        <ele>108.4</ele>
        <time>2021-07-23T05:44:58Z</time>
      </trkpt>
      <trkpt lat="44.63156" lon="0.61596">
        <ele>107.3</ele>
        <time>2021-07-23T05:45:03Z</time>
      </trkpt>
      <trkpt lat="44.63113" lon="0.61592">
        <ele>105.2</ele>
        <time>2021-07-23T05:45:10Z</time>
      </trkpt>
      <trkpt lat="44.63061" lon="0.61588">
        <ele>102.2</ele>
        <time>2021-07-23T05:45:17Z</time>
      </trkpt>
      <trkpt lat="44.63001" lon="0.61583">
        <ele>101</ele>
        <time>2021-07-23T05:45:25Z</time>
      </trkpt>
      <trkpt lat="44.62978" lon="0.6158">
        <ele>101.5</ele>
        <time>2021-07-23T05:45:29Z</time>
      </trkpt>
      <trkpt lat="44.62953" lon="0.61578">
        <ele>102.2</ele>
        <time>2021-07-23T05:45:34Z</time>
      </trkpt>
      <trkpt lat="44.6294" lon="0.61578">
        <ele>102.5</ele>
        <time>2021-07-23T05:45:37Z</time>
      </trkpt>
      <trkpt lat="44.62931" lon="0.61582">
        <ele>102.6</ele>
        <time>2021-07-23T05:45:39Z</time>
      </trkpt>
      <trkpt lat="44.62926" lon="0.61592">
        <ele>102.2</ele>
        <time>2021-07-23T05:45:41Z</time>
      </trkpt>
      <trkpt lat="44.62924" lon="0.61599">
        <ele>102</ele>
        <time>2021-07-23T05:45:42Z</time>
      </trkpt>
      <trkpt lat="44.62924" lon="0.61607">
        <ele>101.7</ele>
        <time>2021-07-23T05:45:43Z</time>
      </trkpt>
      <trkpt lat="44.62921" lon="0.61639">
        <ele>100.8</ele>
        <time>2021-07-23T05:45:47Z</time>
      </trkpt>
      <trkpt lat="44.62908" lon="0.61708">
        <ele>98.7</ele>
        <time>2021-07-23T05:45:55Z</time>
      </trkpt>
      <trkpt lat="44.62903" lon="0.61726">
        <ele>98</ele>
        <time>2021-07-23T05:45:57Z</time>
      </trkpt>
      <trkpt lat="44.62891" lon="0.61751">
        <ele>96.7</ele>
        <time>2021-07-23T05:46:00Z</time>
      </trkpt>
      <trkpt lat="44.62862" lon="0.61792">
        <ele>94.1</ele>
        <time>2021-07-23T05:46:05Z</time>
      </trkpt>
      <trkpt lat="44.62812" lon="0.61841">
        <ele>92.2</ele>
        <time>2021-07-23T05:46:12Z</time>
      </trkpt>
      <trkpt lat="44.62767" lon="0.61884">
        <ele>90.4</ele>
        <time>2021-07-23T05:46:19Z</time>
      </trkpt>
      <trkpt lat="44.6272" lon="0.61936">
        <ele>87.2</ele>
        <time>2021-07-23T05:46:26Z</time>
      </trkpt>
      <trkpt lat="44.62676" lon="0.61979">
        <ele>84.8</ele>
        <time>2021-07-23T05:46:32Z</time>
      </trkpt>
      <trkpt lat="44.62626" lon="0.62016">
        <ele>83.9</ele>
        <time>2021-07-23T05:46:39Z</time>
      </trkpt>
      <trkpt lat="44.62619" lon="0.6202">
        <ele>83.8</ele>
        <time>2021-07-23T05:46:40Z</time>
      </trkpt>
      <trkpt lat="44.62585" lon="0.62033">
        <ele>83.6</ele>
        <time>2021-07-23T05:46:45Z</time>
      </trkpt>
      <trkpt lat="44.62572" lon="0.62035">
        <ele>83.6</ele>
        <time>2021-07-23T05:46:47Z</time>
      </trkpt>
      <trkpt lat="44.6256" lon="0.62043">
        <ele>83.5</ele>
        <time>2021-07-23T05:46:49Z</time>
      </trkpt>
      <trkpt lat="44.62554" lon="0.6206">
        <ele>83.1</ele>
        <time>2021-07-23T05:46:51Z</time>
      </trkpt>
      <trkpt lat="44.62544" lon="0.62134">
        <ele>82.2</ele>
        <time>2021-07-23T05:46:59Z</time>
      </trkpt>
      <trkpt lat="44.62541" lon="0.62153">
        <ele>82</ele>
        <time>2021-07-23T05:47:01Z</time>
      </trkpt>
      <trkpt lat="44.62529" lon="0.62226">
        <ele>81.6</ele>
        <time>2021-07-23T05:47:09Z</time>
      </trkpt>
      <trkpt lat="44.62524" lon="0.62268">
        <ele>81.5</ele>
        <time>2021-07-23T05:47:14Z</time>
      </trkpt>
      <trkpt lat="44.62522" lon="0.62275">
        <ele>81.6</ele>
        <time>2021-07-23T05:47:15Z</time>
      </trkpt>
      <trkpt lat="44.62519" lon="0.6228">
        <ele>81.6</ele>
        <time>2021-07-23T05:47:16Z</time>
      </trkpt>
      <trkpt lat="44.6251" lon="0.62281">
        <ele>81.5</ele>
        <time>2021-07-23T05:47:18Z</time>
      </trkpt>
      <trkpt lat="44.62502" lon="0.62273">
        <ele>81.3</ele>
        <time>2021-07-23T05:47:20Z</time>
      </trkpt>
      <trkpt lat="44.62497" lon="0.62269">
        <ele>81.2</ele>
        <time>2021-07-23T05:47:21Z</time>
      </trkpt>
      <trkpt lat="44.62473" lon="0.6225">
        <ele>81.2</ele>
        <time>2021-07-23T05:47:26Z</time>
      </trkpt>
      <trkpt lat="44.62452" lon="0.62237">
        <ele>81.4</ele>
        <time>2021-07-23T05:47:30Z</time>
      </trkpt>
      <trkpt lat="44.62448" lon="0.62233">
        <ele>81.5</ele>
        <time>2021-07-23T05:47:31Z</time>
      </trkpt>
      <trkpt lat="44.62434" lon="0.62225">
        <ele>81.8</ele>
        <time>2021-07-23T05:47:34Z</time>
      </trkpt>
      <trkpt lat="44.62425" lon="0.6222">
        <ele>81.9</ele>
        <time>2021-07-23T05:47:36Z</time>
      </trkpt>
      <trkpt lat="44.62406" lon="0.62207">
        <ele>82.6</ele>
        <time>2021-07-23T05:47:41Z</time>
      </trkpt>
      <trkpt lat="44.62397" lon="0.62205">
        <ele>82.9</ele>
        <time>2021-07-23T05:47:43Z</time>
      </trkpt>
      <trkpt lat="44.6238" lon="0.62203">
        <ele>83.5</ele>
        <time>2021-07-23T05:47:48Z</time>
      </trkpt>
      <trkpt lat="44.62361" lon="0.62205">
        <ele>84</ele>
        <time>2021-07-23T05:47:53Z</time>
      </trkpt>
      <trkpt lat="44.62325" lon="0.62212">
        <ele>84.5</ele>
        <time>2021-07-23T05:48:03Z</time>
      </trkpt>
      <trkpt lat="44.62304" lon="0.62217">
        <ele>85.1</ele>
        <time>2021-07-23T05:48:09Z</time>
      </trkpt>
      <trkpt lat="44.62284" lon="0.6222">
        <ele>85.7</ele>
        <time>2021-07-23T05:48:14Z</time>
      </trkpt>
      <trkpt lat="44.6225" lon="0.62222">
        <ele>86.8</ele>
        <time>2021-07-23T05:48:23Z</time>
      </trkpt>
      <trkpt lat="44.62231" lon="0.62215">
        <ele>87.6</ele>
        <time>2021-07-23T05:48:28Z</time>
      </trkpt>
      <trkpt lat="44.62214" lon="0.62204">
        <ele>88.7</ele>
        <time>2021-07-23T05:48:33Z</time>
      </trkpt>
      <trkpt lat="44.62192" lon="0.62186">
        <ele>90.3</ele>
        <time>2021-07-23T05:48:41Z</time>
      </trkpt>
      <trkpt lat="44.62182" lon="0.62178">
        <ele>91.7</ele>
        <time>2021-07-23T05:48:46Z</time>
      </trkpt>
      <trkpt lat="44.62171" lon="0.6217">
        <ele>93.2</ele>
        <time>2021-07-23T05:48:52Z</time>
      </trkpt>
      <trkpt lat="44.62162" lon="0.62162">
        <ele>94.7</ele>
        <time>2021-07-23T05:48:58Z</time>
      </trkpt>
      <trkpt lat="44.62153" lon="0.62153">
        <ele>96.3</ele>
        <time>2021-07-23T05:49:05Z</time>
      </trkpt>
      <trkpt lat="44.62144" lon="0.62148">
        <ele>97.5</ele>
        <time>2021-07-23T05:49:11Z</time>
      </trkpt>
      <trkpt lat="44.62143" lon="0.62148">
        <ele>97.7</ele>
        <time>2021-07-23T05:49:12Z</time>
      </trkpt>
      <trkpt lat="44.62135" lon="0.62147">
        <ele>98.9</ele>
        <time>2021-07-23T05:49:18Z</time>
      </trkpt>
      <trkpt lat="44.62132" lon="0.62146">
        <ele>99.4</ele>
        <time>2021-07-23T05:49:20Z</time>
      </trkpt>
      <trkpt lat="44.62125" lon="0.62149">
        <ele>100.5</ele>
        <time>2021-07-23T05:49:24Z</time>
      </trkpt>
      <trkpt lat="44.62118" lon="0.62153">
        <ele>101.8</ele>
        <time>2021-07-23T05:49:29Z</time>
      </trkpt>
      <trkpt lat="44.62115" lon="0.62155">
        <ele>102.2</ele>
        <time>2021-07-23T05:49:31Z</time>
      </trkpt>
      <trkpt lat="44.62113" lon="0.62156">
        <ele>102.5</ele>
        <time>2021-07-23T05:49:32Z</time>
      </trkpt>
      <trkpt lat="44.62104" lon="0.62164">
        <ele>104.1</ele>
        <time>2021-07-23T05:49:39Z</time>
      </trkpt>
      <trkpt lat="44.62095" lon="0.62172">
        <ele>105.7</ele>
        <time>2021-07-23T05:49:47Z</time>
      </trkpt>
      <trkpt lat="44.62093" lon="0.62178">
        <ele>106.3</ele>
        <time>2021-07-23T05:49:51Z</time>
      </trkpt>
      <trkpt lat="44.6209" lon="0.6218">
        <ele>106.7</ele>
        <time>2021-07-23T05:49:54Z</time>
      </trkpt>
      <trkpt lat="44.6209" lon="0.62181">
        <ele>106.9</ele>
        <time>2021-07-23T05:49:55Z</time>
      </trkpt>
      <trkpt lat="44.62085" lon="0.62192">
        <ele>108.1</ele>
        <time>2021-07-23T05:50:02Z</time>
      </trkpt>
      <trkpt lat="44.6208" lon="0.62199">
        <ele>108.9</ele>
        <time>2021-07-23T05:50:08Z</time>
      </trkpt>
      <trkpt lat="44.62076" lon="0.62206">
        <ele>109.8</ele>
        <time>2021-07-23T05:50:13Z</time>
      </trkpt>
      <trkpt lat="44.6207" lon="0.62215">
        <ele>110.8</ele>
        <time>2021-07-23T05:50:20Z</time>
      </trkpt>
      <trkpt lat="44.62067" lon="0.62224">
        <ele>111.5</ele>
        <time>2021-07-23T05:50:26Z</time>
      </trkpt>
      <trkpt lat="44.62065" lon="0.6223">
        <ele>112</ele>
        <time>2021-07-23T05:50:31Z</time>
      </trkpt>
      <trkpt lat="44.62062" lon="0.62237">
        <ele>112.6</ele>
        <time>2021-07-23T05:50:35Z</time>
      </trkpt>
      <trkpt lat="44.62055" lon="0.62248">
        <ele>113.9</ele>
        <time>2021-07-23T05:50:42Z</time>
      </trkpt>
      <trkpt lat="44.62051" lon="0.62252">
        <ele>114.4</ele>
        <time>2021-07-23T05:50:45Z</time>
      </trkpt>
      <trkpt lat="44.62049" lon="0.62257">
        <ele>115</ele>
        <time>2021-07-23T05:50:48Z</time>
      </trkpt>
      <trkpt lat="44.62046" lon="0.62261">
        <ele>115.4</ele>
        <time>2021-07-23T05:50:51Z</time>
      </trkpt>
      <trkpt lat="44.62043" lon="0.62265">
        <ele>115.9</ele>
        <time>2021-07-23T05:50:54Z</time>
      </trkpt>
      <trkpt lat="44.62034" lon="0.62281">
        <ele>117.5</ele>
        <time>2021-07-23T05:51:04Z</time>
      </trkpt>
      <trkpt lat="44.62027" lon="0.62293">
        <ele>118.6</ele>
        <time>2021-07-23T05:51:11Z</time>
      </trkpt>
      <trkpt lat="44.62024" lon="0.62301">
        <ele>119.2</ele>
        <time>2021-07-23T05:51:16Z</time>
      </trkpt>
      <trkpt lat="44.62016" lon="0.6231">
        <ele>119.9</ele>
        <time>2021-07-23T05:51:23Z</time>
      </trkpt>
      <trkpt lat="44.62013" lon="0.6232">
        <ele>120.2</ele>
        <time>2021-07-23T05:51:29Z</time>
      </trkpt>
      <trkpt lat="44.62011" lon="0.62321">
        <ele>120.2</ele>
        <time>2021-07-23T05:51:30Z</time>
      </trkpt>
      <trkpt lat="44.62005" lon="0.62327">
        <ele>120.1</ele>
        <time>2021-07-23T05:51:35Z</time>
      </trkpt>
      <trkpt lat="44.61999" lon="0.62332">
        <ele>120.2</ele>
        <time>2021-07-23T05:51:40Z</time>
      </trkpt>
      <trkpt lat="44.61993" lon="0.62339">
        <ele>120.5</ele>
        <time>2021-07-23T05:51:45Z</time>
      </trkpt>
      <trkpt lat="44.61988" lon="0.62349">
        <ele>120.8</ele>
        <time>2021-07-23T05:51:51Z</time>
      </trkpt>
      <trkpt lat="44.61981" lon="0.62365">
        <ele>121.2</ele>
        <time>2021-07-23T05:51:57Z</time>
      </trkpt>
      <trkpt lat="44.61977" lon="0.62375">
        <ele>121.5</ele>
        <time>2021-07-23T05:52:01Z</time>
      </trkpt>
      <trkpt lat="44.61969" lon="0.62394">
        <ele>122</ele>
        <time>2021-07-23T05:52:08Z</time>
      </trkpt>
      <trkpt lat="44.61961" lon="0.62412">
        <ele>122.7</ele>
        <time>2021-07-23T05:52:14Z</time>
      </trkpt>
      <trkpt lat="44.6195" lon="0.62434">
        <ele>123.4</ele>
        <time>2021-07-23T05:52:21Z</time>
      </trkpt>
      <trkpt lat="44.61939" lon="0.62452">
        <ele>124</ele>
        <time>2021-07-23T05:52:27Z</time>
      </trkpt>
      <trkpt lat="44.61927" lon="0.62472">
        <ele>124.6</ele>
        <time>2021-07-23T05:52:33Z</time>
      </trkpt>
      <trkpt lat="44.61914" lon="0.62492">
        <ele>125.2</ele>
        <time>2021-07-23T05:52:39Z</time>
      </trkpt>
      <trkpt lat="44.61905" lon="0.6252">
        <ele>125.8</ele>
        <time>2021-07-23T05:52:45Z</time>
      </trkpt>
      <trkpt lat="44.61892" lon="0.62554">
        <ele>126.6</ele>
        <time>2021-07-23T05:52:52Z</time>
      </trkpt>
      <trkpt lat="44.6189" lon="0.62581">
        <ele>127.5</ele>
        <time>2021-07-23T05:52:57Z</time>
      </trkpt>
      <trkpt lat="44.61883" lon="0.62607">
        <ele>128.4</ele>
        <time>2021-07-23T05:53:03Z</time>
      </trkpt>
      <trkpt lat="44.61879" lon="0.62624">
        <ele>128.8</ele>
        <time>2021-07-23T05:53:07Z</time>
      </trkpt>
      <trkpt lat="44.61871" lon="0.62652">
        <ele>129.5</ele>
        <time>2021-07-23T05:53:13Z</time>
      </trkpt>
      <trkpt lat="44.61863" lon="0.62675">
        <ele>130</ele>
        <time>2021-07-23T05:53:18Z</time>
      </trkpt>
      <trkpt lat="44.6185" lon="0.62702">
        <ele>130.7</ele>
        <time>2021-07-23T05:53:25Z</time>
      </trkpt>
      <trkpt lat="44.61833" lon="0.62726">
        <ele>131.6</ele>
        <time>2021-07-23T05:53:32Z</time>
      </trkpt>
      <trkpt lat="44.61817" lon="0.62745">
        <ele>132.5</ele>
        <time>2021-07-23T05:53:38Z</time>
      </trkpt>
      <trkpt lat="44.61802" lon="0.62762">
        <ele>133.2</ele>
        <time>2021-07-23T05:53:44Z</time>
      </trkpt>
      <trkpt lat="44.61786" lon="0.62781">
        <ele>134.1</ele>
        <time>2021-07-23T05:53:50Z</time>
      </trkpt>
      <trkpt lat="44.61769" lon="0.628">
        <ele>134.9</ele>
        <time>2021-07-23T05:53:56Z</time>
      </trkpt>
      <trkpt lat="44.61752" lon="0.62813">
        <ele>135.7</ele>
        <time>2021-07-23T05:54:02Z</time>
      </trkpt>
      <trkpt lat="44.61731" lon="0.62835">
        <ele>136.8</ele>
        <time>2021-07-23T05:54:10Z</time>
      </trkpt>
      <trkpt lat="44.6171" lon="0.62859">
        <ele>137.9</ele>
        <time>2021-07-23T05:54:18Z</time>
      </trkpt>
      <trkpt lat="44.61694" lon="0.62881">
        <ele>138.7</ele>
        <time>2021-07-23T05:54:25Z</time>
      </trkpt>
      <trkpt lat="44.6168" lon="0.62905">
        <ele>139.6</ele>
        <time>2021-07-23T05:54:32Z</time>
      </trkpt>
      <trkpt lat="44.61663" lon="0.62942">
        <ele>140.6</ele>
        <time>2021-07-23T05:54:41Z</time>
      </trkpt>
      <trkpt lat="44.61649" lon="0.62971">
        <ele>141.2</ele>
        <time>2021-07-23T05:54:48Z</time>
      </trkpt>
      <trkpt lat="44.6164" lon="0.63004">
        <ele>141.9</ele>
        <time>2021-07-23T05:54:55Z</time>
      </trkpt>
      <trkpt lat="44.61631" lon="0.63028">
        <ele>142.4</ele>
        <time>2021-07-23T05:55:01Z</time>
      </trkpt>
      <trkpt lat="44.61621" lon="0.63052">
        <ele>142.8</ele>
        <time>2021-07-23T05:55:07Z</time>
      </trkpt>
      <trkpt lat="44.61612" lon="0.63074">
        <ele>143</ele>
        <time>2021-07-23T05:55:12Z</time>
      </trkpt>
      <trkpt lat="44.61603" lon="0.63103">
        <ele>143.1</ele>
        <time>2021-07-23T05:55:19Z</time>
      </trkpt>
      <trkpt lat="44.61594" lon="0.63133">
        <ele>143.1</ele>
        <time>2021-07-23T05:55:24Z</time>
      </trkpt>
      <trkpt lat="44.61579" lon="0.63178">
        <ele>143.2</ele>
        <time>2021-07-23T05:55:31Z</time>
      </trkpt>
      <trkpt lat="44.61564" lon="0.63218">
        <ele>143.4</ele>
        <time>2021-07-23T05:55:37Z</time>
      </trkpt>
      <trkpt lat="44.6155" lon="0.63248">
        <ele>143.2</ele>
        <time>2021-07-23T05:55:43Z</time>
      </trkpt>
      <trkpt lat="44.61536" lon="0.6327">
        <ele>142.9</ele>
        <time>2021-07-23T05:55:48Z</time>
      </trkpt>
      <trkpt lat="44.6152" lon="0.63304">
        <ele>142</ele>
        <time>2021-07-23T05:55:53Z</time>
      </trkpt>
      <trkpt lat="44.61516" lon="0.63312">
        <ele>141.9</ele>
        <time>2021-07-23T05:55:54Z</time>
      </trkpt>
      <trkpt lat="44.615" lon="0.63338">
        <ele>141.7</ele>
        <time>2021-07-23T05:55:58Z</time>
      </trkpt>
      <trkpt lat="44.61489" lon="0.63354">
        <ele>141.8</ele>
        <time>2021-07-23T05:56:01Z</time>
      </trkpt>
      <trkpt lat="44.61483" lon="0.63365">
        <ele>142</ele>
        <time>2021-07-23T05:56:03Z</time>
      </trkpt>
      <trkpt lat="44.61477" lon="0.63376">
        <ele>142.2</ele>
        <time>2021-07-23T05:56:05Z</time>
      </trkpt>
      <trkpt lat="44.61466" lon="0.63398">
        <ele>142.8</ele>
        <time>2021-07-23T05:56:09Z</time>
      </trkpt>
      <trkpt lat="44.61454" lon="0.63426">
        <ele>143.6</ele>
        <time>2021-07-23T05:56:14Z</time>
      </trkpt>
      <trkpt lat="44.61447" lon="0.63449">
        <ele>144.1</ele>
        <time>2021-07-23T05:56:18Z</time>
      </trkpt>
      <trkpt lat="44.61445" lon="0.63456">
        <ele>144.2</ele>
        <time>2021-07-23T05:56:19Z</time>
      </trkpt>
      <trkpt lat="44.61443" lon="0.63468">
        <ele>144.3</ele>
        <time>2021-07-23T05:56:21Z</time>
      </trkpt>
      <trkpt lat="44.61442" lon="0.63485">
        <ele>144.5</ele>
        <time>2021-07-23T05:56:24Z</time>
      </trkpt>
      <trkpt lat="44.61436" lon="0.63506">
        <ele>144.9</ele>
        <time>2021-07-23T05:56:28Z</time>
      </trkpt>
      <trkpt lat="44.61423" lon="0.6354">
        <ele>145.5</ele>
        <time>2021-07-23T05:56:35Z</time>
      </trkpt>
      <trkpt lat="44.61412" lon="0.63569">
        <ele>145.9</ele>
        <time>2021-07-23T05:56:41Z</time>
      </trkpt>
      <trkpt lat="44.61402" lon="0.63593">
        <ele>146.2</ele>
        <time>2021-07-23T05:56:46Z</time>
      </trkpt>
      <trkpt lat="44.61392" lon="0.63625">
        <ele>146.7</ele>
        <time>2021-07-23T05:56:52Z</time>
      </trkpt>
      <trkpt lat="44.6139" lon="0.63637">
        <ele>146.9</ele>
        <time>2021-07-23T05:56:54Z</time>
      </trkpt>
      <trkpt lat="44.6139" lon="0.63647">
        <ele>147</ele>
        <time>2021-07-23T05:56:56Z</time>
      </trkpt>
      <trkpt lat="44.61384" lon="0.6369">
        <ele>147.5</ele>
        <time>2021-07-23T05:57:04Z</time>
      </trkpt>
      <trkpt lat="44.61376" lon="0.63732">
        <ele>147.9</ele>
        <time>2021-07-23T05:57:12Z</time>
      </trkpt>
      <trkpt lat="44.61367" lon="0.63775">
        <ele>148.3</ele>
        <time>2021-07-23T05:57:20Z</time>
      </trkpt>
      <trkpt lat="44.61362" lon="0.63803">
        <ele>148.9</ele>
        <time>2021-07-23T05:57:26Z</time>
      </trkpt>
      <trkpt lat="44.61357" lon="0.63836">
        <ele>149.3</ele>
        <time>2021-07-23T05:57:32Z</time>
      </trkpt>
      <trkpt lat="44.61353" lon="0.63869">
        <ele>149.5</ele>
        <time>2021-07-23T05:57:38Z</time>
      </trkpt>
      <trkpt lat="44.61345" lon="0.6391">
        <ele>149.4</ele>
        <time>2021-07-23T05:57:46Z</time>
      </trkpt>
      <trkpt lat="44.61338" lon="0.63954">
        <ele>148.9</ele>
        <time>2021-07-23T05:57:53Z</time>
      </trkpt>
      <trkpt lat="44.61337" lon="0.63961">
        <ele>148.8</ele>
        <time>2021-07-23T05:57:54Z</time>
      </trkpt>
      <trkpt lat="44.61327" lon="0.63997">
        <ele>148.7</ele>
        <time>2021-07-23T05:57:59Z</time>
      </trkpt>
      <trkpt lat="44.61316" lon="0.64028">
        <ele>148.6</ele>
        <time>2021-07-23T05:58:04Z</time>
      </trkpt>
      <trkpt lat="44.61303" lon="0.64058">
        <ele>148.6</ele>
        <time>2021-07-23T05:58:10Z</time>
      </trkpt>
      <trkpt lat="44.61291" lon="0.64087">
        <ele>148.3</ele>
        <time>2021-07-23T05:58:16Z</time>
      </trkpt>
      <trkpt lat="44.61288" lon="0.64098">
        <ele>148.2</ele>
        <time>2021-07-23T05:58:18Z</time>
      </trkpt>
      <trkpt lat="44.61287" lon="0.64118">
        <ele>148</ele>
        <time>2021-07-23T05:58:21Z</time>
      </trkpt>
      <trkpt lat="44.61283" lon="0.64138">
        <ele>148</ele>
        <time>2021-07-23T05:58:24Z</time>
      </trkpt>
      <trkpt lat="44.61278" lon="0.64156">
        <ele>148</ele>
        <time>2021-07-23T05:58:27Z</time>
      </trkpt>
      <trkpt lat="44.6127" lon="0.64182">
        <ele>148.1</ele>
        <time>2021-07-23T05:58:32Z</time>
      </trkpt>
      <trkpt lat="44.6126" lon="0.64202">
        <ele>147.9</ele>
        <time>2021-07-23T05:58:36Z</time>
      </trkpt>
      <trkpt lat="44.61253" lon="0.64213">
        <ele>147.8</ele>
        <time>2021-07-23T05:58:38Z</time>
      </trkpt>
      <trkpt lat="44.61249" lon="0.64219">
        <ele>147.7</ele>
        <time>2021-07-23T05:58:39Z</time>
      </trkpt>
      <trkpt lat="44.6124" lon="0.64236">
        <ele>147.6</ele>
        <time>2021-07-23T05:58:42Z</time>
      </trkpt>
      <trkpt lat="44.61236" lon="0.64241">
        <ele>147.6</ele>
        <time>2021-07-23T05:58:43Z</time>
      </trkpt>
      <trkpt lat="44.61226" lon="0.64256">
        <ele>147.8</ele>
        <time>2021-07-23T05:58:46Z</time>
      </trkpt>
      <trkpt lat="44.61217" lon="0.64272">
        <ele>148.2</ele>
        <time>2021-07-23T05:58:49Z</time>
      </trkpt>
      <trkpt lat="44.61196" lon="0.643">
        <ele>148.9</ele>
        <time>2021-07-23T05:58:55Z</time>
      </trkpt>
      <trkpt lat="44.61175" lon="0.64324">
        <ele>149.4</ele>
        <time>2021-07-23T05:59:01Z</time>
      </trkpt>
      <trkpt lat="44.61152" lon="0.64343">
        <ele>149.7</ele>
        <time>2021-07-23T05:59:07Z</time>
      </trkpt>
      <trkpt lat="44.61141" lon="0.64346">
        <ele>149.8</ele>
        <time>2021-07-23T05:59:10Z</time>
      </trkpt>
      <trkpt lat="44.61136" lon="0.64347">
        <ele>149.8</ele>
        <time>2021-07-23T05:59:11Z</time>
      </trkpt>
      <trkpt lat="44.61116" lon="0.64343">
        <ele>149.7</ele>
        <time>2021-07-23T05:59:16Z</time>
      </trkpt>
      <trkpt lat="44.61095" lon="0.64333">
        <ele>149.9</ele>
        <time>2021-07-23T05:59:21Z</time>
      </trkpt>
      <trkpt lat="44.61091" lon="0.64331">
        <ele>149.9</ele>
        <time>2021-07-23T05:59:22Z</time>
      </trkpt>
      <trkpt lat="44.61063" lon="0.64314">
        <ele>149.9</ele>
        <time>2021-07-23T05:59:29Z</time>
      </trkpt>
      <trkpt lat="44.61045" lon="0.64307">
        <ele>150</ele>
        <time>2021-07-23T05:59:34Z</time>
      </trkpt>
      <trkpt lat="44.61016" lon="0.64306">
        <ele>150.6</ele>
        <time>2021-07-23T05:59:41Z</time>
      </trkpt>
      <trkpt lat="44.60989" lon="0.64311">
        <ele>151.2</ele>
        <time>2021-07-23T05:59:47Z</time>
      </trkpt>
      <trkpt lat="44.60965" lon="0.64317">
        <ele>152</ele>
        <time>2021-07-23T05:59:53Z</time>
      </trkpt>
      <trkpt lat="44.60948" lon="0.64327">
        <ele>152.5</ele>
        <time>2021-07-23T05:59:58Z</time>
      </trkpt>
      <trkpt lat="44.6093" lon="0.6434">
        <ele>152.7</ele>
        <time>2021-07-23T06:00:03Z</time>
      </trkpt>
      <trkpt lat="44.60913" lon="0.64352">
        <ele>152.8</ele>
        <time>2021-07-23T06:00:08Z</time>
      </trkpt>
      <trkpt lat="44.60887" lon="0.6437">
        <ele>152.6</ele>
        <time>2021-07-23T06:00:14Z</time>
      </trkpt>
      <trkpt lat="44.60858" lon="0.64389">
        <ele>151.8</ele>
        <time>2021-07-23T06:00:20Z</time>
      </trkpt>
      <trkpt lat="44.60832" lon="0.64402">
        <ele>151.1</ele>
        <time>2021-07-23T06:00:26Z</time>
      </trkpt>
      <trkpt lat="44.60807" lon="0.64416">
        <ele>150.6</ele>
        <time>2021-07-23T06:00:32Z</time>
      </trkpt>
      <trkpt lat="44.60789" lon="0.64419">
        <ele>150.2</ele>
        <time>2021-07-23T06:00:36Z</time>
      </trkpt>
      <trkpt lat="44.60785" lon="0.64418">
        <ele>150.1</ele>
        <time>2021-07-23T06:00:37Z</time>
      </trkpt>
      <trkpt lat="44.60771" lon="0.64415">
        <ele>150</ele>
        <time>2021-07-23T06:00:40Z</time>
      </trkpt>
      <trkpt lat="44.60761" lon="0.64413">
        <ele>149.9</ele>
        <time>2021-07-23T06:00:42Z</time>
      </trkpt>
      <trkpt lat="44.60739" lon="0.6441">
        <ele>149.7</ele>
        <time>2021-07-23T06:00:47Z</time>
      </trkpt>
      <trkpt lat="44.60712" lon="0.64415">
        <ele>149.5</ele>
        <time>2021-07-23T06:00:53Z</time>
      </trkpt>
      <trkpt lat="44.60703" lon="0.64421">
        <ele>149.4</ele>
        <time>2021-07-23T06:00:55Z</time>
      </trkpt>
      <trkpt lat="44.6069" lon="0.64431">
        <ele>149.3</ele>
        <time>2021-07-23T06:00:58Z</time>
      </trkpt>
      <trkpt lat="44.60667" lon="0.64447">
        <ele>149.4</ele>
        <time>2021-07-23T06:01:04Z</time>
      </trkpt>
      <trkpt lat="44.60642" lon="0.64456">
        <ele>149.7</ele>
        <time>2021-07-23T06:01:10Z</time>
      </trkpt>
      <trkpt lat="44.60624" lon="0.64471">
        <ele>149.6</ele>
        <time>2021-07-23T06:01:15Z</time>
      </trkpt>
      <trkpt lat="44.60594" lon="0.64491">
        <ele>149</ele>
        <time>2021-07-23T06:01:21Z</time>
      </trkpt>
      <trkpt lat="44.60577" lon="0.645">
        <ele>148.9</ele>
        <time>2021-07-23T06:01:24Z</time>
      </trkpt>
      <trkpt lat="44.60567" lon="0.64506">
        <ele>149</ele>
        <time>2021-07-23T06:01:26Z</time>
      </trkpt>
      <trkpt lat="44.60542" lon="0.64526">
        <ele>149.2</ele>
        <time>2021-07-23T06:01:32Z</time>
      </trkpt>
      <trkpt lat="44.60522" lon="0.64545">
        <ele>149.2</ele>
        <time>2021-07-23T06:01:37Z</time>
      </trkpt>
      <trkpt lat="44.60509" lon="0.64556">
        <ele>149.2</ele>
        <time>2021-07-23T06:01:40Z</time>
      </trkpt>
      <trkpt lat="44.60502" lon="0.64564">
        <ele>149.1</ele>
        <time>2021-07-23T06:01:42Z</time>
      </trkpt>
      <trkpt lat="44.60497" lon="0.64567">
        <ele>149.1</ele>
        <time>2021-07-23T06:01:43Z</time>
      </trkpt>
      <trkpt lat="44.60488" lon="0.64574">
        <ele>148.9</ele>
        <time>2021-07-23T06:01:45Z</time>
      </trkpt>
      <trkpt lat="44.60468" lon="0.64584">
        <ele>148.6</ele>
        <time>2021-07-23T06:01:49Z</time>
      </trkpt>
      <trkpt lat="44.60462" lon="0.64585">
        <ele>148.6</ele>
        <time>2021-07-23T06:01:50Z</time>
      </trkpt>
      <trkpt lat="44.60444" lon="0.64588">
        <ele>148.5</ele>
        <time>2021-07-23T06:01:54Z</time>
      </trkpt>
      <trkpt lat="44.60439" lon="0.64589">
        <ele>148.5</ele>
        <time>2021-07-23T06:01:55Z</time>
      </trkpt>
      <trkpt lat="44.60426" lon="0.64591">
        <ele>148.5</ele>
        <time>2021-07-23T06:01:58Z</time>
      </trkpt>
      <trkpt lat="44.60417" lon="0.64591">
        <ele>148.6</ele>
        <time>2021-07-23T06:02:00Z</time>
      </trkpt>
      <trkpt lat="44.60407" lon="0.64592">
        <ele>148.6</ele>
        <time>2021-07-23T06:02:02Z</time>
      </trkpt>
      <trkpt lat="44.60393" lon="0.64595">
        <ele>148.6</ele>
        <time>2021-07-23T06:02:05Z</time>
      </trkpt>
      <trkpt lat="44.60384" lon="0.64593">
        <ele>148.6</ele>
        <time>2021-07-23T06:02:07Z</time>
      </trkpt>
      <trkpt lat="44.60379" lon="0.64593">
        <ele>148.6</ele>
        <time>2021-07-23T06:02:08Z</time>
      </trkpt>
      <trkpt lat="44.60364" lon="0.64594">
        <ele>148.7</ele>
        <time>2021-07-23T06:02:11Z</time>
      </trkpt>
      <trkpt lat="44.60331" lon="0.64594">
        <ele>148.7</ele>
        <time>2021-07-23T06:02:18Z</time>
      </trkpt>
      <trkpt lat="44.60326" lon="0.64594">
        <ele>148.7</ele>
        <time>2021-07-23T06:02:19Z</time>
      </trkpt>
      <trkpt lat="44.60305" lon="0.64596">
        <ele>148.3</ele>
        <time>2021-07-23T06:02:23Z</time>
      </trkpt>
      <trkpt lat="44.603" lon="0.64597">
        <ele>148.2</ele>
        <time>2021-07-23T06:02:24Z</time>
      </trkpt>
      <trkpt lat="44.60275" lon="0.64603">
        <ele>147.6</ele>
        <time>2021-07-23T06:02:29Z</time>
      </trkpt>
      <trkpt lat="44.60246" lon="0.64611">
        <ele>147</ele>
        <time>2021-07-23T06:02:35Z</time>
      </trkpt>
      <trkpt lat="44.60242" lon="0.64612">
        <ele>146.9</ele>
        <time>2021-07-23T06:02:36Z</time>
      </trkpt>
      <trkpt lat="44.60215" lon="0.64619">
        <ele>147.2</ele>
        <time>2021-07-23T06:02:43Z</time>
      </trkpt>
      <trkpt lat="44.60197" lon="0.64625">
        <ele>147.4</ele>
        <time>2021-07-23T06:02:48Z</time>
      </trkpt>
      <trkpt lat="44.6018" lon="0.64629">
        <ele>147.7</ele>
        <time>2021-07-23T06:02:52Z</time>
      </trkpt>
      <trkpt lat="44.60166" lon="0.64635">
        <ele>147.9</ele>
        <time>2021-07-23T06:02:55Z</time>
      </trkpt>
      <trkpt lat="44.60137" lon="0.64647">
        <ele>148.3</ele>
        <time>2021-07-23T06:03:02Z</time>
      </trkpt>
      <trkpt lat="44.60124" lon="0.64651">
        <ele>148.1</ele>
        <time>2021-07-23T06:03:05Z</time>
      </trkpt>
      <trkpt lat="44.60118" lon="0.64652">
        <ele>148</ele>
        <time>2021-07-23T06:03:06Z</time>
      </trkpt>
      <trkpt lat="44.60113" lon="0.64651">
        <ele>147.9</ele>
        <time>2021-07-23T06:03:07Z</time>
      </trkpt>
      <trkpt lat="44.60104" lon="0.64646">
        <ele>147.7</ele>
        <time>2021-07-23T06:03:09Z</time>
      </trkpt>
      <trkpt lat="44.60102" lon="0.64645">
        <ele>147.7</ele>
        <time>2021-07-23T06:03:12Z</time>
      </trkpt>
      <trkpt lat="44.601" lon="0.64644">
        <ele>147.7</ele>
        <time>2021-07-23T06:03:16Z</time>
      </trkpt>
      <trkpt lat="44.60098" lon="0.64643">
        <ele>147.6</ele>
        <time>2021-07-23T06:03:17Z</time>
      </trkpt>
      <trkpt lat="44.60096" lon="0.64645">
        <ele>147.6</ele>
        <time>2021-07-23T06:03:18Z</time>
      </trkpt>
      <trkpt lat="44.60085" lon="0.64664">
        <ele>148.1</ele>
        <time>2021-07-23T06:03:23Z</time>
      </trkpt>
      <trkpt lat="44.60072" lon="0.64683">
        <ele>148.6</ele>
        <time>2021-07-23T06:03:28Z</time>
      </trkpt>
      <trkpt lat="44.6004" lon="0.64715">
        <ele>150</ele>
        <time>2021-07-23T06:03:38Z</time>
      </trkpt>
      <trkpt lat="44.60018" lon="0.64734">
        <ele>151</ele>
        <time>2021-07-23T06:03:45Z</time>
      </trkpt>
      <trkpt lat="44.59997" lon="0.6475">
        <ele>151.9</ele>
        <time>2021-07-23T06:03:52Z</time>
      </trkpt>
      <trkpt lat="44.59971" lon="0.64767">
        <ele>153.3</ele>
        <time>2021-07-23T06:04:00Z</time>
      </trkpt>
      <trkpt lat="44.5995" lon="0.64775">
        <ele>154.4</ele>
        <time>2021-07-23T06:04:07Z</time>
      </trkpt>
      <trkpt lat="44.59924" lon="0.64777">
        <ele>155.7</ele>
        <time>2021-07-23T06:04:15Z</time>
      </trkpt>
      <trkpt lat="44.59908" lon="0.64777">
        <ele>156.4</ele>
        <time>2021-07-23T06:04:20Z</time>
      </trkpt>
      <trkpt lat="44.59883" lon="0.64776">
        <ele>157.5</ele>
        <time>2021-07-23T06:04:28Z</time>
      </trkpt>
      <trkpt lat="44.59859" lon="0.64776">
        <ele>158.7</ele>
        <time>2021-07-23T06:04:36Z</time>
      </trkpt>
      <trkpt lat="44.59834" lon="0.64775">
        <ele>159.8</ele>
        <time>2021-07-23T06:04:44Z</time>
      </trkpt>
      <trkpt lat="44.59805" lon="0.64777">
        <ele>161.1</ele>
        <time>2021-07-23T06:04:53Z</time>
      </trkpt>
      <trkpt lat="44.59779" lon="0.64785">
        <ele>162.3</ele>
        <time>2021-07-23T06:05:01Z</time>
      </trkpt>
      <trkpt lat="44.59756" lon="0.64796">
        <ele>163.4</ele>
        <time>2021-07-23T06:05:08Z</time>
      </trkpt>
      <trkpt lat="44.59734" lon="0.64808">
        <ele>164.5</ele>
        <time>2021-07-23T06:05:14Z</time>
      </trkpt>
      <trkpt lat="44.59707" lon="0.64832">
        <ele>165.8</ele>
        <time>2021-07-23T06:05:23Z</time>
      </trkpt>
      <trkpt lat="44.59683" lon="0.64851">
        <ele>166.6</ele>
        <time>2021-07-23T06:05:31Z</time>
      </trkpt>
      <trkpt lat="44.59651" lon="0.64878">
        <ele>167.1</ele>
        <time>2021-07-23T06:05:41Z</time>
      </trkpt>
      <trkpt lat="44.59625" lon="0.64904">
        <ele>167.5</ele>
        <time>2021-07-23T06:05:50Z</time>
      </trkpt>
      <trkpt lat="44.59622" lon="0.64922">
        <ele>167.8</ele>
        <time>2021-07-23T06:05:54Z</time>
      </trkpt>
      <trkpt lat="44.59613" lon="0.64944">
        <ele>168.1</ele>
        <time>2021-07-23T06:05:59Z</time>
      </trkpt>
      <trkpt lat="44.59602" lon="0.64967">
        <ele>168.5</ele>
        <time>2021-07-23T06:06:04Z</time>
      </trkpt>
      <trkpt lat="44.59592" lon="0.64989">
        <ele>170.1</ele>
        <time>2021-07-23T06:06:09Z</time>
      </trkpt>
      <trkpt lat="44.59589" lon="0.64998">
        <ele>170.4</ele>
        <time>2021-07-23T06:06:11Z</time>
      </trkpt>
      <trkpt lat="44.59584" lon="0.65007">
        <ele>171</ele>
        <time>2021-07-23T06:06:13Z</time>
      </trkpt>
      <trkpt lat="44.59579" lon="0.65024">
        <ele>171.7</ele>
        <time>2021-07-23T06:06:17Z</time>
      </trkpt>
      <trkpt lat="44.59574" lon="0.65047">
        <ele>173.1</ele>
        <time>2021-07-23T06:06:22Z</time>
      </trkpt>
      <trkpt lat="44.59569" lon="0.65068">
        <ele>173.7</ele>
        <time>2021-07-23T06:06:27Z</time>
      </trkpt>
      <trkpt lat="44.59564" lon="0.65086">
        <ele>174.1</ele>
        <time>2021-07-23T06:06:31Z</time>
      </trkpt>
      <trkpt lat="44.59557" lon="0.65112">
        <ele>174.3</ele>
        <time>2021-07-23T06:06:37Z</time>
      </trkpt>
      <trkpt lat="44.59552" lon="0.65137">
        <ele>174.7</ele>
        <time>2021-07-23T06:06:43Z</time>
      </trkpt>
      <trkpt lat="44.5955" lon="0.65144">
        <ele>174.9</ele>
        <time>2021-07-23T06:06:45Z</time>
      </trkpt>
      <trkpt lat="44.59549" lon="0.65152">
        <ele>174.7</ele>
        <time>2021-07-23T06:06:47Z</time>
      </trkpt>
      <trkpt lat="44.59542" lon="0.65179">
        <ele>174.6</ele>
        <time>2021-07-23T06:06:53Z</time>
      </trkpt>
      <trkpt lat="44.59536" lon="0.65196">
        <ele>174.8</ele>
        <time>2021-07-23T06:06:57Z</time>
      </trkpt>
      <trkpt lat="44.59529" lon="0.65212">
        <ele>175.5</ele>
        <time>2021-07-23T06:07:01Z</time>
      </trkpt>
      <trkpt lat="44.59519" lon="0.65232">
        <ele>175.9</ele>
        <time>2021-07-23T06:07:06Z</time>
      </trkpt>
      <trkpt lat="44.59509" lon="0.65247">
        <ele>176.4</ele>
        <time>2021-07-23T06:07:11Z</time>
      </trkpt>
      <trkpt lat="44.59492" lon="0.6526">
        <ele>177.2</ele>
        <time>2021-07-23T06:07:17Z</time>
      </trkpt>
      <trkpt lat="44.59473" lon="0.65277">
        <ele>176.6</ele>
        <time>2021-07-23T06:07:22Z</time>
      </trkpt>
      <trkpt lat="44.59456" lon="0.65292">
        <ele>175.3</ele>
        <time>2021-07-23T06:07:26Z</time>
      </trkpt>
      <trkpt lat="44.59445" lon="0.65302">
        <ele>174.5</ele>
        <time>2021-07-23T06:07:28Z</time>
      </trkpt>
      <trkpt lat="44.59436" lon="0.65312">
        <ele>173.6</ele>
        <time>2021-07-23T06:07:31Z</time>
      </trkpt>
      <trkpt lat="44.59433" lon="0.65313">
        <ele>173.1</ele>
        <time>2021-07-23T06:07:34Z</time>
      </trkpt>
      <trkpt lat="44.59421" lon="0.65304">
        <ele>172.5</ele>
        <time>2021-07-23T06:07:39Z</time>
      </trkpt>
      <trkpt lat="44.594" lon="0.65292">
        <ele>171.3</ele>
        <time>2021-07-23T06:07:44Z</time>
      </trkpt>
      <trkpt lat="44.59372" lon="0.6527">
        <ele>170.1</ele>
        <time>2021-07-23T06:07:50Z</time>
      </trkpt>
      <trkpt lat="44.59367" lon="0.65267">
        <ele>169.6</ele>
        <time>2021-07-23T06:07:51Z</time>
      </trkpt>
      <trkpt lat="44.59354" lon="0.6526">
        <ele>168.8</ele>
        <time>2021-07-23T06:07:54Z</time>
      </trkpt>
      <trkpt lat="44.59343" lon="0.65263">
        <ele>167.8</ele>
        <time>2021-07-23T06:07:58Z</time>
      </trkpt>
      <trkpt lat="44.59323" lon="0.65271">
        <ele>165.9</ele>
        <time>2021-07-23T06:08:03Z</time>
      </trkpt>
      <trkpt lat="44.59315" lon="0.65265">
        <ele>165.5</ele>
        <time>2021-07-23T06:08:05Z</time>
      </trkpt>
      <trkpt lat="44.59308" lon="0.6526">
        <ele>165.1</ele>
        <time>2021-07-23T06:08:07Z</time>
      </trkpt>
      <trkpt lat="44.59294" lon="0.6525">
        <ele>164.4</ele>
        <time>2021-07-23T06:08:12Z</time>
      </trkpt>
      <trkpt lat="44.59287" lon="0.65259">
        <ele>163.6</ele>
        <time>2021-07-23T06:08:15Z</time>
      </trkpt>
      <trkpt lat="44.59279" lon="0.65262">
        <ele>163</ele>
        <time>2021-07-23T06:08:18Z</time>
      </trkpt>
      <trkpt lat="44.59277" lon="0.65259">
        <ele>162.9</ele>
        <time>2021-07-23T06:08:19Z</time>
      </trkpt>
      <trkpt lat="44.59267" lon="0.65241">
        <ele>163.2</ele>
        <time>2021-07-23T06:08:24Z</time>
      </trkpt>
      <trkpt lat="44.59247" lon="0.65209">
        <ele>164.2</ele>
        <time>2021-07-23T06:08:32Z</time>
      </trkpt>
      <trkpt lat="44.59231" lon="0.65184">
        <ele>165.6</ele>
        <time>2021-07-23T06:08:39Z</time>
      </trkpt>
      <trkpt lat="44.59212" lon="0.65155">
        <ele>167.6</ele>
        <time>2021-07-23T06:08:47Z</time>
      </trkpt>
      <trkpt lat="44.59195" lon="0.65131">
        <ele>169.1</ele>
        <time>2021-07-23T06:08:54Z</time>
      </trkpt>
      <trkpt lat="44.5918" lon="0.65111">
        <ele>170</ele>
        <time>2021-07-23T06:09:00Z</time>
      </trkpt>
      <trkpt lat="44.59157" lon="0.6508">
        <ele>170.3</ele>
        <time>2021-07-23T06:09:09Z</time>
      </trkpt>
      <trkpt lat="44.59135" lon="0.65044">
        <ele>169.9</ele>
        <time>2021-07-23T06:09:17Z</time>
      </trkpt>
      <trkpt lat="44.5913" lon="0.65035">
        <ele>169.8</ele>
        <time>2021-07-23T06:09:19Z</time>
      </trkpt>
      <trkpt lat="44.59117" lon="0.65009">
        <ele>169.4</ele>
        <time>2021-07-23T06:09:24Z</time>
      </trkpt>
      <trkpt lat="44.59113" lon="0.64999">
        <ele>169.2</ele>
        <time>2021-07-23T06:09:26Z</time>
      </trkpt>
      <trkpt lat="44.59104" lon="0.64979">
        <ele>168.7</ele>
        <time>2021-07-23T06:09:30Z</time>
      </trkpt>
      <trkpt lat="44.591" lon="0.64967">
        <ele>168.3</ele>
        <time>2021-07-23T06:09:32Z</time>
      </trkpt>
      <trkpt lat="44.59092" lon="0.6494">
        <ele>167.1</ele>
        <time>2021-07-23T06:09:36Z</time>
      </trkpt>
      <trkpt lat="44.59077" lon="0.64884">
        <ele>164.5</ele>
        <time>2021-07-23T06:09:42Z</time>
      </trkpt>
      <trkpt lat="44.59066" lon="0.64813">
        <ele>161.8</ele>
        <time>2021-07-23T06:09:48Z</time>
      </trkpt>
      <trkpt lat="44.59063" lon="0.64789">
        <ele>161.2</ele>
        <time>2021-07-23T06:09:50Z</time>
      </trkpt>
      <trkpt lat="44.59053" lon="0.64723">
        <ele>160.3</ele>
        <time>2021-07-23T06:09:56Z</time>
      </trkpt>
      <trkpt lat="44.59035" lon="0.64667">
        <ele>160.1</ele>
        <time>2021-07-23T06:10:02Z</time>
      </trkpt>
      <trkpt lat="44.59026" lon="0.64652">
        <ele>160.2</ele>
        <time>2021-07-23T06:10:04Z</time>
      </trkpt>
      <trkpt lat="44.59016" lon="0.6464">
        <ele>160.4</ele>
        <time>2021-07-23T06:10:06Z</time>
      </trkpt>
      <trkpt lat="44.58975" lon="0.64599">
        <ele>161.9</ele>
        <time>2021-07-23T06:10:14Z</time>
      </trkpt>
      <trkpt lat="44.58951" lon="0.64571">
        <ele>162.4</ele>
        <time>2021-07-23T06:10:20Z</time>
      </trkpt>
      <trkpt lat="44.58929" lon="0.64536">
        <ele>161.2</ele>
        <time>2021-07-23T06:10:26Z</time>
      </trkpt>
      <trkpt lat="44.58904" lon="0.64485">
        <ele>158.3</ele>
        <time>2021-07-23T06:10:32Z</time>
      </trkpt>
      <trkpt lat="44.58875" lon="0.64428">
        <ele>156.4</ele>
        <time>2021-07-23T06:10:38Z</time>
      </trkpt>
      <trkpt lat="44.5884" lon="0.64384">
        <ele>155.9</ele>
        <time>2021-07-23T06:10:44Z</time>
      </trkpt>
      <trkpt lat="44.58802" lon="0.64342">
        <ele>155.8</ele>
        <time>2021-07-23T06:10:51Z</time>
      </trkpt>
      <trkpt lat="44.5879" lon="0.64322">
        <ele>155.8</ele>
        <time>2021-07-23T06:10:54Z</time>
      </trkpt>
      <trkpt lat="44.58784" lon="0.64306">
        <ele>155.9</ele>
        <time>2021-07-23T06:10:56Z</time>
      </trkpt>
      <trkpt lat="44.58764" lon="0.64239">
        <ele>156.8</ele>
        <time>2021-07-23T06:11:05Z</time>
      </trkpt>
      <trkpt lat="44.58759" lon="0.64218">
        <ele>157.2</ele>
        <time>2021-07-23T06:11:08Z</time>
      </trkpt>
      <trkpt lat="44.58753" lon="0.642">
        <ele>157.6</ele>
        <time>2021-07-23T06:11:11Z</time>
      </trkpt>
      <trkpt lat="44.58739" lon="0.64162">
        <ele>158.9</ele>
        <time>2021-07-23T06:11:18Z</time>
      </trkpt>
      <trkpt lat="44.58716" lon="0.64122">
        <ele>160.8</ele>
        <time>2021-07-23T06:11:27Z</time>
      </trkpt>
      <trkpt lat="44.58694" lon="0.64098">
        <ele>162.5</ele>
        <time>2021-07-23T06:11:34Z</time>
      </trkpt>
      <trkpt lat="44.58677" lon="0.64087">
        <ele>163.7</ele>
        <time>2021-07-23T06:11:40Z</time>
      </trkpt>
      <trkpt lat="44.58659" lon="0.64081">
        <ele>165.1</ele>
        <time>2021-07-23T06:11:47Z</time>
      </trkpt>
      <trkpt lat="44.58641" lon="0.6408">
        <ele>166.4</ele>
        <time>2021-07-23T06:11:53Z</time>
      </trkpt>
      <trkpt lat="44.58616" lon="0.64085">
        <ele>168.1</ele>
        <time>2021-07-23T06:12:01Z</time>
      </trkpt>
      <trkpt lat="44.58593" lon="0.64092">
        <ele>169.4</ele>
        <time>2021-07-23T06:12:09Z</time>
      </trkpt>
      <trkpt lat="44.58569" lon="0.64096">
        <ele>170.7</ele>
        <time>2021-07-23T06:12:17Z</time>
      </trkpt>
      <trkpt lat="44.58545" lon="0.641">
        <ele>172.4</ele>
        <time>2021-07-23T06:12:25Z</time>
      </trkpt>
      <trkpt lat="44.5852" lon="0.64102">
        <ele>173.9</ele>
        <time>2021-07-23T06:12:33Z</time>
      </trkpt>
      <trkpt lat="44.58498" lon="0.64109">
        <ele>174.6</ele>
        <time>2021-07-23T06:12:40Z</time>
      </trkpt>
      <trkpt lat="44.58471" lon="0.64109">
        <ele>174.9</ele>
        <time>2021-07-23T06:12:48Z</time>
      </trkpt>
      <trkpt lat="44.58453" lon="0.641">
        <ele>174.6</ele>
        <time>2021-07-23T06:12:53Z</time>
      </trkpt>
      <trkpt lat="44.58441" lon="0.64083">
        <ele>174</ele>
        <time>2021-07-23T06:12:57Z</time>
      </trkpt>
      <trkpt lat="44.58438" lon="0.64078">
        <ele>173.7</ele>
        <time>2021-07-23T06:12:58Z</time>
      </trkpt>
      <trkpt lat="44.58427" lon="0.64061">
        <ele>172.5</ele>
        <time>2021-07-23T06:13:01Z</time>
      </trkpt>
      <trkpt lat="44.58421" lon="0.64058">
        <ele>171.4</ele>
        <time>2021-07-23T06:13:02Z</time>
      </trkpt>
      <trkpt lat="44.58415" lon="0.6406">
        <ele>171.4</ele>
        <time>2021-07-23T06:13:03Z</time>
      </trkpt>
      <trkpt lat="44.5841" lon="0.64065">
        <ele>171.5</ele>
        <time>2021-07-23T06:13:04Z</time>
      </trkpt>
      <trkpt lat="44.58406" lon="0.64071">
        <ele>171.7</ele>
        <time>2021-07-23T06:13:05Z</time>
      </trkpt>
      <trkpt lat="44.58401" lon="0.64083">
        <ele>172.1</ele>
        <time>2021-07-23T06:13:07Z</time>
      </trkpt>
      <trkpt lat="44.58399" lon="0.64088">
        <ele>172.3</ele>
        <time>2021-07-23T06:13:08Z</time>
      </trkpt>
      <trkpt lat="44.58387" lon="0.64122">
        <ele>173.2</ele>
        <time>2021-07-23T06:13:15Z</time>
      </trkpt>
      <trkpt lat="44.58371" lon="0.64159">
        <ele>173.6</ele>
        <time>2021-07-23T06:13:23Z</time>
      </trkpt>
      <trkpt lat="44.58353" lon="0.64197">
        <ele>173.4</ele>
        <time>2021-07-23T06:13:31Z</time>
      </trkpt>
      <trkpt lat="44.58342" lon="0.64225">
        <ele>172.9</ele>
        <time>2021-07-23T06:13:36Z</time>
      </trkpt>
      <trkpt lat="44.58338" lon="0.64236">
        <ele>172.8</ele>
        <time>2021-07-23T06:13:38Z</time>
      </trkpt>
      <trkpt lat="44.58336" lon="0.64242">
        <ele>172.7</ele>
        <time>2021-07-23T06:13:39Z</time>
      </trkpt>
      <trkpt lat="44.58331" lon="0.64253">
        <ele>172.4</ele>
        <time>2021-07-23T06:13:41Z</time>
      </trkpt>
      <trkpt lat="44.58325" lon="0.64263">
        <ele>172.1</ele>
        <time>2021-07-23T06:13:43Z</time>
      </trkpt>
      <trkpt lat="44.58302" lon="0.64295">
        <ele>171.1</ele>
        <time>2021-07-23T06:13:49Z</time>
      </trkpt>
      <trkpt lat="44.58297" lon="0.643">
        <ele>171</ele>
        <time>2021-07-23T06:13:50Z</time>
      </trkpt>
      <trkpt lat="44.58278" lon="0.6432">
        <ele>170.5</ele>
        <time>2021-07-23T06:13:54Z</time>
      </trkpt>
      <trkpt lat="44.58274" lon="0.64325">
        <ele>170.4</ele>
        <time>2021-07-23T06:13:55Z</time>
      </trkpt>
      <trkpt lat="44.58254" lon="0.64347">
        <ele>170</ele>
        <time>2021-07-23T06:13:59Z</time>
      </trkpt>
      <trkpt lat="44.5822" lon="0.6439">
        <ele>169.5</ele>
        <time>2021-07-23T06:14:06Z</time>
      </trkpt>
      <trkpt lat="44.58186" lon="0.64428">
        <ele>169.7</ele>
        <time>2021-07-23T06:14:13Z</time>
      </trkpt>
      <trkpt lat="44.58164" lon="0.64452">
        <ele>169.7</ele>
        <time>2021-07-23T06:14:18Z</time>
      </trkpt>
      <trkpt lat="44.5815" lon="0.64463">
        <ele>169.7</ele>
        <time>2021-07-23T06:14:21Z</time>
      </trkpt>
      <trkpt lat="44.58111" lon="0.64492">
        <ele>169.7</ele>
        <time>2021-07-23T06:14:29Z</time>
      </trkpt>
      <trkpt lat="44.58064" lon="0.64517">
        <ele>170.3</ele>
        <time>2021-07-23T06:14:38Z</time>
      </trkpt>
      <trkpt lat="44.58049" lon="0.64523">
        <ele>170.7</ele>
        <time>2021-07-23T06:14:41Z</time>
      </trkpt>
      <trkpt lat="44.58034" lon="0.64531">
        <ele>171.1</ele>
        <time>2021-07-23T06:14:44Z</time>
      </trkpt>
      <trkpt lat="44.5802" lon="0.64541">
        <ele>171.6</ele>
        <time>2021-07-23T06:14:47Z</time>
      </trkpt>
      <trkpt lat="44.58007" lon="0.64552">
        <ele>172.1</ele>
        <time>2021-07-23T06:14:50Z</time>
      </trkpt>
      <trkpt lat="44.57971" lon="0.64587">
        <ele>172.8</ele>
        <time>2021-07-23T06:14:58Z</time>
      </trkpt>
      <trkpt lat="44.57938" lon="0.64623">
        <ele>172.4</ele>
        <time>2021-07-23T06:15:06Z</time>
      </trkpt>
      <trkpt lat="44.57902" lon="0.6466">
        <ele>171</ele>
        <time>2021-07-23T06:15:15Z</time>
      </trkpt>
      <trkpt lat="44.57897" lon="0.64664">
        <ele>170.7</ele>
        <time>2021-07-23T06:15:16Z</time>
      </trkpt>
      <trkpt lat="44.57882" lon="0.64684">
        <ele>169.3</ele>
        <time>2021-07-23T06:15:20Z</time>
      </trkpt>
      <trkpt lat="44.57852" lon="0.64729">
        <ele>166.6</ele>
        <time>2021-07-23T06:15:27Z</time>
      </trkpt>
      <trkpt lat="44.57814" lon="0.64789">
        <ele>162.9</ele>
        <time>2021-07-23T06:15:35Z</time>
      </trkpt>
      <trkpt lat="44.57771" lon="0.64835">
        <ele>159</ele>
        <time>2021-07-23T06:15:42Z</time>
      </trkpt>
      <trkpt lat="44.57735" lon="0.64864">
        <ele>156.4</ele>
        <time>2021-07-23T06:15:47Z</time>
      </trkpt>
      <trkpt lat="44.5769" lon="0.64906">
        <ele>153.1</ele>
        <time>2021-07-23T06:15:53Z</time>
      </trkpt>
      <trkpt lat="44.57682" lon="0.64913">
        <ele>152.5</ele>
        <time>2021-07-23T06:15:54Z</time>
      </trkpt>
      <trkpt lat="44.57633" lon="0.64957">
        <ele>149</ele>
        <time>2021-07-23T06:16:00Z</time>
      </trkpt>
      <trkpt lat="44.57608" lon="0.6498">
        <ele>147</ele>
        <time>2021-07-23T06:16:03Z</time>
      </trkpt>
      <trkpt lat="44.57575" lon="0.65011">
        <ele>144.6</ele>
        <time>2021-07-23T06:16:07Z</time>
      </trkpt>
      <trkpt lat="44.57567" lon="0.65021">
        <ele>144.1</ele>
        <time>2021-07-23T06:16:08Z</time>
      </trkpt>
      <trkpt lat="44.57543" lon="0.65065">
        <ele>142</ele>
        <time>2021-07-23T06:16:12Z</time>
      </trkpt>
      <trkpt lat="44.5753" lon="0.65085">
        <ele>141.1</ele>
        <time>2021-07-23T06:16:14Z</time>
      </trkpt>
      <trkpt lat="44.57516" lon="0.65102">
        <ele>140.1</ele>
        <time>2021-07-23T06:16:16Z</time>
      </trkpt>
      <trkpt lat="44.57466" lon="0.65148">
        <ele>137.6</ele>
        <time>2021-07-23T06:16:22Z</time>
      </trkpt>
      <trkpt lat="44.57428" lon="0.65161">
        <ele>137.3</ele>
        <time>2021-07-23T06:16:26Z</time>
      </trkpt>
      <trkpt lat="44.57388" lon="0.65172">
        <ele>137</ele>
        <time>2021-07-23T06:16:31Z</time>
      </trkpt>
      <trkpt lat="44.5735" lon="0.65185">
        <ele>136.8</ele>
        <time>2021-07-23T06:16:37Z</time>
      </trkpt>
      <trkpt lat="44.57323" lon="0.65187">
        <ele>136.5</ele>
        <time>2021-07-23T06:16:42Z</time>
      </trkpt>
      <trkpt lat="44.57301" lon="0.65182">
        <ele>136.1</ele>
        <time>2021-07-23T06:16:46Z</time>
      </trkpt>
      <trkpt lat="44.57285" lon="0.65174">
        <ele>135.9</ele>
        <time>2021-07-23T06:16:49Z</time>
      </trkpt>
      <trkpt lat="44.57258" lon="0.65155">
        <ele>135.6</ele>
        <time>2021-07-23T06:16:55Z</time>
      </trkpt>
      <trkpt lat="44.57227" lon="0.65139">
        <ele>135.1</ele>
        <time>2021-07-23T06:17:02Z</time>
      </trkpt>
      <trkpt lat="44.572" lon="0.65127">
        <ele>134.4</ele>
        <time>2021-07-23T06:17:08Z</time>
      </trkpt>
      <trkpt lat="44.57196" lon="0.65123">
        <ele>134.3</ele>
        <time>2021-07-23T06:17:09Z</time>
      </trkpt>
      <trkpt lat="44.57193" lon="0.65118">
        <ele>133.8</ele>
        <time>2021-07-23T06:17:10Z</time>
      </trkpt>
      <trkpt lat="44.57188" lon="0.65102">
        <ele>133</ele>
        <time>2021-07-23T06:17:13Z</time>
      </trkpt>
      <trkpt lat="44.57185" lon="0.65095">
        <ele>132.6</ele>
        <time>2021-07-23T06:17:16Z</time>
      </trkpt>
      <trkpt lat="44.57185" lon="0.65094">
        <ele>132.6</ele>
        <time>2021-07-23T06:17:18Z</time>
      </trkpt>
      <trkpt lat="44.57185" lon="0.65092">
        <ele>132.5</ele>
        <time>2021-07-23T06:17:21Z</time>
      </trkpt>
      <trkpt lat="44.57184" lon="0.6509">
        <ele>132.3</ele>
        <time>2021-07-23T06:17:22Z</time>
      </trkpt>
      <trkpt lat="44.57178" lon="0.65069">
        <ele>130.8</ele>
        <time>2021-07-23T06:17:27Z</time>
      </trkpt>
      <trkpt lat="44.5717" lon="0.65047">
        <ele>128</ele>
        <time>2021-07-23T06:17:32Z</time>
      </trkpt>
      <trkpt lat="44.57167" lon="0.65035">
        <ele>126.5</ele>
        <time>2021-07-23T06:17:37Z</time>
      </trkpt>
      <trkpt lat="44.57167" lon="0.65034">
        <ele>126.4</ele>
        <time>2021-07-23T06:17:38Z</time>
      </trkpt>
      <trkpt lat="44.57164" lon="0.65026">
        <ele>125.2</ele>
        <time>2021-07-23T06:17:55Z</time>
      </trkpt>
      <trkpt lat="44.57163" lon="0.65024">
        <ele>124.9</ele>
        <time>2021-07-23T06:17:57Z</time>
      </trkpt>
      <trkpt lat="44.57162" lon="0.65022">
        <ele>124.6</ele>
        <time>2021-07-23T06:18:00Z</time>
      </trkpt>
      <trkpt lat="44.57157" lon="0.65005">
        <ele>122.7</ele>
        <time>2021-07-23T06:18:07Z</time>
      </trkpt>
      <trkpt lat="44.57151" lon="0.64988">
        <ele>120.9</ele>
        <time>2021-07-23T06:18:12Z</time>
      </trkpt>
      <trkpt lat="44.57146" lon="0.64977">
        <ele>119.7</ele>
        <time>2021-07-23T06:18:27Z</time>
      </trkpt>
      <trkpt lat="44.57143" lon="0.6497">
        <ele>119</ele>
        <time>2021-07-23T06:18:29Z</time>
      </trkpt>
      <trkpt lat="44.57136" lon="0.64949">
        <ele>116.8</ele>
        <time>2021-07-23T06:18:34Z</time>
      </trkpt>
      <trkpt lat="44.57133" lon="0.64942">
        <ele>116</ele>
        <time>2021-07-23T06:18:36Z</time>
      </trkpt>
      <trkpt lat="44.57127" lon="0.6494">
        <ele>115.1</ele>
        <time>2021-07-23T06:18:38Z</time>
      </trkpt>
      <trkpt lat="44.57111" lon="0.64945">
        <ele>112.8</ele>
        <time>2021-07-23T06:18:43Z</time>
      </trkpt>
      <trkpt lat="44.571" lon="0.64949">
        <ele>111.8</ele>
        <time>2021-07-23T06:18:45Z</time>
      </trkpt>
      <trkpt lat="44.57094" lon="0.6495">
        <ele>111.3</ele>
        <time>2021-07-23T06:18:46Z</time>
      </trkpt>
      <trkpt lat="44.57084" lon="0.64953">
        <ele>110.6</ele>
        <time>2021-07-23T06:18:49Z</time>
      </trkpt>
      <trkpt lat="44.57068" lon="0.64952">
        <ele>109.4</ele>
        <time>2021-07-23T06:18:54Z</time>
      </trkpt>
      <trkpt lat="44.57055" lon="0.64951">
        <ele>108.6</ele>
        <time>2021-07-23T06:18:58Z</time>
      </trkpt>
      <trkpt lat="44.57034" lon="0.64947">
        <ele>107.6</ele>
        <time>2021-07-23T06:19:04Z</time>
      </trkpt>
      <trkpt lat="44.5703" lon="0.64946">
        <ele>107.5</ele>
        <time>2021-07-23T06:19:05Z</time>
      </trkpt>
      <trkpt lat="44.57018" lon="0.64941">
        <ele>107.2</ele>
        <time>2021-07-23T06:19:08Z</time>
      </trkpt>
      <trkpt lat="44.56998" lon="0.64928">
        <ele>107.3</ele>
        <time>2021-07-23T06:19:14Z</time>
      </trkpt>
      <trkpt lat="44.56978" lon="0.64913">
        <ele>107.9</ele>
        <time>2021-07-23T06:19:19Z</time>
      </trkpt>
      <trkpt lat="44.56973" lon="0.6491">
        <ele>108.1</ele>
        <time>2021-07-23T06:19:20Z</time>
      </trkpt>
      <trkpt lat="44.5696" lon="0.64907">
        <ele>108.8</ele>
        <time>2021-07-23T06:19:23Z</time>
      </trkpt>
      <trkpt lat="44.56933" lon="0.64908">
        <ele>110.5</ele>
        <time>2021-07-23T06:19:29Z</time>
      </trkpt>
      <trkpt lat="44.56907" lon="0.64908">
        <ele>112.8</ele>
        <time>2021-07-23T06:19:35Z</time>
      </trkpt>
      <trkpt lat="44.56887" lon="0.64903">
        <ele>114.6</ele>
        <time>2021-07-23T06:19:40Z</time>
      </trkpt>
      <trkpt lat="44.56872" lon="0.64894">
        <ele>116.2</ele>
        <time>2021-07-23T06:19:45Z</time>
      </trkpt>
      <trkpt lat="44.56862" lon="0.64888">
        <ele>117.4</ele>
        <time>2021-07-23T06:19:49Z</time>
      </trkpt>
      <trkpt lat="44.56855" lon="0.64885">
        <ele>118.2</ele>
        <time>2021-07-23T06:19:53Z</time>
      </trkpt>
      <trkpt lat="44.56853" lon="0.64885">
        <ele>118.4</ele>
        <time>2021-07-23T06:19:54Z</time>
      </trkpt>
      <trkpt lat="44.56845" lon="0.64887">
        <ele>119.2</ele>
        <time>2021-07-23T06:19:58Z</time>
      </trkpt>
      <trkpt lat="44.56831" lon="0.64889">
        <ele>120.3</ele>
        <time>2021-07-23T06:20:04Z</time>
      </trkpt>
      <trkpt lat="44.56815" lon="0.64894">
        <ele>121.7</ele>
        <time>2021-07-23T06:20:11Z</time>
      </trkpt>
      <trkpt lat="44.56798" lon="0.64898">
        <ele>123.3</ele>
        <time>2021-07-23T06:20:19Z</time>
      </trkpt>
      <trkpt lat="44.56785" lon="0.64901">
        <ele>124.5</ele>
        <time>2021-07-23T06:20:25Z</time>
      </trkpt>
      <trkpt lat="44.56768" lon="0.64904">
        <ele>126</ele>
        <time>2021-07-23T06:20:32Z</time>
      </trkpt>
      <trkpt lat="44.56751" lon="0.64903">
        <ele>127.3</ele>
        <time>2021-07-23T06:20:40Z</time>
      </trkpt>
      <trkpt lat="44.56739" lon="0.64901">
        <ele>128.2</ele>
        <time>2021-07-23T06:20:47Z</time>
      </trkpt>
      <trkpt lat="44.56727" lon="0.649">
        <ele>129.1</ele>
        <time>2021-07-23T06:20:53Z</time>
      </trkpt>
      <trkpt lat="44.5671" lon="0.64899">
        <ele>130.1</ele>
        <time>2021-07-23T06:21:00Z</time>
      </trkpt>
      <trkpt lat="44.5669" lon="0.64895">
        <ele>130.9</ele>
        <time>2021-07-23T06:21:07Z</time>
      </trkpt>
      <trkpt lat="44.56669" lon="0.64882">
        <ele>130.7</ele>
        <time>2021-07-23T06:21:16Z</time>
      </trkpt>
      <trkpt lat="44.5665" lon="0.64871">
        <ele>130.1</ele>
        <time>2021-07-23T06:21:22Z</time>
      </trkpt>
      <trkpt lat="44.56623" lon="0.64857">
        <ele>129.4</ele>
        <time>2021-07-23T06:21:28Z</time>
      </trkpt>
      <trkpt lat="44.56592" lon="0.64837">
        <ele>128.4</ele>
        <time>2021-07-23T06:21:35Z</time>
      </trkpt>
      <trkpt lat="44.56569" lon="0.64821">
        <ele>127</ele>
        <time>2021-07-23T06:21:42Z</time>
      </trkpt>
      <trkpt lat="44.56543" lon="0.64807">
        <ele>123.9</ele>
        <time>2021-07-23T06:21:49Z</time>
      </trkpt>
      <trkpt lat="44.56533" lon="0.64799">
        <ele>121.9</ele>
        <time>2021-07-23T06:21:51Z</time>
      </trkpt>
      <trkpt lat="44.56529" lon="0.64792">
        <ele>121.4</ele>
        <time>2021-07-23T06:21:52Z</time>
      </trkpt>
      <trkpt lat="44.56527" lon="0.64782">
        <ele>120.9</ele>
        <time>2021-07-23T06:21:53Z</time>
      </trkpt>
      <trkpt lat="44.56528" lon="0.64772">
        <ele>120.4</ele>
        <time>2021-07-23T06:21:54Z</time>
      </trkpt>
      <trkpt lat="44.56537" lon="0.6472">
        <ele>118.1</ele>
        <time>2021-07-23T06:21:59Z</time>
      </trkpt>
      <trkpt lat="44.56546" lon="0.64643">
        <ele>115.6</ele>
        <time>2021-07-23T06:22:06Z</time>
      </trkpt>
      <trkpt lat="44.56542" lon="0.64598">
        <ele>114.2</ele>
        <time>2021-07-23T06:22:10Z</time>
      </trkpt>
      <trkpt lat="44.5654" lon="0.64587">
        <ele>113.9</ele>
        <time>2021-07-23T06:22:11Z</time>
      </trkpt>
      <trkpt lat="44.56525" lon="0.64544">
        <ele>112.4</ele>
        <time>2021-07-23T06:22:15Z</time>
      </trkpt>
      <trkpt lat="44.56503" lon="0.64505">
        <ele>111.4</ele>
        <time>2021-07-23T06:22:19Z</time>
      </trkpt>
      <trkpt lat="44.56463" lon="0.64458">
        <ele>110.7</ele>
        <time>2021-07-23T06:22:25Z</time>
      </trkpt>
      <trkpt lat="44.56423" lon="0.6442">
        <ele>111.5</ele>
        <time>2021-07-23T06:22:31Z</time>
      </trkpt>
      <trkpt lat="44.5641" lon="0.64414">
        <ele>112.6</ele>
        <time>2021-07-23T06:22:33Z</time>
      </trkpt>
      <trkpt lat="44.56397" lon="0.64413">
        <ele>113.5</ele>
        <time>2021-07-23T06:22:35Z</time>
      </trkpt>
      <trkpt lat="44.56391" lon="0.64413">
        <ele>113.7</ele>
        <time>2021-07-23T06:22:36Z</time>
      </trkpt>
      <trkpt lat="44.56376" lon="0.64417">
        <ele>114.1</ele>
        <time>2021-07-23T06:22:39Z</time>
      </trkpt>
      <trkpt lat="44.56369" lon="0.64421">
        <ele>114.4</ele>
        <time>2021-07-23T06:22:41Z</time>
      </trkpt>
      <trkpt lat="44.5636" lon="0.64429">
        <ele>115</ele>
        <time>2021-07-23T06:22:44Z</time>
      </trkpt>
      <trkpt lat="44.56341" lon="0.64452">
        <ele>116.4</ele>
        <time>2021-07-23T06:22:51Z</time>
      </trkpt>
      <trkpt lat="44.56321" lon="0.64472">
        <ele>118.2</ele>
        <time>2021-07-23T06:22:58Z</time>
      </trkpt>
      <trkpt lat="44.56306" lon="0.6448">
        <ele>119.4</ele>
        <time>2021-07-23T06:23:03Z</time>
      </trkpt>
      <trkpt lat="44.56286" lon="0.64475">
        <ele>121</ele>
        <time>2021-07-23T06:23:09Z</time>
      </trkpt>
      <trkpt lat="44.56264" lon="0.64462">
        <ele>123</ele>
        <time>2021-07-23T06:23:16Z</time>
      </trkpt>
      <trkpt lat="44.56249" lon="0.64447">
        <ele>124.2</ele>
        <time>2021-07-23T06:23:23Z</time>
      </trkpt>
      <trkpt lat="44.56241" lon="0.64442">
        <ele>124.4</ele>
        <time>2021-07-23T06:23:27Z</time>
      </trkpt>
      <trkpt lat="44.56238" lon="0.64441">
        <ele>124.5</ele>
        <time>2021-07-23T06:23:28Z</time>
      </trkpt>
      <trkpt lat="44.56225" lon="0.64436">
        <ele>125.1</ele>
        <time>2021-07-23T06:23:34Z</time>
      </trkpt>
      <trkpt lat="44.56208" lon="0.64435">
        <ele>125.9</ele>
        <time>2021-07-23T06:23:41Z</time>
      </trkpt>
      <trkpt lat="44.5619" lon="0.64441">
        <ele>126.8</ele>
        <time>2021-07-23T06:23:48Z</time>
      </trkpt>
      <trkpt lat="44.56171" lon="0.6446">
        <ele>128.2</ele>
        <time>2021-07-23T06:23:57Z</time>
      </trkpt>
      <trkpt lat="44.56155" lon="0.64477">
        <ele>129.2</ele>
        <time>2021-07-23T06:24:05Z</time>
      </trkpt>
      <trkpt lat="44.56142" lon="0.6449">
        <ele>130</ele>
        <time>2021-07-23T06:24:11Z</time>
      </trkpt>
      <trkpt lat="44.56133" lon="0.645">
        <ele>130.8</ele>
        <time>2021-07-23T06:24:16Z</time>
      </trkpt>
      <trkpt lat="44.5612" lon="0.64511">
        <ele>131.7</ele>
        <time>2021-07-23T06:24:22Z</time>
      </trkpt>
      <trkpt lat="44.56109" lon="0.64507">
        <ele>132.6</ele>
        <time>2021-07-23T06:24:28Z</time>
      </trkpt>
      <trkpt lat="44.56105" lon="0.645">
        <ele>133</ele>
        <time>2021-07-23T06:24:31Z</time>
      </trkpt>
      <trkpt lat="44.56105" lon="0.64494">
        <ele>133.2</ele>
        <time>2021-07-23T06:24:33Z</time>
      </trkpt>
      <trkpt lat="44.56106" lon="0.64476">
        <ele>133.8</ele>
        <time>2021-07-23T06:24:39Z</time>
      </trkpt>
      <trkpt lat="44.56107" lon="0.64465">
        <ele>134.1</ele>
        <time>2021-07-23T06:24:44Z</time>
      </trkpt>
      <trkpt lat="44.56107" lon="0.6446">
        <ele>134.3</ele>
        <time>2021-07-23T06:24:47Z</time>
      </trkpt>
      <trkpt lat="44.56103" lon="0.64458">
        <ele>134.4</ele>
        <time>2021-07-23T06:24:49Z</time>
      </trkpt>
      <trkpt lat="44.56096" lon="0.64461">
        <ele>134.6</ele>
        <time>2021-07-23T06:24:51Z</time>
      </trkpt>
      <trkpt lat="44.56092" lon="0.64466">
        <ele>134.5</ele>
        <time>2021-07-23T06:24:52Z</time>
      </trkpt>
      <trkpt lat="44.56088" lon="0.64469">
        <ele>134.5</ele>
        <time>2021-07-23T06:24:53Z</time>
      </trkpt>
      <trkpt lat="44.5608" lon="0.64473">
        <ele>134.4</ele>
        <time>2021-07-23T06:24:55Z</time>
      </trkpt>
      <trkpt lat="44.56072" lon="0.64476">
        <ele>134.3</ele>
        <time>2021-07-23T06:24:57Z</time>
      </trkpt>
      <trkpt lat="44.56059" lon="0.6448">
        <ele>133.7</ele>
        <time>2021-07-23T06:25:00Z</time>
      </trkpt>
      <trkpt lat="44.56042" lon="0.64486">
        <ele>132.4</ele>
        <time>2021-07-23T06:25:04Z</time>
      </trkpt>
      <trkpt lat="44.56038" lon="0.64487">
        <ele>132</ele>
        <time>2021-07-23T06:25:05Z</time>
      </trkpt>
      <trkpt lat="44.56017" lon="0.64492">
        <ele>129.7</ele>
        <time>2021-07-23T06:25:09Z</time>
      </trkpt>
      <trkpt lat="44.56012" lon="0.64493">
        <ele>129.4</ele>
        <time>2021-07-23T06:25:10Z</time>
      </trkpt>
      <trkpt lat="44.55982" lon="0.64499">
        <ele>125</ele>
        <time>2021-07-23T06:25:16Z</time>
      </trkpt>
      <trkpt lat="44.55977" lon="0.645">
        <ele>124.2</ele>
        <time>2021-07-23T06:25:17Z</time>
      </trkpt>
      <trkpt lat="44.55944" lon="0.64507">
        <ele>119</ele>
        <time>2021-07-23T06:25:24Z</time>
      </trkpt>
      <trkpt lat="44.55916" lon="0.64514">
        <ele>116.8</ele>
        <time>2021-07-23T06:25:31Z</time>
      </trkpt>
      <trkpt lat="44.55888" lon="0.6452">
        <ele>116.5</ele>
        <time>2021-07-23T06:25:39Z</time>
      </trkpt>
      <trkpt lat="44.55863" lon="0.64525">
        <ele>116.5</ele>
        <time>2021-07-23T06:25:46Z</time>
      </trkpt>
      <trkpt lat="44.55851" lon="0.64527">
        <ele>116.6</ele>
        <time>2021-07-23T06:25:49Z</time>
      </trkpt>
      <trkpt lat="44.55843" lon="0.64528">
        <ele>116.5</ele>
        <time>2021-07-23T06:25:51Z</time>
      </trkpt>
      <trkpt lat="44.55813" lon="0.64539">
        <ele>117.3</ele>
        <time>2021-07-23T06:25:59Z</time>
      </trkpt>
      <trkpt lat="44.55798" lon="0.64554">
        <ele>118.2</ele>
        <time>2021-07-23T06:26:04Z</time>
      </trkpt>
      <trkpt lat="44.55774" lon="0.64578">
        <ele>120</ele>
        <time>2021-07-23T06:26:12Z</time>
      </trkpt>
      <trkpt lat="44.5575" lon="0.64601">
        <ele>121.9</ele>
        <time>2021-07-23T06:26:21Z</time>
      </trkpt>
      <trkpt lat="44.55729" lon="0.64621">
        <ele>123.7</ele>
        <time>2021-07-23T06:26:29Z</time>
      </trkpt>
      <trkpt lat="44.55707" lon="0.64645">
        <ele>126</ele>
        <time>2021-07-23T06:26:38Z</time>
      </trkpt>
      <trkpt lat="44.55696" lon="0.64666">
        <ele>127</ele>
        <time>2021-07-23T06:26:44Z</time>
      </trkpt>
      <trkpt lat="44.55689" lon="0.64692">
        <ele>126.9</ele>
        <time>2021-07-23T06:26:50Z</time>
      </trkpt>
      <trkpt lat="44.55681" lon="0.64715">
        <ele>127.3</ele>
        <time>2021-07-23T06:26:55Z</time>
      </trkpt>
      <trkpt lat="44.55674" lon="0.64742">
        <ele>127.3</ele>
        <time>2021-07-23T06:27:02Z</time>
      </trkpt>
      <trkpt lat="44.55665" lon="0.64771">
        <ele>127.1</ele>
        <time>2021-07-23T06:27:09Z</time>
      </trkpt>
      <trkpt lat="44.55657" lon="0.64791">
        <ele>127.2</ele>
        <time>2021-07-23T06:27:15Z</time>
      </trkpt>
      <trkpt lat="44.5565" lon="0.64806">
        <ele>127.7</ele>
        <time>2021-07-23T06:27:21Z</time>
      </trkpt>
      <trkpt lat="44.55643" lon="0.64818">
        <ele>127.8</ele>
        <time>2021-07-23T06:27:26Z</time>
      </trkpt>
      <trkpt lat="44.55633" lon="0.64834">
        <ele>127.6</ele>
        <time>2021-07-23T06:27:32Z</time>
      </trkpt>
      <trkpt lat="44.55624" lon="0.64834">
        <ele>128.3</ele>
        <time>2021-07-23T06:27:36Z</time>
      </trkpt>
      <trkpt lat="44.55614" lon="0.64823">
        <ele>129.3</ele>
        <time>2021-07-23T06:27:42Z</time>
      </trkpt>
      <trkpt lat="44.55605" lon="0.6482">
        <ele>130.2</ele>
        <time>2021-07-23T06:27:48Z</time>
      </trkpt>
      <trkpt lat="44.55597" lon="0.64813">
        <ele>130.9</ele>
        <time>2021-07-23T06:27:54Z</time>
      </trkpt>
      <trkpt lat="44.55585" lon="0.64806">
        <ele>132.1</ele>
        <time>2021-07-23T06:28:02Z</time>
      </trkpt>
      <trkpt lat="44.55575" lon="0.648">
        <ele>133</ele>
        <time>2021-07-23T06:28:08Z</time>
      </trkpt>
      <trkpt lat="44.55563" lon="0.64793">
        <ele>134.1</ele>
        <time>2021-07-23T06:28:15Z</time>
      </trkpt>
      <trkpt lat="44.55553" lon="0.64786">
        <ele>135.1</ele>
        <time>2021-07-23T06:28:21Z</time>
      </trkpt>
      <trkpt lat="44.55543" lon="0.64781">
        <ele>136</ele>
        <time>2021-07-23T06:28:27Z</time>
      </trkpt>
      <trkpt lat="44.55538" lon="0.64777">
        <ele>136.5</ele>
        <time>2021-07-23T06:28:30Z</time>
      </trkpt>
      <trkpt lat="44.55532" lon="0.64779">
        <ele>136.8</ele>
        <time>2021-07-23T06:28:33Z</time>
      </trkpt>
      <trkpt lat="44.55521" lon="0.64789">
        <ele>136.5</ele>
        <time>2021-07-23T06:28:38Z</time>
      </trkpt>
      <trkpt lat="44.55508" lon="0.64804">
        <ele>136.3</ele>
        <time>2021-07-23T06:28:44Z</time>
      </trkpt>
      <trkpt lat="44.55487" lon="0.64819">
        <ele>136.3</ele>
        <time>2021-07-23T06:28:51Z</time>
      </trkpt>
      <trkpt lat="44.55465" lon="0.64835">
        <ele>136.3</ele>
        <time>2021-07-23T06:28:58Z</time>
      </trkpt>
      <trkpt lat="44.55448" lon="0.64845">
        <ele>135.5</ele>
        <time>2021-07-23T06:29:03Z</time>
      </trkpt>
      <trkpt lat="44.55429" lon="0.64858">
        <ele>134.6</ele>
        <time>2021-07-23T06:29:09Z</time>
      </trkpt>
      <trkpt lat="44.55406" lon="0.64875">
        <ele>133.5</ele>
        <time>2021-07-23T06:29:16Z</time>
      </trkpt>
      <trkpt lat="44.55384" lon="0.64894">
        <ele>132.4</ele>
        <time>2021-07-23T06:29:23Z</time>
      </trkpt>
      <trkpt lat="44.55358" lon="0.64919">
        <ele>131</ele>
        <time>2021-07-23T06:29:30Z</time>
      </trkpt>
      <trkpt lat="44.55354" lon="0.64923">
        <ele>130.8</ele>
        <time>2021-07-23T06:29:31Z</time>
      </trkpt>
      <trkpt lat="44.55346" lon="0.64932">
        <ele>130.4</ele>
        <time>2021-07-23T06:29:33Z</time>
      </trkpt>
      <trkpt lat="44.55342" lon="0.64937">
        <ele>130.1</ele>
        <time>2021-07-23T06:29:34Z</time>
      </trkpt>
      <trkpt lat="44.55323" lon="0.64961">
        <ele>129</ele>
        <time>2021-07-23T06:29:38Z</time>
      </trkpt>
      <trkpt lat="44.55301" lon="0.64994">
        <ele>127.7</ele>
        <time>2021-07-23T06:29:42Z</time>
      </trkpt>
      <trkpt lat="44.5527" lon="0.65045">
        <ele>125.6</ele>
        <time>2021-07-23T06:29:47Z</time>
      </trkpt>
      <trkpt lat="44.55242" lon="0.65106">
        <ele>123.3</ele>
        <time>2021-07-23T06:29:52Z</time>
      </trkpt>
      <trkpt lat="44.55215" lon="0.65171">
        <ele>121</ele>
        <time>2021-07-23T06:29:57Z</time>
      </trkpt>
      <trkpt lat="44.5521" lon="0.65185">
        <ele>120.6</ele>
        <time>2021-07-23T06:29:58Z</time>
      </trkpt>
      <trkpt lat="44.55188" lon="0.65252">
        <ele>118.3</ele>
        <time>2021-07-23T06:30:03Z</time>
      </trkpt>
      <trkpt lat="44.55166" lon="0.65334">
        <ele>115.6</ele>
        <time>2021-07-23T06:30:09Z</time>
      </trkpt>
      <trkpt lat="44.5516" lon="0.65359">
        <ele>114.8</ele>
        <time>2021-07-23T06:30:11Z</time>
      </trkpt>
      <trkpt lat="44.55147" lon="0.65402">
        <ele>113.3</ele>
        <time>2021-07-23T06:30:15Z</time>
      </trkpt>
      <trkpt lat="44.55143" lon="0.65409">
        <ele>113.1</ele>
        <time>2021-07-23T06:30:16Z</time>
      </trkpt>
      <trkpt lat="44.55139" lon="0.65411">
        <ele>112.9</ele>
        <time>2021-07-23T06:30:17Z</time>
      </trkpt>
      <trkpt lat="44.55135" lon="0.65411">
        <ele>112.9</ele>
        <time>2021-07-23T06:30:18Z</time>
      </trkpt>
      <trkpt lat="44.55131" lon="0.65408">
        <ele>112.9</ele>
        <time>2021-07-23T06:30:19Z</time>
      </trkpt>
      <trkpt lat="44.55126" lon="0.65402">
        <ele>113.3</ele>
        <time>2021-07-23T06:30:21Z</time>
      </trkpt>
      <trkpt lat="44.55112" lon="0.65382">
        <ele>113.6</ele>
        <time>2021-07-23T06:30:26Z</time>
      </trkpt>
      <trkpt lat="44.55099" lon="0.65361">
        <ele>113.5</ele>
        <time>2021-07-23T06:30:31Z</time>
      </trkpt>
      <trkpt lat="44.55091" lon="0.65354">
        <ele>113.2</ele>
        <time>2021-07-23T06:30:33Z</time>
      </trkpt>
      <trkpt lat="44.55077" lon="0.65342">
        <ele>112.2</ele>
        <time>2021-07-23T06:30:36Z</time>
      </trkpt>
      <trkpt lat="44.55047" lon="0.65321">
        <ele>110</ele>
        <time>2021-07-23T06:30:42Z</time>
      </trkpt>
      <trkpt lat="44.55021" lon="0.65303">
        <ele>108.2</ele>
        <time>2021-07-23T06:30:47Z</time>
      </trkpt>
      <trkpt lat="44.55007" lon="0.65294">
        <ele>107.3</ele>
        <time>2021-07-23T06:30:50Z</time>
      </trkpt>
      <trkpt lat="44.55001" lon="0.65288">
        <ele>107</ele>
        <time>2021-07-23T06:30:52Z</time>
      </trkpt>
      <trkpt lat="44.5499" lon="0.65273">
        <ele>106.8</ele>
        <time>2021-07-23T06:30:56Z</time>
      </trkpt>
      <trkpt lat="44.54981" lon="0.65247">
        <ele>107.1</ele>
        <time>2021-07-23T06:31:01Z</time>
      </trkpt>
      <trkpt lat="44.54973" lon="0.65227">
        <ele>107.6</ele>
        <time>2021-07-23T06:31:05Z</time>
      </trkpt>
      <trkpt lat="44.5497" lon="0.65223">
        <ele>107.7</ele>
        <time>2021-07-23T06:31:07Z</time>
      </trkpt>
      <trkpt lat="44.54968" lon="0.65221">
        <ele>107.6</ele>
        <time>2021-07-23T06:31:08Z</time>
      </trkpt>
      <trkpt lat="44.54948" lon="0.65214">
        <ele>108</ele>
        <time>2021-07-23T06:31:13Z</time>
      </trkpt>
      <trkpt lat="44.54928" lon="0.65206">
        <ele>108.5</ele>
        <time>2021-07-23T06:31:19Z</time>
      </trkpt>
      <trkpt lat="44.54913" lon="0.65201">
        <ele>108.9</ele>
        <time>2021-07-23T06:31:25Z</time>
      </trkpt>
      <trkpt lat="44.54903" lon="0.65199">
        <ele>109</ele>
        <time>2021-07-23T06:31:30Z</time>
      </trkpt>
      <trkpt lat="44.54895" lon="0.65194">
        <ele>109</ele>
        <time>2021-07-23T06:31:35Z</time>
      </trkpt>
      <trkpt lat="44.54883" lon="0.65189">
        <ele>109.1</ele>
        <time>2021-07-23T06:31:42Z</time>
      </trkpt>
      <trkpt lat="44.54872" lon="0.65186">
        <ele>109.2</ele>
        <time>2021-07-23T06:31:48Z</time>
      </trkpt>
      <trkpt lat="44.54855" lon="0.65182">
        <ele>109.6</ele>
        <time>2021-07-23T06:31:57Z</time>
      </trkpt>
      <trkpt lat="44.54839" lon="0.65178">
        <ele>110.3</ele>
        <time>2021-07-23T06:32:05Z</time>
      </trkpt>
      <trkpt lat="44.54822" lon="0.65176">
        <ele>111.3</ele>
        <time>2021-07-23T06:32:13Z</time>
      </trkpt>
      <trkpt lat="44.54806" lon="0.65176">
        <ele>112.6</ele>
        <time>2021-07-23T06:32:20Z</time>
      </trkpt>
      <trkpt lat="44.54789" lon="0.65178">
        <ele>114.6</ele>
        <time>2021-07-23T06:32:28Z</time>
      </trkpt>
      <trkpt lat="44.54771" lon="0.65176">
        <ele>117</ele>
        <time>2021-07-23T06:32:36Z</time>
      </trkpt>
      <trkpt lat="44.54755" lon="0.6517">
        <ele>119.3</ele>
        <time>2021-07-23T06:32:44Z</time>
      </trkpt>
      <trkpt lat="44.54743" lon="0.65164">
        <ele>121</ele>
        <time>2021-07-23T06:32:51Z</time>
      </trkpt>
      <trkpt lat="44.54733" lon="0.65159">
        <ele>122</ele>
        <time>2021-07-23T06:32:57Z</time>
      </trkpt>
      <trkpt lat="44.54726" lon="0.65155">
        <ele>122.7</ele>
        <time>2021-07-23T06:33:02Z</time>
      </trkpt>
      <trkpt lat="44.54724" lon="0.65154">
        <ele>122.8</ele>
        <time>2021-07-23T06:33:04Z</time>
      </trkpt>
      <trkpt lat="44.54722" lon="0.65152">
        <ele>122.9</ele>
        <time>2021-07-23T06:33:06Z</time>
      </trkpt>
      <trkpt lat="44.54719" lon="0.6515">
        <ele>123.1</ele>
        <time>2021-07-23T06:33:08Z</time>
      </trkpt>
      <trkpt lat="44.54711" lon="0.65146">
        <ele>123.9</ele>
        <time>2021-07-23T06:33:14Z</time>
      </trkpt>
      <trkpt lat="44.54701" lon="0.6514">
        <ele>124.9</ele>
        <time>2021-07-23T06:33:20Z</time>
      </trkpt>
      <trkpt lat="44.54689" lon="0.65133">
        <ele>126.2</ele>
        <time>2021-07-23T06:33:28Z</time>
      </trkpt>
      <trkpt lat="44.54681" lon="0.65128">
        <ele>126.8</ele>
        <time>2021-07-23T06:33:34Z</time>
      </trkpt>
      <trkpt lat="44.54671" lon="0.65122">
        <ele>127.6</ele>
        <time>2021-07-23T06:33:41Z</time>
      </trkpt>
      <trkpt lat="44.54661" lon="0.6512">
        <ele>128.1</ele>
        <time>2021-07-23T06:33:47Z</time>
      </trkpt>
      <trkpt lat="44.54657" lon="0.65121">
        <ele>127.9</ele>
        <time>2021-07-23T06:33:49Z</time>
      </trkpt>
      <trkpt lat="44.54655" lon="0.65126">
        <ele>127.7</ele>
        <time>2021-07-23T06:33:51Z</time>
      </trkpt>
      <trkpt lat="44.54656" lon="0.65149">
        <ele>126.8</ele>
        <time>2021-07-23T06:33:56Z</time>
      </trkpt>
      <trkpt lat="44.54657" lon="0.65161">
        <ele>126.3</ele>
        <time>2021-07-23T06:33:58Z</time>
      </trkpt>
      <trkpt lat="44.54657" lon="0.65183">
        <ele>125.4</ele>
        <time>2021-07-23T06:34:01Z</time>
      </trkpt>
      <trkpt lat="44.54656" lon="0.65208">
        <ele>124.6</ele>
        <time>2021-07-23T06:34:04Z</time>
      </trkpt>
      <trkpt lat="44.54654" lon="0.65235">
        <ele>123.8</ele>
        <time>2021-07-23T06:34:07Z</time>
      </trkpt>
      <trkpt lat="44.54654" lon="0.65317">
        <ele>122.6</ele>
        <time>2021-07-23T06:34:16Z</time>
      </trkpt>
      <trkpt lat="44.54654" lon="0.65325">
        <ele>122.5</ele>
        <time>2021-07-23T06:34:17Z</time>
      </trkpt>
      <trkpt lat="44.54655" lon="0.65391">
        <ele>122.3</ele>
        <time>2021-07-23T06:34:25Z</time>
      </trkpt>
      <trkpt lat="44.54653" lon="0.65414">
        <ele>122</ele>
        <time>2021-07-23T06:34:28Z</time>
      </trkpt>
      <trkpt lat="44.5465" lon="0.65435">
        <ele>121.6</ele>
        <time>2021-07-23T06:34:31Z</time>
      </trkpt>
      <trkpt lat="44.54647" lon="0.65481">
        <ele>120</ele>
        <time>2021-07-23T06:34:37Z</time>
      </trkpt>
      <trkpt lat="44.54649" lon="0.65518">
        <ele>118</ele>
        <time>2021-07-23T06:34:41Z</time>
      </trkpt>
      <trkpt lat="44.5465" lon="0.65529">
        <ele>117.4</ele>
        <time>2021-07-23T06:34:42Z</time>
      </trkpt>
      <trkpt lat="44.54662" lon="0.65585">
        <ele>113.9</ele>
        <time>2021-07-23T06:34:47Z</time>
      </trkpt>
      <trkpt lat="44.54678" lon="0.65637">
        <ele>111.3</ele>
        <time>2021-07-23T06:34:52Z</time>
      </trkpt>
      <trkpt lat="44.5468" lon="0.65647">
        <ele>110.9</ele>
        <time>2021-07-23T06:34:53Z</time>
      </trkpt>
      <trkpt lat="44.5468" lon="0.65666">
        <ele>110.4</ele>
        <time>2021-07-23T06:34:55Z</time>
      </trkpt>
      <trkpt lat="44.54673" lon="0.65683">
        <ele>110.4</ele>
        <time>2021-07-23T06:34:57Z</time>
      </trkpt>
      <trkpt lat="44.54668" lon="0.65691">
        <ele>110.4</ele>
        <time>2021-07-23T06:34:58Z</time>
      </trkpt>
      <trkpt lat="44.54634" lon="0.65748">
        <ele>110.3</ele>
        <time>2021-07-23T06:35:05Z</time>
      </trkpt>
      <trkpt lat="44.54594" lon="0.65805">
        <ele>110.2</ele>
        <time>2021-07-23T06:35:12Z</time>
      </trkpt>
      <trkpt lat="44.54583" lon="0.65821">
        <ele>110.2</ele>
        <time>2021-07-23T06:35:14Z</time>
      </trkpt>
      <trkpt lat="44.54542" lon="0.65877">
        <ele>110.1</ele>
        <time>2021-07-23T06:35:21Z</time>
      </trkpt>
      <trkpt lat="44.54536" lon="0.65884">
        <ele>110.1</ele>
        <time>2021-07-23T06:35:22Z</time>
      </trkpt>
      <trkpt lat="44.54491" lon="0.65931">
        <ele>110.1</ele>
        <time>2021-07-23T06:35:29Z</time>
      </trkpt>
      <trkpt lat="44.54457" lon="0.6598">
        <ele>110</ele>
        <time>2021-07-23T06:35:34Z</time>
      </trkpt>
      <trkpt lat="44.54417" lon="0.66032">
        <ele>109.9</ele>
        <time>2021-07-23T06:35:40Z</time>
      </trkpt>
      <trkpt lat="44.54389" lon="0.66062">
        <ele>109.9</ele>
        <time>2021-07-23T06:35:45Z</time>
      </trkpt>
      <trkpt lat="44.54375" lon="0.66072">
        <ele>109.9</ele>
        <time>2021-07-23T06:35:48Z</time>
      </trkpt>
      <trkpt lat="44.54371" lon="0.66073">
        <ele>109.9</ele>
        <time>2021-07-23T06:35:49Z</time>
      </trkpt>
      <trkpt lat="44.54367" lon="0.66073">
        <ele>109.9</ele>
        <time>2021-07-23T06:35:50Z</time>
      </trkpt>
      <trkpt lat="44.54359" lon="0.66067">
        <ele>109.8</ele>
        <time>2021-07-23T06:35:52Z</time>
      </trkpt>
      <trkpt lat="44.54339" lon="0.66044">
        <ele>109.8</ele>
        <time>2021-07-23T06:35:58Z</time>
      </trkpt>
      <trkpt lat="44.5431" lon="0.66011">
        <ele>109.8</ele>
        <time>2021-07-23T06:36:07Z</time>
      </trkpt>
      <trkpt lat="44.54292" lon="0.65989">
        <ele>109.7</ele>
        <time>2021-07-23T06:36:13Z</time>
      </trkpt>
      <trkpt lat="44.54286" lon="0.65983">
        <ele>109.7</ele>
        <time>2021-07-23T06:36:15Z</time>
      </trkpt>
      <trkpt lat="44.54269" lon="0.65964">
        <ele>109.7</ele>
        <time>2021-07-23T06:36:21Z</time>
      </trkpt>
      <trkpt lat="44.54255" lon="0.65947">
        <ele>109.7</ele>
        <time>2021-07-23T06:36:26Z</time>
      </trkpt>
      <trkpt lat="44.5423" lon="0.65921">
        <ele>109.6</ele>
        <time>2021-07-23T06:36:34Z</time>
      </trkpt>
      <trkpt lat="44.54214" lon="0.65913">
        <ele>109.6</ele>
        <time>2021-07-23T06:36:39Z</time>
      </trkpt>
      <trkpt lat="44.54193" lon="0.65911">
        <ele>109.6</ele>
        <time>2021-07-23T06:36:46Z</time>
      </trkpt>
      <trkpt lat="44.54174" lon="0.65908">
        <ele>109.6</ele>
        <time>2021-07-23T06:36:54Z</time>
      </trkpt>
      <trkpt lat="44.54157" lon="0.65906">
        <ele>109.6</ele>
        <time>2021-07-23T06:37:01Z</time>
      </trkpt>
      <trkpt lat="44.5414" lon="0.65904">
        <ele>109.5</ele>
        <time>2021-07-23T06:37:08Z</time>
      </trkpt>
      <trkpt lat="44.54123" lon="0.65899">
        <ele>109.5</ele>
        <time>2021-07-23T06:37:15Z</time>
      </trkpt>
      <trkpt lat="44.5411" lon="0.659">
        <ele>109.8</ele>
        <time>2021-07-23T06:37:20Z</time>
      </trkpt>
      <trkpt lat="44.54093" lon="0.65899">
        <ele>110.3</ele>
        <time>2021-07-23T06:37:26Z</time>
      </trkpt>
      <trkpt lat="44.54077" lon="0.65893">
        <ele>110.4</ele>
        <time>2021-07-23T06:37:33Z</time>
      </trkpt>
      <trkpt lat="44.54056" lon="0.65888">
        <ele>110.6</ele>
        <time>2021-07-23T06:37:41Z</time>
      </trkpt>
      <trkpt lat="44.54039" lon="0.65885">
        <ele>110.8</ele>
        <time>2021-07-23T06:37:49Z</time>
      </trkpt>
      <trkpt lat="44.54031" lon="0.65884">
        <ele>111.1</ele>
        <time>2021-07-23T06:37:55Z</time>
      </trkpt>
      <trkpt lat="44.54024" lon="0.65884">
        <ele>111.3</ele>
        <time>2021-07-23T06:38:01Z</time>
      </trkpt>
      <trkpt lat="44.54014" lon="0.65886">
        <ele>111.7</ele>
        <time>2021-07-23T06:38:08Z</time>
      </trkpt>
      <trkpt lat="44.54003" lon="0.65886">
        <ele>112</ele>
        <time>2021-07-23T06:38:15Z</time>
      </trkpt>
      <trkpt lat="44.53994" lon="0.65887">
        <ele>112.3</ele>
        <time>2021-07-23T06:38:21Z</time>
      </trkpt>
      <trkpt lat="44.53982" lon="0.65889">
        <ele>113.3</ele>
        <time>2021-07-23T06:38:28Z</time>
      </trkpt>
      <trkpt lat="44.53967" lon="0.65893">
        <ele>114.8</ele>
        <time>2021-07-23T06:38:37Z</time>
      </trkpt>
      <trkpt lat="44.53958" lon="0.65898">
        <ele>115.7</ele>
        <time>2021-07-23T06:38:43Z</time>
      </trkpt>
      <trkpt lat="44.53952" lon="0.65909">
        <ele>116.5</ele>
        <time>2021-07-23T06:38:49Z</time>
      </trkpt>
      <trkpt lat="44.53947" lon="0.65927">
        <ele>117.7</ele>
        <time>2021-07-23T06:38:57Z</time>
      </trkpt>
      <trkpt lat="44.5394" lon="0.65946">
        <ele>118.7</ele>
        <time>2021-07-23T06:39:04Z</time>
      </trkpt>
      <trkpt lat="44.53931" lon="0.65949">
        <ele>119.1</ele>
        <time>2021-07-23T06:39:08Z</time>
      </trkpt>
      <trkpt lat="44.53908" lon="0.65948">
        <ele>120</ele>
        <time>2021-07-23T06:39:16Z</time>
      </trkpt>
      <trkpt lat="44.5389" lon="0.65947">
        <ele>120.7</ele>
        <time>2021-07-23T06:39:21Z</time>
      </trkpt>
      <trkpt lat="44.53867" lon="0.65949">
        <ele>121.7</ele>
        <time>2021-07-23T06:39:27Z</time>
      </trkpt>
      <trkpt lat="44.53842" lon="0.6595">
        <ele>123</ele>
        <time>2021-07-23T06:39:34Z</time>
      </trkpt>
      <trkpt lat="44.53824" lon="0.65948">
        <ele>124.4</ele>
        <time>2021-07-23T06:39:40Z</time>
      </trkpt>
      <trkpt lat="44.5382" lon="0.65948">
        <ele>124.8</ele>
        <time>2021-07-23T06:39:41Z</time>
      </trkpt>
      <trkpt lat="44.53804" lon="0.65948">
        <ele>126.7</ele>
        <time>2021-07-23T06:39:46Z</time>
      </trkpt>
      <trkpt lat="44.53793" lon="0.65947">
        <ele>128.4</ele>
        <time>2021-07-23T06:39:50Z</time>
      </trkpt>
      <trkpt lat="44.53778" lon="0.65948">
        <ele>130.1</ele>
        <time>2021-07-23T06:39:55Z</time>
      </trkpt>
      <trkpt lat="44.53765" lon="0.65948">
        <ele>131</ele>
        <time>2021-07-23T06:40:01Z</time>
      </trkpt>
      <trkpt lat="44.53759" lon="0.65947">
        <ele>131.5</ele>
        <time>2021-07-23T06:40:05Z</time>
      </trkpt>
      <trkpt lat="44.53758" lon="0.65947">
        <ele>131.5</ele>
        <time>2021-07-23T06:40:06Z</time>
      </trkpt>
      <trkpt lat="44.53752" lon="0.65947">
        <ele>131.7</ele>
        <time>2021-07-23T06:40:10Z</time>
      </trkpt>
      <trkpt lat="44.53752" lon="0.65952">
        <ele>131.6</ele>
        <time>2021-07-23T06:40:22Z</time>
      </trkpt>
      <trkpt lat="44.53753" lon="0.65968">
        <ele>130.9</ele>
        <time>2021-07-23T06:40:27Z</time>
      </trkpt>
      <trkpt lat="44.53756" lon="0.65994">
        <ele>129.6</ele>
        <time>2021-07-23T06:40:34Z</time>
      </trkpt>
      <trkpt lat="44.53761" lon="0.66018">
        <ele>128.1</ele>
        <time>2021-07-23T06:40:40Z</time>
      </trkpt>
      <trkpt lat="44.5377" lon="0.66054">
        <ele>126.6</ele>
        <time>2021-07-23T06:40:47Z</time>
      </trkpt>
      <trkpt lat="44.53781" lon="0.661">
        <ele>126.2</ele>
        <time>2021-07-23T06:40:55Z</time>
      </trkpt>
      <trkpt lat="44.53791" lon="0.66142">
        <ele>127.6</ele>
        <time>2021-07-23T06:41:02Z</time>
      </trkpt>
      <trkpt lat="44.53796" lon="0.66177">
        <ele>128.3</ele>
        <time>2021-07-23T06:41:08Z</time>
      </trkpt>
      <trkpt lat="44.53801" lon="0.66211">
        <ele>127</ele>
        <time>2021-07-23T06:41:14Z</time>
      </trkpt>
      <trkpt lat="44.53805" lon="0.66238">
        <ele>125.3</ele>
        <time>2021-07-23T06:41:19Z</time>
      </trkpt>
      <trkpt lat="44.53808" lon="0.66252">
        <ele>124.5</ele>
        <time>2021-07-23T06:41:21Z</time>
      </trkpt>
      <trkpt lat="44.53812" lon="0.66268">
        <ele>123.5</ele>
        <time>2021-07-23T06:41:23Z</time>
      </trkpt>
      <trkpt lat="44.53813" lon="0.66278">
        <ele>122.9</ele>
        <time>2021-07-23T06:41:24Z</time>
      </trkpt>
      <trkpt lat="44.53815" lon="0.66288">
        <ele>122</ele>
        <time>2021-07-23T06:41:25Z</time>
      </trkpt>
      <trkpt lat="44.53824" lon="0.66321">
        <ele>120.2</ele>
        <time>2021-07-23T06:41:28Z</time>
      </trkpt>
      <trkpt lat="44.53828" lon="0.66332">
        <ele>119.4</ele>
        <time>2021-07-23T06:41:29Z</time>
      </trkpt>
      <trkpt lat="44.53837" lon="0.66355">
        <ele>118.3</ele>
        <time>2021-07-23T06:41:31Z</time>
      </trkpt>
      <trkpt lat="44.53855" lon="0.66403">
        <ele>115.1</ele>
        <time>2021-07-23T06:41:35Z</time>
      </trkpt>
      <trkpt lat="44.53877" lon="0.66452">
        <ele>113</ele>
        <time>2021-07-23T06:41:40Z</time>
      </trkpt>
      <trkpt lat="44.53907" lon="0.66517">
        <ele>110.9</ele>
        <time>2021-07-23T06:41:47Z</time>
      </trkpt>
      <trkpt lat="44.53907" lon="0.66539">
        <ele>110.3</ele>
        <time>2021-07-23T06:41:49Z</time>
      </trkpt>
      <trkpt lat="44.53906" lon="0.6655">
        <ele>110.1</ele>
        <time>2021-07-23T06:41:50Z</time>
      </trkpt>
      <trkpt lat="44.53903" lon="0.66594">
        <ele>109.1</ele>
        <time>2021-07-23T06:41:54Z</time>
      </trkpt>
      <trkpt lat="44.53906" lon="0.6665">
        <ele>107.2</ele>
        <time>2021-07-23T06:41:59Z</time>
      </trkpt>
      <trkpt lat="44.53913" lon="0.66686">
        <ele>106.2</ele>
        <time>2021-07-23T06:42:03Z</time>
      </trkpt>
      <trkpt lat="44.53912" lon="0.667">
        <ele>105.3</ele>
        <time>2021-07-23T06:42:05Z</time>
      </trkpt>
      <trkpt lat="44.53909" lon="0.66707">
        <ele>104.9</ele>
        <time>2021-07-23T06:42:06Z</time>
      </trkpt>
      <trkpt lat="44.53903" lon="0.66719">
        <ele>103.9</ele>
        <time>2021-07-23T06:42:08Z</time>
      </trkpt>
      <trkpt lat="44.53899" lon="0.66731">
        <ele>102.9</ele>
        <time>2021-07-23T06:42:10Z</time>
      </trkpt>
      <trkpt lat="44.53897" lon="0.66738">
        <ele>102.5</ele>
        <time>2021-07-23T06:42:11Z</time>
      </trkpt>
      <trkpt lat="44.53894" lon="0.66756">
        <ele>101.2</ele>
        <time>2021-07-23T06:42:14Z</time>
      </trkpt>
      <trkpt lat="44.53894" lon="0.66762">
        <ele>100.8</ele>
        <time>2021-07-23T06:42:15Z</time>
      </trkpt>
      <trkpt lat="44.53895" lon="0.66768">
        <ele>100.3</ele>
        <time>2021-07-23T06:42:16Z</time>
      </trkpt>
      <trkpt lat="44.53901" lon="0.6678">
        <ele>99.7</ele>
        <time>2021-07-23T06:42:18Z</time>
      </trkpt>
      <trkpt lat="44.53904" lon="0.66786">
        <ele>99.2</ele>
        <time>2021-07-23T06:42:19Z</time>
      </trkpt>
      <trkpt lat="44.53906" lon="0.66797">
        <ele>98.7</ele>
        <time>2021-07-23T06:42:21Z</time>
      </trkpt>
      <trkpt lat="44.53899" lon="0.66815">
        <ele>97.8</ele>
        <time>2021-07-23T06:42:25Z</time>
      </trkpt>
      <trkpt lat="44.53886" lon="0.66843">
        <ele>97.2</ele>
        <time>2021-07-23T06:42:30Z</time>
      </trkpt>
      <trkpt lat="44.53884" lon="0.66863">
        <ele>96.9</ele>
        <time>2021-07-23T06:42:34Z</time>
      </trkpt>
      <trkpt lat="44.53882" lon="0.66874">
        <ele>96.8</ele>
        <time>2021-07-23T06:42:37Z</time>
      </trkpt>
      <trkpt lat="44.53881" lon="0.66893">
        <ele>96.6</ele>
        <time>2021-07-23T06:42:42Z</time>
      </trkpt>
      <trkpt lat="44.53888" lon="0.66924">
        <ele>96.9</ele>
        <time>2021-07-23T06:42:49Z</time>
      </trkpt>
      <trkpt lat="44.53892" lon="0.66939">
        <ele>97.4</ele>
        <time>2021-07-23T06:42:54Z</time>
      </trkpt>
      <trkpt lat="44.53893" lon="0.66942">
        <ele>97.2</ele>
        <time>2021-07-23T06:42:55Z</time>
      </trkpt>
      <trkpt lat="44.53894" lon="0.66948">
        <ele>97.6</ele>
        <time>2021-07-23T06:42:57Z</time>
      </trkpt>
      <trkpt lat="44.53894" lon="0.66953">
        <ele>97.7</ele>
        <time>2021-07-23T06:42:59Z</time>
      </trkpt>
      <trkpt lat="44.53897" lon="0.66966">
        <ele>98.5</ele>
        <time>2021-07-23T06:43:05Z</time>
      </trkpt>
      <trkpt lat="44.539" lon="0.66972">
        <ele>98.8</ele>
        <time>2021-07-23T06:43:08Z</time>
      </trkpt>
      <trkpt lat="44.539" lon="0.66978">
        <ele>99.1</ele>
        <time>2021-07-23T06:43:11Z</time>
      </trkpt>
      <trkpt lat="44.539" lon="0.66984">
        <ele>99.5</ele>
        <time>2021-07-23T06:43:14Z</time>
      </trkpt>
      <trkpt lat="44.53902" lon="0.66987">
        <ele>99.7</ele>
        <time>2021-07-23T06:43:16Z</time>
      </trkpt>
      <trkpt lat="44.53902" lon="0.66991">
        <ele>99.9</ele>
        <time>2021-07-23T06:43:18Z</time>
      </trkpt>
      <trkpt lat="44.539" lon="0.66997">
        <ele>100.3</ele>
        <time>2021-07-23T06:43:21Z</time>
      </trkpt>
      <trkpt lat="44.53901" lon="0.66999">
        <ele>100.4</ele>
        <time>2021-07-23T06:43:22Z</time>
      </trkpt>
      <trkpt lat="44.53902" lon="0.67006">
        <ele>100.8</ele>
        <time>2021-07-23T06:43:26Z</time>
      </trkpt>
      <trkpt lat="44.53902" lon="0.67008">
        <ele>100.9</ele>
        <time>2021-07-23T06:43:27Z</time>
      </trkpt>
      <trkpt lat="44.53903" lon="0.67021">
        <ele>101.7</ele>
        <time>2021-07-23T06:43:34Z</time>
      </trkpt>
      <trkpt lat="44.53904" lon="0.67035">
        <ele>102.5</ele>
        <time>2021-07-23T06:43:41Z</time>
      </trkpt>
      <trkpt lat="44.53907" lon="0.67052">
        <ele>103.2</ele>
        <time>2021-07-23T06:43:47Z</time>
      </trkpt>
      <trkpt lat="44.5391" lon="0.67077">
        <ele>103.9</ele>
        <time>2021-07-23T06:43:54Z</time>
      </trkpt>
      <trkpt lat="44.53917" lon="0.67113">
        <ele>104.3</ele>
        <time>2021-07-23T06:44:02Z</time>
      </trkpt>
      <trkpt lat="44.53919" lon="0.67131">
        <ele>104.4</ele>
        <time>2021-07-23T06:44:05Z</time>
      </trkpt>
      <trkpt lat="44.53922" lon="0.67156">
        <ele>104.2</ele>
        <time>2021-07-23T06:44:09Z</time>
      </trkpt>
      <trkpt lat="44.53924" lon="0.67211">
        <ele>103.7</ele>
        <time>2021-07-23T06:44:16Z</time>
      </trkpt>
      <trkpt lat="44.53924" lon="0.67219">
        <ele>103.3</ele>
        <time>2021-07-23T06:44:17Z</time>
      </trkpt>
      <trkpt lat="44.53922" lon="0.67251">
        <ele>102</ele>
        <time>2021-07-23T06:44:21Z</time>
      </trkpt>
      <trkpt lat="44.53921" lon="0.67301">
        <ele>100.3</ele>
        <time>2021-07-23T06:44:27Z</time>
      </trkpt>
      <trkpt lat="44.53919" lon="0.67318">
        <ele>99.7</ele>
        <time>2021-07-23T06:44:29Z</time>
      </trkpt>
      <trkpt lat="44.53917" lon="0.6734">
        <ele>99.1</ele>
        <time>2021-07-23T06:44:32Z</time>
      </trkpt>
      <trkpt lat="44.53915" lon="0.67363">
        <ele>98.7</ele>
        <time>2021-07-23T06:44:35Z</time>
      </trkpt>
      <trkpt lat="44.53911" lon="0.67418">
        <ele>98.5</ele>
        <time>2021-07-23T06:44:41Z</time>
      </trkpt>
      <trkpt lat="44.53911" lon="0.67426">
        <ele>98.3</ele>
        <time>2021-07-23T06:44:42Z</time>
      </trkpt>
      <trkpt lat="44.53911" lon="0.67446">
        <ele>97.9</ele>
        <time>2021-07-23T06:44:45Z</time>
      </trkpt>
      <trkpt lat="44.53911" lon="0.67452">
        <ele>97.7</ele>
        <time>2021-07-23T06:44:46Z</time>
      </trkpt>
      <trkpt lat="44.53908" lon="0.67472">
        <ele>97.5</ele>
        <time>2021-07-23T06:44:49Z</time>
      </trkpt>
      <trkpt lat="44.53903" lon="0.67519">
        <ele>97.6</ele>
        <time>2021-07-23T06:44:56Z</time>
      </trkpt>
      <trkpt lat="44.53897" lon="0.67547">
        <ele>98.2</ele>
        <time>2021-07-23T06:45:00Z</time>
      </trkpt>
      <trkpt lat="44.53893" lon="0.67561">
        <ele>98.4</ele>
        <time>2021-07-23T06:45:02Z</time>
      </trkpt>
      <trkpt lat="44.53881" lon="0.67608">
        <ele>98.4</ele>
        <time>2021-07-23T06:45:08Z</time>
      </trkpt>
      <trkpt lat="44.53879" lon="0.67636">
        <ele>97.5</ele>
        <time>2021-07-23T06:45:11Z</time>
      </trkpt>
      <trkpt lat="44.53879" lon="0.67646">
        <ele>97.2</ele>
        <time>2021-07-23T06:45:12Z</time>
      </trkpt>
      <trkpt lat="44.53885" lon="0.67692">
        <ele>96.2</ele>
        <time>2021-07-23T06:45:16Z</time>
      </trkpt>
      <trkpt lat="44.53886" lon="0.67713">
        <ele>95.9</ele>
        <time>2021-07-23T06:45:18Z</time>
      </trkpt>
      <trkpt lat="44.53885" lon="0.6773">
        <ele>95.7</ele>
        <time>2021-07-23T06:45:20Z</time>
      </trkpt>
      <trkpt lat="44.53881" lon="0.67746">
        <ele>95.6</ele>
        <time>2021-07-23T06:45:22Z</time>
      </trkpt>
      <trkpt lat="44.5388" lon="0.67757">
        <ele>95.6</ele>
        <time>2021-07-23T06:45:24Z</time>
      </trkpt>
      <trkpt lat="44.53877" lon="0.67771">
        <ele>95.6</ele>
        <time>2021-07-23T06:45:28Z</time>
      </trkpt>
      <trkpt lat="44.5388" lon="0.67791">
        <ele>95.7</ele>
        <time>2021-07-23T06:45:32Z</time>
      </trkpt>
      <trkpt lat="44.53891" lon="0.67831">
        <ele>96</ele>
        <time>2021-07-23T06:45:40Z</time>
      </trkpt>
      <trkpt lat="44.539" lon="0.67872">
        <ele>96.6</ele>
        <time>2021-07-23T06:45:47Z</time>
      </trkpt>
      <trkpt lat="44.53901" lon="0.67879">
        <ele>96.7</ele>
        <time>2021-07-23T06:45:48Z</time>
      </trkpt>
      <trkpt lat="44.53907" lon="0.67908">
        <ele>97.4</ele>
        <time>2021-07-23T06:45:53Z</time>
      </trkpt>
      <trkpt lat="44.53913" lon="0.67953">
        <ele>98.5</ele>
        <time>2021-07-23T06:46:01Z</time>
      </trkpt>
      <trkpt lat="44.5392" lon="0.68006">
        <ele>99.7</ele>
        <time>2021-07-23T06:46:10Z</time>
      </trkpt>
      <trkpt lat="44.53923" lon="0.68053">
        <ele>100.7</ele>
        <time>2021-07-23T06:46:18Z</time>
      </trkpt>
      <trkpt lat="44.53926" lon="0.68105">
        <ele>101.7</ele>
        <time>2021-07-23T06:46:27Z</time>
      </trkpt>
      <trkpt lat="44.53927" lon="0.68148">
        <ele>101.9</ele>
        <time>2021-07-23T06:46:34Z</time>
      </trkpt>
      <trkpt lat="44.53928" lon="0.68196">
        <ele>101.5</ele>
        <time>2021-07-23T06:46:41Z</time>
      </trkpt>
      <trkpt lat="44.53927" lon="0.68202">
        <ele>101.5</ele>
        <time>2021-07-23T06:46:42Z</time>
      </trkpt>
      <trkpt lat="44.53926" lon="0.68235">
        <ele>101.1</ele>
        <time>2021-07-23T06:46:47Z</time>
      </trkpt>
      <trkpt lat="44.53923" lon="0.68279">
        <ele>100.4</ele>
        <time>2021-07-23T06:46:53Z</time>
      </trkpt>
      <trkpt lat="44.53923" lon="0.68287">
        <ele>100.2</ele>
        <time>2021-07-23T06:46:54Z</time>
      </trkpt>
      <trkpt lat="44.53922" lon="0.68321">
        <ele>99.6</ele>
        <time>2021-07-23T06:46:58Z</time>
      </trkpt>
      <trkpt lat="44.53919" lon="0.68393">
        <ele>98.4</ele>
        <time>2021-07-23T06:47:06Z</time>
      </trkpt>
      <trkpt lat="44.53914" lon="0.68455">
        <ele>98.1</ele>
        <time>2021-07-23T06:47:13Z</time>
      </trkpt>
      <trkpt lat="44.53911" lon="0.68507">
        <ele>98</ele>
        <time>2021-07-23T06:47:20Z</time>
      </trkpt>
      <trkpt lat="44.53908" lon="0.68538">
        <ele>98</ele>
        <time>2021-07-23T06:47:25Z</time>
      </trkpt>
      <trkpt lat="44.53905" lon="0.68543">
        <ele>98</ele>
        <time>2021-07-23T06:47:26Z</time>
      </trkpt>
      <trkpt lat="44.53901" lon="0.68545">
        <ele>97.9</ele>
        <time>2021-07-23T06:47:27Z</time>
      </trkpt>
      <trkpt lat="44.53892" lon="0.68544">
        <ele>97.8</ele>
        <time>2021-07-23T06:47:29Z</time>
      </trkpt>
      <trkpt lat="44.53866" lon="0.68542">
        <ele>97.6</ele>
        <time>2021-07-23T06:47:35Z</time>
      </trkpt>
      <trkpt lat="44.5386" lon="0.68546">
        <ele>97.9</ele>
        <time>2021-07-23T06:47:37Z</time>
      </trkpt>
      <trkpt lat="44.53859" lon="0.6855">
        <ele>98.1</ele>
        <time>2021-07-23T06:47:38Z</time>
      </trkpt>
      <trkpt lat="44.53848" lon="0.68573">
        <ele>98.8</ele>
        <time>2021-07-23T06:47:44Z</time>
      </trkpt>
      <trkpt lat="44.5383" lon="0.68589">
        <ele>99.8</ele>
        <time>2021-07-23T06:47:50Z</time>
      </trkpt>
      <trkpt lat="44.53811" lon="0.68599">
        <ele>100.4</ele>
        <time>2021-07-23T06:47:56Z</time>
      </trkpt>
      <trkpt lat="44.53792" lon="0.68613">
        <ele>101.1</ele>
        <time>2021-07-23T06:48:02Z</time>
      </trkpt>
      <trkpt lat="44.53766" lon="0.68626">
        <ele>101.8</ele>
        <time>2021-07-23T06:48:10Z</time>
      </trkpt>
      <trkpt lat="44.53745" lon="0.68641">
        <ele>102.8</ele>
        <time>2021-07-23T06:48:17Z</time>
      </trkpt>
      <trkpt lat="44.53734" lon="0.68653">
        <ele>103.5</ele>
        <time>2021-07-23T06:48:22Z</time>
      </trkpt>
      <trkpt lat="44.53733" lon="0.68656">
        <ele>103.4</ele>
        <time>2021-07-23T06:48:23Z</time>
      </trkpt>
      <trkpt lat="44.53736" lon="0.68669">
        <ele>103.1</ele>
        <time>2021-07-23T06:48:26Z</time>
      </trkpt>
      <trkpt lat="44.53738" lon="0.6868">
        <ele>102.9</ele>
        <time>2021-07-23T06:48:28Z</time>
      </trkpt>
      <trkpt lat="44.53734" lon="0.6869">
        <ele>102.6</ele>
        <time>2021-07-23T06:48:30Z</time>
      </trkpt>
      <trkpt lat="44.53722" lon="0.68692">
        <ele>103.5</ele>
        <time>2021-07-23T06:48:33Z</time>
      </trkpt>
      <trkpt lat="44.53694" lon="0.68696">
        <ele>104.8</ele>
        <time>2021-07-23T06:48:41Z</time>
      </trkpt>
      <trkpt lat="44.53662" lon="0.68704">
        <ele>106.4</ele>
        <time>2021-07-23T06:48:50Z</time>
      </trkpt>
      <trkpt lat="44.53635" lon="0.68707">
        <ele>107.8</ele>
        <time>2021-07-23T06:48:57Z</time>
      </trkpt>
      <trkpt lat="44.53608" lon="0.68707">
        <ele>109.1</ele>
        <time>2021-07-23T06:49:04Z</time>
      </trkpt>
      <trkpt lat="44.53589" lon="0.68713">
        <ele>110</ele>
        <time>2021-07-23T06:49:10Z</time>
      </trkpt>
      <trkpt lat="44.5357" lon="0.68719">
        <ele>111</ele>
        <time>2021-07-23T06:49:17Z</time>
      </trkpt>
      <trkpt lat="44.53556" lon="0.68727">
        <ele>111.7</ele>
        <time>2021-07-23T06:49:23Z</time>
      </trkpt>
      <trkpt lat="44.53539" lon="0.68735">
        <ele>112.6</ele>
        <time>2021-07-23T06:49:30Z</time>
      </trkpt>
      <trkpt lat="44.53528" lon="0.68742">
        <ele>113.2</ele>
        <time>2021-07-23T06:49:35Z</time>
      </trkpt>
      <trkpt lat="44.53516" lon="0.68747">
        <ele>113.8</ele>
        <time>2021-07-23T06:49:40Z</time>
      </trkpt>
      <trkpt lat="44.53504" lon="0.68746">
        <ele>114.4</ele>
        <time>2021-07-23T06:49:45Z</time>
      </trkpt>
      <trkpt lat="44.53492" lon="0.68733">
        <ele>115.1</ele>
        <time>2021-07-23T06:49:51Z</time>
      </trkpt>
      <trkpt lat="44.53482" lon="0.68718">
        <ele>115.8</ele>
        <time>2021-07-23T06:49:57Z</time>
      </trkpt>
      <trkpt lat="44.53476" lon="0.68709">
        <ele>116.3</ele>
        <time>2021-07-23T06:50:01Z</time>
      </trkpt>
      <trkpt lat="44.53475" lon="0.68707">
        <ele>116.4</ele>
        <time>2021-07-23T06:50:02Z</time>
      </trkpt>
      <trkpt lat="44.53471" lon="0.68702">
        <ele>116.6</ele>
        <time>2021-07-23T06:50:05Z</time>
      </trkpt>
      <trkpt lat="44.53469" lon="0.68701">
        <ele>116.7</ele>
        <time>2021-07-23T06:50:06Z</time>
      </trkpt>
      <trkpt lat="44.53464" lon="0.68691">
        <ele>117.1</ele>
        <time>2021-07-23T06:50:10Z</time>
      </trkpt>
      <trkpt lat="44.53451" lon="0.68677">
        <ele>117.9</ele>
        <time>2021-07-23T06:50:17Z</time>
      </trkpt>
      <trkpt lat="44.5344" lon="0.68674">
        <ele>118.5</ele>
        <time>2021-07-23T06:50:23Z</time>
      </trkpt>
      <trkpt lat="44.53438" lon="0.68675">
        <ele>118.6</ele>
        <time>2021-07-23T06:50:24Z</time>
      </trkpt>
      <trkpt lat="44.5343" lon="0.68681">
        <ele>119</ele>
        <time>2021-07-23T06:50:28Z</time>
      </trkpt>
      <trkpt lat="44.53418" lon="0.68691">
        <ele>119.7</ele>
        <time>2021-07-23T06:50:34Z</time>
      </trkpt>
      <trkpt lat="44.53405" lon="0.68702">
        <ele>120.5</ele>
        <time>2021-07-23T06:50:41Z</time>
      </trkpt>
      <trkpt lat="44.53388" lon="0.68716">
        <ele>121.4</ele>
        <time>2021-07-23T06:50:50Z</time>
      </trkpt>
      <trkpt lat="44.53381" lon="0.68724">
        <ele>121.9</ele>
        <time>2021-07-23T06:50:54Z</time>
      </trkpt>
      <trkpt lat="44.5338" lon="0.68731">
        <ele>122.1</ele>
        <time>2021-07-23T06:50:56Z</time>
      </trkpt>
      <trkpt lat="44.53378" lon="0.68752">
        <ele>122.4</ele>
        <time>2021-07-23T06:51:02Z</time>
      </trkpt>
      <trkpt lat="44.53373" lon="0.68765">
        <ele>123.3</ele>
        <time>2021-07-23T06:51:07Z</time>
      </trkpt>
      <trkpt lat="44.53367" lon="0.68785">
        <ele>124.2</ele>
        <time>2021-07-23T06:51:13Z</time>
      </trkpt>
      <trkpt lat="44.53363" lon="0.68796">
        <ele>124.7</ele>
        <time>2021-07-23T06:51:17Z</time>
      </trkpt>
      <trkpt lat="44.53359" lon="0.68811">
        <ele>125.5</ele>
        <time>2021-07-23T06:51:22Z</time>
      </trkpt>
      <trkpt lat="44.53355" lon="0.68831">
        <ele>126</ele>
        <time>2021-07-23T06:51:28Z</time>
      </trkpt>
      <trkpt lat="44.53346" lon="0.68848">
        <ele>126.8</ele>
        <time>2021-07-23T06:51:33Z</time>
      </trkpt>
      <trkpt lat="44.5334" lon="0.68863">
        <ele>127.2</ele>
        <time>2021-07-23T06:51:37Z</time>
      </trkpt>
      <trkpt lat="44.53327" lon="0.68883">
        <ele>127.5</ele>
        <time>2021-07-23T06:51:43Z</time>
      </trkpt>
      <trkpt lat="44.53311" lon="0.68901">
        <ele>127.5</ele>
        <time>2021-07-23T06:51:50Z</time>
      </trkpt>
      <trkpt lat="44.53297" lon="0.68921">
        <ele>127.3</ele>
        <time>2021-07-23T06:51:57Z</time>
      </trkpt>
      <trkpt lat="44.53282" lon="0.68949">
        <ele>126.9</ele>
        <time>2021-07-23T06:52:05Z</time>
      </trkpt>
      <trkpt lat="44.5327" lon="0.68973">
        <ele>127.1</ele>
        <time>2021-07-23T06:52:12Z</time>
      </trkpt>
      <trkpt lat="44.53255" lon="0.68986">
        <ele>127</ele>
        <time>2021-07-23T06:52:17Z</time>
      </trkpt>
      <trkpt lat="44.53236" lon="0.68983">
        <ele>126.8</ele>
        <time>2021-07-23T06:52:22Z</time>
      </trkpt>
      <trkpt lat="44.53213" lon="0.68972">
        <ele>126.8</ele>
        <time>2021-07-23T06:52:29Z</time>
      </trkpt>
      <trkpt lat="44.53195" lon="0.6896">
        <ele>127.1</ele>
        <time>2021-07-23T06:52:35Z</time>
      </trkpt>
      <trkpt lat="44.53176" lon="0.68948">
        <ele>127.5</ele>
        <time>2021-07-23T06:52:41Z</time>
      </trkpt>
      <trkpt lat="44.53171" lon="0.68943">
        <ele>127.8</ele>
        <time>2021-07-23T06:52:43Z</time>
      </trkpt>
      <trkpt lat="44.53168" lon="0.68935">
        <ele>128</ele>
        <time>2021-07-23T06:52:45Z</time>
      </trkpt>
      <trkpt lat="44.53151" lon="0.68912">
        <ele>128.3</ele>
        <time>2021-07-23T06:52:52Z</time>
      </trkpt>
      <trkpt lat="44.53133" lon="0.68883">
        <ele>128.6</ele>
        <time>2021-07-23T06:53:00Z</time>
      </trkpt>
      <trkpt lat="44.5312" lon="0.68859">
        <ele>128.9</ele>
        <time>2021-07-23T06:53:06Z</time>
      </trkpt>
      <trkpt lat="44.53105" lon="0.68837">
        <ele>129.3</ele>
        <time>2021-07-23T06:53:12Z</time>
      </trkpt>
      <trkpt lat="44.53091" lon="0.68822">
        <ele>129.7</ele>
        <time>2021-07-23T06:53:18Z</time>
      </trkpt>
      <trkpt lat="44.53074" lon="0.68802">
        <ele>129.9</ele>
        <time>2021-07-23T06:53:25Z</time>
      </trkpt>
      <trkpt lat="44.53062" lon="0.68792">
        <ele>130.1</ele>
        <time>2021-07-23T06:53:29Z</time>
      </trkpt>
      <trkpt lat="44.5304" lon="0.68769">
        <ele>130.4</ele>
        <time>2021-07-23T06:53:37Z</time>
      </trkpt>
      <trkpt lat="44.53023" lon="0.68752">
        <ele>130.6</ele>
        <time>2021-07-23T06:53:43Z</time>
      </trkpt>
      <trkpt lat="44.53009" lon="0.6874">
        <ele>130.7</ele>
        <time>2021-07-23T06:53:48Z</time>
      </trkpt>
      <trkpt lat="44.52989" lon="0.68721">
        <ele>130.9</ele>
        <time>2021-07-23T06:53:55Z</time>
      </trkpt>
      <trkpt lat="44.52964" lon="0.68702">
        <ele>131.2</ele>
        <time>2021-07-23T06:54:03Z</time>
      </trkpt>
      <trkpt lat="44.5295" lon="0.68702">
        <ele>131.3</ele>
        <time>2021-07-23T06:54:07Z</time>
      </trkpt>
      <trkpt lat="44.5292" lon="0.68701">
        <ele>131.7</ele>
        <time>2021-07-23T06:54:15Z</time>
      </trkpt>
      <trkpt lat="44.52895" lon="0.68698">
        <ele>132.9</ele>
        <time>2021-07-23T06:54:22Z</time>
      </trkpt>
      <trkpt lat="44.52873" lon="0.68697">
        <ele>135.1</ele>
        <time>2021-07-23T06:54:28Z</time>
      </trkpt>
      <trkpt lat="44.52866" lon="0.68698">
        <ele>136.2</ele>
        <time>2021-07-23T06:54:30Z</time>
      </trkpt>
      <trkpt lat="44.52857" lon="0.68695">
        <ele>137.3</ele>
        <time>2021-07-23T06:54:32Z</time>
      </trkpt>
      <trkpt lat="44.52839" lon="0.68695">
        <ele>139.1</ele>
        <time>2021-07-23T06:54:37Z</time>
      </trkpt>
      <trkpt lat="44.52823" lon="0.68692">
        <ele>140</ele>
        <time>2021-07-23T06:54:42Z</time>
      </trkpt>
      <trkpt lat="44.5281" lon="0.6869">
        <ele>140.5</ele>
        <time>2021-07-23T06:54:46Z</time>
      </trkpt>
      <trkpt lat="44.52798" lon="0.68687">
        <ele>141.2</ele>
        <time>2021-07-23T06:54:50Z</time>
      </trkpt>
      <trkpt lat="44.52782" lon="0.68685">
        <ele>141.7</ele>
        <time>2021-07-23T06:54:55Z</time>
      </trkpt>
      <trkpt lat="44.52777" lon="0.68681">
        <ele>141.8</ele>
        <time>2021-07-23T06:54:57Z</time>
      </trkpt>
      <trkpt lat="44.52772" lon="0.68681">
        <ele>142.1</ele>
        <time>2021-07-23T06:54:59Z</time>
      </trkpt>
      <trkpt lat="44.52759" lon="0.68681">
        <ele>142.4</ele>
        <time>2021-07-23T06:55:03Z</time>
      </trkpt>
      <trkpt lat="44.52741" lon="0.6868">
        <ele>143</ele>
        <time>2021-07-23T06:55:08Z</time>
      </trkpt>
      <trkpt lat="44.5272" lon="0.68676">
        <ele>143.4</ele>
        <time>2021-07-23T06:55:14Z</time>
      </trkpt>
      <trkpt lat="44.52698" lon="0.68674">
        <ele>143.5</ele>
        <time>2021-07-23T06:55:20Z</time>
      </trkpt>
      <trkpt lat="44.52676" lon="0.68672">
        <ele>142.8</ele>
        <time>2021-07-23T06:55:26Z</time>
      </trkpt>
      <trkpt lat="44.52654" lon="0.68668">
        <ele>141.8</ele>
        <time>2021-07-23T06:55:32Z</time>
      </trkpt>
      <trkpt lat="44.52634" lon="0.68667">
        <ele>141.3</ele>
        <time>2021-07-23T06:55:37Z</time>
      </trkpt>
      <trkpt lat="44.5263" lon="0.68668">
        <ele>141.4</ele>
        <time>2021-07-23T06:55:38Z</time>
      </trkpt>
      <trkpt lat="44.52617" lon="0.68672">
        <ele>142</ele>
        <time>2021-07-23T06:55:41Z</time>
      </trkpt>
      <trkpt lat="44.52612" lon="0.68673">
        <ele>142.3</ele>
        <time>2021-07-23T06:55:42Z</time>
      </trkpt>
      <trkpt lat="44.52583" lon="0.68679">
        <ele>143.5</ele>
        <time>2021-07-23T06:55:48Z</time>
      </trkpt>
      <trkpt lat="44.52549" lon="0.68687">
        <ele>143</ele>
        <time>2021-07-23T06:55:55Z</time>
      </trkpt>
      <trkpt lat="44.52541" lon="0.68689">
        <ele>142.8</ele>
        <time>2021-07-23T06:55:57Z</time>
      </trkpt>
      <trkpt lat="44.52529" lon="0.68693">
        <ele>142.5</ele>
        <time>2021-07-23T06:56:00Z</time>
      </trkpt>
      <trkpt lat="44.52509" lon="0.68704">
        <ele>141.6</ele>
        <time>2021-07-23T06:56:06Z</time>
      </trkpt>
      <trkpt lat="44.52494" lon="0.68701">
        <ele>141.4</ele>
        <time>2021-07-23T06:56:10Z</time>
      </trkpt>
      <trkpt lat="44.52474" lon="0.68703">
        <ele>140.8</ele>
        <time>2021-07-23T06:56:15Z</time>
      </trkpt>
      <trkpt lat="44.52465" lon="0.68705">
        <ele>140.5</ele>
        <time>2021-07-23T06:56:17Z</time>
      </trkpt>
      <trkpt lat="44.52455" lon="0.68708">
        <ele>140.3</ele>
        <time>2021-07-23T06:56:19Z</time>
      </trkpt>
      <trkpt lat="44.52447" lon="0.68718">
        <ele>140</ele>
        <time>2021-07-23T06:56:22Z</time>
      </trkpt>
      <trkpt lat="44.52446" lon="0.68735">
        <ele>139.8</ele>
        <time>2021-07-23T06:56:26Z</time>
      </trkpt>
      <trkpt lat="44.52444" lon="0.68764">
        <ele>139.2</ele>
        <time>2021-07-23T06:56:31Z</time>
      </trkpt>
      <trkpt lat="44.5244" lon="0.68801">
        <ele>138.6</ele>
        <time>2021-07-23T06:56:37Z</time>
      </trkpt>
      <trkpt lat="44.52434" lon="0.68836">
        <ele>137.1</ele>
        <time>2021-07-23T06:56:44Z</time>
      </trkpt>
      <trkpt lat="44.52432" lon="0.68867">
        <ele>136</ele>
        <time>2021-07-23T06:56:50Z</time>
      </trkpt>
      <trkpt lat="44.52434" lon="0.68872">
        <ele>135.6</ele>
        <time>2021-07-23T06:56:51Z</time>
      </trkpt>
      <trkpt lat="44.52438" lon="0.68883">
        <ele>135.1</ele>
        <time>2021-07-23T06:56:53Z</time>
      </trkpt>
      <trkpt lat="44.52441" lon="0.68888">
        <ele>134.6</ele>
        <time>2021-07-23T06:56:54Z</time>
      </trkpt>
      <trkpt lat="44.52445" lon="0.68892">
        <ele>134.5</ele>
        <time>2021-07-23T06:56:55Z</time>
      </trkpt>
      <trkpt lat="44.52458" lon="0.68906">
        <ele>133</ele>
        <time>2021-07-23T06:56:59Z</time>
      </trkpt>
      <trkpt lat="44.52461" lon="0.6891">
        <ele>132.8</ele>
        <time>2021-07-23T06:57:00Z</time>
      </trkpt>
      <trkpt lat="44.52466" lon="0.68919">
        <ele>132.4</ele>
        <time>2021-07-23T06:57:02Z</time>
      </trkpt>
      <trkpt lat="44.52475" lon="0.6894">
        <ele>131.7</ele>
        <time>2021-07-23T06:57:06Z</time>
      </trkpt>
      <trkpt lat="44.52482" lon="0.68964">
        <ele>130.7</ele>
        <time>2021-07-23T06:57:11Z</time>
      </trkpt>
      <trkpt lat="44.52483" lon="0.68969">
        <ele>130.6</ele>
        <time>2021-07-23T06:57:12Z</time>
      </trkpt>
      <trkpt lat="44.52482" lon="0.68981">
        <ele>130.1</ele>
        <time>2021-07-23T06:57:14Z</time>
      </trkpt>
      <trkpt lat="44.52481" lon="0.68988">
        <ele>129.8</ele>
        <time>2021-07-23T06:57:15Z</time>
      </trkpt>
      <trkpt lat="44.52483" lon="0.69004">
        <ele>129.1</ele>
        <time>2021-07-23T06:57:17Z</time>
      </trkpt>
      <trkpt lat="44.52486" lon="0.69012">
        <ele>128.5</ele>
        <time>2021-07-23T06:57:18Z</time>
      </trkpt>
      <trkpt lat="44.52492" lon="0.69031">
        <ele>127</ele>
        <time>2021-07-23T06:57:20Z</time>
      </trkpt>
      <trkpt lat="44.52497" lon="0.69054">
        <ele>124.7</ele>
        <time>2021-07-23T06:57:22Z</time>
      </trkpt>
      <trkpt lat="44.52514" lon="0.69098">
        <ele>120.5</ele>
        <time>2021-07-23T06:57:26Z</time>
      </trkpt>
      <trkpt lat="44.52545" lon="0.69164">
        <ele>116.9</ele>
        <time>2021-07-23T06:57:32Z</time>
      </trkpt>
      <trkpt lat="44.5255" lon="0.69175">
        <ele>117.1</ele>
        <time>2021-07-23T06:57:33Z</time>
      </trkpt>
      <trkpt lat="44.5256" lon="0.69193">
        <ele>115.6</ele>
        <time>2021-07-23T06:57:35Z</time>
      </trkpt>
      <trkpt lat="44.52573" lon="0.69207">
        <ele>113</ele>
        <time>2021-07-23T06:57:37Z</time>
      </trkpt>
      <trkpt lat="44.52584" lon="0.69231">
        <ele>116.1</ele>
        <time>2021-07-23T06:57:40Z</time>
      </trkpt>
      <trkpt lat="44.52601" lon="0.69258">
        <ele>117.3</ele>
        <time>2021-07-23T06:57:45Z</time>
      </trkpt>
      <trkpt lat="44.52606" lon="0.69265">
        <ele>117.6</ele>
        <time>2021-07-23T06:57:48Z</time>
      </trkpt>
      <trkpt lat="44.52605" lon="0.69265">
        <ele>117.7</ele>
        <time>2021-07-23T06:57:49Z</time>
      </trkpt>
      <trkpt lat="44.52607" lon="0.69267">
        <ele>118</ele>
        <time>2021-07-23T06:58:40Z</time>
      </trkpt>
      <trkpt lat="44.52609" lon="0.69269">
        <ele>118.2</ele>
        <time>2021-07-23T06:58:42Z</time>
      </trkpt>
      <trkpt lat="44.52618" lon="0.69284">
        <ele>119.7</ele>
        <time>2021-07-23T06:58:47Z</time>
      </trkpt>
      <trkpt lat="44.52623" lon="0.69302">
        <ele>121</ele>
        <time>2021-07-23T06:58:53Z</time>
      </trkpt>
      <trkpt lat="44.52627" lon="0.69316">
        <ele>122.1</ele>
        <time>2021-07-23T06:59:00Z</time>
      </trkpt>
      <trkpt lat="44.52631" lon="0.6933">
        <ele>123.4</ele>
        <time>2021-07-23T06:59:07Z</time>
      </trkpt>
      <trkpt lat="44.52631" lon="0.69335">
        <ele>123.7</ele>
        <time>2021-07-23T06:59:09Z</time>
      </trkpt>
      <trkpt lat="44.52633" lon="0.69342">
        <ele>124.1</ele>
        <time>2021-07-23T06:59:13Z</time>
      </trkpt>
      <trkpt lat="44.52634" lon="0.69346">
        <ele>124.4</ele>
        <time>2021-07-23T06:59:15Z</time>
      </trkpt>
      <trkpt lat="44.52637" lon="0.69353">
        <ele>125</ele>
        <time>2021-07-23T06:59:19Z</time>
      </trkpt>
      <trkpt lat="44.5264" lon="0.69366">
        <ele>125.7</ele>
        <time>2021-07-23T06:59:26Z</time>
      </trkpt>
      <trkpt lat="44.52644" lon="0.69379">
        <ele>126.3</ele>
        <time>2021-07-23T06:59:33Z</time>
      </trkpt>
      <trkpt lat="44.52645" lon="0.69381">
        <ele>126.4</ele>
        <time>2021-07-23T06:59:34Z</time>
      </trkpt>
      <trkpt lat="44.52647" lon="0.69393">
        <ele>127</ele>
        <time>2021-07-23T06:59:41Z</time>
      </trkpt>
      <trkpt lat="44.52649" lon="0.69405">
        <ele>127.9</ele>
        <time>2021-07-23T06:59:47Z</time>
      </trkpt>
      <trkpt lat="44.5265" lon="0.69407">
        <ele>127.9</ele>
        <time>2021-07-23T06:59:48Z</time>
      </trkpt>
      <trkpt lat="44.52655" lon="0.69427">
        <ele>129</ele>
        <time>2021-07-23T06:59:54Z</time>
      </trkpt>
      <trkpt lat="44.5266" lon="0.69451">
        <ele>129.5</ele>
        <time>2021-07-23T06:59:58Z</time>
      </trkpt>
      <trkpt lat="44.52664" lon="0.69469">
        <ele>129.2</ele>
        <time>2021-07-23T07:00:00Z</time>
      </trkpt>
      <trkpt lat="44.52669" lon="0.6949">
        <ele>128</ele>
        <time>2021-07-23T07:00:02Z</time>
      </trkpt>
      <trkpt lat="44.52682" lon="0.69549">
        <ele>125.1</ele>
        <time>2021-07-23T07:00:07Z</time>
      </trkpt>
      <trkpt lat="44.52688" lon="0.69596">
        <ele>123.1</ele>
        <time>2021-07-23T07:00:11Z</time>
      </trkpt>
      <trkpt lat="44.5269" lon="0.69617">
        <ele>122.2</ele>
        <time>2021-07-23T07:00:13Z</time>
      </trkpt>
      <trkpt lat="44.52691" lon="0.69637">
        <ele>121.7</ele>
        <time>2021-07-23T07:00:15Z</time>
      </trkpt>
      <trkpt lat="44.52696" lon="0.69664">
        <ele>120.6</ele>
        <time>2021-07-23T07:00:18Z</time>
      </trkpt>
      <trkpt lat="44.527" lon="0.69682">
        <ele>119.4</ele>
        <time>2021-07-23T07:00:20Z</time>
      </trkpt>
      <trkpt lat="44.52703" lon="0.69691">
        <ele>118.8</ele>
        <time>2021-07-23T07:00:21Z</time>
      </trkpt>
      <trkpt lat="44.52712" lon="0.69725">
        <ele>116.3</ele>
        <time>2021-07-23T07:00:25Z</time>
      </trkpt>
      <trkpt lat="44.52721" lon="0.69766">
        <ele>114.1</ele>
        <time>2021-07-23T07:00:30Z</time>
      </trkpt>
      <trkpt lat="44.52721" lon="0.69772">
        <ele>113.9</ele>
        <time>2021-07-23T07:00:31Z</time>
      </trkpt>
      <trkpt lat="44.52717" lon="0.6978">
        <ele>114</ele>
        <time>2021-07-23T07:00:33Z</time>
      </trkpt>
      <trkpt lat="44.52707" lon="0.69781">
        <ele>114.2</ele>
        <time>2021-07-23T07:00:37Z</time>
      </trkpt>
      <trkpt lat="44.52694" lon="0.69786">
        <ele>114.6</ele>
        <time>2021-07-23T07:00:42Z</time>
      </trkpt>
      <trkpt lat="44.52676" lon="0.69797">
        <ele>114.9</ele>
        <time>2021-07-23T07:00:49Z</time>
      </trkpt>
      <trkpt lat="44.52675" lon="0.698">
        <ele>114.8</ele>
        <time>2021-07-23T07:00:50Z</time>
      </trkpt>
      <trkpt lat="44.52677" lon="0.69821">
        <ele>114.1</ele>
        <time>2021-07-23T07:00:54Z</time>
      </trkpt>
      <trkpt lat="44.5268" lon="0.69833">
        <ele>113.7</ele>
        <time>2021-07-23T07:00:56Z</time>
      </trkpt>
      <trkpt lat="44.52685" lon="0.69858">
        <ele>113</ele>
        <time>2021-07-23T07:01:00Z</time>
      </trkpt>
      <trkpt lat="44.52695" lon="0.69904">
        <ele>112.5</ele>
        <time>2021-07-23T07:01:07Z</time>
      </trkpt>
      <trkpt lat="44.52703" lon="0.69938">
        <ele>112.3</ele>
        <time>2021-07-23T07:01:12Z</time>
      </trkpt>
      <trkpt lat="44.52705" lon="0.69958">
        <ele>112.4</ele>
        <time>2021-07-23T07:01:15Z</time>
      </trkpt>
      <trkpt lat="44.52704" lon="0.69978">
        <ele>112.6</ele>
        <time>2021-07-23T07:01:18Z</time>
      </trkpt>
      <trkpt lat="44.52701" lon="0.70003">
        <ele>112.9</ele>
        <time>2021-07-23T07:01:22Z</time>
      </trkpt>
      <trkpt lat="44.52696" lon="0.70048">
        <ele>113.9</ele>
        <time>2021-07-23T07:01:30Z</time>
      </trkpt>
      <trkpt lat="44.52691" lon="0.7009">
        <ele>115.7</ele>
        <time>2021-07-23T07:01:38Z</time>
      </trkpt>
      <trkpt lat="44.52688" lon="0.70124">
        <ele>117.6</ele>
        <time>2021-07-23T07:01:45Z</time>
      </trkpt>
      <trkpt lat="44.52685" lon="0.70143">
        <ele>118.9</ele>
        <time>2021-07-23T07:01:51Z</time>
      </trkpt>
      <trkpt lat="44.52685" lon="0.70155">
        <ele>119.9</ele>
        <time>2021-07-23T07:01:56Z</time>
      </trkpt>
      <trkpt lat="44.52689" lon="0.70169">
        <ele>121.2</ele>
        <time>2021-07-23T07:02:02Z</time>
      </trkpt>
      <trkpt lat="44.52697" lon="0.70181">
        <ele>122.6</ele>
        <time>2021-07-23T07:02:09Z</time>
      </trkpt>
      <trkpt lat="44.52708" lon="0.70197">
        <ele>124.2</ele>
        <time>2021-07-23T07:02:18Z</time>
      </trkpt>
      <trkpt lat="44.52714" lon="0.70211">
        <ele>125.3</ele>
        <time>2021-07-23T07:02:25Z</time>
      </trkpt>
      <trkpt lat="44.52716" lon="0.70224">
        <ele>126.1</ele>
        <time>2021-07-23T07:02:31Z</time>
      </trkpt>
      <trkpt lat="44.52704" lon="0.70232">
        <ele>127.2</ele>
        <time>2021-07-23T07:02:36Z</time>
      </trkpt>
      <trkpt lat="44.52687" lon="0.70238">
        <ele>127.8</ele>
        <time>2021-07-23T07:02:42Z</time>
      </trkpt>
      <trkpt lat="44.52667" lon="0.70243">
        <ele>128.2</ele>
        <time>2021-07-23T07:02:48Z</time>
      </trkpt>
      <trkpt lat="44.52652" lon="0.70247">
        <ele>128.4</ele>
        <time>2021-07-23T07:02:53Z</time>
      </trkpt>
      <trkpt lat="44.52631" lon="0.70254">
        <ele>128.8</ele>
        <time>2021-07-23T07:02:59Z</time>
      </trkpt>
      <trkpt lat="44.52604" lon="0.70255">
        <ele>129.2</ele>
        <time>2021-07-23T07:03:06Z</time>
      </trkpt>
      <trkpt lat="44.52585" lon="0.70254">
        <ele>129.6</ele>
        <time>2021-07-23T07:03:11Z</time>
      </trkpt>
      <trkpt lat="44.52558" lon="0.70254">
        <ele>130.4</ele>
        <time>2021-07-23T07:03:18Z</time>
      </trkpt>
      <trkpt lat="44.52527" lon="0.70249">
        <ele>131.3</ele>
        <time>2021-07-23T07:03:26Z</time>
      </trkpt>
      <trkpt lat="44.52508" lon="0.70247">
        <ele>132</ele>
        <time>2021-07-23T07:03:31Z</time>
      </trkpt>
      <trkpt lat="44.52493" lon="0.70245">
        <ele>132.6</ele>
        <time>2021-07-23T07:03:35Z</time>
      </trkpt>
      <trkpt lat="44.52475" lon="0.70245">
        <ele>133.5</ele>
        <time>2021-07-23T07:03:40Z</time>
      </trkpt>
      <trkpt lat="44.52455" lon="0.70246">
        <ele>134.6</ele>
        <time>2021-07-23T07:03:45Z</time>
      </trkpt>
      <trkpt lat="44.52436" lon="0.70246">
        <ele>135.5</ele>
        <time>2021-07-23T07:03:50Z</time>
      </trkpt>
      <trkpt lat="44.52421" lon="0.70249">
        <ele>136.2</ele>
        <time>2021-07-23T07:03:54Z</time>
      </trkpt>
      <trkpt lat="44.52403" lon="0.70251">
        <ele>136.8</ele>
        <time>2021-07-23T07:03:59Z</time>
      </trkpt>
      <trkpt lat="44.52389" lon="0.70253">
        <ele>137.3</ele>
        <time>2021-07-23T07:04:03Z</time>
      </trkpt>
      <trkpt lat="44.52372" lon="0.70254">
        <ele>137.7</ele>
        <time>2021-07-23T07:04:08Z</time>
      </trkpt>
      <trkpt lat="44.5236" lon="0.70254">
        <ele>138.1</ele>
        <time>2021-07-23T07:04:12Z</time>
      </trkpt>
      <trkpt lat="44.52358" lon="0.70254">
        <ele>138.2</ele>
        <time>2021-07-23T07:04:13Z</time>
      </trkpt>
      <trkpt lat="44.52353" lon="0.70252">
        <ele>138.4</ele>
        <time>2021-07-23T07:04:15Z</time>
      </trkpt>
      <trkpt lat="44.5235" lon="0.70253">
        <ele>138.5</ele>
        <time>2021-07-23T07:04:16Z</time>
      </trkpt>
      <trkpt lat="44.52334" lon="0.70256">
        <ele>139.4</ele>
        <time>2021-07-23T07:04:22Z</time>
      </trkpt>
      <trkpt lat="44.52318" lon="0.70262">
        <ele>140.5</ele>
        <time>2021-07-23T07:04:29Z</time>
      </trkpt>
      <trkpt lat="44.52303" lon="0.70264">
        <ele>141.1</ele>
        <time>2021-07-23T07:04:36Z</time>
      </trkpt>
      <trkpt lat="44.52293" lon="0.70267">
        <ele>141.3</ele>
        <time>2021-07-23T07:04:41Z</time>
      </trkpt>
      <trkpt lat="44.52281" lon="0.70275">
        <ele>141.3</ele>
        <time>2021-07-23T07:04:44Z</time>
      </trkpt>
      <trkpt lat="44.52266" lon="0.70287">
        <ele>140.9</ele>
        <time>2021-07-23T07:04:48Z</time>
      </trkpt>
      <trkpt lat="44.52241" lon="0.70297">
        <ele>141.1</ele>
        <time>2021-07-23T07:04:55Z</time>
      </trkpt>
      <trkpt lat="44.52222" lon="0.70304">
        <ele>141.8</ele>
        <time>2021-07-23T07:05:01Z</time>
      </trkpt>
      <trkpt lat="44.52197" lon="0.70313">
        <ele>143</ele>
        <time>2021-07-23T07:05:09Z</time>
      </trkpt>
      <trkpt lat="44.52176" lon="0.70322">
        <ele>143.6</ele>
        <time>2021-07-23T07:05:16Z</time>
      </trkpt>
      <trkpt lat="44.52158" lon="0.70327">
        <ele>144.3</ele>
        <time>2021-07-23T07:05:23Z</time>
      </trkpt>
      <trkpt lat="44.52137" lon="0.70332">
        <ele>145.1</ele>
        <time>2021-07-23T07:05:31Z</time>
      </trkpt>
      <trkpt lat="44.52122" lon="0.70335">
        <ele>145.3</ele>
        <time>2021-07-23T07:05:37Z</time>
      </trkpt>
      <trkpt lat="44.52106" lon="0.70335">
        <ele>145.8</ele>
        <time>2021-07-23T07:05:43Z</time>
      </trkpt>
      <trkpt lat="44.52093" lon="0.70334">
        <ele>146.5</ele>
        <time>2021-07-23T07:05:49Z</time>
      </trkpt>
      <trkpt lat="44.52081" lon="0.70332">
        <ele>148.1</ele>
        <time>2021-07-23T07:05:56Z</time>
      </trkpt>
      <trkpt lat="44.52073" lon="0.7033">
        <ele>149.5</ele>
        <time>2021-07-23T07:06:01Z</time>
      </trkpt>
      <trkpt lat="44.52069" lon="0.7033">
        <ele>149.6</ele>
        <time>2021-07-23T07:06:03Z</time>
      </trkpt>
      <trkpt lat="44.52055" lon="0.70329">
        <ele>151.5</ele>
        <time>2021-07-23T07:06:11Z</time>
      </trkpt>
      <trkpt lat="44.52042" lon="0.70329">
        <ele>153.1</ele>
        <time>2021-07-23T07:06:18Z</time>
      </trkpt>
      <trkpt lat="44.52027" lon="0.70327">
        <ele>155.7</ele>
        <time>2021-07-23T07:06:26Z</time>
      </trkpt>
      <trkpt lat="44.52012" lon="0.70328">
        <ele>158.7</ele>
        <time>2021-07-23T07:06:34Z</time>
      </trkpt>
      <trkpt lat="44.52001" lon="0.70328">
        <ele>160.4</ele>
        <time>2021-07-23T07:06:40Z</time>
      </trkpt>
      <trkpt lat="44.51989" lon="0.70328">
        <ele>163.3</ele>
        <time>2021-07-23T07:06:47Z</time>
      </trkpt>
      <trkpt lat="44.51978" lon="0.70335">
        <ele>165.8</ele>
        <time>2021-07-23T07:06:54Z</time>
      </trkpt>
      <trkpt lat="44.51971" lon="0.70341">
        <ele>167.4</ele>
        <time>2021-07-23T07:06:59Z</time>
      </trkpt>
      <trkpt lat="44.51967" lon="0.7035">
        <ele>168.8</ele>
        <time>2021-07-23T07:07:04Z</time>
      </trkpt>
      <trkpt lat="44.51964" lon="0.7036">
        <ele>169.3</ele>
        <time>2021-07-23T07:07:09Z</time>
      </trkpt>
      <trkpt lat="44.51961" lon="0.70371">
        <ele>169</ele>
        <time>2021-07-23T07:07:14Z</time>
      </trkpt>
      <trkpt lat="44.51958" lon="0.70392">
        <ele>170</ele>
        <time>2021-07-23T07:07:21Z</time>
      </trkpt>
      <trkpt lat="44.51955" lon="0.70408">
        <ele>170.3</ele>
        <time>2021-07-23T07:07:26Z</time>
      </trkpt>
      <trkpt lat="44.51951" lon="0.70426">
        <ele>170.6</ele>
        <time>2021-07-23T07:07:30Z</time>
      </trkpt>
      <trkpt lat="44.51945" lon="0.70451">
        <ele>171.6</ele>
        <time>2021-07-23T07:07:37Z</time>
      </trkpt>
      <trkpt lat="44.51943" lon="0.70459">
        <ele>171.3</ele>
        <time>2021-07-23T07:07:39Z</time>
      </trkpt>
      <trkpt lat="44.51941" lon="0.70472">
        <ele>172</ele>
        <time>2021-07-23T07:07:42Z</time>
      </trkpt>
      <trkpt lat="44.51936" lon="0.70494">
        <ele>173.1</ele>
        <time>2021-07-23T07:07:48Z</time>
      </trkpt>
      <trkpt lat="44.5193" lon="0.70516">
        <ele>173.9</ele>
        <time>2021-07-23T07:07:54Z</time>
      </trkpt>
      <trkpt lat="44.51928" lon="0.70531">
        <ele>173.5</ele>
        <time>2021-07-23T07:07:58Z</time>
      </trkpt>
      <trkpt lat="44.51927" lon="0.70552">
        <ele>173.3</ele>
        <time>2021-07-23T07:08:02Z</time>
      </trkpt>
      <trkpt lat="44.51919" lon="0.70581">
        <ele>173.1</ele>
        <time>2021-07-23T07:08:07Z</time>
      </trkpt>
      <trkpt lat="44.51907" lon="0.70615">
        <ele>173.8</ele>
        <time>2021-07-23T07:08:12Z</time>
      </trkpt>
      <trkpt lat="44.51902" lon="0.7063">
        <ele>173.9</ele>
        <time>2021-07-23T07:08:14Z</time>
      </trkpt>
      <trkpt lat="44.51895" lon="0.70655">
        <ele>172.8</ele>
        <time>2021-07-23T07:08:17Z</time>
      </trkpt>
      <trkpt lat="44.5189" lon="0.7067">
        <ele>172.7</ele>
        <time>2021-07-23T07:08:19Z</time>
      </trkpt>
      <trkpt lat="44.51883" lon="0.70681">
        <ele>173</ele>
        <time>2021-07-23T07:08:21Z</time>
      </trkpt>
      <trkpt lat="44.51875" lon="0.70689">
        <ele>173.3</ele>
        <time>2021-07-23T07:08:25Z</time>
      </trkpt>
      <trkpt lat="44.51864" lon="0.70698">
        <ele>173.6</ele>
        <time>2021-07-23T07:08:29Z</time>
      </trkpt>
      <trkpt lat="44.51854" lon="0.70715">
        <ele>172.8</ele>
        <time>2021-07-23T07:08:34Z</time>
      </trkpt>
      <trkpt lat="44.51842" lon="0.70742">
        <ele>169.3</ele>
        <time>2021-07-23T07:08:40Z</time>
      </trkpt>
      <trkpt lat="44.51837" lon="0.70754">
        <ele>168.5</ele>
        <time>2021-07-23T07:08:44Z</time>
      </trkpt>
      <trkpt lat="44.51828" lon="0.70762">
        <ele>168</ele>
        <time>2021-07-23T07:08:47Z</time>
      </trkpt>
      <trkpt lat="44.51819" lon="0.70762">
        <ele>168.9</ele>
        <time>2021-07-23T07:08:49Z</time>
      </trkpt>
      <trkpt lat="44.51815" lon="0.70759">
        <ele>169.4</ele>
        <time>2021-07-23T07:08:50Z</time>
      </trkpt>
      <trkpt lat="44.51805" lon="0.70745">
        <ele>170.9</ele>
        <time>2021-07-23T07:08:55Z</time>
      </trkpt>
      <trkpt lat="44.51791" lon="0.70732">
        <ele>172.7</ele>
        <time>2021-07-23T07:09:02Z</time>
      </trkpt>
      <trkpt lat="44.51778" lon="0.70722">
        <ele>174.1</ele>
        <time>2021-07-23T07:09:08Z</time>
      </trkpt>
      <trkpt lat="44.51766" lon="0.7071">
        <ele>175.5</ele>
        <time>2021-07-23T07:09:14Z</time>
      </trkpt>
      <trkpt lat="44.5175" lon="0.70694">
        <ele>177.5</ele>
        <time>2021-07-23T07:09:22Z</time>
      </trkpt>
      <trkpt lat="44.51735" lon="0.7068">
        <ele>179.4</ele>
        <time>2021-07-23T07:09:30Z</time>
      </trkpt>
      <trkpt lat="44.51723" lon="0.70673">
        <ele>180.8</ele>
        <time>2021-07-23T07:09:36Z</time>
      </trkpt>
      <trkpt lat="44.5171" lon="0.70662">
        <ele>182.3</ele>
        <time>2021-07-23T07:09:43Z</time>
      </trkpt>
      <trkpt lat="44.51701" lon="0.70651">
        <ele>183.4</ele>
        <time>2021-07-23T07:09:49Z</time>
      </trkpt>
      <trkpt lat="44.51696" lon="0.70648">
        <ele>183.9</ele>
        <time>2021-07-23T07:09:52Z</time>
      </trkpt>
      <trkpt lat="44.51692" lon="0.70642">
        <ele>184.5</ele>
        <time>2021-07-23T07:09:55Z</time>
      </trkpt>
      <trkpt lat="44.5168" lon="0.70632">
        <ele>186</ele>
        <time>2021-07-23T07:10:02Z</time>
      </trkpt>
      <trkpt lat="44.51669" lon="0.7062">
        <ele>187.4</ele>
        <time>2021-07-23T07:10:09Z</time>
      </trkpt>
      <trkpt lat="44.5166" lon="0.70611">
        <ele>188.6</ele>
        <time>2021-07-23T07:10:15Z</time>
      </trkpt>
      <trkpt lat="44.51652" lon="0.70601">
        <ele>189.7</ele>
        <time>2021-07-23T07:10:22Z</time>
      </trkpt>
      <trkpt lat="44.51649" lon="0.70598">
        <ele>190.1</ele>
        <time>2021-07-23T07:10:24Z</time>
      </trkpt>
      <trkpt lat="44.51643" lon="0.70595">
        <ele>190.7</ele>
        <time>2021-07-23T07:10:28Z</time>
      </trkpt>
      <trkpt lat="44.51636" lon="0.70587">
        <ele>191.6</ele>
        <time>2021-07-23T07:10:33Z</time>
      </trkpt>
      <trkpt lat="44.51634" lon="0.70586">
        <ele>191.8</ele>
        <time>2021-07-23T07:10:34Z</time>
      </trkpt>
      <trkpt lat="44.51624" lon="0.70573">
        <ele>193</ele>
        <time>2021-07-23T07:10:42Z</time>
      </trkpt>
      <trkpt lat="44.51618" lon="0.70568">
        <ele>193.7</ele>
        <time>2021-07-23T07:10:46Z</time>
      </trkpt>
      <trkpt lat="44.51616" lon="0.70564">
        <ele>194</ele>
        <time>2021-07-23T07:10:48Z</time>
      </trkpt>
      <trkpt lat="44.51604" lon="0.70554">
        <ele>195.3</ele>
        <time>2021-07-23T07:10:56Z</time>
      </trkpt>
      <trkpt lat="44.51595" lon="0.70547">
        <ele>196.3</ele>
        <time>2021-07-23T07:11:02Z</time>
      </trkpt>
      <trkpt lat="44.51583" lon="0.70547">
        <ele>197.2</ele>
        <time>2021-07-23T07:11:08Z</time>
      </trkpt>
      <trkpt lat="44.51563" lon="0.70558">
        <ele>197.7</ele>
        <time>2021-07-23T07:11:16Z</time>
      </trkpt>
      <trkpt lat="44.51551" lon="0.70565">
        <ele>198</ele>
        <time>2021-07-23T07:11:21Z</time>
      </trkpt>
      <trkpt lat="44.51538" lon="0.70569">
        <ele>198.2</ele>
        <time>2021-07-23T07:11:27Z</time>
      </trkpt>
      <trkpt lat="44.5152" lon="0.70576">
        <ele>198.3</ele>
        <time>2021-07-23T07:11:34Z</time>
      </trkpt>
      <trkpt lat="44.51501" lon="0.70582">
        <ele>197.9</ele>
        <time>2021-07-23T07:11:40Z</time>
      </trkpt>
      <trkpt lat="44.51478" lon="0.7059">
        <ele>198.1</ele>
        <time>2021-07-23T07:11:47Z</time>
      </trkpt>
      <trkpt lat="44.51459" lon="0.70593">
        <ele>198.5</ele>
        <time>2021-07-23T07:11:53Z</time>
      </trkpt>
      <trkpt lat="44.5144" lon="0.70596">
        <ele>198.8</ele>
        <time>2021-07-23T07:11:59Z</time>
      </trkpt>
      <trkpt lat="44.51438" lon="0.70596">
        <ele>198.9</ele>
        <time>2021-07-23T07:12:00Z</time>
      </trkpt>
      <trkpt lat="44.51438" lon="0.70593">
        <ele>198.9</ele>
        <time>2021-07-23T07:12:02Z</time>
      </trkpt>
      <trkpt lat="44.5144" lon="0.70592">
        <ele>199</ele>
        <time>2021-07-23T07:12:03Z</time>
      </trkpt>
      <trkpt lat="44.51448" lon="0.70589">
        <ele>199.1</ele>
        <time>2021-07-23T07:12:06Z</time>
      </trkpt>
      <trkpt lat="44.51453" lon="0.70587">
        <ele>199.2</ele>
        <time>2021-07-23T07:12:10Z</time>
      </trkpt>
      <trkpt lat="44.51452" lon="0.70588">
        <ele>199.2</ele>
        <time>2021-07-23T07:14:17Z</time>
      </trkpt>
      <trkpt lat="44.5145" lon="0.70589">
        <ele>199.3</ele>
        <time>2021-07-23T07:14:20Z</time>
      </trkpt>
      <trkpt lat="44.5145" lon="0.70593">
        <ele>199.3</ele>
        <time>2021-07-23T07:14:26Z</time>
      </trkpt>
      <trkpt lat="44.51448" lon="0.70595">
        <ele>199.4</ele>
        <time>2021-07-23T07:14:28Z</time>
      </trkpt>
      <trkpt lat="44.51435" lon="0.70594">
        <ele>199.6</ele>
        <time>2021-07-23T07:14:34Z</time>
      </trkpt>
      <trkpt lat="44.51417" lon="0.70597">
        <ele>200.1</ele>
        <time>2021-07-23T07:14:40Z</time>
      </trkpt>
      <trkpt lat="44.51397" lon="0.706">
        <ele>200.6</ele>
        <time>2021-07-23T07:14:46Z</time>
      </trkpt>
      <trkpt lat="44.51372" lon="0.70597">
        <ele>201.5</ele>
        <time>2021-07-23T07:14:54Z</time>
      </trkpt>
      <trkpt lat="44.51354" lon="0.70598">
        <ele>202.1</ele>
        <time>2021-07-23T07:15:01Z</time>
      </trkpt>
      <trkpt lat="44.51336" lon="0.70596">
        <ele>202.8</ele>
        <time>2021-07-23T07:15:07Z</time>
      </trkpt>
      <trkpt lat="44.51317" lon="0.70595">
        <ele>203.9</ele>
        <time>2021-07-23T07:15:13Z</time>
      </trkpt>
      <trkpt lat="44.51295" lon="0.7059">
        <ele>205.2</ele>
        <time>2021-07-23T07:15:20Z</time>
      </trkpt>
      <trkpt lat="44.51271" lon="0.70585">
        <ele>206.4</ele>
        <time>2021-07-23T07:15:28Z</time>
      </trkpt>
      <trkpt lat="44.51246" lon="0.70579">
        <ele>207.9</ele>
        <time>2021-07-23T07:15:36Z</time>
      </trkpt>
      <trkpt lat="44.51228" lon="0.70576">
        <ele>209.1</ele>
        <time>2021-07-23T07:15:42Z</time>
      </trkpt>
      <trkpt lat="44.51208" lon="0.70573">
        <ele>209.8</ele>
        <time>2021-07-23T07:15:49Z</time>
      </trkpt>
      <trkpt lat="44.51186" lon="0.7057">
        <ele>210</ele>
        <time>2021-07-23T07:15:56Z</time>
      </trkpt>
      <trkpt lat="44.51159" lon="0.70567">
        <ele>209.9</ele>
        <time>2021-07-23T07:16:03Z</time>
      </trkpt>
      <trkpt lat="44.51128" lon="0.70563">
        <ele>209.8</ele>
        <time>2021-07-23T07:16:11Z</time>
      </trkpt>
      <trkpt lat="44.51095" lon="0.70564">
        <ele>209.8</ele>
        <time>2021-07-23T07:16:19Z</time>
      </trkpt>
      <trkpt lat="44.51059" lon="0.70574">
        <ele>210.5</ele>
        <time>2021-07-23T07:16:28Z</time>
      </trkpt>
      <trkpt lat="44.51022" lon="0.70586">
        <ele>211</ele>
        <time>2021-07-23T07:16:37Z</time>
      </trkpt>
      <trkpt lat="44.50994" lon="0.70599">
        <ele>211.4</ele>
        <time>2021-07-23T07:16:44Z</time>
      </trkpt>
      <trkpt lat="44.50957" lon="0.70614">
        <ele>211.8</ele>
        <time>2021-07-23T07:16:53Z</time>
      </trkpt>
      <trkpt lat="44.50931" lon="0.70624">
        <ele>212</ele>
        <time>2021-07-23T07:17:00Z</time>
      </trkpt>
      <trkpt lat="44.50898" lon="0.70637">
        <ele>212.7</ele>
        <time>2021-07-23T07:17:08Z</time>
      </trkpt>
      <trkpt lat="44.50861" lon="0.70653">
        <ele>213.3</ele>
        <time>2021-07-23T07:17:17Z</time>
      </trkpt>
      <trkpt lat="44.50823" lon="0.70668">
        <ele>213.6</ele>
        <time>2021-07-23T07:17:26Z</time>
      </trkpt>
      <trkpt lat="44.5079" lon="0.70682">
        <ele>213.9</ele>
        <time>2021-07-23T07:17:34Z</time>
      </trkpt>
      <trkpt lat="44.50773" lon="0.70689">
        <ele>214.1</ele>
        <time>2021-07-23T07:17:38Z</time>
      </trkpt>
      <trkpt lat="44.50761" lon="0.70697">
        <ele>214.2</ele>
        <time>2021-07-23T07:17:41Z</time>
      </trkpt>
      <trkpt lat="44.50736" lon="0.70708">
        <ele>214</ele>
        <time>2021-07-23T07:17:47Z</time>
      </trkpt>
      <trkpt lat="44.50737" lon="0.70719">
        <ele>214</ele>
        <time>2021-07-23T07:17:49Z</time>
      </trkpt>
      <trkpt lat="44.50739" lon="0.70725">
        <ele>214.1</ele>
        <time>2021-07-23T07:17:50Z</time>
      </trkpt>
      <trkpt lat="44.50741" lon="0.70732">
        <ele>214.1</ele>
        <time>2021-07-23T07:17:51Z</time>
      </trkpt>
      <trkpt lat="44.50746" lon="0.7075">
        <ele>214.1</ele>
        <time>2021-07-23T07:17:54Z</time>
      </trkpt>
      <trkpt lat="44.50749" lon="0.70763">
        <ele>214.1</ele>
        <time>2021-07-23T07:17:56Z</time>
      </trkpt>
      <trkpt lat="44.50752" lon="0.70773">
        <ele>214.1</ele>
        <time>2021-07-23T07:17:58Z</time>
      </trkpt>
      <trkpt lat="44.50761" lon="0.70812">
        <ele>213.8</ele>
        <time>2021-07-23T07:18:04Z</time>
      </trkpt>
      <trkpt lat="44.50771" lon="0.7086">
        <ele>213</ele>
        <time>2021-07-23T07:18:10Z</time>
      </trkpt>
      <trkpt lat="44.50771" lon="0.70869">
        <ele>212.8</ele>
        <time>2021-07-23T07:18:11Z</time>
      </trkpt>
      <trkpt lat="44.50768" lon="0.70923">
        <ele>212.2</ele>
        <time>2021-07-23T07:18:17Z</time>
      </trkpt>
      <trkpt lat="44.50761" lon="0.70969">
        <ele>212.1</ele>
        <time>2021-07-23T07:18:22Z</time>
      </trkpt>
      <trkpt lat="44.5075" lon="0.71007">
        <ele>212.2</ele>
        <time>2021-07-23T07:18:27Z</time>
      </trkpt>
      <trkpt lat="44.50743" lon="0.71041">
        <ele>212.4</ele>
        <time>2021-07-23T07:18:32Z</time>
      </trkpt>
      <trkpt lat="44.50741" lon="0.71061">
        <ele>212.9</ele>
        <time>2021-07-23T07:18:35Z</time>
      </trkpt>
      <trkpt lat="44.5074" lon="0.71084">
        <ele>213.5</ele>
        <time>2021-07-23T07:18:38Z</time>
      </trkpt>
      <trkpt lat="44.50738" lon="0.71113">
        <ele>213.8</ele>
        <time>2021-07-23T07:18:42Z</time>
      </trkpt>
      <trkpt lat="44.50736" lon="0.71127">
        <ele>213.5</ele>
        <time>2021-07-23T07:18:44Z</time>
      </trkpt>
      <trkpt lat="44.50731" lon="0.71167">
        <ele>212.8</ele>
        <time>2021-07-23T07:18:49Z</time>
      </trkpt>
      <trkpt lat="44.50731" lon="0.71174">
        <ele>212.7</ele>
        <time>2021-07-23T07:18:50Z</time>
      </trkpt>
      <trkpt lat="44.50726" lon="0.71207">
        <ele>212.3</ele>
        <time>2021-07-23T07:18:55Z</time>
      </trkpt>
      <trkpt lat="44.50723" lon="0.71228">
        <ele>212.1</ele>
        <time>2021-07-23T07:18:58Z</time>
      </trkpt>
      <trkpt lat="44.50722" lon="0.71235">
        <ele>212.1</ele>
        <time>2021-07-23T07:18:59Z</time>
      </trkpt>
      <trkpt lat="44.50719" lon="0.71251">
        <ele>212</ele>
        <time>2021-07-23T07:19:01Z</time>
      </trkpt>
      <trkpt lat="44.50715" lon="0.71278">
        <ele>212.1</ele>
        <time>2021-07-23T07:19:04Z</time>
      </trkpt>
      <trkpt lat="44.50708" lon="0.71318">
        <ele>212.1</ele>
        <time>2021-07-23T07:19:09Z</time>
      </trkpt>
      <trkpt lat="44.50705" lon="0.71333">
        <ele>212.1</ele>
        <time>2021-07-23T07:19:11Z</time>
      </trkpt>
      <trkpt lat="44.50703" lon="0.71344">
        <ele>212.1</ele>
        <time>2021-07-23T07:19:13Z</time>
      </trkpt>
      <trkpt lat="44.50698" lon="0.71362">
        <ele>211.8</ele>
        <time>2021-07-23T07:19:17Z</time>
      </trkpt>
      <trkpt lat="44.50691" lon="0.71386">
        <ele>211.4</ele>
        <time>2021-07-23T07:19:21Z</time>
      </trkpt>
      <trkpt lat="44.50686" lon="0.71397">
        <ele>211.3</ele>
        <time>2021-07-23T07:19:25Z</time>
      </trkpt>
      <trkpt lat="44.50683" lon="0.71402">
        <ele>211.2</ele>
        <time>2021-07-23T07:19:27Z</time>
      </trkpt>
      <trkpt lat="44.50679" lon="0.71414">
        <ele>210.9</ele>
        <time>2021-07-23T07:19:31Z</time>
      </trkpt>
      <trkpt lat="44.50673" lon="0.71435">
        <ele>210.6</ele>
        <time>2021-07-23T07:19:36Z</time>
      </trkpt>
      <trkpt lat="44.50671" lon="0.71446">
        <ele>210.1</ele>
        <time>2021-07-23T07:19:38Z</time>
      </trkpt>
      <trkpt lat="44.5067" lon="0.71459">
        <ele>209.2</ele>
        <time>2021-07-23T07:19:40Z</time>
      </trkpt>
      <trkpt lat="44.50666" lon="0.71489">
        <ele>206.4</ele>
        <time>2021-07-23T07:19:45Z</time>
      </trkpt>
      <trkpt lat="44.50658" lon="0.71519">
        <ele>202.5</ele>
        <time>2021-07-23T07:19:50Z</time>
      </trkpt>
      <trkpt lat="44.50656" lon="0.71525">
        <ele>201.8</ele>
        <time>2021-07-23T07:19:51Z</time>
      </trkpt>
      <trkpt lat="44.50647" lon="0.71552">
        <ele>198.2</ele>
        <time>2021-07-23T07:19:55Z</time>
      </trkpt>
      <trkpt lat="44.50636" lon="0.71584">
        <ele>194.8</ele>
        <time>2021-07-23T07:19:59Z</time>
      </trkpt>
      <trkpt lat="44.50637" lon="0.716">
        <ele>193.4</ele>
        <time>2021-07-23T07:20:01Z</time>
      </trkpt>
      <trkpt lat="44.50639" lon="0.7161">
        <ele>192.7</ele>
        <time>2021-07-23T07:20:02Z</time>
      </trkpt>
      <trkpt lat="44.50647" lon="0.71642">
        <ele>189.8</ele>
        <time>2021-07-23T07:20:05Z</time>
      </trkpt>
      <trkpt lat="44.50656" lon="0.71664">
        <ele>188.2</ele>
        <time>2021-07-23T07:20:07Z</time>
      </trkpt>
      <trkpt lat="44.50677" lon="0.71701">
        <ele>185.5</ele>
        <time>2021-07-23T07:20:11Z</time>
      </trkpt>
      <trkpt lat="44.50682" lon="0.71708">
        <ele>185</ele>
        <time>2021-07-23T07:20:12Z</time>
      </trkpt>
      <trkpt lat="44.50687" lon="0.71724">
        <ele>184.2</ele>
        <time>2021-07-23T07:20:14Z</time>
      </trkpt>
      <trkpt lat="44.50684" lon="0.71741">
        <ele>183.1</ele>
        <time>2021-07-23T07:20:16Z</time>
      </trkpt>
      <trkpt lat="44.50682" lon="0.71749">
        <ele>182.7</ele>
        <time>2021-07-23T07:20:17Z</time>
      </trkpt>
      <trkpt lat="44.50676" lon="0.71774">
        <ele>181.8</ele>
        <time>2021-07-23T07:20:20Z</time>
      </trkpt>
      <trkpt lat="44.50673" lon="0.71791">
        <ele>181.6</ele>
        <time>2021-07-23T07:20:22Z</time>
      </trkpt>
      <trkpt lat="44.50664" lon="0.71831">
        <ele>181.8</ele>
        <time>2021-07-23T07:20:27Z</time>
      </trkpt>
      <trkpt lat="44.50654" lon="0.71867">
        <ele>182.5</ele>
        <time>2021-07-23T07:20:32Z</time>
      </trkpt>
      <trkpt lat="44.50639" lon="0.71908">
        <ele>184.1</ele>
        <time>2021-07-23T07:20:38Z</time>
      </trkpt>
      <trkpt lat="44.50637" lon="0.71915">
        <ele>184.5</ele>
        <time>2021-07-23T07:20:39Z</time>
      </trkpt>
      <trkpt lat="44.50632" lon="0.71935">
        <ele>185.1</ele>
        <time>2021-07-23T07:20:42Z</time>
      </trkpt>
      <trkpt lat="44.5063" lon="0.71942">
        <ele>185.2</ele>
        <time>2021-07-23T07:20:43Z</time>
      </trkpt>
      <trkpt lat="44.50628" lon="0.71948">
        <ele>185.4</ele>
        <time>2021-07-23T07:20:44Z</time>
      </trkpt>
      <trkpt lat="44.50618" lon="0.71972">
        <ele>185.6</ele>
        <time>2021-07-23T07:20:48Z</time>
      </trkpt>
      <trkpt lat="44.50616" lon="0.71977">
        <ele>185.6</ele>
        <time>2021-07-23T07:20:49Z</time>
      </trkpt>
      <trkpt lat="44.5061" lon="0.71997">
        <ele>185.7</ele>
        <time>2021-07-23T07:20:52Z</time>
      </trkpt>
      <trkpt lat="44.50608" lon="0.72003">
        <ele>185.8</ele>
        <time>2021-07-23T07:20:53Z</time>
      </trkpt>
      <trkpt lat="44.50598" lon="0.72031">
        <ele>186.1</ele>
        <time>2021-07-23T07:20:58Z</time>
      </trkpt>
      <trkpt lat="44.50589" lon="0.72058">
        <ele>186.3</ele>
        <time>2021-07-23T07:21:03Z</time>
      </trkpt>
      <trkpt lat="44.50576" lon="0.72105">
        <ele>185.5</ele>
        <time>2021-07-23T07:21:10Z</time>
      </trkpt>
      <trkpt lat="44.50572" lon="0.72118">
        <ele>185.3</ele>
        <time>2021-07-23T07:21:12Z</time>
      </trkpt>
      <trkpt lat="44.50565" lon="0.72153">
        <ele>185.1</ele>
        <time>2021-07-23T07:21:17Z</time>
      </trkpt>
      <trkpt lat="44.50557" lon="0.7219">
        <ele>184.6</ele>
        <time>2021-07-23T07:21:23Z</time>
      </trkpt>
      <trkpt lat="44.50555" lon="0.72196">
        <ele>184.4</ele>
        <time>2021-07-23T07:21:24Z</time>
      </trkpt>
      <trkpt lat="44.50548" lon="0.72222">
        <ele>183.6</ele>
        <time>2021-07-23T07:21:28Z</time>
      </trkpt>
      <trkpt lat="44.50547" lon="0.72236">
        <ele>182.9</ele>
        <time>2021-07-23T07:21:30Z</time>
      </trkpt>
      <trkpt lat="44.50546" lon="0.72243">
        <ele>182.5</ele>
        <time>2021-07-23T07:21:31Z</time>
      </trkpt>
      <trkpt lat="44.50545" lon="0.7225">
        <ele>182.1</ele>
        <time>2021-07-23T07:21:32Z</time>
      </trkpt>
      <trkpt lat="44.50541" lon="0.72273">
        <ele>181</ele>
        <time>2021-07-23T07:21:35Z</time>
      </trkpt>
      <trkpt lat="44.5054" lon="0.72308">
        <ele>179.4</ele>
        <time>2021-07-23T07:21:39Z</time>
      </trkpt>
      <trkpt lat="44.50541" lon="0.72315">
        <ele>178.8</ele>
        <time>2021-07-23T07:21:40Z</time>
      </trkpt>
      <trkpt lat="44.50544" lon="0.72323">
        <ele>178.2</ele>
        <time>2021-07-23T07:21:41Z</time>
      </trkpt>
      <trkpt lat="44.50549" lon="0.7233">
        <ele>177.4</ele>
        <time>2021-07-23T07:21:42Z</time>
      </trkpt>
      <trkpt lat="44.50579" lon="0.72357">
        <ele>173.8</ele>
        <time>2021-07-23T07:21:46Z</time>
      </trkpt>
      <trkpt lat="44.50626" lon="0.72392">
        <ele>168.8</ele>
        <time>2021-07-23T07:21:51Z</time>
      </trkpt>
      <trkpt lat="44.50649" lon="0.72413">
        <ele>166</ele>
        <time>2021-07-23T07:21:54Z</time>
      </trkpt>
      <trkpt lat="44.50655" lon="0.7242">
        <ele>165.2</ele>
        <time>2021-07-23T07:21:55Z</time>
      </trkpt>
      <trkpt lat="44.50691" lon="0.72468">
        <ele>160.4</ele>
        <time>2021-07-23T07:22:01Z</time>
      </trkpt>
      <trkpt lat="44.50721" lon="0.7251">
        <ele>156.1</ele>
        <time>2021-07-23T07:22:06Z</time>
      </trkpt>
      <trkpt lat="44.50741" lon="0.72538">
        <ele>152.6</ele>
        <time>2021-07-23T07:22:10Z</time>
      </trkpt>
      <trkpt lat="44.50771" lon="0.72582">
        <ele>147.7</ele>
        <time>2021-07-23T07:22:16Z</time>
      </trkpt>
      <trkpt lat="44.50792" lon="0.72616">
        <ele>144.3</ele>
        <time>2021-07-23T07:22:20Z</time>
      </trkpt>
      <trkpt lat="44.50799" lon="0.72634">
        <ele>142.8</ele>
        <time>2021-07-23T07:22:23Z</time>
      </trkpt>
      <trkpt lat="44.50814" lon="0.72667">
        <ele>140.1</ele>
        <time>2021-07-23T07:22:28Z</time>
      </trkpt>
      <trkpt lat="44.50832" lon="0.72706">
        <ele>136.6</ele>
        <time>2021-07-23T07:22:33Z</time>
      </trkpt>
      <trkpt lat="44.50851" lon="0.72749">
        <ele>132</ele>
        <time>2021-07-23T07:22:38Z</time>
      </trkpt>
      <trkpt lat="44.50864" lon="0.72779">
        <ele>128.5</ele>
        <time>2021-07-23T07:22:42Z</time>
      </trkpt>
      <trkpt lat="44.50877" lon="0.72811">
        <ele>124.8</ele>
        <time>2021-07-23T07:22:46Z</time>
      </trkpt>
      <trkpt lat="44.50886" lon="0.72836">
        <ele>122.6</ele>
        <time>2021-07-23T07:22:50Z</time>
      </trkpt>
      <trkpt lat="44.50886" lon="0.72839">
        <ele>122.4</ele>
        <time>2021-07-23T07:22:52Z</time>
      </trkpt>
      <trkpt lat="44.50886" lon="0.72841">
        <ele>122.2</ele>
        <time>2021-07-23T07:22:53Z</time>
      </trkpt>
      <trkpt lat="44.50892" lon="0.72859">
        <ele>121</ele>
        <time>2021-07-23T07:22:58Z</time>
      </trkpt>
      <trkpt lat="44.50894" lon="0.72863">
        <ele>120.8</ele>
        <time>2021-07-23T07:22:59Z</time>
      </trkpt>
      <trkpt lat="44.50902" lon="0.72875">
        <ele>120.2</ele>
        <time>2021-07-23T07:23:02Z</time>
      </trkpt>
      <trkpt lat="44.50922" lon="0.72903">
        <ele>119.5</ele>
        <time>2021-07-23T07:23:09Z</time>
      </trkpt>
      <trkpt lat="44.50951" lon="0.72946">
        <ele>118.8</ele>
        <time>2021-07-23T07:23:18Z</time>
      </trkpt>
      <trkpt lat="44.50976" lon="0.72983">
        <ele>118.8</ele>
        <time>2021-07-23T07:23:26Z</time>
      </trkpt>
      <trkpt lat="44.50991" lon="0.73006">
        <ele>119.1</ele>
        <time>2021-07-23T07:23:31Z</time>
      </trkpt>
      <trkpt lat="44.50997" lon="0.73015">
        <ele>119.2</ele>
        <time>2021-07-23T07:23:33Z</time>
      </trkpt>
      <trkpt lat="44.51016" lon="0.73051">
        <ele>119.8</ele>
        <time>2021-07-23T07:23:41Z</time>
      </trkpt>
      <trkpt lat="44.51029" lon="0.73084">
        <ele>120.1</ele>
        <time>2021-07-23T07:23:47Z</time>
      </trkpt>
      <trkpt lat="44.51044" lon="0.73118">
        <ele>119.9</ele>
        <time>2021-07-23T07:23:53Z</time>
      </trkpt>
      <trkpt lat="44.51059" lon="0.73153">
        <ele>119.5</ele>
        <time>2021-07-23T07:23:59Z</time>
      </trkpt>
      <trkpt lat="44.51066" lon="0.73169">
        <ele>119.2</ele>
        <time>2021-07-23T07:24:02Z</time>
      </trkpt>
      <trkpt lat="44.51071" lon="0.73182">
        <ele>119</ele>
        <time>2021-07-23T07:24:04Z</time>
      </trkpt>
      <trkpt lat="44.51075" lon="0.73194">
        <ele>118.9</ele>
        <time>2021-07-23T07:24:06Z</time>
      </trkpt>
      <trkpt lat="44.51082" lon="0.73213">
        <ele>118.6</ele>
        <time>2021-07-23T07:24:09Z</time>
      </trkpt>
      <trkpt lat="44.51085" lon="0.73225">
        <ele>118.5</ele>
        <time>2021-07-23T07:24:11Z</time>
      </trkpt>
      <trkpt lat="44.51089" lon="0.73237">
        <ele>118.4</ele>
        <time>2021-07-23T07:24:13Z</time>
      </trkpt>
      <trkpt lat="44.51091" lon="0.73244">
        <ele>118.2</ele>
        <time>2021-07-23T07:24:14Z</time>
      </trkpt>
      <trkpt lat="44.51098" lon="0.73262">
        <ele>117.8</ele>
        <time>2021-07-23T07:24:17Z</time>
      </trkpt>
      <trkpt lat="44.51103" lon="0.73272">
        <ele>117.6</ele>
        <time>2021-07-23T07:24:19Z</time>
      </trkpt>
      <trkpt lat="44.51117" lon="0.73306">
        <ele>118</ele>
        <time>2021-07-23T07:24:25Z</time>
      </trkpt>
      <trkpt lat="44.51124" lon="0.73322">
        <ele>119</ele>
        <time>2021-07-23T07:24:30Z</time>
      </trkpt>
      <trkpt lat="44.51128" lon="0.73323">
        <ele>118.8</ele>
        <time>2021-07-23T07:24:32Z</time>
      </trkpt>
      <trkpt lat="44.51133" lon="0.7332">
        <ele>118.6</ele>
        <time>2021-07-23T07:24:34Z</time>
      </trkpt>
      <trkpt lat="44.51149" lon="0.73305">
        <ele>117.9</ele>
        <time>2021-07-23T07:24:39Z</time>
      </trkpt>
      <trkpt lat="44.51185" lon="0.73289">
        <ele>116.3</ele>
        <time>2021-07-23T07:24:46Z</time>
      </trkpt>
      <trkpt lat="44.51197" lon="0.73289">
        <ele>115.7</ele>
        <time>2021-07-23T07:24:48Z</time>
      </trkpt>
      <trkpt lat="44.51216" lon="0.73292">
        <ele>114.8</ele>
        <time>2021-07-23T07:24:51Z</time>
      </trkpt>
      <trkpt lat="44.51256" lon="0.73313">
        <ele>112.6</ele>
        <time>2021-07-23T07:24:57Z</time>
      </trkpt>
      <trkpt lat="44.51312" lon="0.73342">
        <ele>109.8</ele>
        <time>2021-07-23T07:25:05Z</time>
      </trkpt>
      <trkpt lat="44.51346" lon="0.73369">
        <ele>108</ele>
        <time>2021-07-23T07:25:10Z</time>
      </trkpt>
      <trkpt lat="44.51366" lon="0.73404">
        <ele>106.4</ele>
        <time>2021-07-23T07:25:14Z</time>
      </trkpt>
      <trkpt lat="44.51391" lon="0.73463">
        <ele>103.9</ele>
        <time>2021-07-23T07:25:20Z</time>
      </trkpt>
      <trkpt lat="44.51416" lon="0.73526">
        <ele>101.1</ele>
        <time>2021-07-23T07:25:26Z</time>
      </trkpt>
      <trkpt lat="44.51439" lon="0.73593">
        <ele>98.3</ele>
        <time>2021-07-23T07:25:32Z</time>
      </trkpt>
      <trkpt lat="44.51451" lon="0.73653">
        <ele>96.1</ele>
        <time>2021-07-23T07:25:37Z</time>
      </trkpt>
      <trkpt lat="44.51459" lon="0.73714">
        <ele>93.7</ele>
        <time>2021-07-23T07:25:42Z</time>
      </trkpt>
      <trkpt lat="44.51471" lon="0.73761">
        <ele>91.7</ele>
        <time>2021-07-23T07:25:46Z</time>
      </trkpt>
      <trkpt lat="44.51497" lon="0.73815">
        <ele>89.2</ele>
        <time>2021-07-23T07:25:51Z</time>
      </trkpt>
      <trkpt lat="44.51531" lon="0.73879">
        <ele>85.8</ele>
        <time>2021-07-23T07:25:57Z</time>
      </trkpt>
      <trkpt lat="44.51537" lon="0.7389">
        <ele>85.3</ele>
        <time>2021-07-23T07:25:58Z</time>
      </trkpt>
      <trkpt lat="44.51575" lon="0.73952">
        <ele>82.6</ele>
        <time>2021-07-23T07:26:04Z</time>
      </trkpt>
      <trkpt lat="44.51582" lon="0.73962">
        <ele>82.1</ele>
        <time>2021-07-23T07:26:05Z</time>
      </trkpt>
      <trkpt lat="44.51627" lon="0.7401">
        <ele>79.8</ele>
        <time>2021-07-23T07:26:11Z</time>
      </trkpt>
      <trkpt lat="44.51635" lon="0.74018">
        <ele>79.6</ele>
        <time>2021-07-23T07:26:12Z</time>
      </trkpt>
      <trkpt lat="44.5168" lon="0.74056">
        <ele>78.6</ele>
        <time>2021-07-23T07:26:18Z</time>
      </trkpt>
      <trkpt lat="44.51717" lon="0.74076">
        <ele>78.2</ele>
        <time>2021-07-23T07:26:23Z</time>
      </trkpt>
      <trkpt lat="44.51761" lon="0.74095">
        <ele>77.6</ele>
        <time>2021-07-23T07:26:29Z</time>
      </trkpt>
      <trkpt lat="44.51813" lon="0.74129">
        <ele>77.3</ele>
        <time>2021-07-23T07:26:37Z</time>
      </trkpt>
      <trkpt lat="44.51847" lon="0.74162">
        <ele>77.2</ele>
        <time>2021-07-23T07:26:43Z</time>
      </trkpt>
      <trkpt lat="44.51876" lon="0.74186">
        <ele>76.9</ele>
        <time>2021-07-23T07:26:48Z</time>
      </trkpt>
      <trkpt lat="44.51923" lon="0.74228">
        <ele>76.4</ele>
        <time>2021-07-23T07:26:56Z</time>
      </trkpt>
      <trkpt lat="44.51934" lon="0.74239">
        <ele>76.5</ele>
        <time>2021-07-23T07:26:58Z</time>
      </trkpt>
      <trkpt lat="44.51967" lon="0.74278">
        <ele>77.4</ele>
        <time>2021-07-23T07:27:05Z</time>
      </trkpt>
      <trkpt lat="44.51972" lon="0.74288">
        <ele>77.3</ele>
        <time>2021-07-23T07:27:07Z</time>
      </trkpt>
      <trkpt lat="44.5198" lon="0.74296">
        <ele>77.2</ele>
        <time>2021-07-23T07:27:09Z</time>
      </trkpt>
      <trkpt lat="44.51991" lon="0.74298">
        <ele>77.2</ele>
        <time>2021-07-23T07:27:11Z</time>
      </trkpt>
      <trkpt lat="44.51997" lon="0.74297">
        <ele>77.2</ele>
        <time>2021-07-23T07:27:12Z</time>
      </trkpt>
      <trkpt lat="44.52002" lon="0.74294">
        <ele>77.2</ele>
        <time>2021-07-23T07:27:13Z</time>
      </trkpt>
      <trkpt lat="44.52021" lon="0.74283">
        <ele>77.7</ele>
        <time>2021-07-23T07:27:17Z</time>
      </trkpt>
      <trkpt lat="44.52038" lon="0.74271">
        <ele>78.8</ele>
        <time>2021-07-23T07:27:22Z</time>
      </trkpt>
      <trkpt lat="44.52056" lon="0.74264">
        <ele>80.1</ele>
        <time>2021-07-23T07:27:28Z</time>
      </trkpt>
      <trkpt lat="44.52076" lon="0.74251">
        <ele>81.7</ele>
        <time>2021-07-23T07:27:35Z</time>
      </trkpt>
      <trkpt lat="44.52091" lon="0.74236">
        <ele>83.2</ele>
        <time>2021-07-23T07:27:41Z</time>
      </trkpt>
      <trkpt lat="44.5211" lon="0.74221">
        <ele>84.9</ele>
        <time>2021-07-23T07:27:48Z</time>
      </trkpt>
      <trkpt lat="44.52122" lon="0.74215">
        <ele>86.2</ele>
        <time>2021-07-23T07:27:54Z</time>
      </trkpt>
      <trkpt lat="44.5213" lon="0.74209">
        <ele>87.1</ele>
        <time>2021-07-23T07:27:59Z</time>
      </trkpt>
      <trkpt lat="44.52138" lon="0.74193">
        <ele>86.4</ele>
        <time>2021-07-23T07:28:05Z</time>
      </trkpt>
      <trkpt lat="44.52147" lon="0.74179">
        <ele>85.6</ele>
        <time>2021-07-23T07:28:11Z</time>
      </trkpt>
      <trkpt lat="44.52156" lon="0.74169">
        <ele>85.6</ele>
        <time>2021-07-23T07:28:16Z</time>
      </trkpt>
      <trkpt lat="44.52166" lon="0.74155">
        <ele>85.2</ele>
        <time>2021-07-23T07:28:21Z</time>
      </trkpt>
      <trkpt lat="44.52179" lon="0.74139">
        <ele>84.7</ele>
        <time>2021-07-23T07:28:26Z</time>
      </trkpt>
      <trkpt lat="44.52189" lon="0.74129">
        <ele>84.4</ele>
        <time>2021-07-23T07:28:29Z</time>
      </trkpt>
      <trkpt lat="44.52197" lon="0.74122">
        <ele>84</ele>
        <time>2021-07-23T07:28:31Z</time>
      </trkpt>
      <trkpt lat="44.52201" lon="0.74118">
        <ele>84</ele>
        <time>2021-07-23T07:28:32Z</time>
      </trkpt>
      <trkpt lat="44.52211" lon="0.7411">
        <ele>83.6</ele>
        <time>2021-07-23T07:28:34Z</time>
      </trkpt>
      <trkpt lat="44.52237" lon="0.74099">
        <ele>84.1</ele>
        <time>2021-07-23T07:28:38Z</time>
      </trkpt>
      <trkpt lat="44.52267" lon="0.7409">
        <ele>84.9</ele>
        <time>2021-07-23T07:28:42Z</time>
      </trkpt>
      <trkpt lat="44.52294" lon="0.74077">
        <ele>84.7</ele>
        <time>2021-07-23T07:28:46Z</time>
      </trkpt>
      <trkpt lat="44.523" lon="0.74076">
        <ele>84.3</ele>
        <time>2021-07-23T07:28:47Z</time>
      </trkpt>
      <trkpt lat="44.52307" lon="0.74075">
        <ele>84.3</ele>
        <time>2021-07-23T07:28:48Z</time>
      </trkpt>
      <trkpt lat="44.52323" lon="0.74074">
        <ele>84</ele>
        <time>2021-07-23T07:28:51Z</time>
      </trkpt>
      <trkpt lat="44.52342" lon="0.74072">
        <ele>83.4</ele>
        <time>2021-07-23T07:28:55Z</time>
      </trkpt>
      <trkpt lat="44.52349" lon="0.74073">
        <ele>83.8</ele>
        <time>2021-07-23T07:28:56Z</time>
      </trkpt>
      <trkpt lat="44.52359" lon="0.74081">
        <ele>84.5</ele>
        <time>2021-07-23T07:28:58Z</time>
      </trkpt>
      <trkpt lat="44.52367" lon="0.74089">
        <ele>84.9</ele>
        <time>2021-07-23T07:29:00Z</time>
      </trkpt>
      <trkpt lat="44.52386" lon="0.74101">
        <ele>84.5</ele>
        <time>2021-07-23T07:29:04Z</time>
      </trkpt>
      <trkpt lat="44.52404" lon="0.74112">
        <ele>83.5</ele>
        <time>2021-07-23T07:29:08Z</time>
      </trkpt>
      <trkpt lat="44.52413" lon="0.74117">
        <ele>82.5</ele>
        <time>2021-07-23T07:29:10Z</time>
      </trkpt>
      <trkpt lat="44.52437" lon="0.74135">
        <ele>80.5</ele>
        <time>2021-07-23T07:29:16Z</time>
      </trkpt>
      <trkpt lat="44.52464" lon="0.74157">
        <ele>79.3</ele>
        <time>2021-07-23T07:29:23Z</time>
      </trkpt>
      <trkpt lat="44.52488" lon="0.74179">
        <ele>79.6</ele>
        <time>2021-07-23T07:29:29Z</time>
      </trkpt>
      <trkpt lat="44.52508" lon="0.74192">
        <ele>79.3</ele>
        <time>2021-07-23T07:29:34Z</time>
      </trkpt>
      <trkpt lat="44.5252" lon="0.74197">
        <ele>79.3</ele>
        <time>2021-07-23T07:29:37Z</time>
      </trkpt>
      <trkpt lat="44.52529" lon="0.74197">
        <ele>77.9</ele>
        <time>2021-07-23T07:29:39Z</time>
      </trkpt>
      <trkpt lat="44.52562" lon="0.74199">
        <ele>75</ele>
        <time>2021-07-23T07:29:46Z</time>
      </trkpt>
      <trkpt lat="44.52585" lon="0.74198">
        <ele>75.1</ele>
        <time>2021-07-23T07:29:51Z</time>
      </trkpt>
      <trkpt lat="44.52599" lon="0.74197">
        <ele>75.5</ele>
        <time>2021-07-23T07:29:54Z</time>
      </trkpt>
      <trkpt lat="44.52631" lon="0.74198">
        <ele>76.8</ele>
        <time>2021-07-23T07:30:01Z</time>
      </trkpt>
      <trkpt lat="44.52638" lon="0.74202">
        <ele>77.3</ele>
        <time>2021-07-23T07:30:03Z</time>
      </trkpt>
      <trkpt lat="44.5265" lon="0.74211">
        <ele>77.8</ele>
        <time>2021-07-23T07:30:06Z</time>
      </trkpt>
      <trkpt lat="44.52674" lon="0.74222">
        <ele>78.7</ele>
        <time>2021-07-23T07:30:12Z</time>
      </trkpt>
      <trkpt lat="44.52699" lon="0.74222">
        <ele>79.6</ele>
        <time>2021-07-23T07:30:18Z</time>
      </trkpt>
      <trkpt lat="44.52722" lon="0.74222">
        <ele>80.2</ele>
        <time>2021-07-23T07:30:25Z</time>
      </trkpt>
      <trkpt lat="44.52729" lon="0.74239">
        <ele>80.8</ele>
        <time>2021-07-23T07:30:29Z</time>
      </trkpt>
      <trkpt lat="44.52736" lon="0.74255">
        <ele>81.5</ele>
        <time>2021-07-23T07:30:33Z</time>
      </trkpt>
      <trkpt lat="44.52743" lon="0.7427">
        <ele>82.3</ele>
        <time>2021-07-23T07:30:39Z</time>
      </trkpt>
      <trkpt lat="44.52746" lon="0.74277">
        <ele>82.7</ele>
        <time>2021-07-23T07:30:42Z</time>
      </trkpt>
      <trkpt lat="44.52748" lon="0.74282">
        <ele>83</ele>
        <time>2021-07-23T07:30:44Z</time>
      </trkpt>
      <trkpt lat="44.52757" lon="0.74299">
        <ele>84.2</ele>
        <time>2021-07-23T07:30:51Z</time>
      </trkpt>
      <trkpt lat="44.52763" lon="0.74315">
        <ele>85.1</ele>
        <time>2021-07-23T07:30:58Z</time>
      </trkpt>
      <trkpt lat="44.52767" lon="0.74339">
        <ele>86.1</ele>
        <time>2021-07-23T07:31:06Z</time>
      </trkpt>
      <trkpt lat="44.52768" lon="0.74367">
        <ele>87</ele>
        <time>2021-07-23T07:31:14Z</time>
      </trkpt>
      <trkpt lat="44.52769" lon="0.7439">
        <ele>87.9</ele>
        <time>2021-07-23T07:31:21Z</time>
      </trkpt>
      <trkpt lat="44.52768" lon="0.74396">
        <ele>88.1</ele>
        <time>2021-07-23T07:31:23Z</time>
      </trkpt>
      <trkpt lat="44.5277" lon="0.74406">
        <ele>88.5</ele>
        <time>2021-07-23T07:31:26Z</time>
      </trkpt>
      <trkpt lat="44.52771" lon="0.74426">
        <ele>89.4</ele>
        <time>2021-07-23T07:31:32Z</time>
      </trkpt>
      <trkpt lat="44.52767" lon="0.74443">
        <ele>90.1</ele>
        <time>2021-07-23T07:31:38Z</time>
      </trkpt>
      <trkpt lat="44.52759" lon="0.74461">
        <ele>91.3</ele>
        <time>2021-07-23T07:31:47Z</time>
      </trkpt>
      <trkpt lat="44.52755" lon="0.74473">
        <ele>92.1</ele>
        <time>2021-07-23T07:31:52Z</time>
      </trkpt>
      <trkpt lat="44.52753" lon="0.74479">
        <ele>92.5</ele>
        <time>2021-07-23T07:31:55Z</time>
      </trkpt>
      <trkpt lat="44.5275" lon="0.74482">
        <ele>92.8</ele>
        <time>2021-07-23T07:31:57Z</time>
      </trkpt>
      <trkpt lat="44.52746" lon="0.74493">
        <ele>93.6</ele>
        <time>2021-07-23T07:32:02Z</time>
      </trkpt>
      <trkpt lat="44.52745" lon="0.74494">
        <ele>93.7</ele>
        <time>2021-07-23T07:32:03Z</time>
      </trkpt>
      <trkpt lat="44.52744" lon="0.745">
        <ele>94.1</ele>
        <time>2021-07-23T07:32:06Z</time>
      </trkpt>
      <trkpt lat="44.52739" lon="0.74511">
        <ele>94.8</ele>
        <time>2021-07-23T07:32:12Z</time>
      </trkpt>
      <trkpt lat="44.52735" lon="0.74527">
        <ele>95.6</ele>
        <time>2021-07-23T07:32:20Z</time>
      </trkpt>
      <trkpt lat="44.52731" lon="0.74545">
        <ele>96.1</ele>
        <time>2021-07-23T07:32:28Z</time>
      </trkpt>
      <trkpt lat="44.52728" lon="0.74561">
        <ele>96.2</ele>
        <time>2021-07-23T07:32:35Z</time>
      </trkpt>
      <trkpt lat="44.52722" lon="0.74578">
        <ele>96.2</ele>
        <time>2021-07-23T07:32:41Z</time>
      </trkpt>
      <trkpt lat="44.52717" lon="0.74604">
        <ele>95.9</ele>
        <time>2021-07-23T07:32:48Z</time>
      </trkpt>
      <trkpt lat="44.52712" lon="0.74623">
        <ele>96.5</ele>
        <time>2021-07-23T07:32:53Z</time>
      </trkpt>
      <trkpt lat="44.52706" lon="0.74661">
        <ele>97.5</ele>
        <time>2021-07-23T07:33:02Z</time>
      </trkpt>
      <trkpt lat="44.52705" lon="0.74686">
        <ele>98.2</ele>
        <time>2021-07-23T07:33:08Z</time>
      </trkpt>
      <trkpt lat="44.52703" lon="0.74714">
        <ele>98.8</ele>
        <time>2021-07-23T07:33:14Z</time>
      </trkpt>
      <trkpt lat="44.52697" lon="0.74743">
        <ele>99.5</ele>
        <time>2021-07-23T07:33:20Z</time>
      </trkpt>
      <trkpt lat="44.52693" lon="0.74774">
        <ele>100.2</ele>
        <time>2021-07-23T07:33:26Z</time>
      </trkpt>
      <trkpt lat="44.52691" lon="0.74811">
        <ele>100.8</ele>
        <time>2021-07-23T07:33:33Z</time>
      </trkpt>
      <trkpt lat="44.52692" lon="0.74835">
        <ele>101.2</ele>
        <time>2021-07-23T07:33:38Z</time>
      </trkpt>
      <trkpt lat="44.52692" lon="0.74858">
        <ele>101.5</ele>
        <time>2021-07-23T07:33:43Z</time>
      </trkpt>
      <trkpt lat="44.5269" lon="0.74891">
        <ele>102</ele>
        <time>2021-07-23T07:33:49Z</time>
      </trkpt>
      <trkpt lat="44.52688" lon="0.74918">
        <ele>102.6</ele>
        <time>2021-07-23T07:33:54Z</time>
      </trkpt>
      <trkpt lat="44.52687" lon="0.74949">
        <ele>103.1</ele>
        <time>2021-07-23T07:34:00Z</time>
      </trkpt>
      <trkpt lat="44.52685" lon="0.74973">
        <ele>103.3</ele>
        <time>2021-07-23T07:34:04Z</time>
      </trkpt>
      <trkpt lat="44.52685" lon="0.74979">
        <ele>103.3</ele>
        <time>2021-07-23T07:34:05Z</time>
      </trkpt>
      <trkpt lat="44.52679" lon="0.75018">
        <ele>103.3</ele>
        <time>2021-07-23T07:34:11Z</time>
      </trkpt>
      <trkpt lat="44.52677" lon="0.75025">
        <ele>103.4</ele>
        <time>2021-07-23T07:34:12Z</time>
      </trkpt>
      <trkpt lat="44.5267" lon="0.75062">
        <ele>103.8</ele>
        <time>2021-07-23T07:34:17Z</time>
      </trkpt>
      <trkpt lat="44.52671" lon="0.75077">
        <ele>104.3</ele>
        <time>2021-07-23T07:34:19Z</time>
      </trkpt>
      <trkpt lat="44.52675" lon="0.75092">
        <ele>104.9</ele>
        <time>2021-07-23T07:34:21Z</time>
      </trkpt>
      <trkpt lat="44.52687" lon="0.75121">
        <ele>106.9</ele>
        <time>2021-07-23T07:34:26Z</time>
      </trkpt>
      <trkpt lat="44.52686" lon="0.75144">
        <ele>107.9</ele>
        <time>2021-07-23T07:34:31Z</time>
      </trkpt>
      <trkpt lat="44.52675" lon="0.75184">
        <ele>108.4</ele>
        <time>2021-07-23T07:34:40Z</time>
      </trkpt>
      <trkpt lat="44.52671" lon="0.75205">
        <ele>108.7</ele>
        <time>2021-07-23T07:34:45Z</time>
      </trkpt>
      <trkpt lat="44.52671" lon="0.75213">
        <ele>108.7</ele>
        <time>2021-07-23T07:34:47Z</time>
      </trkpt>
      <trkpt lat="44.52674" lon="0.7522">
        <ele>108.8</ele>
        <time>2021-07-23T07:34:49Z</time>
      </trkpt>
      <trkpt lat="44.52692" lon="0.75235">
        <ele>109.2</ele>
        <time>2021-07-23T07:34:56Z</time>
      </trkpt>
      <trkpt lat="44.52697" lon="0.75236">
        <ele>109.2</ele>
        <time>2021-07-23T07:34:59Z</time>
      </trkpt>
      <trkpt lat="44.52698" lon="0.75235">
        <ele>109.2</ele>
        <time>2021-07-23T07:35:00Z</time>
      </trkpt>
      <trkpt lat="44.527" lon="0.75235">
        <ele>109.3</ele>
        <time>2021-07-23T07:35:01Z</time>
      </trkpt>
      <trkpt lat="44.52704" lon="0.75239">
        <ele>109.3</ele>
        <time>2021-07-23T07:35:03Z</time>
      </trkpt>
      <trkpt lat="44.52711" lon="0.75249">
        <ele>109.4</ele>
        <time>2021-07-23T07:35:07Z</time>
      </trkpt>
      <trkpt lat="44.52712" lon="0.75249">
        <ele>109.4</ele>
        <time>2021-07-23T07:35:08Z</time>
      </trkpt>
      <trkpt lat="44.52712" lon="0.75248">
        <ele>109.4</ele>
        <time>2021-07-23T07:35:09Z</time>
      </trkpt>
      <trkpt lat="44.52713" lon="0.75246">
        <ele>109.4</ele>
        <time>2021-07-23T07:37:27Z</time>
      </trkpt>
      <trkpt lat="44.52713" lon="0.75244">
        <ele>109.4</ele>
        <time>2021-07-23T07:37:28Z</time>
      </trkpt>
      <trkpt lat="44.52712" lon="0.75242">
        <ele>109.4</ele>
        <time>2021-07-23T07:37:29Z</time>
      </trkpt>
      <trkpt lat="44.5271" lon="0.75241">
        <ele>109.4</ele>
        <time>2021-07-23T07:37:30Z</time>
      </trkpt>
      <trkpt lat="44.52704" lon="0.7524">
        <ele>109.5</ele>
        <time>2021-07-23T07:37:33Z</time>
      </trkpt>
      <trkpt lat="44.52697" lon="0.75236">
        <ele>109.5</ele>
        <time>2021-07-23T07:37:37Z</time>
      </trkpt>
      <trkpt lat="44.52695" lon="0.75237">
        <ele>109.5</ele>
        <time>2021-07-23T07:37:38Z</time>
      </trkpt>
      <trkpt lat="44.5269" lon="0.75249">
        <ele>109.5</ele>
        <time>2021-07-23T07:37:42Z</time>
      </trkpt>
      <trkpt lat="44.52686" lon="0.75277">
        <ele>109.5</ele>
        <time>2021-07-23T07:37:49Z</time>
      </trkpt>
      <trkpt lat="44.52679" lon="0.75304">
        <ele>109.5</ele>
        <time>2021-07-23T07:37:56Z</time>
      </trkpt>
      <trkpt lat="44.52671" lon="0.75335">
        <ele>109.5</ele>
        <time>2021-07-23T07:38:03Z</time>
      </trkpt>
      <trkpt lat="44.52662" lon="0.75374">
        <ele>109.4</ele>
        <time>2021-07-23T07:38:11Z</time>
      </trkpt>
      <trkpt lat="44.52652" lon="0.75418">
        <ele>110</ele>
        <time>2021-07-23T07:38:20Z</time>
      </trkpt>
      <trkpt lat="44.52641" lon="0.75468">
        <ele>110.7</ele>
        <time>2021-07-23T07:38:30Z</time>
      </trkpt>
      <trkpt lat="44.52628" lon="0.75512">
        <ele>111.4</ele>
        <time>2021-07-23T07:38:39Z</time>
      </trkpt>
      <trkpt lat="44.52616" lon="0.75546">
        <ele>111.8</ele>
        <time>2021-07-23T07:38:46Z</time>
      </trkpt>
      <trkpt lat="44.526" lon="0.75581">
        <ele>112.5</ele>
        <time>2021-07-23T07:38:54Z</time>
      </trkpt>
      <trkpt lat="44.52588" lon="0.7561">
        <ele>112.8</ele>
        <time>2021-07-23T07:39:00Z</time>
      </trkpt>
      <trkpt lat="44.52578" lon="0.75639">
        <ele>113.1</ele>
        <time>2021-07-23T07:39:06Z</time>
      </trkpt>
      <trkpt lat="44.52578" lon="0.75644">
        <ele>113.4</ele>
        <time>2021-07-23T07:39:07Z</time>
      </trkpt>
      <trkpt lat="44.52581" lon="0.75656">
        <ele>113.7</ele>
        <time>2021-07-23T07:39:10Z</time>
      </trkpt>
      <trkpt lat="44.52598" lon="0.75683">
        <ele>114.6</ele>
        <time>2021-07-23T07:39:17Z</time>
      </trkpt>
      <trkpt lat="44.52618" lon="0.75716">
        <ele>115.7</ele>
        <time>2021-07-23T07:39:26Z</time>
      </trkpt>
      <trkpt lat="44.52632" lon="0.75736">
        <ele>116.3</ele>
        <time>2021-07-23T07:39:32Z</time>
      </trkpt>
      <trkpt lat="44.52647" lon="0.7576">
        <ele>116.8</ele>
        <time>2021-07-23T07:39:39Z</time>
      </trkpt>
      <trkpt lat="44.5265" lon="0.75762">
        <ele>116.8</ele>
        <time>2021-07-23T07:39:40Z</time>
      </trkpt>
      <trkpt lat="44.52654" lon="0.75765">
        <ele>116.9</ele>
        <time>2021-07-23T07:39:41Z</time>
      </trkpt>
      <trkpt lat="44.52656" lon="0.75774">
        <ele>117.1</ele>
        <time>2021-07-23T07:39:43Z</time>
      </trkpt>
      <trkpt lat="44.52654" lon="0.75795">
        <ele>117.3</ele>
        <time>2021-07-23T07:39:47Z</time>
      </trkpt>
      <trkpt lat="44.52664" lon="0.75822">
        <ele>117.8</ele>
        <time>2021-07-23T07:39:53Z</time>
      </trkpt>
      <trkpt lat="44.52683" lon="0.75867">
        <ele>118.7</ele>
        <time>2021-07-23T07:40:03Z</time>
      </trkpt>
      <trkpt lat="44.52701" lon="0.75908">
        <ele>119.6</ele>
        <time>2021-07-23T07:40:12Z</time>
      </trkpt>
      <trkpt lat="44.52713" lon="0.75937">
        <ele>120.2</ele>
        <time>2021-07-23T07:40:18Z</time>
      </trkpt>
      <trkpt lat="44.52728" lon="0.75981">
        <ele>120.8</ele>
        <time>2021-07-23T07:40:26Z</time>
      </trkpt>
      <trkpt lat="44.52741" lon="0.7602">
        <ele>121.3</ele>
        <time>2021-07-23T07:40:33Z</time>
      </trkpt>
      <trkpt lat="44.52757" lon="0.76074">
        <ele>121.8</ele>
        <time>2021-07-23T07:40:43Z</time>
      </trkpt>
      <trkpt lat="44.52758" lon="0.7608">
        <ele>121.9</ele>
        <time>2021-07-23T07:40:44Z</time>
      </trkpt>
      <trkpt lat="44.52758" lon="0.76091">
        <ele>121.9</ele>
        <time>2021-07-23T07:40:46Z</time>
      </trkpt>
      <trkpt lat="44.52756" lon="0.76102">
        <ele>122</ele>
        <time>2021-07-23T07:40:48Z</time>
      </trkpt>
      <trkpt lat="44.52756" lon="0.76126">
        <ele>122.1</ele>
        <time>2021-07-23T07:40:53Z</time>
      </trkpt>
      <trkpt lat="44.52758" lon="0.76131">
        <ele>122.1</ele>
        <time>2021-07-23T07:40:54Z</time>
      </trkpt>
      <trkpt lat="44.52765" lon="0.7614">
        <ele>122.1</ele>
        <time>2021-07-23T07:40:56Z</time>
      </trkpt>
      <trkpt lat="44.52769" lon="0.76144">
        <ele>122.1</ele>
        <time>2021-07-23T07:40:57Z</time>
      </trkpt>
      <trkpt lat="44.52794" lon="0.76176">
        <ele>122.1</ele>
        <time>2021-07-23T07:41:04Z</time>
      </trkpt>
      <trkpt lat="44.52834" lon="0.76234">
        <ele>121.9</ele>
        <time>2021-07-23T07:41:15Z</time>
      </trkpt>
      <trkpt lat="44.52868" lon="0.76285">
        <ele>121.7</ele>
        <time>2021-07-23T07:41:24Z</time>
      </trkpt>
      <trkpt lat="44.52904" lon="0.7634">
        <ele>122</ele>
        <time>2021-07-23T07:41:34Z</time>
      </trkpt>
      <trkpt lat="44.52926" lon="0.76376">
        <ele>122.8</ele>
        <time>2021-07-23T07:41:41Z</time>
      </trkpt>
      <trkpt lat="44.52935" lon="0.76397">
        <ele>123.3</ele>
        <time>2021-07-23T07:41:45Z</time>
      </trkpt>
      <trkpt lat="44.52939" lon="0.76408">
        <ele>123.6</ele>
        <time>2021-07-23T07:41:47Z</time>
      </trkpt>
      <trkpt lat="44.5294" lon="0.76414">
        <ele>123.8</ele>
        <time>2021-07-23T07:41:48Z</time>
      </trkpt>
      <trkpt lat="44.52948" lon="0.76466">
        <ele>125.5</ele>
        <time>2021-07-23T07:41:57Z</time>
      </trkpt>
      <trkpt lat="44.52947" lon="0.76509">
        <ele>127.1</ele>
        <time>2021-07-23T07:42:05Z</time>
      </trkpt>
      <trkpt lat="44.52944" lon="0.76552">
        <ele>128.6</ele>
        <time>2021-07-23T07:42:14Z</time>
      </trkpt>
      <trkpt lat="44.52938" lon="0.766">
        <ele>130.2</ele>
        <time>2021-07-23T07:42:24Z</time>
      </trkpt>
      <trkpt lat="44.52935" lon="0.76614">
        <ele>130.8</ele>
        <time>2021-07-23T07:42:27Z</time>
      </trkpt>
      <trkpt lat="44.52936" lon="0.76618">
        <ele>130.9</ele>
        <time>2021-07-23T07:42:28Z</time>
      </trkpt>
      <trkpt lat="44.52935" lon="0.76657">
        <ele>132.4</ele>
        <time>2021-07-23T07:42:36Z</time>
      </trkpt>
      <trkpt lat="44.52932" lon="0.76691">
        <ele>133.8</ele>
        <time>2021-07-23T07:42:44Z</time>
      </trkpt>
      <trkpt lat="44.52929" lon="0.76725">
        <ele>135.2</ele>
        <time>2021-07-23T07:42:52Z</time>
      </trkpt>
      <trkpt lat="44.52929" lon="0.76765">
        <ele>136.9</ele>
        <time>2021-07-23T07:43:02Z</time>
      </trkpt>
      <trkpt lat="44.52933" lon="0.76797">
        <ele>138.4</ele>
        <time>2021-07-23T07:43:10Z</time>
      </trkpt>
      <trkpt lat="44.52939" lon="0.76827">
        <ele>139.8</ele>
        <time>2021-07-23T07:43:17Z</time>
      </trkpt>
      <trkpt lat="44.5295" lon="0.76855">
        <ele>141.2</ele>
        <time>2021-07-23T07:43:25Z</time>
      </trkpt>
      <trkpt lat="44.52965" lon="0.76881">
        <ele>142.5</ele>
        <time>2021-07-23T07:43:33Z</time>
      </trkpt>
      <trkpt lat="44.52985" lon="0.76897">
        <ele>143.8</ele>
        <time>2021-07-23T07:43:40Z</time>
      </trkpt>
      <trkpt lat="44.53004" lon="0.76902">
        <ele>145.4</ele>
        <time>2021-07-23T07:43:47Z</time>
      </trkpt>
      <trkpt lat="44.53017" lon="0.769">
        <ele>146.5</ele>
        <time>2021-07-23T07:43:53Z</time>
      </trkpt>
      <trkpt lat="44.53019" lon="0.76895">
        <ele>147.8</ele>
        <time>2021-07-23T07:43:55Z</time>
      </trkpt>
      <trkpt lat="44.53018" lon="0.76887">
        <ele>149.6</ele>
        <time>2021-07-23T07:43:57Z</time>
      </trkpt>
      <trkpt lat="44.53022" lon="0.76872">
        <ele>154.3</ele>
        <time>2021-07-23T07:44:01Z</time>
      </trkpt>
      <trkpt lat="44.53032" lon="0.76858">
        <ele>155.8</ele>
        <time>2021-07-23T07:44:07Z</time>
      </trkpt>
      <trkpt lat="44.53037" lon="0.76843">
        <ele>156.9</ele>
        <time>2021-07-23T07:44:14Z</time>
      </trkpt>
      <trkpt lat="44.53039" lon="0.76843">
        <ele>156.8</ele>
        <time>2021-07-23T07:44:18Z</time>
      </trkpt>
      <trkpt lat="44.53033" lon="0.76858">
        <ele>156.2</ele>
        <time>2021-07-23T07:44:23Z</time>
      </trkpt>
      <trkpt lat="44.53032" lon="0.76863">
        <ele>156</ele>
        <time>2021-07-23T07:44:24Z</time>
      </trkpt>
      <trkpt lat="44.53027" lon="0.76872">
        <ele>155.7</ele>
        <time>2021-07-23T07:44:26Z</time>
      </trkpt>
      <trkpt lat="44.53025" lon="0.76871">
        <ele>155.6</ele>
        <time>2021-07-23T07:44:27Z</time>
      </trkpt>
      <trkpt lat="44.5302" lon="0.76859">
        <ele>155.1</ele>
        <time>2021-07-23T07:44:29Z</time>
      </trkpt>
      <trkpt lat="44.53019" lon="0.76854">
        <ele>155</ele>
        <time>2021-07-23T07:44:30Z</time>
      </trkpt>
      <trkpt lat="44.5302" lon="0.76852">
        <ele>154.9</ele>
        <time>2021-07-23T07:44:31Z</time>
      </trkpt>
      <trkpt lat="44.53022" lon="0.76852">
        <ele>154.8</ele>
        <time>2021-07-23T07:44:32Z</time>
      </trkpt>
      <trkpt lat="44.53024" lon="0.76853">
        <ele>154.7</ele>
        <time>2021-07-23T07:44:34Z</time>
      </trkpt>
      <trkpt lat="44.53024" lon="0.76852">
        <ele>154.6</ele>
        <time>2021-07-23T07:47:01Z</time>
      </trkpt>
      <trkpt lat="44.53022" lon="0.76851">
        <ele>154.5</ele>
        <time>2021-07-23T07:47:02Z</time>
      </trkpt>
      <trkpt lat="44.53018" lon="0.76852">
        <ele>154.4</ele>
        <time>2021-07-23T07:47:04Z</time>
      </trkpt>
      <trkpt lat="44.53015" lon="0.76859">
        <ele>154.1</ele>
        <time>2021-07-23T07:47:06Z</time>
      </trkpt>
      <trkpt lat="44.53016" lon="0.7688">
        <ele>152.3</ele>
        <time>2021-07-23T07:47:11Z</time>
      </trkpt>
      <trkpt lat="44.53016" lon="0.76898">
        <ele>146.5</ele>
        <time>2021-07-23T07:47:16Z</time>
      </trkpt>
      <trkpt lat="44.53016" lon="0.76912">
        <ele>145.9</ele>
        <time>2021-07-23T07:47:21Z</time>
      </trkpt>
      <trkpt lat="44.53019" lon="0.76922">
        <ele>145.4</ele>
        <time>2021-07-23T07:47:23Z</time>
      </trkpt>
      <trkpt lat="44.53021" lon="0.76935">
        <ele>144.7</ele>
        <time>2021-07-23T07:47:25Z</time>
      </trkpt>
      <trkpt lat="44.53023" lon="0.76977">
        <ele>142.8</ele>
        <time>2021-07-23T07:47:30Z</time>
      </trkpt>
      <trkpt lat="44.53028" lon="0.7703">
        <ele>140.8</ele>
        <time>2021-07-23T07:47:35Z</time>
      </trkpt>
      <trkpt lat="44.53031" lon="0.7704">
        <ele>140.5</ele>
        <time>2021-07-23T07:47:36Z</time>
      </trkpt>
      <trkpt lat="44.5304" lon="0.77059">
        <ele>139.8</ele>
        <time>2021-07-23T07:47:38Z</time>
      </trkpt>
      <trkpt lat="44.53068" lon="0.771">
        <ele>138.2</ele>
        <time>2021-07-23T07:47:43Z</time>
      </trkpt>
      <trkpt lat="44.5309" lon="0.77128">
        <ele>137.7</ele>
        <time>2021-07-23T07:47:47Z</time>
      </trkpt>
      <trkpt lat="44.53095" lon="0.77131">
        <ele>137.7</ele>
        <time>2021-07-23T07:47:48Z</time>
      </trkpt>
      <trkpt lat="44.53101" lon="0.77132">
        <ele>137.6</ele>
        <time>2021-07-23T07:47:49Z</time>
      </trkpt>
      <trkpt lat="44.53108" lon="0.77129">
        <ele>137.6</ele>
        <time>2021-07-23T07:47:51Z</time>
      </trkpt>
      <trkpt lat="44.53119" lon="0.77123">
        <ele>137.7</ele>
        <time>2021-07-23T07:47:55Z</time>
      </trkpt>
      <trkpt lat="44.53138" lon="0.77127">
        <ele>137.8</ele>
        <time>2021-07-23T07:48:00Z</time>
      </trkpt>
      <trkpt lat="44.5316" lon="0.77132">
        <ele>137.9</ele>
        <time>2021-07-23T07:48:05Z</time>
      </trkpt>
      <trkpt lat="44.53183" lon="0.77134">
        <ele>137.8</ele>
        <time>2021-07-23T07:48:10Z</time>
      </trkpt>
      <trkpt lat="44.53192" lon="0.77138">
        <ele>137.8</ele>
        <time>2021-07-23T07:48:12Z</time>
      </trkpt>
      <trkpt lat="44.53225" lon="0.77146">
        <ele>137.5</ele>
        <time>2021-07-23T07:48:18Z</time>
      </trkpt>
      <trkpt lat="44.5326" lon="0.77153">
        <ele>136.9</ele>
        <time>2021-07-23T07:48:24Z</time>
      </trkpt>
      <trkpt lat="44.53267" lon="0.77155">
        <ele>136.8</ele>
        <time>2021-07-23T07:48:25Z</time>
      </trkpt>
      <trkpt lat="44.53284" lon="0.77168">
        <ele>136.4</ele>
        <time>2021-07-23T07:48:28Z</time>
      </trkpt>
      <trkpt lat="44.53289" lon="0.77173">
        <ele>136.3</ele>
        <time>2021-07-23T07:48:29Z</time>
      </trkpt>
      <trkpt lat="44.53297" lon="0.77188">
        <ele>135.9</ele>
        <time>2021-07-23T07:48:31Z</time>
      </trkpt>
      <trkpt lat="44.53306" lon="0.77226">
        <ele>134.4</ele>
        <time>2021-07-23T07:48:35Z</time>
      </trkpt>
      <trkpt lat="44.5332" lon="0.77292">
        <ele>132.2</ele>
        <time>2021-07-23T07:48:41Z</time>
      </trkpt>
      <trkpt lat="44.53338" lon="0.77366">
        <ele>131</ele>
        <time>2021-07-23T07:48:48Z</time>
      </trkpt>
      <trkpt lat="44.53343" lon="0.77387">
        <ele>130.9</ele>
        <time>2021-07-23T07:48:50Z</time>
      </trkpt>
      <trkpt lat="44.53362" lon="0.77462">
        <ele>131</ele>
        <time>2021-07-23T07:48:58Z</time>
      </trkpt>
      <trkpt lat="44.53378" lon="0.77524">
        <ele>131.2</ele>
        <time>2021-07-23T07:49:05Z</time>
      </trkpt>
      <trkpt lat="44.53392" lon="0.77584">
        <ele>131.6</ele>
        <time>2021-07-23T07:49:12Z</time>
      </trkpt>
      <trkpt lat="44.53402" lon="0.77625">
        <ele>132</ele>
        <time>2021-07-23T07:49:17Z</time>
      </trkpt>
      <trkpt lat="44.53406" lon="0.7764">
        <ele>132.1</ele>
        <time>2021-07-23T07:49:19Z</time>
      </trkpt>
      <trkpt lat="44.53421" lon="0.77699">
        <ele>132.6</ele>
        <time>2021-07-23T07:49:27Z</time>
      </trkpt>
      <trkpt lat="44.53434" lon="0.77761">
        <ele>133.2</ele>
        <time>2021-07-23T07:49:35Z</time>
      </trkpt>
      <trkpt lat="44.53443" lon="0.77815">
        <ele>133.9</ele>
        <time>2021-07-23T07:49:42Z</time>
      </trkpt>
      <trkpt lat="44.53451" lon="0.77822">
        <ele>133.7</ele>
        <time>2021-07-23T07:49:44Z</time>
      </trkpt>
      <trkpt lat="44.53456" lon="0.77823">
        <ele>133.7</ele>
        <time>2021-07-23T07:49:45Z</time>
      </trkpt>
      <trkpt lat="44.53466" lon="0.77826">
        <ele>133.5</ele>
        <time>2021-07-23T07:49:47Z</time>
      </trkpt>
      <trkpt lat="44.53485" lon="0.77834">
        <ele>133.2</ele>
        <time>2021-07-23T07:49:51Z</time>
      </trkpt>
      <trkpt lat="44.5352" lon="0.77847">
        <ele>133.4</ele>
        <time>2021-07-23T07:49:58Z</time>
      </trkpt>
      <trkpt lat="44.53538" lon="0.7786">
        <ele>133.4</ele>
        <time>2021-07-23T07:50:02Z</time>
      </trkpt>
      <trkpt lat="44.53541" lon="0.77864">
        <ele>133.3</ele>
        <time>2021-07-23T07:50:03Z</time>
      </trkpt>
      <trkpt lat="44.53548" lon="0.77874">
        <ele>133.5</ele>
        <time>2021-07-23T07:50:05Z</time>
      </trkpt>
      <trkpt lat="44.53557" lon="0.77894">
        <ele>133.4</ele>
        <time>2021-07-23T07:50:08Z</time>
      </trkpt>
      <trkpt lat="44.53577" lon="0.77936">
        <ele>131.6</ele>
        <time>2021-07-23T07:50:13Z</time>
      </trkpt>
      <trkpt lat="44.53588" lon="0.77965">
        <ele>131.4</ele>
        <time>2021-07-23T07:50:16Z</time>
      </trkpt>
      <trkpt lat="44.5359" lon="0.77975">
        <ele>131.5</ele>
        <time>2021-07-23T07:50:17Z</time>
      </trkpt>
      <trkpt lat="44.53592" lon="0.77984">
        <ele>131.3</ele>
        <time>2021-07-23T07:50:18Z</time>
      </trkpt>
      <trkpt lat="44.53595" lon="0.78015">
        <ele>129.7</ele>
        <time>2021-07-23T07:50:21Z</time>
      </trkpt>
      <trkpt lat="44.53596" lon="0.78044">
        <ele>128.6</ele>
        <time>2021-07-23T07:50:24Z</time>
      </trkpt>
      <trkpt lat="44.536" lon="0.78062">
        <ele>127.9</ele>
        <time>2021-07-23T07:50:26Z</time>
      </trkpt>
      <trkpt lat="44.53611" lon="0.78089">
        <ele>126.1</ele>
        <time>2021-07-23T07:50:29Z</time>
      </trkpt>
      <trkpt lat="44.53617" lon="0.78097">
        <ele>125.5</ele>
        <time>2021-07-23T07:50:30Z</time>
      </trkpt>
      <trkpt lat="44.53628" lon="0.78114">
        <ele>124.5</ele>
        <time>2021-07-23T07:50:32Z</time>
      </trkpt>
      <trkpt lat="44.53643" lon="0.78125">
        <ele>123.5</ele>
        <time>2021-07-23T07:50:34Z</time>
      </trkpt>
      <trkpt lat="44.53682" lon="0.78139">
        <ele>121.3</ele>
        <time>2021-07-23T07:50:39Z</time>
      </trkpt>
      <trkpt lat="44.53711" lon="0.78138">
        <ele>119.9</ele>
        <time>2021-07-23T07:50:43Z</time>
      </trkpt>
      <trkpt lat="44.53732" lon="0.78138">
        <ele>118.9</ele>
        <time>2021-07-23T07:50:46Z</time>
      </trkpt>
      <trkpt lat="44.53738" lon="0.78142">
        <ele>118.6</ele>
        <time>2021-07-23T07:50:47Z</time>
      </trkpt>
      <trkpt lat="44.53741" lon="0.78149">
        <ele>118.4</ele>
        <time>2021-07-23T07:50:48Z</time>
      </trkpt>
      <trkpt lat="44.5375" lon="0.78158">
        <ele>118.1</ele>
        <time>2021-07-23T07:50:50Z</time>
      </trkpt>
      <trkpt lat="44.53765" lon="0.78159">
        <ele>118.2</ele>
        <time>2021-07-23T07:50:53Z</time>
      </trkpt>
      <trkpt lat="44.5377" lon="0.7816">
        <ele>118.4</ele>
        <time>2021-07-23T07:50:54Z</time>
      </trkpt>
      <trkpt lat="44.53774" lon="0.78161">
        <ele>118.6</ele>
        <time>2021-07-23T07:50:55Z</time>
      </trkpt>
      <trkpt lat="44.53786" lon="0.7817">
        <ele>119.3</ele>
        <time>2021-07-23T07:50:58Z</time>
      </trkpt>
      <trkpt lat="44.53805" lon="0.7819">
        <ele>120.2</ele>
        <time>2021-07-23T07:51:03Z</time>
      </trkpt>
      <trkpt lat="44.53813" lon="0.78197">
        <ele>120.3</ele>
        <time>2021-07-23T07:51:05Z</time>
      </trkpt>
      <trkpt lat="44.53826" lon="0.78206">
        <ele>120.3</ele>
        <time>2021-07-23T07:51:08Z</time>
      </trkpt>
      <trkpt lat="44.53837" lon="0.78209">
        <ele>120.2</ele>
        <time>2021-07-23T07:51:10Z</time>
      </trkpt>
      <trkpt lat="44.53868" lon="0.78223">
        <ele>119</ele>
        <time>2021-07-23T07:51:16Z</time>
      </trkpt>
      <trkpt lat="44.53877" lon="0.78234">
        <ele>118.2</ele>
        <time>2021-07-23T07:51:18Z</time>
      </trkpt>
      <trkpt lat="44.53886" lon="0.78247">
        <ele>117.3</ele>
        <time>2021-07-23T07:51:20Z</time>
      </trkpt>
      <trkpt lat="44.53896" lon="0.78257">
        <ele>116.6</ele>
        <time>2021-07-23T07:51:22Z</time>
      </trkpt>
      <trkpt lat="44.53908" lon="0.78266">
        <ele>116</ele>
        <time>2021-07-23T07:51:24Z</time>
      </trkpt>
      <trkpt lat="44.53917" lon="0.78274">
        <ele>115.7</ele>
        <time>2021-07-23T07:51:26Z</time>
      </trkpt>
      <trkpt lat="44.5393" lon="0.78282">
        <ele>115.3</ele>
        <time>2021-07-23T07:51:29Z</time>
      </trkpt>
      <trkpt lat="44.53957" lon="0.78294">
        <ele>114.1</ele>
        <time>2021-07-23T07:51:34Z</time>
      </trkpt>
      <trkpt lat="44.5398" lon="0.78304">
        <ele>111.8</ele>
        <time>2021-07-23T07:51:38Z</time>
      </trkpt>
      <trkpt lat="44.53992" lon="0.78313">
        <ele>108.3</ele>
        <time>2021-07-23T07:51:40Z</time>
      </trkpt>
      <trkpt lat="44.54006" lon="0.78323">
        <ele>104.2</ele>
        <time>2021-07-23T07:51:42Z</time>
      </trkpt>
      <trkpt lat="44.54031" lon="0.78335">
        <ele>99.7</ele>
        <time>2021-07-23T07:51:46Z</time>
      </trkpt>
      <trkpt lat="44.54039" lon="0.78337">
        <ele>98.2</ele>
        <time>2021-07-23T07:51:48Z</time>
      </trkpt>
      <trkpt lat="44.54043" lon="0.78334">
        <ele>97.5</ele>
        <time>2021-07-23T07:51:49Z</time>
      </trkpt>
      <trkpt lat="44.54061" lon="0.78315">
        <ele>95.9</ele>
        <time>2021-07-23T07:51:53Z</time>
      </trkpt>
      <trkpt lat="44.54067" lon="0.7831">
        <ele>95.9</ele>
        <time>2021-07-23T07:51:54Z</time>
      </trkpt>
      <trkpt lat="44.54081" lon="0.78307">
        <ele>95.6</ele>
        <time>2021-07-23T07:51:56Z</time>
      </trkpt>
      <trkpt lat="44.54113" lon="0.78319">
        <ele>93.9</ele>
        <time>2021-07-23T07:52:00Z</time>
      </trkpt>
      <trkpt lat="44.54151" lon="0.78335">
        <ele>91.5</ele>
        <time>2021-07-23T07:52:05Z</time>
      </trkpt>
      <trkpt lat="44.54174" lon="0.78346">
        <ele>91.1</ele>
        <time>2021-07-23T07:52:09Z</time>
      </trkpt>
      <trkpt lat="44.54179" lon="0.78351">
        <ele>91</ele>
        <time>2021-07-23T07:52:10Z</time>
      </trkpt>
      <trkpt lat="44.54183" lon="0.78356">
        <ele>90.9</ele>
        <time>2021-07-23T07:52:11Z</time>
      </trkpt>
      <trkpt lat="44.54192" lon="0.78373">
        <ele>90.4</ele>
        <time>2021-07-23T07:52:14Z</time>
      </trkpt>
      <trkpt lat="44.54215" lon="0.78397">
        <ele>89</ele>
        <time>2021-07-23T07:52:19Z</time>
      </trkpt>
      <trkpt lat="44.54245" lon="0.7842">
        <ele>87</ele>
        <time>2021-07-23T07:52:24Z</time>
      </trkpt>
      <trkpt lat="44.54251" lon="0.78424">
        <ele>87</ele>
        <time>2021-07-23T07:52:25Z</time>
      </trkpt>
      <trkpt lat="44.54264" lon="0.78434">
        <ele>87</ele>
        <time>2021-07-23T07:52:28Z</time>
      </trkpt>
      <trkpt lat="44.54273" lon="0.78437">
        <ele>87</ele>
        <time>2021-07-23T07:52:30Z</time>
      </trkpt>
      <trkpt lat="44.54282" lon="0.78439">
        <ele>86.9</ele>
        <time>2021-07-23T07:52:32Z</time>
      </trkpt>
      <trkpt lat="44.54303" lon="0.78447">
        <ele>86.6</ele>
        <time>2021-07-23T07:52:37Z</time>
      </trkpt>
      <trkpt lat="44.54334" lon="0.78459">
        <ele>87.4</ele>
        <time>2021-07-23T07:52:43Z</time>
      </trkpt>
      <trkpt lat="44.54355" lon="0.78468">
        <ele>88.5</ele>
        <time>2021-07-23T07:52:47Z</time>
      </trkpt>
      <trkpt lat="44.54372" lon="0.78476">
        <ele>89.2</ele>
        <time>2021-07-23T07:52:50Z</time>
      </trkpt>
      <trkpt lat="44.54388" lon="0.78484">
        <ele>89.6</ele>
        <time>2021-07-23T07:52:53Z</time>
      </trkpt>
      <trkpt lat="44.54394" lon="0.78486">
        <ele>89.7</ele>
        <time>2021-07-23T07:52:54Z</time>
      </trkpt>
      <trkpt lat="44.54403" lon="0.78493">
        <ele>90.1</ele>
        <time>2021-07-23T07:52:57Z</time>
      </trkpt>
      <trkpt lat="44.54404" lon="0.78494">
        <ele>90.2</ele>
        <time>2021-07-23T07:52:59Z</time>
      </trkpt>
      <trkpt lat="44.54407" lon="0.78495">
        <ele>90.3</ele>
        <time>2021-07-23T07:53:22Z</time>
      </trkpt>
      <trkpt lat="44.54409" lon="0.78497">
        <ele>90.4</ele>
        <time>2021-07-23T07:53:23Z</time>
      </trkpt>
      <trkpt lat="44.54421" lon="0.78509">
        <ele>90.9</ele>
        <time>2021-07-23T07:53:28Z</time>
      </trkpt>
      <trkpt lat="44.54432" lon="0.78523">
        <ele>91.4</ele>
        <time>2021-07-23T07:53:32Z</time>
      </trkpt>
      <trkpt lat="44.54447" lon="0.78532">
        <ele>92</ele>
        <time>2021-07-23T07:53:36Z</time>
      </trkpt>
      <trkpt lat="44.54455" lon="0.78532">
        <ele>92.2</ele>
        <time>2021-07-23T07:53:38Z</time>
      </trkpt>
      <trkpt lat="44.54475" lon="0.78535">
        <ele>92.2</ele>
        <time>2021-07-23T07:53:44Z</time>
      </trkpt>
      <trkpt lat="44.54492" lon="0.78532">
        <ele>91.3</ele>
        <time>2021-07-23T07:53:49Z</time>
      </trkpt>
      <trkpt lat="44.54523" lon="0.78526">
        <ele>89.3</ele>
        <time>2021-07-23T07:53:56Z</time>
      </trkpt>
      <trkpt lat="44.54541" lon="0.78526">
        <ele>88.5</ele>
        <time>2021-07-23T07:53:59Z</time>
      </trkpt>
      <trkpt lat="44.54547" lon="0.78528">
        <ele>88.2</ele>
        <time>2021-07-23T07:54:00Z</time>
      </trkpt>
      <trkpt lat="44.54553" lon="0.78534">
        <ele>87.8</ele>
        <time>2021-07-23T07:54:01Z</time>
      </trkpt>
      <trkpt lat="44.54559" lon="0.78543">
        <ele>87.4</ele>
        <time>2021-07-23T07:54:02Z</time>
      </trkpt>
      <trkpt lat="44.54564" lon="0.78553">
        <ele>87.1</ele>
        <time>2021-07-23T07:54:03Z</time>
      </trkpt>
      <trkpt lat="44.54575" lon="0.78587">
        <ele>86.1</ele>
        <time>2021-07-23T07:54:06Z</time>
      </trkpt>
      <trkpt lat="44.546" lon="0.78654">
        <ele>84.9</ele>
        <time>2021-07-23T07:54:13Z</time>
      </trkpt>
      <trkpt lat="44.54625" lon="0.78723">
        <ele>84.3</ele>
        <time>2021-07-23T07:54:21Z</time>
      </trkpt>
      <trkpt lat="44.54644" lon="0.78793">
        <ele>84.2</ele>
        <time>2021-07-23T07:54:29Z</time>
      </trkpt>
      <trkpt lat="44.54661" lon="0.78859">
        <ele>84.3</ele>
        <time>2021-07-23T07:54:37Z</time>
      </trkpt>
      <trkpt lat="44.5468" lon="0.78933">
        <ele>84.5</ele>
        <time>2021-07-23T07:54:46Z</time>
      </trkpt>
      <trkpt lat="44.54694" lon="0.78985">
        <ele>85</ele>
        <time>2021-07-23T07:54:53Z</time>
      </trkpt>
      <trkpt lat="44.54706" lon="0.79032">
        <ele>85.4</ele>
        <time>2021-07-23T07:55:00Z</time>
      </trkpt>
      <trkpt lat="44.54714" lon="0.79058">
        <ele>85.7</ele>
        <time>2021-07-23T07:55:04Z</time>
      </trkpt>
      <trkpt lat="44.5472" lon="0.79069">
        <ele>85.9</ele>
        <time>2021-07-23T07:55:06Z</time>
      </trkpt>
      <trkpt lat="44.54724" lon="0.79074">
        <ele>85.9</ele>
        <time>2021-07-23T07:55:07Z</time>
      </trkpt>
      <trkpt lat="44.54744" lon="0.79097">
        <ele>86.1</ele>
        <time>2021-07-23T07:55:12Z</time>
      </trkpt>
      <trkpt lat="44.54776" lon="0.79133">
        <ele>87.5</ele>
        <time>2021-07-23T07:55:20Z</time>
      </trkpt>
      <trkpt lat="44.54809" lon="0.7917">
        <ele>89.5</ele>
        <time>2021-07-23T07:55:28Z</time>
      </trkpt>
      <trkpt lat="44.54829" lon="0.79194">
        <ele>89.8</ele>
        <time>2021-07-23T07:55:33Z</time>
      </trkpt>
      <trkpt lat="44.54856" lon="0.79224">
        <ele>91</ele>
        <time>2021-07-23T07:55:40Z</time>
      </trkpt>
      <trkpt lat="44.54869" lon="0.7924">
        <ele>92.1</ele>
        <time>2021-07-23T07:55:45Z</time>
      </trkpt>
      <trkpt lat="44.5488" lon="0.79251">
        <ele>93.4</ele>
        <time>2021-07-23T07:55:51Z</time>
      </trkpt>
      <trkpt lat="44.54887" lon="0.79258">
        <ele>94.5</ele>
        <time>2021-07-23T07:55:55Z</time>
      </trkpt>
      <trkpt lat="44.54889" lon="0.79263">
        <ele>95</ele>
        <time>2021-07-23T07:55:57Z</time>
      </trkpt>
      <trkpt lat="44.54889" lon="0.79269">
        <ele>95.1</ele>
        <time>2021-07-23T07:55:59Z</time>
      </trkpt>
      <trkpt lat="44.5489" lon="0.79276">
        <ele>95.2</ele>
        <time>2021-07-23T07:56:01Z</time>
      </trkpt>
      <trkpt lat="44.54893" lon="0.79291">
        <ele>95.5</ele>
        <time>2021-07-23T07:56:06Z</time>
      </trkpt>
      <trkpt lat="44.54896" lon="0.79314">
        <ele>96.1</ele>
        <time>2021-07-23T07:56:13Z</time>
      </trkpt>
      <trkpt lat="44.54901" lon="0.79339">
        <ele>97.3</ele>
        <time>2021-07-23T07:56:21Z</time>
      </trkpt>
      <trkpt lat="44.54903" lon="0.79361">
        <ele>98.7</ele>
        <time>2021-07-23T07:56:28Z</time>
      </trkpt>
      <trkpt lat="44.54907" lon="0.79382">
        <ele>99.9</ele>
        <time>2021-07-23T07:56:35Z</time>
      </trkpt>
      <trkpt lat="44.54912" lon="0.79406">
        <ele>101.3</ele>
        <time>2021-07-23T07:56:43Z</time>
      </trkpt>
      <trkpt lat="44.54912" lon="0.79421">
        <ele>102.3</ele>
        <time>2021-07-23T07:56:48Z</time>
      </trkpt>
      <trkpt lat="44.54916" lon="0.79439">
        <ele>103.9</ele>
        <time>2021-07-23T07:56:54Z</time>
      </trkpt>
      <trkpt lat="44.54917" lon="0.79442">
        <ele>104.1</ele>
        <time>2021-07-23T07:56:55Z</time>
      </trkpt>
      <trkpt lat="44.54918" lon="0.79451">
        <ele>104.9</ele>
        <time>2021-07-23T07:56:58Z</time>
      </trkpt>
      <trkpt lat="44.5492" lon="0.79467">
        <ele>105.9</ele>
        <time>2021-07-23T07:57:03Z</time>
      </trkpt>
      <trkpt lat="44.54921" lon="0.79485">
        <ele>106.7</ele>
        <time>2021-07-23T07:57:09Z</time>
      </trkpt>
      <trkpt lat="44.54926" lon="0.79502">
        <ele>107.2</ele>
        <time>2021-07-23T07:57:15Z</time>
      </trkpt>
      <trkpt lat="44.54931" lon="0.79526">
        <ele>107.4</ele>
        <time>2021-07-23T07:57:23Z</time>
      </trkpt>
      <trkpt lat="44.54938" lon="0.79553">
        <ele>107.1</ele>
        <time>2021-07-23T07:57:31Z</time>
      </trkpt>
      <trkpt lat="44.54945" lon="0.79573">
        <ele>106.7</ele>
        <time>2021-07-23T07:57:37Z</time>
      </trkpt>
      <trkpt lat="44.54952" lon="0.79589">
        <ele>106.3</ele>
        <time>2021-07-23T07:57:40Z</time>
      </trkpt>
      <trkpt lat="44.54956" lon="0.796">
        <ele>106.3</ele>
        <time>2021-07-23T07:57:42Z</time>
      </trkpt>
      <trkpt lat="44.54965" lon="0.79625">
        <ele>106.4</ele>
        <time>2021-07-23T07:57:46Z</time>
      </trkpt>
      <trkpt lat="44.54967" lon="0.79631">
        <ele>106.5</ele>
        <time>2021-07-23T07:57:47Z</time>
      </trkpt>
      <trkpt lat="44.54969" lon="0.79637">
        <ele>106.6</ele>
        <time>2021-07-23T07:57:48Z</time>
      </trkpt>
      <trkpt lat="44.54976" lon="0.79655">
        <ele>107.2</ele>
        <time>2021-07-23T07:57:51Z</time>
      </trkpt>
      <trkpt lat="44.54981" lon="0.79665">
        <ele>107.6</ele>
        <time>2021-07-23T07:57:53Z</time>
      </trkpt>
      <trkpt lat="44.54991" lon="0.79683">
        <ele>108.9</ele>
        <time>2021-07-23T07:57:57Z</time>
      </trkpt>
      <trkpt lat="44.55005" lon="0.79707">
        <ele>111.5</ele>
        <time>2021-07-23T07:58:03Z</time>
      </trkpt>
      <trkpt lat="44.55017" lon="0.79725">
        <ele>114</ele>
        <time>2021-07-23T07:58:08Z</time>
      </trkpt>
      <trkpt lat="44.55026" lon="0.79738">
        <ele>116</ele>
        <time>2021-07-23T07:58:13Z</time>
      </trkpt>
      <trkpt lat="44.55032" lon="0.79747">
        <ele>117.4</ele>
        <time>2021-07-23T07:58:17Z</time>
      </trkpt>
      <trkpt lat="44.55037" lon="0.79759">
        <ele>119.2</ele>
        <time>2021-07-23T07:58:22Z</time>
      </trkpt>
      <trkpt lat="44.55039" lon="0.79764">
        <ele>120</ele>
        <time>2021-07-23T07:58:24Z</time>
      </trkpt>
      <trkpt lat="44.55042" lon="0.79769">
        <ele>120.8</ele>
        <time>2021-07-23T07:58:26Z</time>
      </trkpt>
      <trkpt lat="44.55043" lon="0.79771">
        <ele>121.2</ele>
        <time>2021-07-23T07:58:27Z</time>
      </trkpt>
      <trkpt lat="44.55048" lon="0.7978">
        <ele>122.7</ele>
        <time>2021-07-23T07:58:31Z</time>
      </trkpt>
      <trkpt lat="44.55054" lon="0.79793">
        <ele>124.7</ele>
        <time>2021-07-23T07:58:38Z</time>
      </trkpt>
      <trkpt lat="44.55059" lon="0.79806">
        <ele>126.7</ele>
        <time>2021-07-23T07:58:45Z</time>
      </trkpt>
      <trkpt lat="44.5506" lon="0.79811">
        <ele>127.4</ele>
        <time>2021-07-23T07:58:48Z</time>
      </trkpt>
      <trkpt lat="44.5506" lon="0.79815">
        <ele>127.9</ele>
        <time>2021-07-23T07:58:50Z</time>
      </trkpt>
      <trkpt lat="44.55064" lon="0.79832">
        <ele>130.4</ele>
        <time>2021-07-23T07:58:58Z</time>
      </trkpt>
      <trkpt lat="44.55064" lon="0.79841">
        <ele>131.5</ele>
        <time>2021-07-23T07:59:03Z</time>
      </trkpt>
      <trkpt lat="44.55066" lon="0.79851">
        <ele>132.7</ele>
        <time>2021-07-23T07:59:09Z</time>
      </trkpt>
      <trkpt lat="44.55066" lon="0.79855">
        <ele>133.2</ele>
        <time>2021-07-23T07:59:12Z</time>
      </trkpt>
      <trkpt lat="44.55067" lon="0.79858">
        <ele>133.5</ele>
        <time>2021-07-23T07:59:14Z</time>
      </trkpt>
      <trkpt lat="44.55068" lon="0.79866">
        <ele>134.3</ele>
        <time>2021-07-23T07:59:20Z</time>
      </trkpt>
      <trkpt lat="44.55072" lon="0.79875">
        <ele>135.2</ele>
        <time>2021-07-23T07:59:27Z</time>
      </trkpt>
      <trkpt lat="44.55077" lon="0.79879">
        <ele>135.8</ele>
        <time>2021-07-23T07:59:31Z</time>
      </trkpt>
      <trkpt lat="44.55079" lon="0.79883">
        <ele>136.1</ele>
        <time>2021-07-23T07:59:34Z</time>
      </trkpt>
      <trkpt lat="44.5508" lon="0.79886">
        <ele>136.3</ele>
        <time>2021-07-23T07:59:36Z</time>
      </trkpt>
      <trkpt lat="44.55086" lon="0.7989">
        <ele>136.9</ele>
        <time>2021-07-23T07:59:41Z</time>
      </trkpt>
      <trkpt lat="44.55087" lon="0.79892">
        <ele>137</ele>
        <time>2021-07-23T07:59:42Z</time>
      </trkpt>
      <trkpt lat="44.55093" lon="0.79902">
        <ele>137.7</ele>
        <time>2021-07-23T07:59:49Z</time>
      </trkpt>
      <trkpt lat="44.551" lon="0.79908">
        <ele>138.2</ele>
        <time>2021-07-23T07:59:55Z</time>
      </trkpt>
      <trkpt lat="44.55108" lon="0.79919">
        <ele>138.9</ele>
        <time>2021-07-23T08:00:03Z</time>
      </trkpt>
      <trkpt lat="44.55122" lon="0.7993">
        <ele>138.8</ele>
        <time>2021-07-23T08:00:10Z</time>
      </trkpt>
      <trkpt lat="44.55138" lon="0.79947">
        <ele>137</ele>
        <time>2021-07-23T08:00:16Z</time>
      </trkpt>
      <trkpt lat="44.55142" lon="0.79964">
        <ele>135.2</ele>
        <time>2021-07-23T08:00:18Z</time>
      </trkpt>
      <trkpt lat="44.55143" lon="0.79976">
        <ele>134</ele>
        <time>2021-07-23T08:00:19Z</time>
      </trkpt>
      <trkpt lat="44.55142" lon="0.80017">
        <ele>129.8</ele>
        <time>2021-07-23T08:00:22Z</time>
      </trkpt>
      <trkpt lat="44.55143" lon="0.80031">
        <ele>128.3</ele>
        <time>2021-07-23T08:00:23Z</time>
      </trkpt>
      <trkpt lat="44.55147" lon="0.80061">
        <ele>125.4</ele>
        <time>2021-07-23T08:00:25Z</time>
      </trkpt>
      <trkpt lat="44.55151" lon="0.80075">
        <ele>124.3</ele>
        <time>2021-07-23T08:00:26Z</time>
      </trkpt>
      <trkpt lat="44.55157" lon="0.80089">
        <ele>123.9</ele>
        <time>2021-07-23T08:00:27Z</time>
      </trkpt>
      <trkpt lat="44.55171" lon="0.80113">
        <ele>124.1</ele>
        <time>2021-07-23T08:00:29Z</time>
      </trkpt>
      <trkpt lat="44.55177" lon="0.80122">
        <ele>124.6</ele>
        <time>2021-07-23T08:00:30Z</time>
      </trkpt>
      <trkpt lat="44.55206" lon="0.80152">
        <ele>127.4</ele>
        <time>2021-07-23T08:00:34Z</time>
      </trkpt>
      <trkpt lat="44.55221" lon="0.80166">
        <ele>129</ele>
        <time>2021-07-23T08:00:37Z</time>
      </trkpt>
      <trkpt lat="44.55235" lon="0.80175">
        <ele>130.5</ele>
        <time>2021-07-23T08:00:41Z</time>
      </trkpt>
      <trkpt lat="44.5525" lon="0.80181">
        <ele>132.4</ele>
        <time>2021-07-23T08:00:46Z</time>
      </trkpt>
      <trkpt lat="44.55263" lon="0.80183">
        <ele>134.6</ele>
        <time>2021-07-23T08:00:52Z</time>
      </trkpt>
      <trkpt lat="44.55267" lon="0.80184">
        <ele>135.2</ele>
        <time>2021-07-23T08:00:55Z</time>
      </trkpt>
      <trkpt lat="44.5527" lon="0.80186">
        <ele>135.7</ele>
        <time>2021-07-23T08:00:57Z</time>
      </trkpt>
      <trkpt lat="44.55276" lon="0.80186">
        <ele>136.8</ele>
        <time>2021-07-23T08:01:02Z</time>
      </trkpt>
      <trkpt lat="44.55278" lon="0.80187">
        <ele>137</ele>
        <time>2021-07-23T08:01:03Z</time>
      </trkpt>
      <trkpt lat="44.55284" lon="0.80189">
        <ele>138</ele>
        <time>2021-07-23T08:01:09Z</time>
      </trkpt>
      <trkpt lat="44.5529" lon="0.80196">
        <ele>138.8</ele>
        <time>2021-07-23T08:01:15Z</time>
      </trkpt>
      <trkpt lat="44.553" lon="0.80209">
        <ele>139.1</ele>
        <time>2021-07-23T08:01:22Z</time>
      </trkpt>
      <trkpt lat="44.55314" lon="0.80226">
        <ele>138.1</ele>
        <time>2021-07-23T08:01:28Z</time>
      </trkpt>
      <trkpt lat="44.55331" lon="0.80251">
        <ele>134.1</ele>
        <time>2021-07-23T08:01:33Z</time>
      </trkpt>
      <trkpt lat="44.55336" lon="0.80258">
        <ele>131.8</ele>
        <time>2021-07-23T08:01:34Z</time>
      </trkpt>
      <trkpt lat="44.55351" lon="0.8027">
        <ele>128.6</ele>
        <time>2021-07-23T08:01:36Z</time>
      </trkpt>
      <trkpt lat="44.5538" lon="0.80285">
        <ele>125.9</ele>
        <time>2021-07-23T08:01:39Z</time>
      </trkpt>
      <trkpt lat="44.55432" lon="0.80317">
        <ele>123</ele>
        <time>2021-07-23T08:01:44Z</time>
      </trkpt>
      <trkpt lat="44.55475" lon="0.80348">
        <ele>121</ele>
        <time>2021-07-23T08:01:49Z</time>
      </trkpt>
      <trkpt lat="44.5551" lon="0.80375">
        <ele>121.5</ele>
        <time>2021-07-23T08:01:54Z</time>
      </trkpt>
      <trkpt lat="44.55537" lon="0.80398">
        <ele>122.4</ele>
        <time>2021-07-23T08:01:59Z</time>
      </trkpt>
      <trkpt lat="44.5555" lon="0.80411">
        <ele>123.2</ele>
        <time>2021-07-23T08:02:02Z</time>
      </trkpt>
      <trkpt lat="44.55558" lon="0.80418">
        <ele>123.8</ele>
        <time>2021-07-23T08:02:04Z</time>
      </trkpt>
      <trkpt lat="44.55575" lon="0.80431">
        <ele>125.4</ele>
        <time>2021-07-23T08:02:10Z</time>
      </trkpt>
      <trkpt lat="44.55589" lon="0.80434">
        <ele>127</ele>
        <time>2021-07-23T08:02:16Z</time>
      </trkpt>
      <trkpt lat="44.55599" lon="0.80436">
        <ele>128.2</ele>
        <time>2021-07-23T08:02:22Z</time>
      </trkpt>
      <trkpt lat="44.55601" lon="0.80437">
        <ele>128.4</ele>
        <time>2021-07-23T08:02:23Z</time>
      </trkpt>
      <trkpt lat="44.5561" lon="0.80436">
        <ele>129.4</ele>
        <time>2021-07-23T08:02:28Z</time>
      </trkpt>
      <trkpt lat="44.55618" lon="0.80443">
        <ele>130.5</ele>
        <time>2021-07-23T08:02:33Z</time>
      </trkpt>
      <trkpt lat="44.55627" lon="0.8045">
        <ele>131.5</ele>
        <time>2021-07-23T08:02:39Z</time>
      </trkpt>
      <trkpt lat="44.55638" lon="0.80458">
        <ele>132.4</ele>
        <time>2021-07-23T08:02:45Z</time>
      </trkpt>
      <trkpt lat="44.55658" lon="0.80464">
        <ele>133</ele>
        <time>2021-07-23T08:02:51Z</time>
      </trkpt>
      <trkpt lat="44.55679" lon="0.80469">
        <ele>132.7</ele>
        <time>2021-07-23T08:02:56Z</time>
      </trkpt>
      <trkpt lat="44.55696" lon="0.80484">
        <ele>132.3</ele>
        <time>2021-07-23T08:03:02Z</time>
      </trkpt>
      <trkpt lat="44.55699" lon="0.80488">
        <ele>132.3</ele>
        <time>2021-07-23T08:03:03Z</time>
      </trkpt>
      <trkpt lat="44.55703" lon="0.80498">
        <ele>132.1</ele>
        <time>2021-07-23T08:03:05Z</time>
      </trkpt>
      <trkpt lat="44.55706" lon="0.80508">
        <ele>132</ele>
        <time>2021-07-23T08:03:07Z</time>
      </trkpt>
      <trkpt lat="44.55707" lon="0.80514">
        <ele>132</ele>
        <time>2021-07-23T08:03:08Z</time>
      </trkpt>
      <trkpt lat="44.5571" lon="0.80538">
        <ele>132</ele>
        <time>2021-07-23T08:03:12Z</time>
      </trkpt>
      <trkpt lat="44.55713" lon="0.80572">
        <ele>132.2</ele>
        <time>2021-07-23T08:03:18Z</time>
      </trkpt>
      <trkpt lat="44.55714" lon="0.80583">
        <ele>132.3</ele>
        <time>2021-07-23T08:03:20Z</time>
      </trkpt>
      <trkpt lat="44.55714" lon="0.80602">
        <ele>132.4</ele>
        <time>2021-07-23T08:03:23Z</time>
      </trkpt>
      <trkpt lat="44.55713" lon="0.80614">
        <ele>132.4</ele>
        <time>2021-07-23T08:03:25Z</time>
      </trkpt>
      <trkpt lat="44.5571" lon="0.80634">
        <ele>132.4</ele>
        <time>2021-07-23T08:03:28Z</time>
      </trkpt>
      <trkpt lat="44.55706" lon="0.80655">
        <ele>132.4</ele>
        <time>2021-07-23T08:03:31Z</time>
      </trkpt>
      <trkpt lat="44.55704" lon="0.80669">
        <ele>132.4</ele>
        <time>2021-07-23T08:03:33Z</time>
      </trkpt>
      <trkpt lat="44.55698" lon="0.80723">
        <ele>132.1</ele>
        <time>2021-07-23T08:03:40Z</time>
      </trkpt>
      <trkpt lat="44.55698" lon="0.80757">
        <ele>132.3</ele>
        <time>2021-07-23T08:03:45Z</time>
      </trkpt>
      <trkpt lat="44.55697" lon="0.80797">
        <ele>132.8</ele>
        <time>2021-07-23T08:03:51Z</time>
      </trkpt>
      <trkpt lat="44.55696" lon="0.80804">
        <ele>132.9</ele>
        <time>2021-07-23T08:03:52Z</time>
      </trkpt>
      <trkpt lat="44.55695" lon="0.80817">
        <ele>133.1</ele>
        <time>2021-07-23T08:03:54Z</time>
      </trkpt>
      <trkpt lat="44.55693" lon="0.8083">
        <ele>133.4</ele>
        <time>2021-07-23T08:03:56Z</time>
      </trkpt>
      <trkpt lat="44.55685" lon="0.80877">
        <ele>134.1</ele>
        <time>2021-07-23T08:04:03Z</time>
      </trkpt>
      <trkpt lat="44.55678" lon="0.80923">
        <ele>135</ele>
        <time>2021-07-23T08:04:10Z</time>
      </trkpt>
      <trkpt lat="44.55676" lon="0.80942">
        <ele>135.4</ele>
        <time>2021-07-23T08:04:13Z</time>
      </trkpt>
      <trkpt lat="44.55675" lon="0.80963">
        <ele>135.6</ele>
        <time>2021-07-23T08:04:17Z</time>
      </trkpt>
      <trkpt lat="44.55676" lon="0.80995">
        <ele>136.1</ele>
        <time>2021-07-23T08:04:23Z</time>
      </trkpt>
      <trkpt lat="44.55683" lon="0.81042">
        <ele>137.3</ele>
        <time>2021-07-23T08:04:30Z</time>
      </trkpt>
      <trkpt lat="44.55692" lon="0.81094">
        <ele>138.8</ele>
        <time>2021-07-23T08:04:37Z</time>
      </trkpt>
      <trkpt lat="44.55699" lon="0.81149">
        <ele>140.6</ele>
        <time>2021-07-23T08:04:45Z</time>
      </trkpt>
      <trkpt lat="44.557" lon="0.81155">
        <ele>140.8</ele>
        <time>2021-07-23T08:04:46Z</time>
      </trkpt>
      <trkpt lat="44.55705" lon="0.81183">
        <ele>141.9</ele>
        <time>2021-07-23T08:04:51Z</time>
      </trkpt>
      <trkpt lat="44.55714" lon="0.81211">
        <ele>143.1</ele>
        <time>2021-07-23T08:04:57Z</time>
      </trkpt>
      <trkpt lat="44.55733" lon="0.81245">
        <ele>144.3</ele>
        <time>2021-07-23T08:05:05Z</time>
      </trkpt>
      <trkpt lat="44.55753" lon="0.81281">
        <ele>144.1</ele>
        <time>2021-07-23T08:05:13Z</time>
      </trkpt>
      <trkpt lat="44.55771" lon="0.81317">
        <ele>143.8</ele>
        <time>2021-07-23T08:05:20Z</time>
      </trkpt>
      <trkpt lat="44.55795" lon="0.81363">
        <ele>143.4</ele>
        <time>2021-07-23T08:05:29Z</time>
      </trkpt>
      <trkpt lat="44.55812" lon="0.81413">
        <ele>142.8</ele>
        <time>2021-07-23T08:05:37Z</time>
      </trkpt>
      <trkpt lat="44.55829" lon="0.81468">
        <ele>141.8</ele>
        <time>2021-07-23T08:05:45Z</time>
      </trkpt>
      <trkpt lat="44.55845" lon="0.81504">
        <ele>141.1</ele>
        <time>2021-07-23T08:05:50Z</time>
      </trkpt>
      <trkpt lat="44.5585" lon="0.8151">
        <ele>141.1</ele>
        <time>2021-07-23T08:05:51Z</time>
      </trkpt>
      <trkpt lat="44.55855" lon="0.81515">
        <ele>141.2</ele>
        <time>2021-07-23T08:05:52Z</time>
      </trkpt>
      <trkpt lat="44.55876" lon="0.81533">
        <ele>141.3</ele>
        <time>2021-07-23T08:05:56Z</time>
      </trkpt>
      <trkpt lat="44.55907" lon="0.81565">
        <ele>142.2</ele>
        <time>2021-07-23T08:06:03Z</time>
      </trkpt>
      <trkpt lat="44.55933" lon="0.81593">
        <ele>143.8</ele>
        <time>2021-07-23T08:06:10Z</time>
      </trkpt>
      <trkpt lat="44.55961" lon="0.81622">
        <ele>146.2</ele>
        <time>2021-07-23T08:06:19Z</time>
      </trkpt>
      <trkpt lat="44.55978" lon="0.81641">
        <ele>147.8</ele>
        <time>2021-07-23T08:06:25Z</time>
      </trkpt>
      <trkpt lat="44.55995" lon="0.81662">
        <ele>149.4</ele>
        <time>2021-07-23T08:06:32Z</time>
      </trkpt>
      <trkpt lat="44.56005" lon="0.81678">
        <ele>150.3</ele>
        <time>2021-07-23T08:06:38Z</time>
      </trkpt>
      <trkpt lat="44.56016" lon="0.81697">
        <ele>151.2</ele>
        <time>2021-07-23T08:06:44Z</time>
      </trkpt>
      <trkpt lat="44.56025" lon="0.81714">
        <ele>151.7</ele>
        <time>2021-07-23T08:06:49Z</time>
      </trkpt>
      <trkpt lat="44.56041" lon="0.8174">
        <ele>151.7</ele>
        <time>2021-07-23T08:06:56Z</time>
      </trkpt>
      <trkpt lat="44.56058" lon="0.81768">
        <ele>151.2</ele>
        <time>2021-07-23T08:07:02Z</time>
      </trkpt>
      <trkpt lat="44.56079" lon="0.81802">
        <ele>150.3</ele>
        <time>2021-07-23T08:07:08Z</time>
      </trkpt>
      <trkpt lat="44.56081" lon="0.81809">
        <ele>150.2</ele>
        <time>2021-07-23T08:07:09Z</time>
      </trkpt>
      <trkpt lat="44.56093" lon="0.81839">
        <ele>149.8</ele>
        <time>2021-07-23T08:07:13Z</time>
      </trkpt>
      <trkpt lat="44.56108" lon="0.81883">
        <ele>149.5</ele>
        <time>2021-07-23T08:07:19Z</time>
      </trkpt>
      <trkpt lat="44.56125" lon="0.81935">
        <ele>149.3</ele>
        <time>2021-07-23T08:07:27Z</time>
      </trkpt>
      <trkpt lat="44.56135" lon="0.81959">
        <ele>149.2</ele>
        <time>2021-07-23T08:07:31Z</time>
      </trkpt>
      <trkpt lat="44.56141" lon="0.81969">
        <ele>149.1</ele>
        <time>2021-07-23T08:07:33Z</time>
      </trkpt>
      <trkpt lat="44.56145" lon="0.81983">
        <ele>149</ele>
        <time>2021-07-23T08:07:35Z</time>
      </trkpt>
      <trkpt lat="44.56146" lon="0.81996">
        <ele>148.9</ele>
        <time>2021-07-23T08:07:37Z</time>
      </trkpt>
      <trkpt lat="44.56151" lon="0.82006">
        <ele>148.8</ele>
        <time>2021-07-23T08:07:39Z</time>
      </trkpt>
      <trkpt lat="44.56158" lon="0.82014">
        <ele>148.7</ele>
        <time>2021-07-23T08:07:41Z</time>
      </trkpt>
      <trkpt lat="44.56171" lon="0.8203">
        <ele>148.4</ele>
        <time>2021-07-23T08:07:46Z</time>
      </trkpt>
      <trkpt lat="44.56172" lon="0.8203">
        <ele>148.4</ele>
        <time>2021-07-23T08:07:47Z</time>
      </trkpt>
      <trkpt lat="44.56173" lon="0.82034">
        <ele>148.3</ele>
        <time>2021-07-23T08:08:56Z</time>
      </trkpt>
      <trkpt lat="44.56173" lon="0.82041">
        <ele>148.2</ele>
        <time>2021-07-23T08:08:58Z</time>
      </trkpt>
      <trkpt lat="44.56168" lon="0.82048">
        <ele>148.3</ele>
        <time>2021-07-23T08:09:00Z</time>
      </trkpt>
      <trkpt lat="44.56164" lon="0.82049">
        <ele>148.5</ele>
        <time>2021-07-23T08:09:01Z</time>
      </trkpt>
      <trkpt lat="44.56142" lon="0.82049">
        <ele>149</ele>
        <time>2021-07-23T08:09:07Z</time>
      </trkpt>
      <trkpt lat="44.56136" lon="0.82053">
        <ele>149.2</ele>
        <time>2021-07-23T08:09:11Z</time>
      </trkpt>
      <trkpt lat="44.56133" lon="0.82056">
        <ele>149.2</ele>
        <time>2021-07-23T08:09:25Z</time>
      </trkpt>
      <trkpt lat="44.56132" lon="0.82059">
        <ele>149.1</ele>
        <time>2021-07-23T08:09:27Z</time>
      </trkpt>
      <trkpt lat="44.56132" lon="0.82061">
        <ele>149</ele>
        <time>2021-07-23T08:09:28Z</time>
      </trkpt>
      <trkpt lat="44.56136" lon="0.82081">
        <ele>148.5</ele>
        <time>2021-07-23T08:09:32Z</time>
      </trkpt>
      <trkpt lat="44.56139" lon="0.82092">
        <ele>148.1</ele>
        <time>2021-07-23T08:09:34Z</time>
      </trkpt>
      <trkpt lat="44.56145" lon="0.82117">
        <ele>147.2</ele>
        <time>2021-07-23T08:09:38Z</time>
      </trkpt>
      <trkpt lat="44.56159" lon="0.82171">
        <ele>145.2</ele>
        <time>2021-07-23T08:09:45Z</time>
      </trkpt>
      <trkpt lat="44.56174" lon="0.82224">
        <ele>143.5</ele>
        <time>2021-07-23T08:09:52Z</time>
      </trkpt>
      <trkpt lat="44.56191" lon="0.82272">
        <ele>141.5</ele>
        <time>2021-07-23T08:09:59Z</time>
      </trkpt>
      <trkpt lat="44.56212" lon="0.82325">
        <ele>139.4</ele>
        <time>2021-07-23T08:10:06Z</time>
      </trkpt>
      <trkpt lat="44.5623" lon="0.82376">
        <ele>137.9</ele>
        <time>2021-07-23T08:10:13Z</time>
      </trkpt>
      <trkpt lat="44.56248" lon="0.82426">
        <ele>136.5</ele>
        <time>2021-07-23T08:10:21Z</time>
      </trkpt>
      <trkpt lat="44.56247" lon="0.82439">
        <ele>136.2</ele>
        <time>2021-07-23T08:10:23Z</time>
      </trkpt>
      <trkpt lat="44.5623" lon="0.82471">
        <ele>135.2</ele>
        <time>2021-07-23T08:10:28Z</time>
      </trkpt>
      <trkpt lat="44.56209" lon="0.82513">
        <ele>133.9</ele>
        <time>2021-07-23T08:10:34Z</time>
      </trkpt>
      <trkpt lat="44.56187" lon="0.82553">
        <ele>133</ele>
        <time>2021-07-23T08:10:40Z</time>
      </trkpt>
      <trkpt lat="44.56159" lon="0.8259">
        <ele>131.6</ele>
        <time>2021-07-23T08:10:46Z</time>
      </trkpt>
      <trkpt lat="44.56134" lon="0.82616">
        <ele>130.9</ele>
        <time>2021-07-23T08:10:51Z</time>
      </trkpt>
      <trkpt lat="44.56128" lon="0.82631">
        <ele>130</ele>
        <time>2021-07-23T08:10:53Z</time>
      </trkpt>
      <trkpt lat="44.56126" lon="0.82639">
        <ele>129.5</ele>
        <time>2021-07-23T08:10:54Z</time>
      </trkpt>
      <trkpt lat="44.56123" lon="0.82656">
        <ele>128.6</ele>
        <time>2021-07-23T08:10:56Z</time>
      </trkpt>
      <trkpt lat="44.5612" lon="0.82669">
        <ele>127.9</ele>
        <time>2021-07-23T08:10:58Z</time>
      </trkpt>
      <trkpt lat="44.56114" lon="0.82681">
        <ele>127.3</ele>
        <time>2021-07-23T08:11:00Z</time>
      </trkpt>
      <trkpt lat="44.5611" lon="0.82687">
        <ele>127</ele>
        <time>2021-07-23T08:11:01Z</time>
      </trkpt>
      <trkpt lat="44.56107" lon="0.82693">
        <ele>126.6</ele>
        <time>2021-07-23T08:11:02Z</time>
      </trkpt>
      <trkpt lat="44.56102" lon="0.82702">
        <ele>126</ele>
        <time>2021-07-23T08:11:04Z</time>
      </trkpt>
      <trkpt lat="44.56095" lon="0.82712">
        <ele>125.2</ele>
        <time>2021-07-23T08:11:09Z</time>
      </trkpt>
      <trkpt lat="44.56085" lon="0.82726">
        <ele>124.1</ele>
        <time>2021-07-23T08:11:13Z</time>
      </trkpt>
      <trkpt lat="44.56078" lon="0.82729">
        <ele>123.5</ele>
        <time>2021-07-23T08:11:16Z</time>
      </trkpt>
      <trkpt lat="44.56063" lon="0.82734">
        <ele>122.4</ele>
        <time>2021-07-23T08:11:21Z</time>
      </trkpt>
      <trkpt lat="44.56039" lon="0.82746">
        <ele>121.3</ele>
        <time>2021-07-23T08:11:26Z</time>
      </trkpt>
      <trkpt lat="44.56023" lon="0.82756">
        <ele>120.7</ele>
        <time>2021-07-23T08:11:29Z</time>
      </trkpt>
      <trkpt lat="44.56021" lon="0.82762">
        <ele>120.6</ele>
        <time>2021-07-23T08:11:30Z</time>
      </trkpt>
      <trkpt lat="44.5602" lon="0.82768">
        <ele>120.5</ele>
        <time>2021-07-23T08:11:31Z</time>
      </trkpt>
      <trkpt lat="44.56018" lon="0.82791">
        <ele>120.8</ele>
        <time>2021-07-23T08:11:35Z</time>
      </trkpt>
      <trkpt lat="44.56016" lon="0.82815">
        <ele>121.9</ele>
        <time>2021-07-23T08:11:40Z</time>
      </trkpt>
      <trkpt lat="44.56014" lon="0.82832">
        <ele>123.5</ele>
        <time>2021-07-23T08:11:45Z</time>
      </trkpt>
      <trkpt lat="44.56012" lon="0.82846">
        <ele>125.4</ele>
        <time>2021-07-23T08:11:51Z</time>
      </trkpt>
      <trkpt lat="44.56011" lon="0.8285">
        <ele>126</ele>
        <time>2021-07-23T08:11:53Z</time>
      </trkpt>
      <trkpt lat="44.56011" lon="0.82856">
        <ele>126.9</ele>
        <time>2021-07-23T08:11:56Z</time>
      </trkpt>
      <trkpt lat="44.56009" lon="0.8287">
        <ele>128.7</ele>
        <time>2021-07-23T08:12:03Z</time>
      </trkpt>
      <trkpt lat="44.56006" lon="0.82888">
        <ele>130.8</ele>
        <time>2021-07-23T08:12:12Z</time>
      </trkpt>
      <trkpt lat="44.56003" lon="0.82904">
        <ele>132.6</ele>
        <time>2021-07-23T08:12:20Z</time>
      </trkpt>
      <trkpt lat="44.56002" lon="0.82914">
        <ele>133.5</ele>
        <time>2021-07-23T08:12:25Z</time>
      </trkpt>
      <trkpt lat="44.56002" lon="0.82916">
        <ele>133.6</ele>
        <time>2021-07-23T08:12:26Z</time>
      </trkpt>
      <trkpt lat="44.55998" lon="0.82938">
        <ele>134.7</ele>
        <time>2021-07-23T08:12:34Z</time>
      </trkpt>
      <trkpt lat="44.55996" lon="0.82957">
        <ele>135.1</ele>
        <time>2021-07-23T08:12:40Z</time>
      </trkpt>
      <trkpt lat="44.5599" lon="0.82979">
        <ele>135.4</ele>
        <time>2021-07-23T08:12:46Z</time>
      </trkpt>
      <trkpt lat="44.55982" lon="0.83014">
        <ele>135.8</ele>
        <time>2021-07-23T08:12:55Z</time>
      </trkpt>
      <trkpt lat="44.55977" lon="0.83041">
        <ele>136.5</ele>
        <time>2021-07-23T08:13:02Z</time>
      </trkpt>
      <trkpt lat="44.55973" lon="0.83056">
        <ele>137</ele>
        <time>2021-07-23T08:13:06Z</time>
      </trkpt>
      <trkpt lat="44.55967" lon="0.83074">
        <ele>137.5</ele>
        <time>2021-07-23T08:13:11Z</time>
      </trkpt>
      <trkpt lat="44.55963" lon="0.83091">
        <ele>137.8</ele>
        <time>2021-07-23T08:13:16Z</time>
      </trkpt>
      <trkpt lat="44.55957" lon="0.83109">
        <ele>138</ele>
        <time>2021-07-23T08:13:20Z</time>
      </trkpt>
      <trkpt lat="44.55951" lon="0.83132">
        <ele>138.1</ele>
        <time>2021-07-23T08:13:25Z</time>
      </trkpt>
      <trkpt lat="44.5595" lon="0.83156">
        <ele>138.1</ele>
        <time>2021-07-23T08:13:29Z</time>
      </trkpt>
      <trkpt lat="44.55949" lon="0.83161">
        <ele>138.1</ele>
        <time>2021-07-23T08:13:30Z</time>
      </trkpt>
      <trkpt lat="44.55947" lon="0.83167">
        <ele>138.1</ele>
        <time>2021-07-23T08:13:31Z</time>
      </trkpt>
      <trkpt lat="44.55944" lon="0.83187">
        <ele>138</ele>
        <time>2021-07-23T08:13:34Z</time>
      </trkpt>
      <trkpt lat="44.5594" lon="0.83223">
        <ele>137.8</ele>
        <time>2021-07-23T08:13:39Z</time>
      </trkpt>
      <trkpt lat="44.55937" lon="0.83264">
        <ele>137.8</ele>
        <time>2021-07-23T08:13:44Z</time>
      </trkpt>
      <trkpt lat="44.55935" lon="0.83312">
        <ele>138.1</ele>
        <time>2021-07-23T08:13:50Z</time>
      </trkpt>
      <trkpt lat="44.55935" lon="0.8332">
        <ele>138.1</ele>
        <time>2021-07-23T08:13:51Z</time>
      </trkpt>
      <trkpt lat="44.55932" lon="0.83363">
        <ele>137.7</ele>
        <time>2021-07-23T08:13:56Z</time>
      </trkpt>
      <trkpt lat="44.55927" lon="0.83403">
        <ele>136.5</ele>
        <time>2021-07-23T08:14:00Z</time>
      </trkpt>
      <trkpt lat="44.55925" lon="0.83412">
        <ele>136.1</ele>
        <time>2021-07-23T08:14:01Z</time>
      </trkpt>
      <trkpt lat="44.5592" lon="0.83426">
        <ele>135.5</ele>
        <time>2021-07-23T08:14:03Z</time>
      </trkpt>
      <trkpt lat="44.55921" lon="0.83436">
        <ele>134.5</ele>
        <time>2021-07-23T08:14:05Z</time>
      </trkpt>
      <trkpt lat="44.55929" lon="0.83438">
        <ele>134.5</ele>
        <time>2021-07-23T08:14:07Z</time>
      </trkpt>
      <trkpt lat="44.55934" lon="0.83436">
        <ele>134.5</ele>
        <time>2021-07-23T08:14:08Z</time>
      </trkpt>
      <trkpt lat="44.55955" lon="0.83418">
        <ele>134.7</ele>
        <time>2021-07-23T08:14:13Z</time>
      </trkpt>
      <trkpt lat="44.55962" lon="0.83409">
        <ele>134.8</ele>
        <time>2021-07-23T08:14:15Z</time>
      </trkpt>
      <trkpt lat="44.55984" lon="0.83384">
        <ele>135.1</ele>
        <time>2021-07-23T08:14:21Z</time>
      </trkpt>
      <trkpt lat="44.55991" lon="0.83376">
        <ele>135.1</ele>
        <time>2021-07-23T08:14:23Z</time>
      </trkpt>
      <trkpt lat="44.55999" lon="0.83377">
        <ele>135.3</ele>
        <time>2021-07-23T08:14:25Z</time>
      </trkpt>
      <trkpt lat="44.56007" lon="0.83384">
        <ele>135.4</ele>
        <time>2021-07-23T08:14:27Z</time>
      </trkpt>
      <trkpt lat="44.56013" lon="0.83393">
        <ele>135.7</ele>
        <time>2021-07-23T08:14:29Z</time>
      </trkpt>
      <trkpt lat="44.56025" lon="0.83407">
        <ele>136.6</ele>
        <time>2021-07-23T08:14:34Z</time>
      </trkpt>
      <trkpt lat="44.56038" lon="0.83419">
        <ele>138.1</ele>
        <time>2021-07-23T08:14:40Z</time>
      </trkpt>
      <trkpt lat="44.56054" lon="0.83425">
        <ele>139.4</ele>
        <time>2021-07-23T08:14:46Z</time>
      </trkpt>
      <trkpt lat="44.5608" lon="0.83432">
        <ele>140.7</ele>
        <time>2021-07-23T08:14:55Z</time>
      </trkpt>
      <trkpt lat="44.56094" lon="0.83438">
        <ele>141.4</ele>
        <time>2021-07-23T08:15:00Z</time>
      </trkpt>
      <trkpt lat="44.561" lon="0.83441">
        <ele>141.8</ele>
        <time>2021-07-23T08:15:03Z</time>
      </trkpt>
      <trkpt lat="44.56115" lon="0.83465">
        <ele>143.4</ele>
        <time>2021-07-23T08:15:10Z</time>
      </trkpt>
      <trkpt lat="44.56124" lon="0.83477">
        <ele>144.4</ele>
        <time>2021-07-23T08:15:16Z</time>
      </trkpt>
      <trkpt lat="44.56132" lon="0.83487">
        <ele>145.5</ele>
        <time>2021-07-23T08:15:21Z</time>
      </trkpt>
      <trkpt lat="44.56138" lon="0.83497">
        <ele>146.6</ele>
        <time>2021-07-23T08:15:27Z</time>
      </trkpt>
      <trkpt lat="44.56144" lon="0.83509">
        <ele>147.9</ele>
        <time>2021-07-23T08:15:34Z</time>
      </trkpt>
      <trkpt lat="44.56152" lon="0.8352">
        <ele>149.1</ele>
        <time>2021-07-23T08:15:41Z</time>
      </trkpt>
      <trkpt lat="44.56161" lon="0.83535">
        <ele>150.6</ele>
        <time>2021-07-23T08:15:50Z</time>
      </trkpt>
      <trkpt lat="44.5617" lon="0.83543">
        <ele>151.5</ele>
        <time>2021-07-23T08:15:56Z</time>
      </trkpt>
      <trkpt lat="44.56178" lon="0.83552">
        <ele>152.4</ele>
        <time>2021-07-23T08:16:02Z</time>
      </trkpt>
      <trkpt lat="44.56182" lon="0.8356">
        <ele>152.9</ele>
        <time>2021-07-23T08:16:06Z</time>
      </trkpt>
      <trkpt lat="44.56184" lon="0.83562">
        <ele>153.2</ele>
        <time>2021-07-23T08:16:08Z</time>
      </trkpt>
      <trkpt lat="44.56197" lon="0.83566">
        <ele>154.1</ele>
        <time>2021-07-23T08:16:14Z</time>
      </trkpt>
      <trkpt lat="44.56217" lon="0.83568">
        <ele>155.1</ele>
        <time>2021-07-23T08:16:21Z</time>
      </trkpt>
      <trkpt lat="44.56232" lon="0.8357">
        <ele>155.6</ele>
        <time>2021-07-23T08:16:26Z</time>
      </trkpt>
      <trkpt lat="44.5625" lon="0.83575">
        <ele>156</ele>
        <time>2021-07-23T08:16:32Z</time>
      </trkpt>
      <trkpt lat="44.56268" lon="0.8358">
        <ele>156.4</ele>
        <time>2021-07-23T08:16:37Z</time>
      </trkpt>
      <trkpt lat="44.56284" lon="0.83583">
        <ele>156.6</ele>
        <time>2021-07-23T08:16:41Z</time>
      </trkpt>
      <trkpt lat="44.56289" lon="0.83582">
        <ele>156.6</ele>
        <time>2021-07-23T08:16:42Z</time>
      </trkpt>
      <trkpt lat="44.56303" lon="0.83576">
        <ele>156.7</ele>
        <time>2021-07-23T08:16:45Z</time>
      </trkpt>
      <trkpt lat="44.56307" lon="0.83572">
        <ele>156.7</ele>
        <time>2021-07-23T08:16:46Z</time>
      </trkpt>
      <trkpt lat="44.56312" lon="0.8357">
        <ele>156.7</ele>
        <time>2021-07-23T08:16:47Z</time>
      </trkpt>
      <trkpt lat="44.56322" lon="0.83566">
        <ele>156.8</ele>
        <time>2021-07-23T08:16:49Z</time>
      </trkpt>
      <trkpt lat="44.56331" lon="0.83564">
        <ele>157</ele>
        <time>2021-07-23T08:16:51Z</time>
      </trkpt>
      <trkpt lat="44.56336" lon="0.83563">
        <ele>157.1</ele>
        <time>2021-07-23T08:16:52Z</time>
      </trkpt>
      <trkpt lat="44.56351" lon="0.83557">
        <ele>157.3</ele>
        <time>2021-07-23T08:16:55Z</time>
      </trkpt>
      <trkpt lat="44.56371" lon="0.8355">
        <ele>157.5</ele>
        <time>2021-07-23T08:16:59Z</time>
      </trkpt>
      <trkpt lat="44.56376" lon="0.83548">
        <ele>157.6</ele>
        <time>2021-07-23T08:17:00Z</time>
      </trkpt>
      <trkpt lat="44.56389" lon="0.83537">
        <ele>157.8</ele>
        <time>2021-07-23T08:17:03Z</time>
      </trkpt>
      <trkpt lat="44.56397" lon="0.83527">
        <ele>157.9</ele>
        <time>2021-07-23T08:17:05Z</time>
      </trkpt>
      <trkpt lat="44.56415" lon="0.83503">
        <ele>158</ele>
        <time>2021-07-23T08:17:10Z</time>
      </trkpt>
      <trkpt lat="44.56423" lon="0.83496">
        <ele>157.9</ele>
        <time>2021-07-23T08:17:12Z</time>
      </trkpt>
      <trkpt lat="44.56427" lon="0.83493">
        <ele>157.8</ele>
        <time>2021-07-23T08:17:13Z</time>
      </trkpt>
      <trkpt lat="44.56436" lon="0.8349">
        <ele>157.6</ele>
        <time>2021-07-23T08:17:15Z</time>
      </trkpt>
      <trkpt lat="44.56441" lon="0.8349">
        <ele>157.5</ele>
        <time>2021-07-23T08:17:16Z</time>
      </trkpt>
      <trkpt lat="44.56451" lon="0.83489">
        <ele>157.3</ele>
        <time>2021-07-23T08:17:18Z</time>
      </trkpt>
      <trkpt lat="44.56465" lon="0.83486">
        <ele>157.1</ele>
        <time>2021-07-23T08:17:21Z</time>
      </trkpt>
      <trkpt lat="44.56474" lon="0.83483">
        <ele>157</ele>
        <time>2021-07-23T08:17:23Z</time>
      </trkpt>
      <trkpt lat="44.56482" lon="0.83484">
        <ele>156.8</ele>
        <time>2021-07-23T08:17:25Z</time>
      </trkpt>
      <trkpt lat="44.56492" lon="0.83489">
        <ele>156.7</ele>
        <time>2021-07-23T08:17:28Z</time>
      </trkpt>
      <trkpt lat="44.56496" lon="0.83493">
        <ele>156.6</ele>
        <time>2021-07-23T08:17:29Z</time>
      </trkpt>
      <trkpt lat="44.565" lon="0.83496">
        <ele>156.5</ele>
        <time>2021-07-23T08:17:30Z</time>
      </trkpt>
      <trkpt lat="44.56517" lon="0.83511">
        <ele>156.2</ele>
        <time>2021-07-23T08:17:34Z</time>
      </trkpt>
      <trkpt lat="44.56544" lon="0.83532">
        <ele>155.6</ele>
        <time>2021-07-23T08:17:39Z</time>
      </trkpt>
      <trkpt lat="44.56583" lon="0.83559">
        <ele>155.9</ele>
        <time>2021-07-23T08:17:46Z</time>
      </trkpt>
      <trkpt lat="44.56615" lon="0.83579">
        <ele>157</ele>
        <time>2021-07-23T08:17:53Z</time>
      </trkpt>
      <trkpt lat="44.56647" lon="0.83591">
        <ele>158.5</ele>
        <time>2021-07-23T08:18:00Z</time>
      </trkpt>
      <trkpt lat="44.56674" lon="0.836">
        <ele>159.7</ele>
        <time>2021-07-23T08:18:07Z</time>
      </trkpt>
      <trkpt lat="44.56698" lon="0.8361">
        <ele>161</ele>
        <time>2021-07-23T08:18:14Z</time>
      </trkpt>
      <trkpt lat="44.56709" lon="0.83619">
        <ele>161.5</ele>
        <time>2021-07-23T08:18:18Z</time>
      </trkpt>
      <trkpt lat="44.56725" lon="0.83639">
        <ele>162.3</ele>
        <time>2021-07-23T08:18:24Z</time>
      </trkpt>
      <trkpt lat="44.56739" lon="0.83661">
        <ele>163.1</ele>
        <time>2021-07-23T08:18:30Z</time>
      </trkpt>
      <trkpt lat="44.56747" lon="0.83675">
        <ele>163.5</ele>
        <time>2021-07-23T08:18:34Z</time>
      </trkpt>
      <trkpt lat="44.56759" lon="0.83699">
        <ele>163.9</ele>
        <time>2021-07-23T08:18:40Z</time>
      </trkpt>
      <trkpt lat="44.56773" lon="0.83718">
        <ele>163.7</ele>
        <time>2021-07-23T08:18:45Z</time>
      </trkpt>
      <trkpt lat="44.56777" lon="0.83718">
        <ele>163.6</ele>
        <time>2021-07-23T08:18:46Z</time>
      </trkpt>
      <trkpt lat="44.56785" lon="0.83716">
        <ele>163.5</ele>
        <time>2021-07-23T08:18:48Z</time>
      </trkpt>
      <trkpt lat="44.56788" lon="0.83714">
        <ele>163.4</ele>
        <time>2021-07-23T08:18:49Z</time>
      </trkpt>
      <trkpt lat="44.56803" lon="0.83704">
        <ele>163.2</ele>
        <time>2021-07-23T08:18:53Z</time>
      </trkpt>
      <trkpt lat="44.56835" lon="0.83686">
        <ele>163</ele>
        <time>2021-07-23T08:19:01Z</time>
      </trkpt>
      <trkpt lat="44.56851" lon="0.83674">
        <ele>162.6</ele>
        <time>2021-07-23T08:19:05Z</time>
      </trkpt>
      <trkpt lat="44.56858" lon="0.83665">
        <ele>162.2</ele>
        <time>2021-07-23T08:19:07Z</time>
      </trkpt>
      <trkpt lat="44.5687" lon="0.83653">
        <ele>161.6</ele>
        <time>2021-07-23T08:19:10Z</time>
      </trkpt>
      <trkpt lat="44.56874" lon="0.8365">
        <ele>161.4</ele>
        <time>2021-07-23T08:19:11Z</time>
      </trkpt>
      <trkpt lat="44.56878" lon="0.83646">
        <ele>161.2</ele>
        <time>2021-07-23T08:19:12Z</time>
      </trkpt>
      <trkpt lat="44.56887" lon="0.83638">
        <ele>160.8</ele>
        <time>2021-07-23T08:19:14Z</time>
      </trkpt>
      <trkpt lat="44.56895" lon="0.83622">
        <ele>160.3</ele>
        <time>2021-07-23T08:19:17Z</time>
      </trkpt>
      <trkpt lat="44.56895" lon="0.83616">
        <ele>159.9</ele>
        <time>2021-07-23T08:19:18Z</time>
      </trkpt>
      <trkpt lat="44.56893" lon="0.83603">
        <ele>159.6</ele>
        <time>2021-07-23T08:19:20Z</time>
      </trkpt>
      <trkpt lat="44.5689" lon="0.83597">
        <ele>159.5</ele>
        <time>2021-07-23T08:19:21Z</time>
      </trkpt>
      <trkpt lat="44.56871" lon="0.83553">
        <ele>158.6</ele>
        <time>2021-07-23T08:19:27Z</time>
      </trkpt>
      <trkpt lat="44.56854" lon="0.83509">
        <ele>158.1</ele>
        <time>2021-07-23T08:19:33Z</time>
      </trkpt>
      <trkpt lat="44.5684" lon="0.83472">
        <ele>157.2</ele>
        <time>2021-07-23T08:19:38Z</time>
      </trkpt>
      <trkpt lat="44.56837" lon="0.83464">
        <ele>156.9</ele>
        <time>2021-07-23T08:19:39Z</time>
      </trkpt>
      <trkpt lat="44.56827" lon="0.83441">
        <ele>156.1</ele>
        <time>2021-07-23T08:19:42Z</time>
      </trkpt>
      <trkpt lat="44.56821" lon="0.83426">
        <ele>155.6</ele>
        <time>2021-07-23T08:19:44Z</time>
      </trkpt>
      <trkpt lat="44.56799" lon="0.8338">
        <ele>154.2</ele>
        <time>2021-07-23T08:19:50Z</time>
      </trkpt>
      <trkpt lat="44.56775" lon="0.83329">
        <ele>153</ele>
        <time>2021-07-23T08:19:57Z</time>
      </trkpt>
      <trkpt lat="44.56769" lon="0.83316">
        <ele>152.7</ele>
        <time>2021-07-23T08:19:59Z</time>
      </trkpt>
      <trkpt lat="44.56752" lon="0.8328">
        <ele>151.7</ele>
        <time>2021-07-23T08:20:04Z</time>
      </trkpt>
      <trkpt lat="44.56725" lon="0.83228">
        <ele>150.7</ele>
        <time>2021-07-23T08:20:12Z</time>
      </trkpt>
      <trkpt lat="44.56722" lon="0.83222">
        <ele>150.6</ele>
        <time>2021-07-23T08:20:13Z</time>
      </trkpt>
      <trkpt lat="44.56724" lon="0.83209">
        <ele>150.5</ele>
        <time>2021-07-23T08:20:15Z</time>
      </trkpt>
      <trkpt lat="44.56727" lon="0.83205">
        <ele>150.4</ele>
        <time>2021-07-23T08:20:16Z</time>
      </trkpt>
      <trkpt lat="44.56736" lon="0.83201">
        <ele>150.3</ele>
        <time>2021-07-23T08:20:18Z</time>
      </trkpt>
      <trkpt lat="44.5677" lon="0.8319">
        <ele>149.7</ele>
        <time>2021-07-23T08:20:25Z</time>
      </trkpt>
      <trkpt lat="44.56806" lon="0.83175">
        <ele>148.9</ele>
        <time>2021-07-23T08:20:32Z</time>
      </trkpt>
      <trkpt lat="44.56813" lon="0.83173">
        <ele>148.7</ele>
        <time>2021-07-23T08:20:35Z</time>
      </trkpt>
      <trkpt lat="44.56813" lon="0.83173">
        <ele>148.7</ele>
        <time>2021-07-23T08:20:36Z</time>
      </trkpt>
      <trkpt lat="44.56816" lon="0.83172">
        <ele>148.7</ele>
        <time>2021-07-23T08:21:11Z</time>
      </trkpt>
      <trkpt lat="44.56819" lon="0.8317">
        <ele>148.7</ele>
        <time>2021-07-23T08:21:12Z</time>
      </trkpt>
      <trkpt lat="44.5684" lon="0.83163">
        <ele>148.6</ele>
        <time>2021-07-23T08:21:17Z</time>
      </trkpt>
      <trkpt lat="44.56881" lon="0.83145">
        <ele>148.7</ele>
        <time>2021-07-23T08:21:25Z</time>
      </trkpt>
      <trkpt lat="44.56915" lon="0.8312">
        <ele>149.1</ele>
        <time>2021-07-23T08:21:32Z</time>
      </trkpt>
      <trkpt lat="44.56941" lon="0.83093">
        <ele>150.1</ele>
        <time>2021-07-23T08:21:38Z</time>
      </trkpt>
      <trkpt lat="44.56964" lon="0.83072">
        <ele>151.5</ele>
        <time>2021-07-23T08:21:43Z</time>
      </trkpt>
      <trkpt lat="44.56969" lon="0.83068">
        <ele>151.9</ele>
        <time>2021-07-23T08:21:44Z</time>
      </trkpt>
      <trkpt lat="44.56977" lon="0.83058">
        <ele>152.6</ele>
        <time>2021-07-23T08:21:46Z</time>
      </trkpt>
      <trkpt lat="44.56985" lon="0.83048">
        <ele>153.2</ele>
        <time>2021-07-23T08:21:48Z</time>
      </trkpt>
      <trkpt lat="44.56993" lon="0.83039">
        <ele>153.6</ele>
        <time>2021-07-23T08:21:50Z</time>
      </trkpt>
      <trkpt lat="44.56998" lon="0.8303">
        <ele>153.8</ele>
        <time>2021-07-23T08:21:52Z</time>
      </trkpt>
      <trkpt lat="44.57003" lon="0.83023">
        <ele>153.9</ele>
        <time>2021-07-23T08:21:54Z</time>
      </trkpt>
      <trkpt lat="44.57011" lon="0.83014">
        <ele>153.9</ele>
        <time>2021-07-23T08:21:56Z</time>
      </trkpt>
      <trkpt lat="44.57018" lon="0.83005">
        <ele>153.6</ele>
        <time>2021-07-23T08:21:58Z</time>
      </trkpt>
      <trkpt lat="44.57029" lon="0.82993">
        <ele>153.1</ele>
        <time>2021-07-23T08:22:01Z</time>
      </trkpt>
      <trkpt lat="44.57033" lon="0.8299">
        <ele>153</ele>
        <time>2021-07-23T08:22:02Z</time>
      </trkpt>
      <trkpt lat="44.57036" lon="0.82986">
        <ele>152.9</ele>
        <time>2021-07-23T08:22:03Z</time>
      </trkpt>
      <trkpt lat="44.57048" lon="0.82974">
        <ele>152.5</ele>
        <time>2021-07-23T08:22:06Z</time>
      </trkpt>
      <trkpt lat="44.57052" lon="0.8297">
        <ele>152.3</ele>
        <time>2021-07-23T08:22:07Z</time>
      </trkpt>
      <trkpt lat="44.57067" lon="0.82959">
        <ele>151.6</ele>
        <time>2021-07-23T08:22:10Z</time>
      </trkpt>
      <trkpt lat="44.57082" lon="0.82947">
        <ele>150.9</ele>
        <time>2021-07-23T08:22:13Z</time>
      </trkpt>
      <trkpt lat="44.57097" lon="0.82934">
        <ele>150</ele>
        <time>2021-07-23T08:22:16Z</time>
      </trkpt>
      <trkpt lat="44.5711" lon="0.8292">
        <ele>148.9</ele>
        <time>2021-07-23T08:22:19Z</time>
      </trkpt>
      <trkpt lat="44.57114" lon="0.82915">
        <ele>148.6</ele>
        <time>2021-07-23T08:22:20Z</time>
      </trkpt>
      <trkpt lat="44.57133" lon="0.82897">
        <ele>147</ele>
        <time>2021-07-23T08:22:24Z</time>
      </trkpt>
      <trkpt lat="44.57162" lon="0.82869">
        <ele>144.9</ele>
        <time>2021-07-23T08:22:30Z</time>
      </trkpt>
      <trkpt lat="44.572" lon="0.82833">
        <ele>142.9</ele>
        <time>2021-07-23T08:22:38Z</time>
      </trkpt>
      <trkpt lat="44.57234" lon="0.82806">
        <ele>141.9</ele>
        <time>2021-07-23T08:22:44Z</time>
      </trkpt>
      <trkpt lat="44.57281" lon="0.82769">
        <ele>141.3</ele>
        <time>2021-07-23T08:22:52Z</time>
      </trkpt>
      <trkpt lat="44.57305" lon="0.82749">
        <ele>140.7</ele>
        <time>2021-07-23T08:22:56Z</time>
      </trkpt>
      <trkpt lat="44.57316" lon="0.82736">
        <ele>140.1</ele>
        <time>2021-07-23T08:22:58Z</time>
      </trkpt>
      <trkpt lat="44.57325" lon="0.8272">
        <ele>139.4</ele>
        <time>2021-07-23T08:23:00Z</time>
      </trkpt>
      <trkpt lat="44.57333" lon="0.82701">
        <ele>138.5</ele>
        <time>2021-07-23T08:23:02Z</time>
      </trkpt>
      <trkpt lat="44.57344" lon="0.82668">
        <ele>136.6</ele>
        <time>2021-07-23T08:23:05Z</time>
      </trkpt>
      <trkpt lat="44.57349" lon="0.82658">
        <ele>135.7</ele>
        <time>2021-07-23T08:23:06Z</time>
      </trkpt>
      <trkpt lat="44.57366" lon="0.82632">
        <ele>133.1</ele>
        <time>2021-07-23T08:23:09Z</time>
      </trkpt>
      <trkpt lat="44.57373" lon="0.82625">
        <ele>132.3</ele>
        <time>2021-07-23T08:23:10Z</time>
      </trkpt>
      <trkpt lat="44.57411" lon="0.8259">
        <ele>128.3</ele>
        <time>2021-07-23T08:23:15Z</time>
      </trkpt>
      <trkpt lat="44.57428" lon="0.8258">
        <ele>126.4</ele>
        <time>2021-07-23T08:23:17Z</time>
      </trkpt>
      <trkpt lat="44.57445" lon="0.82573">
        <ele>124.1</ele>
        <time>2021-07-23T08:23:19Z</time>
      </trkpt>
      <trkpt lat="44.57462" lon="0.82568">
        <ele>122.7</ele>
        <time>2021-07-23T08:23:21Z</time>
      </trkpt>
      <trkpt lat="44.5747" lon="0.82562">
        <ele>122.3</ele>
        <time>2021-07-23T08:23:22Z</time>
      </trkpt>
      <trkpt lat="44.57476" lon="0.82554">
        <ele>121.5</ele>
        <time>2021-07-23T08:23:23Z</time>
      </trkpt>
      <trkpt lat="44.57487" lon="0.82534">
        <ele>120.3</ele>
        <time>2021-07-23T08:23:25Z</time>
      </trkpt>
      <trkpt lat="44.57492" lon="0.82525">
        <ele>119.9</ele>
        <time>2021-07-23T08:23:26Z</time>
      </trkpt>
      <trkpt lat="44.57501" lon="0.8251">
        <ele>119.3</ele>
        <time>2021-07-23T08:23:28Z</time>
      </trkpt>
      <trkpt lat="44.57515" lon="0.82504">
        <ele>118.8</ele>
        <time>2021-07-23T08:23:30Z</time>
      </trkpt>
      <trkpt lat="44.57531" lon="0.8251">
        <ele>118</ele>
        <time>2021-07-23T08:23:32Z</time>
      </trkpt>
      <trkpt lat="44.57538" lon="0.82515">
        <ele>117.7</ele>
        <time>2021-07-23T08:23:33Z</time>
      </trkpt>
      <trkpt lat="44.57543" lon="0.82521">
        <ele>117.6</ele>
        <time>2021-07-23T08:23:34Z</time>
      </trkpt>
      <trkpt lat="44.57551" lon="0.82536">
        <ele>117.6</ele>
        <time>2021-07-23T08:23:36Z</time>
      </trkpt>
      <trkpt lat="44.57561" lon="0.82565">
        <ele>118.6</ele>
        <time>2021-07-23T08:23:40Z</time>
      </trkpt>
      <trkpt lat="44.57564" lon="0.82569">
        <ele>118.9</ele>
        <time>2021-07-23T08:23:41Z</time>
      </trkpt>
      <trkpt lat="44.57576" lon="0.82585">
        <ele>120.8</ele>
        <time>2021-07-23T08:23:46Z</time>
      </trkpt>
      <trkpt lat="44.57582" lon="0.82592">
        <ele>122.2</ele>
        <time>2021-07-23T08:23:51Z</time>
      </trkpt>
      <trkpt lat="44.57587" lon="0.82604">
        <ele>123.9</ele>
        <time>2021-07-23T08:23:56Z</time>
      </trkpt>
      <trkpt lat="44.57588" lon="0.82606">
        <ele>124.2</ele>
        <time>2021-07-23T08:23:57Z</time>
      </trkpt>
      <trkpt lat="44.57591" lon="0.82619">
        <ele>125.9</ele>
        <time>2021-07-23T08:24:02Z</time>
      </trkpt>
      <trkpt lat="44.57594" lon="0.82625">
        <ele>126.7</ele>
        <time>2021-07-23T08:24:05Z</time>
      </trkpt>
      <trkpt lat="44.57597" lon="0.8263">
        <ele>127.3</ele>
        <time>2021-07-23T08:24:07Z</time>
      </trkpt>
      <trkpt lat="44.57604" lon="0.8264">
        <ele>128.5</ele>
        <time>2021-07-23T08:24:12Z</time>
      </trkpt>
      <trkpt lat="44.57615" lon="0.82648">
        <ele>130</ele>
        <time>2021-07-23T08:24:18Z</time>
      </trkpt>
      <trkpt lat="44.57624" lon="0.82655">
        <ele>131</ele>
        <time>2021-07-23T08:24:23Z</time>
      </trkpt>
      <trkpt lat="44.57632" lon="0.82663">
        <ele>132</ele>
        <time>2021-07-23T08:24:28Z</time>
      </trkpt>
      <trkpt lat="44.57644" lon="0.82661">
        <ele>133.4</ele>
        <time>2021-07-23T08:24:33Z</time>
      </trkpt>
      <trkpt lat="44.57662" lon="0.82637">
        <ele>134</ele>
        <time>2021-07-23T08:24:41Z</time>
      </trkpt>
      <trkpt lat="44.57679" lon="0.82613">
        <ele>134.2</ele>
        <time>2021-07-23T08:24:49Z</time>
      </trkpt>
      <trkpt lat="44.57685" lon="0.82605">
        <ele>134.3</ele>
        <time>2021-07-23T08:24:52Z</time>
      </trkpt>
      <trkpt lat="44.57687" lon="0.82602">
        <ele>134.4</ele>
        <time>2021-07-23T08:24:53Z</time>
      </trkpt>
      <trkpt lat="44.57698" lon="0.8259">
        <ele>135.1</ele>
        <time>2021-07-23T08:24:58Z</time>
      </trkpt>
      <trkpt lat="44.57701" lon="0.8259">
        <ele>135.3</ele>
        <time>2021-07-23T08:24:59Z</time>
      </trkpt>
      <trkpt lat="44.57708" lon="0.82596">
        <ele>136</ele>
        <time>2021-07-23T08:25:02Z</time>
      </trkpt>
      <trkpt lat="44.57716" lon="0.82602">
        <ele>137</ele>
        <time>2021-07-23T08:25:07Z</time>
      </trkpt>
      <trkpt lat="44.57717" lon="0.82603">
        <ele>137.2</ele>
        <time>2021-07-23T08:25:08Z</time>
      </trkpt>
      <trkpt lat="44.5773" lon="0.8261">
        <ele>138.7</ele>
        <time>2021-07-23T08:25:15Z</time>
      </trkpt>
      <trkpt lat="44.57741" lon="0.8261">
        <ele>139.7</ele>
        <time>2021-07-23T08:25:21Z</time>
      </trkpt>
      <trkpt lat="44.57752" lon="0.82604">
        <ele>140.5</ele>
        <time>2021-07-23T08:25:27Z</time>
      </trkpt>
      <trkpt lat="44.57766" lon="0.82601">
        <ele>141.1</ele>
        <time>2021-07-23T08:25:32Z</time>
      </trkpt>
      <trkpt lat="44.57782" lon="0.82601">
        <ele>141.4</ele>
        <time>2021-07-23T08:25:38Z</time>
      </trkpt>
      <trkpt lat="44.57797" lon="0.82594">
        <ele>141.6</ele>
        <time>2021-07-23T08:25:43Z</time>
      </trkpt>
      <trkpt lat="44.5781" lon="0.82583">
        <ele>141.7</ele>
        <time>2021-07-23T08:25:48Z</time>
      </trkpt>
      <trkpt lat="44.57824" lon="0.82571">
        <ele>141.8</ele>
        <time>2021-07-23T08:25:53Z</time>
      </trkpt>
      <trkpt lat="44.57842" lon="0.8255">
        <ele>141.7</ele>
        <time>2021-07-23T08:25:59Z</time>
      </trkpt>
      <trkpt lat="44.5785" lon="0.82544">
        <ele>141.7</ele>
        <time>2021-07-23T08:26:01Z</time>
      </trkpt>
      <trkpt lat="44.57862" lon="0.82536">
        <ele>141.7</ele>
        <time>2021-07-23T08:26:04Z</time>
      </trkpt>
      <trkpt lat="44.57878" lon="0.82525">
        <ele>141.9</ele>
        <time>2021-07-23T08:26:08Z</time>
      </trkpt>
      <trkpt lat="44.57885" lon="0.82519">
        <ele>142</ele>
        <time>2021-07-23T08:26:10Z</time>
      </trkpt>
      <trkpt lat="44.57904" lon="0.82504">
        <ele>142.6</ele>
        <time>2021-07-23T08:26:16Z</time>
      </trkpt>
      <trkpt lat="44.57917" lon="0.82494">
        <ele>143.6</ele>
        <time>2021-07-23T08:26:21Z</time>
      </trkpt>
      <trkpt lat="44.57932" lon="0.82484">
        <ele>144.6</ele>
        <time>2021-07-23T08:26:26Z</time>
      </trkpt>
      <trkpt lat="44.57953" lon="0.8247">
        <ele>145.7</ele>
        <time>2021-07-23T08:26:33Z</time>
      </trkpt>
      <trkpt lat="44.57964" lon="0.82463">
        <ele>146</ele>
        <time>2021-07-23T08:26:37Z</time>
      </trkpt>
      <trkpt lat="44.57979" lon="0.82462">
        <ele>146.6</ele>
        <time>2021-07-23T08:26:42Z</time>
      </trkpt>
      <trkpt lat="44.57997" lon="0.8247">
        <ele>147.6</ele>
        <time>2021-07-23T08:26:47Z</time>
      </trkpt>
      <trkpt lat="44.58004" lon="0.82472">
        <ele>147.9</ele>
        <time>2021-07-23T08:26:50Z</time>
      </trkpt>
      <trkpt lat="44.58008" lon="0.8247">
        <ele>148.1</ele>
        <time>2021-07-23T08:26:51Z</time>
      </trkpt>
      <trkpt lat="44.5801" lon="0.82466">
        <ele>148</ele>
        <time>2021-07-23T08:26:52Z</time>
      </trkpt>
      <trkpt lat="44.58012" lon="0.82455">
        <ele>147.8</ele>
        <time>2021-07-23T08:26:54Z</time>
      </trkpt>
      <trkpt lat="44.58013" lon="0.82435">
        <ele>147.4</ele>
        <time>2021-07-23T08:26:57Z</time>
      </trkpt>
      <trkpt lat="44.58011" lon="0.82419">
        <ele>147</ele>
        <time>2021-07-23T08:26:59Z</time>
      </trkpt>
      <trkpt lat="44.58008" lon="0.8237">
        <ele>145.7</ele>
        <time>2021-07-23T08:27:05Z</time>
      </trkpt>
      <trkpt lat="44.58005" lon="0.82316">
        <ele>144.1</ele>
        <time>2021-07-23T08:27:11Z</time>
      </trkpt>
      <trkpt lat="44.58002" lon="0.82258">
        <ele>142.8</ele>
        <time>2021-07-23T08:27:17Z</time>
      </trkpt>
      <trkpt lat="44.58" lon="0.82204">
        <ele>142.9</ele>
        <time>2021-07-23T08:27:23Z</time>
      </trkpt>
      <trkpt lat="44.58006" lon="0.82146">
        <ele>143.4</ele>
        <time>2021-07-23T08:27:30Z</time>
      </trkpt>
      <trkpt lat="44.58019" lon="0.82079">
        <ele>143.4</ele>
        <time>2021-07-23T08:27:38Z</time>
      </trkpt>
      <trkpt lat="44.5803" lon="0.8202">
        <ele>143.5</ele>
        <time>2021-07-23T08:27:45Z</time>
      </trkpt>
      <trkpt lat="44.58043" lon="0.81964">
        <ele>143.8</ele>
        <time>2021-07-23T08:27:52Z</time>
      </trkpt>
      <trkpt lat="44.58058" lon="0.81904">
        <ele>144.5</ele>
        <time>2021-07-23T08:28:00Z</time>
      </trkpt>
      <trkpt lat="44.58072" lon="0.81846">
        <ele>145.7</ele>
        <time>2021-07-23T08:28:08Z</time>
      </trkpt>
      <trkpt lat="44.58079" lon="0.81818">
        <ele>146.5</ele>
        <time>2021-07-23T08:28:12Z</time>
      </trkpt>
      <trkpt lat="44.58083" lon="0.81798">
        <ele>147</ele>
        <time>2021-07-23T08:28:15Z</time>
      </trkpt>
      <trkpt lat="44.5809" lon="0.81793">
        <ele>146.3</ele>
        <time>2021-07-23T08:28:17Z</time>
      </trkpt>
      <trkpt lat="44.581" lon="0.81797">
        <ele>145.1</ele>
        <time>2021-07-23T08:28:19Z</time>
      </trkpt>
      <trkpt lat="44.58106" lon="0.81801">
        <ele>144.3</ele>
        <time>2021-07-23T08:28:20Z</time>
      </trkpt>
      <trkpt lat="44.58112" lon="0.81807">
        <ele>143.3</ele>
        <time>2021-07-23T08:28:21Z</time>
      </trkpt>
      <trkpt lat="44.58133" lon="0.81827">
        <ele>140.2</ele>
        <time>2021-07-23T08:28:24Z</time>
      </trkpt>
      <trkpt lat="44.58142" lon="0.81833">
        <ele>139.4</ele>
        <time>2021-07-23T08:28:25Z</time>
      </trkpt>
      <trkpt lat="44.58157" lon="0.81835">
        <ele>138.2</ele>
        <time>2021-07-23T08:28:27Z</time>
      </trkpt>
      <trkpt lat="44.5817" lon="0.81819">
        <ele>137.2</ele>
        <time>2021-07-23T08:28:29Z</time>
      </trkpt>
      <trkpt lat="44.58189" lon="0.81782">
        <ele>136.4</ele>
        <time>2021-07-23T08:28:33Z</time>
      </trkpt>
      <trkpt lat="44.58194" lon="0.81775">
        <ele>136.2</ele>
        <time>2021-07-23T08:28:34Z</time>
      </trkpt>
      <trkpt lat="44.58229" lon="0.8173">
        <ele>135.7</ele>
        <time>2021-07-23T08:28:41Z</time>
      </trkpt>
      <trkpt lat="44.58257" lon="0.81688">
        <ele>135.6</ele>
        <time>2021-07-23T08:28:48Z</time>
      </trkpt>
      <trkpt lat="44.58286" lon="0.81641">
        <ele>134.1</ele>
        <time>2021-07-23T08:28:55Z</time>
      </trkpt>
      <trkpt lat="44.58323" lon="0.81596">
        <ele>131.4</ele>
        <time>2021-07-23T08:29:02Z</time>
      </trkpt>
      <trkpt lat="44.58355" lon="0.81555">
        <ele>129.6</ele>
        <time>2021-07-23T08:29:08Z</time>
      </trkpt>
      <trkpt lat="44.58376" lon="0.81536">
        <ele>128.4</ele>
        <time>2021-07-23T08:29:12Z</time>
      </trkpt>
      <trkpt lat="44.58382" lon="0.81532">
        <ele>128.1</ele>
        <time>2021-07-23T08:29:13Z</time>
      </trkpt>
      <trkpt lat="44.58388" lon="0.81528">
        <ele>127.9</ele>
        <time>2021-07-23T08:29:14Z</time>
      </trkpt>
      <trkpt lat="44.5841" lon="0.81514">
        <ele>127.3</ele>
        <time>2021-07-23T08:29:18Z</time>
      </trkpt>
      <trkpt lat="44.5842" lon="0.81505">
        <ele>127</ele>
        <time>2021-07-23T08:29:20Z</time>
      </trkpt>
      <trkpt lat="44.58432" lon="0.81504">
        <ele>126.8</ele>
        <time>2021-07-23T08:29:22Z</time>
      </trkpt>
      <trkpt lat="44.58442" lon="0.81505">
        <ele>126.4</ele>
        <time>2021-07-23T08:29:24Z</time>
      </trkpt>
      <trkpt lat="44.58454" lon="0.815">
        <ele>125.6</ele>
        <time>2021-07-23T08:29:26Z</time>
      </trkpt>
      <trkpt lat="44.58489" lon="0.81477">
        <ele>121</ele>
        <time>2021-07-23T08:29:31Z</time>
      </trkpt>
      <trkpt lat="44.58511" lon="0.8146">
        <ele>118.7</ele>
        <time>2021-07-23T08:29:34Z</time>
      </trkpt>
      <trkpt lat="44.58523" lon="0.81445">
        <ele>117.4</ele>
        <time>2021-07-23T08:29:36Z</time>
      </trkpt>
      <trkpt lat="44.58546" lon="0.81407">
        <ele>113.4</ele>
        <time>2021-07-23T08:29:40Z</time>
      </trkpt>
      <trkpt lat="44.58573" lon="0.81366">
        <ele>109.6</ele>
        <time>2021-07-23T08:29:45Z</time>
      </trkpt>
      <trkpt lat="44.58586" lon="0.81344">
        <ele>107.9</ele>
        <time>2021-07-23T08:29:48Z</time>
      </trkpt>
      <trkpt lat="44.58589" lon="0.81341">
        <ele>107.6</ele>
        <time>2021-07-23T08:29:49Z</time>
      </trkpt>
      <trkpt lat="44.58592" lon="0.81339">
        <ele>107.4</ele>
        <time>2021-07-23T08:29:50Z</time>
      </trkpt>
      <trkpt lat="44.58598" lon="0.81343">
        <ele>107.9</ele>
        <time>2021-07-23T08:29:52Z</time>
      </trkpt>
      <trkpt lat="44.5861" lon="0.81367">
        <ele>108.9</ele>
        <time>2021-07-23T08:29:57Z</time>
      </trkpt>
      <trkpt lat="44.58627" lon="0.81405">
        <ele>110</ele>
        <time>2021-07-23T08:30:02Z</time>
      </trkpt>
      <trkpt lat="44.58631" lon="0.8141">
        <ele>110.3</ele>
        <time>2021-07-23T08:30:03Z</time>
      </trkpt>
      <trkpt lat="44.58642" lon="0.81414">
        <ele>109.9</ele>
        <time>2021-07-23T08:30:05Z</time>
      </trkpt>
      <trkpt lat="44.5866" lon="0.81417">
        <ele>109.4</ele>
        <time>2021-07-23T08:30:08Z</time>
      </trkpt>
      <trkpt lat="44.58665" lon="0.81419">
        <ele>109.3</ele>
        <time>2021-07-23T08:30:09Z</time>
      </trkpt>
      <trkpt lat="44.58675" lon="0.81424">
        <ele>109.2</ele>
        <time>2021-07-23T08:30:11Z</time>
      </trkpt>
      <trkpt lat="44.58684" lon="0.81429">
        <ele>109.2</ele>
        <time>2021-07-23T08:30:13Z</time>
      </trkpt>
      <trkpt lat="44.58688" lon="0.81434">
        <ele>109.1</ele>
        <time>2021-07-23T08:30:14Z</time>
      </trkpt>
      <trkpt lat="44.5869" lon="0.8144">
        <ele>109</ele>
        <time>2021-07-23T08:30:15Z</time>
      </trkpt>
      <trkpt lat="44.58695" lon="0.81451">
        <ele>108.7</ele>
        <time>2021-07-23T08:30:17Z</time>
      </trkpt>
      <trkpt lat="44.58698" lon="0.81455">
        <ele>108.4</ele>
        <time>2021-07-23T08:30:18Z</time>
      </trkpt>
      <trkpt lat="44.58702" lon="0.81458">
        <ele>108.1</ele>
        <time>2021-07-23T08:30:19Z</time>
      </trkpt>
      <trkpt lat="44.58715" lon="0.8146">
        <ele>106.8</ele>
        <time>2021-07-23T08:30:21Z</time>
      </trkpt>
      <trkpt lat="44.58728" lon="0.81466">
        <ele>105.6</ele>
        <time>2021-07-23T08:30:23Z</time>
      </trkpt>
      <trkpt lat="44.5874" lon="0.81474">
        <ele>105.1</ele>
        <time>2021-07-23T08:30:25Z</time>
      </trkpt>
      <trkpt lat="44.5876" lon="0.81495">
        <ele>105.4</ele>
        <time>2021-07-23T08:30:29Z</time>
      </trkpt>
      <trkpt lat="44.58781" lon="0.81519">
        <ele>105.7</ele>
        <time>2021-07-23T08:30:34Z</time>
      </trkpt>
      <trkpt lat="44.58789" lon="0.81528">
        <ele>105.7</ele>
        <time>2021-07-23T08:30:36Z</time>
      </trkpt>
      <trkpt lat="44.58797" lon="0.81537">
        <ele>105.7</ele>
        <time>2021-07-23T08:30:38Z</time>
      </trkpt>
      <trkpt lat="44.58805" lon="0.81544">
        <ele>105.6</ele>
        <time>2021-07-23T08:30:40Z</time>
      </trkpt>
      <trkpt lat="44.5881" lon="0.81544">
        <ele>105.5</ele>
        <time>2021-07-23T08:30:41Z</time>
      </trkpt>
      <trkpt lat="44.5882" lon="0.81535">
        <ele>105.3</ele>
        <time>2021-07-23T08:30:43Z</time>
      </trkpt>
      <trkpt lat="44.58824" lon="0.81529">
        <ele>105.1</ele>
        <time>2021-07-23T08:30:44Z</time>
      </trkpt>
      <trkpt lat="44.5883" lon="0.81517">
        <ele>104.8</ele>
        <time>2021-07-23T08:30:46Z</time>
      </trkpt>
      <trkpt lat="44.5884" lon="0.8151">
        <ele>104.4</ele>
        <time>2021-07-23T08:30:48Z</time>
      </trkpt>
      <trkpt lat="44.58853" lon="0.81512">
        <ele>104.1</ele>
        <time>2021-07-23T08:30:50Z</time>
      </trkpt>
      <trkpt lat="44.58858" lon="0.81516">
        <ele>104.1</ele>
        <time>2021-07-23T08:30:51Z</time>
      </trkpt>
      <trkpt lat="44.58888" lon="0.81539">
        <ele>104.1</ele>
        <time>2021-07-23T08:30:57Z</time>
      </trkpt>
      <trkpt lat="44.58892" lon="0.81542">
        <ele>104.1</ele>
        <time>2021-07-23T08:30:58Z</time>
      </trkpt>
      <trkpt lat="44.58902" lon="0.81546">
        <ele>104.1</ele>
        <time>2021-07-23T08:31:00Z</time>
      </trkpt>
      <trkpt lat="44.58907" lon="0.81547">
        <ele>104.1</ele>
        <time>2021-07-23T08:31:01Z</time>
      </trkpt>
      <trkpt lat="44.58931" lon="0.81549">
        <ele>104.1</ele>
        <time>2021-07-23T08:31:06Z</time>
      </trkpt>
      <trkpt lat="44.58973" lon="0.81556">
        <ele>104.1</ele>
        <time>2021-07-23T08:31:14Z</time>
      </trkpt>
      <trkpt lat="44.59003" lon="0.81566">
        <ele>103.6</ele>
        <time>2021-07-23T08:31:20Z</time>
      </trkpt>
      <trkpt lat="44.59023" lon="0.81571">
        <ele>103.1</ele>
        <time>2021-07-23T08:31:24Z</time>
      </trkpt>
      <trkpt lat="44.59055" lon="0.81576">
        <ele>102.5</ele>
        <time>2021-07-23T08:31:30Z</time>
      </trkpt>
      <trkpt lat="44.59086" lon="0.81587">
        <ele>102.3</ele>
        <time>2021-07-23T08:31:36Z</time>
      </trkpt>
      <trkpt lat="44.59096" lon="0.81593">
        <ele>102.4</ele>
        <time>2021-07-23T08:31:38Z</time>
      </trkpt>
      <trkpt lat="44.59104" lon="0.81601">
        <ele>102.5</ele>
        <time>2021-07-23T08:31:40Z</time>
      </trkpt>
      <trkpt lat="44.59108" lon="0.81605">
        <ele>102.6</ele>
        <time>2021-07-23T08:31:41Z</time>
      </trkpt>
      <trkpt lat="44.59116" lon="0.81613">
        <ele>102.7</ele>
        <time>2021-07-23T08:31:43Z</time>
      </trkpt>
      <trkpt lat="44.59127" lon="0.81626">
        <ele>102.9</ele>
        <time>2021-07-23T08:31:46Z</time>
      </trkpt>
      <trkpt lat="44.59158" lon="0.81651">
        <ele>103</ele>
        <time>2021-07-23T08:31:53Z</time>
      </trkpt>
      <trkpt lat="44.59184" lon="0.81667">
        <ele>103.3</ele>
        <time>2021-07-23T08:31:59Z</time>
      </trkpt>
      <trkpt lat="44.59191" lon="0.81675">
        <ele>103.5</ele>
        <time>2021-07-23T08:32:01Z</time>
      </trkpt>
      <trkpt lat="44.592" lon="0.81689">
        <ele>103.9</ele>
        <time>2021-07-23T08:32:04Z</time>
      </trkpt>
      <trkpt lat="44.59203" lon="0.81694">
        <ele>104</ele>
        <time>2021-07-23T08:32:05Z</time>
      </trkpt>
      <trkpt lat="44.59209" lon="0.81701">
        <ele>104.2</ele>
        <time>2021-07-23T08:32:07Z</time>
      </trkpt>
      <trkpt lat="44.59218" lon="0.81704">
        <ele>104.3</ele>
        <time>2021-07-23T08:32:09Z</time>
      </trkpt>
      <trkpt lat="44.5924" lon="0.81711">
        <ele>104.3</ele>
        <time>2021-07-23T08:32:14Z</time>
      </trkpt>
      <trkpt lat="44.59245" lon="0.81714">
        <ele>104.4</ele>
        <time>2021-07-23T08:32:15Z</time>
      </trkpt>
      <trkpt lat="44.59274" lon="0.81734">
        <ele>104.5</ele>
        <time>2021-07-23T08:32:22Z</time>
      </trkpt>
      <trkpt lat="44.59312" lon="0.81759">
        <ele>104.7</ele>
        <time>2021-07-23T08:32:31Z</time>
      </trkpt>
      <trkpt lat="44.59343" lon="0.81778">
        <ele>104.4</ele>
        <time>2021-07-23T08:32:38Z</time>
      </trkpt>
      <trkpt lat="44.59395" lon="0.81809">
        <ele>104.3</ele>
        <time>2021-07-23T08:32:49Z</time>
      </trkpt>
      <trkpt lat="44.59414" lon="0.81821">
        <ele>104.3</ele>
        <time>2021-07-23T08:32:53Z</time>
      </trkpt>
      <trkpt lat="44.59419" lon="0.81821">
        <ele>104.2</ele>
        <time>2021-07-23T08:32:54Z</time>
      </trkpt>
      <trkpt lat="44.59424" lon="0.81818">
        <ele>104.2</ele>
        <time>2021-07-23T08:32:55Z</time>
      </trkpt>
      <trkpt lat="44.59433" lon="0.81808">
        <ele>104.1</ele>
        <time>2021-07-23T08:32:57Z</time>
      </trkpt>
      <trkpt lat="44.59457" lon="0.8178">
        <ele>104.2</ele>
        <time>2021-07-23T08:33:03Z</time>
      </trkpt>
      <trkpt lat="44.59467" lon="0.81778">
        <ele>104.5</ele>
        <time>2021-07-23T08:33:05Z</time>
      </trkpt>
      <trkpt lat="44.59471" lon="0.81779">
        <ele>104.7</ele>
        <time>2021-07-23T08:33:06Z</time>
      </trkpt>
      <trkpt lat="44.59474" lon="0.81778">
        <ele>104.8</ele>
        <time>2021-07-23T08:33:07Z</time>
      </trkpt>
      <trkpt lat="44.59479" lon="0.81773">
        <ele>104.9</ele>
        <time>2021-07-23T08:33:09Z</time>
      </trkpt>
      <trkpt lat="44.59481" lon="0.81769">
        <ele>105</ele>
        <time>2021-07-23T08:33:10Z</time>
      </trkpt>
      <trkpt lat="44.59493" lon="0.81749">
        <ele>104.8</ele>
        <time>2021-07-23T08:33:15Z</time>
      </trkpt>
      <trkpt lat="44.59503" lon="0.81734">
        <ele>104.6</ele>
        <time>2021-07-23T08:33:18Z</time>
      </trkpt>
      <trkpt lat="44.59507" lon="0.81729">
        <ele>104.5</ele>
        <time>2021-07-23T08:33:19Z</time>
      </trkpt>
      <trkpt lat="44.5951" lon="0.81723">
        <ele>104.5</ele>
        <time>2021-07-23T08:33:20Z</time>
      </trkpt>
      <trkpt lat="44.59514" lon="0.81708">
        <ele>104.4</ele>
        <time>2021-07-23T08:33:22Z</time>
      </trkpt>
      <trkpt lat="44.59515" lon="0.81701">
        <ele>104.5</ele>
        <time>2021-07-23T08:33:23Z</time>
      </trkpt>
      <trkpt lat="44.59514" lon="0.81669">
        <ele>104.9</ele>
        <time>2021-07-23T08:33:28Z</time>
      </trkpt>
      <trkpt lat="44.59515" lon="0.81664">
        <ele>105.1</ele>
        <time>2021-07-23T08:33:29Z</time>
      </trkpt>
      <trkpt lat="44.59518" lon="0.81646">
        <ele>105.7</ele>
        <time>2021-07-23T08:33:33Z</time>
      </trkpt>
      <trkpt lat="44.59521" lon="0.81627">
        <ele>105.9</ele>
        <time>2021-07-23T08:33:37Z</time>
      </trkpt>
      <trkpt lat="44.59526" lon="0.81597">
        <ele>106.4</ele>
        <time>2021-07-23T08:33:43Z</time>
      </trkpt>
      <trkpt lat="44.59534" lon="0.81566">
        <ele>107.7</ele>
        <time>2021-07-23T08:33:50Z</time>
      </trkpt>
      <trkpt lat="44.5954" lon="0.81542">
        <ele>109.3</ele>
        <time>2021-07-23T08:33:57Z</time>
      </trkpt>
      <trkpt lat="44.59548" lon="0.81512">
        <ele>111.8</ele>
        <time>2021-07-23T08:34:06Z</time>
      </trkpt>
      <trkpt lat="44.59555" lon="0.81482">
        <ele>113.5</ele>
        <time>2021-07-23T08:34:15Z</time>
      </trkpt>
      <trkpt lat="44.59562" lon="0.81457">
        <ele>114.3</ele>
        <time>2021-07-23T08:34:23Z</time>
      </trkpt>
      <trkpt lat="44.59568" lon="0.81433">
        <ele>114.9</ele>
        <time>2021-07-23T08:34:30Z</time>
      </trkpt>
      <trkpt lat="44.59575" lon="0.81411">
        <ele>115.6</ele>
        <time>2021-07-23T08:34:37Z</time>
      </trkpt>
      <trkpt lat="44.59581" lon="0.81383">
        <ele>117</ele>
        <time>2021-07-23T08:34:45Z</time>
      </trkpt>
      <trkpt lat="44.59583" lon="0.81369">
        <ele>118</ele>
        <time>2021-07-23T08:34:51Z</time>
      </trkpt>
      <trkpt lat="44.59583" lon="0.81353">
        <ele>119.5</ele>
        <time>2021-07-23T08:34:59Z</time>
      </trkpt>
      <trkpt lat="44.59582" lon="0.81343">
        <ele>120.6</ele>
        <time>2021-07-23T08:35:05Z</time>
      </trkpt>
      <trkpt lat="44.59582" lon="0.81335">
        <ele>121.8</ele>
        <time>2021-07-23T08:35:10Z</time>
      </trkpt>
      <trkpt lat="44.59582" lon="0.81328">
        <ele>122.8</ele>
        <time>2021-07-23T08:35:15Z</time>
      </trkpt>
      <trkpt lat="44.59582" lon="0.81324">
        <ele>123.4</ele>
        <time>2021-07-23T08:35:17Z</time>
      </trkpt>
      <trkpt lat="44.59582" lon="0.81317">
        <ele>124.4</ele>
        <time>2021-07-23T08:35:21Z</time>
      </trkpt>
      <trkpt lat="44.59584" lon="0.81308">
        <ele>125.8</ele>
        <time>2021-07-23T08:35:26Z</time>
      </trkpt>
      <trkpt lat="44.59588" lon="0.81297">
        <ele>127.4</ele>
        <time>2021-07-23T08:35:32Z</time>
      </trkpt>
      <trkpt lat="44.59588" lon="0.81288">
        <ele>128.6</ele>
        <time>2021-07-23T08:35:37Z</time>
      </trkpt>
      <trkpt lat="44.5959" lon="0.81285">
        <ele>129</ele>
        <time>2021-07-23T08:35:39Z</time>
      </trkpt>
      <trkpt lat="44.59596" lon="0.81275">
        <ele>130.3</ele>
        <time>2021-07-23T08:35:46Z</time>
      </trkpt>
      <trkpt lat="44.59603" lon="0.81261">
        <ele>131.4</ele>
        <time>2021-07-23T08:35:53Z</time>
      </trkpt>
      <trkpt lat="44.59614" lon="0.81241">
        <ele>132.1</ele>
        <time>2021-07-23T08:36:00Z</time>
      </trkpt>
      <trkpt lat="44.59622" lon="0.81226">
        <ele>132.2</ele>
        <time>2021-07-23T08:36:05Z</time>
      </trkpt>
      <trkpt lat="44.59636" lon="0.81199">
        <ele>132.3</ele>
        <time>2021-07-23T08:36:12Z</time>
      </trkpt>
      <trkpt lat="44.59653" lon="0.81169">
        <ele>133</ele>
        <time>2021-07-23T08:36:20Z</time>
      </trkpt>
      <trkpt lat="44.59669" lon="0.81142">
        <ele>134.1</ele>
        <time>2021-07-23T08:36:28Z</time>
      </trkpt>
      <trkpt lat="44.59681" lon="0.81115">
        <ele>134.9</ele>
        <time>2021-07-23T08:36:35Z</time>
      </trkpt>
      <trkpt lat="44.59689" lon="0.81096">
        <ele>135.2</ele>
        <time>2021-07-23T08:36:40Z</time>
      </trkpt>
      <trkpt lat="44.59698" lon="0.81067">
        <ele>134.8</ele>
        <time>2021-07-23T08:36:46Z</time>
      </trkpt>
      <trkpt lat="44.59712" lon="0.81023">
        <ele>134</ele>
        <time>2021-07-23T08:36:53Z</time>
      </trkpt>
      <trkpt lat="44.59719" lon="0.80992">
        <ele>133.8</ele>
        <time>2021-07-23T08:36:59Z</time>
      </trkpt>
      <trkpt lat="44.59725" lon="0.8097">
        <ele>133.6</ele>
        <time>2021-07-23T08:37:04Z</time>
      </trkpt>
      <trkpt lat="44.59733" lon="0.80944">
        <ele>133.1</ele>
        <time>2021-07-23T08:37:09Z</time>
      </trkpt>
      <trkpt lat="44.59737" lon="0.80932">
        <ele>132.8</ele>
        <time>2021-07-23T08:37:11Z</time>
      </trkpt>
      <trkpt lat="44.59743" lon="0.8091">
        <ele>133.1</ele>
        <time>2021-07-23T08:37:14Z</time>
      </trkpt>
      <trkpt lat="44.59744" lon="0.80905">
        <ele>133.2</ele>
        <time>2021-07-23T08:37:16Z</time>
      </trkpt>
      <trkpt lat="44.59744" lon="0.80892">
        <ele>133.8</ele>
        <time>2021-07-23T08:37:18Z</time>
      </trkpt>
      <trkpt lat="44.59745" lon="0.80874">
        <ele>134.4</ele>
        <time>2021-07-23T08:37:22Z</time>
      </trkpt>
      <trkpt lat="44.59753" lon="0.8084">
        <ele>135.3</ele>
        <time>2021-07-23T08:37:30Z</time>
      </trkpt>
      <trkpt lat="44.59761" lon="0.80811">
        <ele>136.3</ele>
        <time>2021-07-23T08:37:37Z</time>
      </trkpt>
      <trkpt lat="44.59767" lon="0.80782">
        <ele>137.6</ele>
        <time>2021-07-23T08:37:43Z</time>
      </trkpt>
      <trkpt lat="44.59774" lon="0.80755">
        <ele>139</ele>
        <time>2021-07-23T08:37:51Z</time>
      </trkpt>
      <trkpt lat="44.5978" lon="0.80739">
        <ele>140.5</ele>
        <time>2021-07-23T08:37:58Z</time>
      </trkpt>
      <trkpt lat="44.5979" lon="0.80724">
        <ele>141.2</ele>
        <time>2021-07-23T08:38:04Z</time>
      </trkpt>
      <trkpt lat="44.59804" lon="0.80706">
        <ele>141.8</ele>
        <time>2021-07-23T08:38:13Z</time>
      </trkpt>
      <trkpt lat="44.59818" lon="0.80685">
        <ele>142.7</ele>
        <time>2021-07-23T08:38:21Z</time>
      </trkpt>
      <trkpt lat="44.59829" lon="0.80669">
        <ele>143.7</ele>
        <time>2021-07-23T08:38:27Z</time>
      </trkpt>
      <trkpt lat="44.5984" lon="0.80653">
        <ele>144.7</ele>
        <time>2021-07-23T08:38:33Z</time>
      </trkpt>
      <trkpt lat="44.59853" lon="0.80633">
        <ele>146</ele>
        <time>2021-07-23T08:38:40Z</time>
      </trkpt>
      <trkpt lat="44.59862" lon="0.80619">
        <ele>146.8</ele>
        <time>2021-07-23T08:38:46Z</time>
      </trkpt>
      <trkpt lat="44.59872" lon="0.80604">
        <ele>147.8</ele>
        <time>2021-07-23T08:38:53Z</time>
      </trkpt>
      <trkpt lat="44.59875" lon="0.80601">
        <ele>148.1</ele>
        <time>2021-07-23T08:38:55Z</time>
      </trkpt>
      <trkpt lat="44.59881" lon="0.80591">
        <ele>148.7</ele>
        <time>2021-07-23T08:38:59Z</time>
      </trkpt>
      <trkpt lat="44.59893" lon="0.80573">
        <ele>149.7</ele>
        <time>2021-07-23T08:39:07Z</time>
      </trkpt>
      <trkpt lat="44.59904" lon="0.80555">
        <ele>150.5</ele>
        <time>2021-07-23T08:39:14Z</time>
      </trkpt>
      <trkpt lat="44.59914" lon="0.80537">
        <ele>151.3</ele>
        <time>2021-07-23T08:39:21Z</time>
      </trkpt>
      <trkpt lat="44.59926" lon="0.80514">
        <ele>152</ele>
        <time>2021-07-23T08:39:29Z</time>
      </trkpt>
      <trkpt lat="44.59936" lon="0.805">
        <ele>152.4</ele>
        <time>2021-07-23T08:39:35Z</time>
      </trkpt>
      <trkpt lat="44.59937" lon="0.80498">
        <ele>152.5</ele>
        <time>2021-07-23T08:39:36Z</time>
      </trkpt>
      <trkpt lat="44.59941" lon="0.80492">
        <ele>152.7</ele>
        <time>2021-07-23T08:39:38Z</time>
      </trkpt>
      <trkpt lat="44.59947" lon="0.80482">
        <ele>153.1</ele>
        <time>2021-07-23T08:39:41Z</time>
      </trkpt>
      <trkpt lat="44.59956" lon="0.80467">
        <ele>153.8</ele>
        <time>2021-07-23T08:39:46Z</time>
      </trkpt>
      <trkpt lat="44.59966" lon="0.80447">
        <ele>154.7</ele>
        <time>2021-07-23T08:39:52Z</time>
      </trkpt>
      <trkpt lat="44.59967" lon="0.80443">
        <ele>154.8</ele>
        <time>2021-07-23T08:39:53Z</time>
      </trkpt>
      <trkpt lat="44.59966" lon="0.80434">
        <ele>155</ele>
        <time>2021-07-23T08:39:57Z</time>
      </trkpt>
      <trkpt lat="44.59966" lon="0.80434">
        <ele>155.1</ele>
        <time>2021-07-23T08:39:58Z</time>
      </trkpt>
      <trkpt lat="44.59967" lon="0.80435">
        <ele>155.1</ele>
        <time>2021-07-23T08:41:58Z</time>
      </trkpt>
      <trkpt lat="44.59968" lon="0.80434">
        <ele>155.1</ele>
        <time>2021-07-23T08:42:00Z</time>
      </trkpt>
      <trkpt lat="44.59969" lon="0.80435">
        <ele>155.1</ele>
        <time>2021-07-23T08:42:02Z</time>
      </trkpt>
      <trkpt lat="44.59974" lon="0.80436">
        <ele>155.2</ele>
        <time>2021-07-23T08:42:05Z</time>
      </trkpt>
      <trkpt lat="44.59978" lon="0.80433">
        <ele>155.3</ele>
        <time>2021-07-23T08:42:07Z</time>
      </trkpt>
      <trkpt lat="44.59982" lon="0.80426">
        <ele>154.6</ele>
        <time>2021-07-23T08:42:09Z</time>
      </trkpt>
      <trkpt lat="44.59985" lon="0.80422">
        <ele>154.3</ele>
        <time>2021-07-23T08:42:10Z</time>
      </trkpt>
      <trkpt lat="44.5999" lon="0.80403">
        <ele>153.1</ele>
        <time>2021-07-23T08:42:13Z</time>
      </trkpt>
      <trkpt lat="44.59993" lon="0.80382">
        <ele>151.7</ele>
        <time>2021-07-23T08:42:16Z</time>
      </trkpt>
      <trkpt lat="44.59995" lon="0.80375">
        <ele>151.2</ele>
        <time>2021-07-23T08:42:17Z</time>
      </trkpt>
      <trkpt lat="44.60003" lon="0.80354">
        <ele>149.6</ele>
        <time>2021-07-23T08:42:20Z</time>
      </trkpt>
      <trkpt lat="44.60016" lon="0.80332">
        <ele>147.7</ele>
        <time>2021-07-23T08:42:24Z</time>
      </trkpt>
      <trkpt lat="44.60019" lon="0.80326">
        <ele>147.3</ele>
        <time>2021-07-23T08:42:25Z</time>
      </trkpt>
      <trkpt lat="44.60022" lon="0.80321">
        <ele>146.9</ele>
        <time>2021-07-23T08:42:26Z</time>
      </trkpt>
      <trkpt lat="44.6003" lon="0.80311">
        <ele>146.1</ele>
        <time>2021-07-23T08:42:28Z</time>
      </trkpt>
      <trkpt lat="44.60034" lon="0.80307">
        <ele>145.6</ele>
        <time>2021-07-23T08:42:29Z</time>
      </trkpt>
      <trkpt lat="44.60039" lon="0.80303">
        <ele>145.2</ele>
        <time>2021-07-23T08:42:30Z</time>
      </trkpt>
      <trkpt lat="44.60061" lon="0.80288">
        <ele>143.8</ele>
        <time>2021-07-23T08:42:34Z</time>
      </trkpt>
      <trkpt lat="44.60084" lon="0.80262">
        <ele>142.3</ele>
        <time>2021-07-23T08:42:39Z</time>
      </trkpt>
      <trkpt lat="44.60095" lon="0.80239">
        <ele>141.5</ele>
        <time>2021-07-23T08:42:43Z</time>
      </trkpt>
      <trkpt lat="44.60096" lon="0.80233">
        <ele>141.3</ele>
        <time>2021-07-23T08:42:44Z</time>
      </trkpt>
      <trkpt lat="44.60097" lon="0.80202">
        <ele>140.2</ele>
        <time>2021-07-23T08:42:48Z</time>
      </trkpt>
      <trkpt lat="44.60098" lon="0.80175">
        <ele>139</ele>
        <time>2021-07-23T08:42:51Z</time>
      </trkpt>
      <trkpt lat="44.60099" lon="0.80168">
        <ele>138.7</ele>
        <time>2021-07-23T08:42:52Z</time>
      </trkpt>
      <trkpt lat="44.60108" lon="0.80153">
        <ele>137.5</ele>
        <time>2021-07-23T08:42:56Z</time>
      </trkpt>
      <trkpt lat="44.60118" lon="0.80131">
        <ele>135.4</ele>
        <time>2021-07-23T08:43:01Z</time>
      </trkpt>
      <trkpt lat="44.60118" lon="0.80126">
        <ele>134.9</ele>
        <time>2021-07-23T08:43:02Z</time>
      </trkpt>
      <trkpt lat="44.60115" lon="0.80116">
        <ele>133.8</ele>
        <time>2021-07-23T08:43:04Z</time>
      </trkpt>
      <trkpt lat="44.60109" lon="0.80107">
        <ele>132.4</ele>
        <time>2021-07-23T08:43:06Z</time>
      </trkpt>
      <trkpt lat="44.60103" lon="0.80095">
        <ele>131.2</ele>
        <time>2021-07-23T08:43:08Z</time>
      </trkpt>
      <trkpt lat="44.60096" lon="0.80081">
        <ele>129.8</ele>
        <time>2021-07-23T08:43:11Z</time>
      </trkpt>
      <trkpt lat="44.60094" lon="0.80075">
        <ele>129.2</ele>
        <time>2021-07-23T08:43:12Z</time>
      </trkpt>
      <trkpt lat="44.60092" lon="0.80069">
        <ele>128.7</ele>
        <time>2021-07-23T08:43:13Z</time>
      </trkpt>
      <trkpt lat="44.60083" lon="0.80053">
        <ele>127.1</ele>
        <time>2021-07-23T08:43:16Z</time>
      </trkpt>
      <trkpt lat="44.60078" lon="0.8003">
        <ele>125.7</ele>
        <time>2021-07-23T08:43:20Z</time>
      </trkpt>
      <trkpt lat="44.60074" lon="0.80007">
        <ele>124.8</ele>
        <time>2021-07-23T08:43:24Z</time>
      </trkpt>
      <trkpt lat="44.60073" lon="0.79998">
        <ele>124.6</ele>
        <time>2021-07-23T08:43:27Z</time>
      </trkpt>
      <trkpt lat="44.60073" lon="0.79997">
        <ele>124.6</ele>
        <time>2021-07-23T08:43:28Z</time>
      </trkpt>
      <trkpt lat="44.60071" lon="0.79994">
        <ele>124.5</ele>
        <time>2021-07-23T08:43:35Z</time>
      </trkpt>
      <trkpt lat="44.60071" lon="0.79992">
        <ele>124.5</ele>
        <time>2021-07-23T08:43:37Z</time>
      </trkpt>
      <trkpt lat="44.60072" lon="0.79989">
        <ele>124.5</ele>
        <time>2021-07-23T08:43:39Z</time>
      </trkpt>
      <trkpt lat="44.60071" lon="0.79985">
        <ele>124.4</ele>
        <time>2021-07-23T08:43:42Z</time>
      </trkpt>
      <trkpt lat="44.60071" lon="0.79983">
        <ele>124.4</ele>
        <time>2021-07-23T08:43:49Z</time>
      </trkpt>
      <trkpt lat="44.60069" lon="0.79973">
        <ele>124.5</ele>
        <time>2021-07-23T08:43:52Z</time>
      </trkpt>
      <trkpt lat="44.60065" lon="0.79946">
        <ele>125</ele>
        <time>2021-07-23T08:43:58Z</time>
      </trkpt>
      <trkpt lat="44.60063" lon="0.79922">
        <ele>126.5</ele>
        <time>2021-07-23T08:44:05Z</time>
      </trkpt>
      <trkpt lat="44.60062" lon="0.799">
        <ele>128.3</ele>
        <time>2021-07-23T08:44:13Z</time>
      </trkpt>
      <trkpt lat="44.60061" lon="0.79884">
        <ele>129.9</ele>
        <time>2021-07-23T08:44:20Z</time>
      </trkpt>
      <trkpt lat="44.60061" lon="0.79881">
        <ele>130.1</ele>
        <time>2021-07-23T08:44:21Z</time>
      </trkpt>
      <trkpt lat="44.6006" lon="0.79873">
        <ele>131</ele>
        <time>2021-07-23T08:44:25Z</time>
      </trkpt>
      <trkpt lat="44.60058" lon="0.79859">
        <ele>132.4</ele>
        <time>2021-07-23T08:44:31Z</time>
      </trkpt>
      <trkpt lat="44.60057" lon="0.79846">
        <ele>133.8</ele>
        <time>2021-07-23T08:44:38Z</time>
      </trkpt>
      <trkpt lat="44.60057" lon="0.7984">
        <ele>134.3</ele>
        <time>2021-07-23T08:44:41Z</time>
      </trkpt>
      <trkpt lat="44.60057" lon="0.79836">
        <ele>134.8</ele>
        <time>2021-07-23T08:44:43Z</time>
      </trkpt>
      <trkpt lat="44.60058" lon="0.79825">
        <ele>136</ele>
        <time>2021-07-23T08:44:49Z</time>
      </trkpt>
      <trkpt lat="44.60058" lon="0.79821">
        <ele>136.4</ele>
        <time>2021-07-23T08:44:51Z</time>
      </trkpt>
      <trkpt lat="44.60058" lon="0.7982">
        <ele>136.6</ele>
        <time>2021-07-23T08:44:52Z</time>
      </trkpt>
      <trkpt lat="44.60058" lon="0.79818">
        <ele>136.7</ele>
        <time>2021-07-23T08:44:53Z</time>
      </trkpt>
      <trkpt lat="44.60057" lon="0.79813">
        <ele>137.2</ele>
        <time>2021-07-23T08:44:55Z</time>
      </trkpt>
      <trkpt lat="44.60058" lon="0.79808">
        <ele>137.8</ele>
        <time>2021-07-23T08:44:58Z</time>
      </trkpt>
      <trkpt lat="44.60058" lon="0.79797">
        <ele>138.8</ele>
        <time>2021-07-23T08:45:03Z</time>
      </trkpt>
      <trkpt lat="44.60057" lon="0.79781">
        <ele>140</ele>
        <time>2021-07-23T08:45:10Z</time>
      </trkpt>
      <trkpt lat="44.60058" lon="0.79773">
        <ele>140.5</ele>
        <time>2021-07-23T08:45:15Z</time>
      </trkpt>
      <trkpt lat="44.60062" lon="0.7976">
        <ele>141.3</ele>
        <time>2021-07-23T08:45:22Z</time>
      </trkpt>
      <trkpt lat="44.60066" lon="0.79751">
        <ele>141.9</ele>
        <time>2021-07-23T08:45:28Z</time>
      </trkpt>
      <trkpt lat="44.60071" lon="0.79741">
        <ele>142.9</ele>
        <time>2021-07-23T08:45:35Z</time>
      </trkpt>
      <trkpt lat="44.60074" lon="0.79731">
        <ele>143.8</ele>
        <time>2021-07-23T08:45:41Z</time>
      </trkpt>
      <trkpt lat="44.60075" lon="0.7973">
        <ele>143.9</ele>
        <time>2021-07-23T08:45:42Z</time>
      </trkpt>
      <trkpt lat="44.60078" lon="0.79718">
        <ele>145</ele>
        <time>2021-07-23T08:45:49Z</time>
      </trkpt>
      <trkpt lat="44.6008" lon="0.79706">
        <ele>146</ele>
        <time>2021-07-23T08:45:56Z</time>
      </trkpt>
      <trkpt lat="44.60086" lon="0.79692">
        <ele>146.9</ele>
        <time>2021-07-23T08:46:02Z</time>
      </trkpt>
      <trkpt lat="44.60097" lon="0.79674">
        <ele>147.8</ele>
        <time>2021-07-23T08:46:10Z</time>
      </trkpt>
      <trkpt lat="44.60108" lon="0.79657">
        <ele>148.5</ele>
        <time>2021-07-23T08:46:16Z</time>
      </trkpt>
      <trkpt lat="44.60122" lon="0.79638">
        <ele>149.2</ele>
        <time>2021-07-23T08:46:22Z</time>
      </trkpt>
      <trkpt lat="44.60137" lon="0.7962">
        <ele>149.6</ele>
        <time>2021-07-23T08:46:28Z</time>
      </trkpt>
      <trkpt lat="44.60159" lon="0.79593">
        <ele>150.3</ele>
        <time>2021-07-23T08:46:36Z</time>
      </trkpt>
      <trkpt lat="44.60176" lon="0.79574">
        <ele>150.5</ele>
        <time>2021-07-23T08:46:43Z</time>
      </trkpt>
      <trkpt lat="44.60196" lon="0.79551">
        <ele>150.4</ele>
        <time>2021-07-23T08:46:49Z</time>
      </trkpt>
      <trkpt lat="44.60217" lon="0.79525">
        <ele>150.7</ele>
        <time>2021-07-23T08:46:55Z</time>
      </trkpt>
      <trkpt lat="44.60221" lon="0.79521">
        <ele>150.7</ele>
        <time>2021-07-23T08:46:56Z</time>
      </trkpt>
      <trkpt lat="44.6022" lon="0.79512">
        <ele>150.5</ele>
        <time>2021-07-23T08:46:58Z</time>
      </trkpt>
      <trkpt lat="44.60212" lon="0.79505">
        <ele>149.8</ele>
        <time>2021-07-23T08:47:00Z</time>
      </trkpt>
      <trkpt lat="44.60202" lon="0.79504">
        <ele>148.9</ele>
        <time>2021-07-23T08:47:02Z</time>
      </trkpt>
      <trkpt lat="44.6019" lon="0.79503">
        <ele>147.3</ele>
        <time>2021-07-23T08:47:04Z</time>
      </trkpt>
      <trkpt lat="44.60177" lon="0.79498">
        <ele>145.6</ele>
        <time>2021-07-23T08:47:06Z</time>
      </trkpt>
      <trkpt lat="44.6016" lon="0.79489">
        <ele>144.1</ele>
        <time>2021-07-23T08:47:09Z</time>
      </trkpt>
      <trkpt lat="44.60157" lon="0.79485">
        <ele>143.7</ele>
        <time>2021-07-23T08:47:10Z</time>
      </trkpt>
      <trkpt lat="44.60156" lon="0.7948">
        <ele>143.3</ele>
        <time>2021-07-23T08:47:11Z</time>
      </trkpt>
      <trkpt lat="44.60157" lon="0.79463">
        <ele>141.7</ele>
        <time>2021-07-23T08:47:13Z</time>
      </trkpt>
      <trkpt lat="44.6016" lon="0.79443">
        <ele>139.4</ele>
        <time>2021-07-23T08:47:15Z</time>
      </trkpt>
      <trkpt lat="44.6016" lon="0.79433">
        <ele>138.3</ele>
        <time>2021-07-23T08:47:16Z</time>
      </trkpt>
      <trkpt lat="44.60159" lon="0.79424">
        <ele>137.2</ele>
        <time>2021-07-23T08:47:17Z</time>
      </trkpt>
      <trkpt lat="44.60155" lon="0.79414">
        <ele>136</ele>
        <time>2021-07-23T08:47:18Z</time>
      </trkpt>
      <trkpt lat="44.60151" lon="0.79405">
        <ele>134.8</ele>
        <time>2021-07-23T08:47:19Z</time>
      </trkpt>
      <trkpt lat="44.60141" lon="0.79394">
        <ele>133</ele>
        <time>2021-07-23T08:47:21Z</time>
      </trkpt>
      <trkpt lat="44.60121" lon="0.79387">
        <ele>131.1</ele>
        <time>2021-07-23T08:47:24Z</time>
      </trkpt>
      <trkpt lat="44.60114" lon="0.79385">
        <ele>130.5</ele>
        <time>2021-07-23T08:47:25Z</time>
      </trkpt>
      <trkpt lat="44.60084" lon="0.79388">
        <ele>128.9</ele>
        <time>2021-07-23T08:47:29Z</time>
      </trkpt>
      <trkpt lat="44.60077" lon="0.79391">
        <ele>128.5</ele>
        <time>2021-07-23T08:47:30Z</time>
      </trkpt>
      <trkpt lat="44.60064" lon="0.79395">
        <ele>127.7</ele>
        <time>2021-07-23T08:47:32Z</time>
      </trkpt>
      <trkpt lat="44.6005" lon="0.79405">
        <ele>126.5</ele>
        <time>2021-07-23T08:47:34Z</time>
      </trkpt>
      <trkpt lat="44.6002" lon="0.79428">
        <ele>123.9</ele>
        <time>2021-07-23T08:47:38Z</time>
      </trkpt>
      <trkpt lat="44.60004" lon="0.79437">
        <ele>122.9</ele>
        <time>2021-07-23T08:47:40Z</time>
      </trkpt>
      <trkpt lat="44.59988" lon="0.79443">
        <ele>121.9</ele>
        <time>2021-07-23T08:47:42Z</time>
      </trkpt>
      <trkpt lat="44.59981" lon="0.79445">
        <ele>121.2</ele>
        <time>2021-07-23T08:47:43Z</time>
      </trkpt>
      <trkpt lat="44.59968" lon="0.79444">
        <ele>120</ele>
        <time>2021-07-23T08:47:45Z</time>
      </trkpt>
      <trkpt lat="44.59961" lon="0.79442">
        <ele>119.4</ele>
        <time>2021-07-23T08:47:46Z</time>
      </trkpt>
      <trkpt lat="44.59942" lon="0.79433">
        <ele>117.8</ele>
        <time>2021-07-23T08:47:49Z</time>
      </trkpt>
      <trkpt lat="44.59932" lon="0.79425">
        <ele>117.2</ele>
        <time>2021-07-23T08:47:51Z</time>
      </trkpt>
      <trkpt lat="44.59925" lon="0.79417">
        <ele>116.8</ele>
        <time>2021-07-23T08:47:53Z</time>
      </trkpt>
      <trkpt lat="44.59914" lon="0.79402">
        <ele>116.9</ele>
        <time>2021-07-23T08:47:57Z</time>
      </trkpt>
      <trkpt lat="44.59912" lon="0.7939">
        <ele>117.4</ele>
        <time>2021-07-23T08:48:01Z</time>
      </trkpt>
      <trkpt lat="44.59907" lon="0.79376">
        <ele>118.4</ele>
        <time>2021-07-23T08:48:06Z</time>
      </trkpt>
      <trkpt lat="44.599" lon="0.79364">
        <ele>119.5</ele>
        <time>2021-07-23T08:48:11Z</time>
      </trkpt>
      <trkpt lat="44.59893" lon="0.79348">
        <ele>120.8</ele>
        <time>2021-07-23T08:48:16Z</time>
      </trkpt>
      <trkpt lat="44.59886" lon="0.79334">
        <ele>121.9</ele>
        <time>2021-07-23T08:48:21Z</time>
      </trkpt>
      <trkpt lat="44.5988" lon="0.79325">
        <ele>122.5</ele>
        <time>2021-07-23T08:48:25Z</time>
      </trkpt>
      <trkpt lat="44.5988" lon="0.79319">
        <ele>122.8</ele>
        <time>2021-07-23T08:48:27Z</time>
      </trkpt>
      <trkpt lat="44.5988" lon="0.79313">
        <ele>123.1</ele>
        <time>2021-07-23T08:48:29Z</time>
      </trkpt>
      <trkpt lat="44.59879" lon="0.79311">
        <ele>123.2</ele>
        <time>2021-07-23T08:48:30Z</time>
      </trkpt>
      <trkpt lat="44.59875" lon="0.79309">
        <ele>123.4</ele>
        <time>2021-07-23T08:48:32Z</time>
      </trkpt>
      <trkpt lat="44.59871" lon="0.79305">
        <ele>123.6</ele>
        <time>2021-07-23T08:48:36Z</time>
      </trkpt>
      <trkpt lat="44.59866" lon="0.79297">
        <ele>123.9</ele>
        <time>2021-07-23T08:48:43Z</time>
      </trkpt>
      <trkpt lat="44.59863" lon="0.79292">
        <ele>124</ele>
        <time>2021-07-23T08:48:45Z</time>
      </trkpt>
      <trkpt lat="44.59861" lon="0.79287">
        <ele>124.1</ele>
        <time>2021-07-23T08:48:47Z</time>
      </trkpt>
      <trkpt lat="44.59852" lon="0.79265">
        <ele>124.9</ele>
        <time>2021-07-23T08:48:54Z</time>
      </trkpt>
      <trkpt lat="44.5984" lon="0.79242">
        <ele>125.8</ele>
        <time>2021-07-23T08:49:01Z</time>
      </trkpt>
      <trkpt lat="44.59839" lon="0.79237">
        <ele>126</ele>
        <time>2021-07-23T08:49:03Z</time>
      </trkpt>
      <trkpt lat="44.5984" lon="0.79232">
        <ele>126.2</ele>
        <time>2021-07-23T08:49:05Z</time>
      </trkpt>
      <trkpt lat="44.59844" lon="0.79229">
        <ele>126.4</ele>
        <time>2021-07-23T08:49:07Z</time>
      </trkpt>
      <trkpt lat="44.59844" lon="0.79223">
        <ele>126.6</ele>
        <time>2021-07-23T08:49:09Z</time>
      </trkpt>
      <trkpt lat="44.59844" lon="0.79216">
        <ele>126.8</ele>
        <time>2021-07-23T08:49:11Z</time>
      </trkpt>
      <trkpt lat="44.59844" lon="0.79211">
        <ele>127</ele>
        <time>2021-07-23T08:49:13Z</time>
      </trkpt>
      <trkpt lat="44.59844" lon="0.7919">
        <ele>127.6</ele>
        <time>2021-07-23T08:49:20Z</time>
      </trkpt>
      <trkpt lat="44.59842" lon="0.79172">
        <ele>127.8</ele>
        <time>2021-07-23T08:49:25Z</time>
      </trkpt>
      <trkpt lat="44.59843" lon="0.79146">
        <ele>128.3</ele>
        <time>2021-07-23T08:49:31Z</time>
      </trkpt>
      <trkpt lat="44.59845" lon="0.79123">
        <ele>130.1</ele>
        <time>2021-07-23T08:49:37Z</time>
      </trkpt>
      <trkpt lat="44.59847" lon="0.79104">
        <ele>131.6</ele>
        <time>2021-07-23T08:49:42Z</time>
      </trkpt>
      <trkpt lat="44.59849" lon="0.79083">
        <ele>133.1</ele>
        <time>2021-07-23T08:49:49Z</time>
      </trkpt>
      <trkpt lat="44.59849" lon="0.7907">
        <ele>133.7</ele>
        <time>2021-07-23T08:49:55Z</time>
      </trkpt>
      <trkpt lat="44.59848" lon="0.79066">
        <ele>133.9</ele>
        <time>2021-07-23T08:49:59Z</time>
      </trkpt>
      <trkpt lat="44.59846" lon="0.79059">
        <ele>134.2</ele>
        <time>2021-07-23T08:50:06Z</time>
      </trkpt>
      <trkpt lat="44.59847" lon="0.79057">
        <ele>134.4</ele>
        <time>2021-07-23T08:50:10Z</time>
      </trkpt>
      <trkpt lat="44.59846" lon="0.79051">
        <ele>134.6</ele>
        <time>2021-07-23T08:50:16Z</time>
      </trkpt>
      <trkpt lat="44.59846" lon="0.7905">
        <ele>134.8</ele>
        <time>2021-07-23T08:50:17Z</time>
      </trkpt>
      <trkpt lat="44.59845" lon="0.79043">
        <ele>135</ele>
        <time>2021-07-23T08:50:23Z</time>
      </trkpt>
      <trkpt lat="44.59845" lon="0.79035">
        <ele>135.4</ele>
        <time>2021-07-23T08:50:29Z</time>
      </trkpt>
      <trkpt lat="44.59845" lon="0.79027">
        <ele>135.8</ele>
        <time>2021-07-23T08:50:36Z</time>
      </trkpt>
      <trkpt lat="44.59844" lon="0.79025">
        <ele>135.9</ele>
        <time>2021-07-23T08:50:39Z</time>
      </trkpt>
      <trkpt lat="44.59842" lon="0.79017">
        <ele>136.2</ele>
        <time>2021-07-23T08:50:47Z</time>
      </trkpt>
      <trkpt lat="44.5984" lon="0.79008">
        <ele>136.6</ele>
        <time>2021-07-23T08:50:54Z</time>
      </trkpt>
      <trkpt lat="44.59838" lon="0.79004">
        <ele>136.9</ele>
        <time>2021-07-23T08:50:57Z</time>
      </trkpt>
      <trkpt lat="44.59835" lon="0.79">
        <ele>137.2</ele>
        <time>2021-07-23T08:51:00Z</time>
      </trkpt>
      <trkpt lat="44.59829" lon="0.78995">
        <ele>137.8</ele>
        <time>2021-07-23T08:51:07Z</time>
      </trkpt>
      <trkpt lat="44.59826" lon="0.78993">
        <ele>138.4</ele>
        <time>2021-07-23T08:51:11Z</time>
      </trkpt>
      <trkpt lat="44.59816" lon="0.78982">
        <ele>139.3</ele>
        <time>2021-07-23T08:51:17Z</time>
      </trkpt>
      <trkpt lat="44.59802" lon="0.78963">
        <ele>139.7</ele>
        <time>2021-07-23T08:51:24Z</time>
      </trkpt>
      <trkpt lat="44.59792" lon="0.78937">
        <ele>139.9</ele>
        <time>2021-07-23T08:51:31Z</time>
      </trkpt>
      <trkpt lat="44.59775" lon="0.78906">
        <ele>139.9</ele>
        <time>2021-07-23T08:51:39Z</time>
      </trkpt>
      <trkpt lat="44.59757" lon="0.78877">
        <ele>138.9</ele>
        <time>2021-07-23T08:51:45Z</time>
      </trkpt>
      <trkpt lat="44.59754" lon="0.78872">
        <ele>138.7</ele>
        <time>2021-07-23T08:51:46Z</time>
      </trkpt>
      <trkpt lat="44.59751" lon="0.78861">
        <ele>139</ele>
        <time>2021-07-23T08:51:48Z</time>
      </trkpt>
      <trkpt lat="44.59751" lon="0.78855">
        <ele>139.3</ele>
        <time>2021-07-23T08:51:49Z</time>
      </trkpt>
      <trkpt lat="44.59761" lon="0.78837">
        <ele>141.5</ele>
        <time>2021-07-23T08:51:53Z</time>
      </trkpt>
      <trkpt lat="44.59764" lon="0.78833">
        <ele>142.1</ele>
        <time>2021-07-23T08:51:54Z</time>
      </trkpt>
      <trkpt lat="44.59768" lon="0.78822">
        <ele>143.1</ele>
        <time>2021-07-23T08:51:56Z</time>
      </trkpt>
      <trkpt lat="44.59768" lon="0.78817">
        <ele>143.6</ele>
        <time>2021-07-23T08:51:57Z</time>
      </trkpt>
      <trkpt lat="44.59773" lon="0.78764">
        <ele>145.3</ele>
        <time>2021-07-23T08:52:05Z</time>
      </trkpt>
      <trkpt lat="44.59776" lon="0.78732">
        <ele>146</ele>
        <time>2021-07-23T08:52:10Z</time>
      </trkpt>
      <trkpt lat="44.59776" lon="0.78726">
        <ele>146.1</ele>
        <time>2021-07-23T08:52:11Z</time>
      </trkpt>
      <trkpt lat="44.59775" lon="0.78715">
        <ele>146.2</ele>
        <time>2021-07-23T08:52:13Z</time>
      </trkpt>
      <trkpt lat="44.59773" lon="0.78709">
        <ele>146.3</ele>
        <time>2021-07-23T08:52:14Z</time>
      </trkpt>
      <trkpt lat="44.5977" lon="0.78705">
        <ele>146.4</ele>
        <time>2021-07-23T08:52:15Z</time>
      </trkpt>
      <trkpt lat="44.59758" lon="0.78693">
        <ele>147</ele>
        <time>2021-07-23T08:52:18Z</time>
      </trkpt>
      <trkpt lat="44.59738" lon="0.78677">
        <ele>147.7</ele>
        <time>2021-07-23T08:52:23Z</time>
      </trkpt>
      <trkpt lat="44.59734" lon="0.78677">
        <ele>147.7</ele>
        <time>2021-07-23T08:52:24Z</time>
      </trkpt>
      <trkpt lat="44.59726" lon="0.78683">
        <ele>147.4</ele>
        <time>2021-07-23T08:52:26Z</time>
      </trkpt>
      <trkpt lat="44.59709" lon="0.78702">
        <ele>145.5</ele>
        <time>2021-07-23T08:52:31Z</time>
      </trkpt>
      <trkpt lat="44.59702" lon="0.7871">
        <ele>144.6</ele>
        <time>2021-07-23T08:52:33Z</time>
      </trkpt>
      <trkpt lat="44.59691" lon="0.78712">
        <ele>143.5</ele>
        <time>2021-07-23T08:52:35Z</time>
      </trkpt>
      <trkpt lat="44.59682" lon="0.78702">
        <ele>143.9</ele>
        <time>2021-07-23T08:52:38Z</time>
      </trkpt>
      <trkpt lat="44.59671" lon="0.78683">
        <ele>144.8</ele>
        <time>2021-07-23T08:52:43Z</time>
      </trkpt>
      <trkpt lat="44.59668" lon="0.78678">
        <ele>144.9</ele>
        <time>2021-07-23T08:52:44Z</time>
      </trkpt>
      <trkpt lat="44.59666" lon="0.78668">
        <ele>145.6</ele>
        <time>2021-07-23T08:52:46Z</time>
      </trkpt>
      <trkpt lat="44.59667" lon="0.78665">
        <ele>146</ele>
        <time>2021-07-23T08:52:47Z</time>
      </trkpt>
      <trkpt lat="44.5967" lon="0.78658">
        <ele>147.2</ele>
        <time>2021-07-23T08:52:49Z</time>
      </trkpt>
      <trkpt lat="44.59676" lon="0.78649">
        <ele>148.9</ele>
        <time>2021-07-23T08:52:53Z</time>
      </trkpt>
      <trkpt lat="44.59679" lon="0.78643">
        <ele>149.3</ele>
        <time>2021-07-23T08:52:55Z</time>
      </trkpt>
      <trkpt lat="44.59679" lon="0.78637">
        <ele>150.1</ele>
        <time>2021-07-23T08:52:57Z</time>
      </trkpt>
      <trkpt lat="44.59672" lon="0.78622">
        <ele>150.5</ele>
        <time>2021-07-23T08:53:01Z</time>
      </trkpt>
      <trkpt lat="44.59665" lon="0.786">
        <ele>150.8</ele>
        <time>2021-07-23T08:53:06Z</time>
      </trkpt>
      <trkpt lat="44.59657" lon="0.78577">
        <ele>150.9</ele>
        <time>2021-07-23T08:53:11Z</time>
      </trkpt>
      <trkpt lat="44.59655" lon="0.78573">
        <ele>150.8</ele>
        <time>2021-07-23T08:53:12Z</time>
      </trkpt>
      <trkpt lat="44.59652" lon="0.7857">
        <ele>150.9</ele>
        <time>2021-07-23T08:53:13Z</time>
      </trkpt>
      <trkpt lat="44.59644" lon="0.78567">
        <ele>150.2</ele>
        <time>2021-07-23T08:53:15Z</time>
      </trkpt>
      <trkpt lat="44.5963" lon="0.78557">
        <ele>148.6</ele>
        <time>2021-07-23T08:53:19Z</time>
      </trkpt>
      <trkpt lat="44.59624" lon="0.78548">
        <ele>148.3</ele>
        <time>2021-07-23T08:53:23Z</time>
      </trkpt>
      <trkpt lat="44.59619" lon="0.78534">
        <ele>148.4</ele>
        <time>2021-07-23T08:53:29Z</time>
      </trkpt>
      <trkpt lat="44.59617" lon="0.78525">
        <ele>148.3</ele>
        <time>2021-07-23T08:53:33Z</time>
      </trkpt>
      <trkpt lat="44.59616" lon="0.78523">
        <ele>148.3</ele>
        <time>2021-07-23T08:53:34Z</time>
      </trkpt>
      <trkpt lat="44.59615" lon="0.7851">
        <ele>148.3</ele>
        <time>2021-07-23T08:53:38Z</time>
      </trkpt>
      <trkpt lat="44.59612" lon="0.78491">
        <ele>148.8</ele>
        <time>2021-07-23T08:53:43Z</time>
      </trkpt>
      <trkpt lat="44.5961" lon="0.78477">
        <ele>148.5</ele>
        <time>2021-07-23T08:53:47Z</time>
      </trkpt>
      <trkpt lat="44.59609" lon="0.78472">
        <ele>148.5</ele>
        <time>2021-07-23T08:53:48Z</time>
      </trkpt>
      <trkpt lat="44.59608" lon="0.78446">
        <ele>148.4</ele>
        <time>2021-07-23T08:53:53Z</time>
      </trkpt>
      <trkpt lat="44.59611" lon="0.78427">
        <ele>149.2</ele>
        <time>2021-07-23T08:53:57Z</time>
      </trkpt>
      <trkpt lat="44.59615" lon="0.78404">
        <ele>149.7</ele>
        <time>2021-07-23T08:54:03Z</time>
      </trkpt>
      <trkpt lat="44.59617" lon="0.78386">
        <ele>150.2</ele>
        <time>2021-07-23T08:54:08Z</time>
      </trkpt>
      <trkpt lat="44.59618" lon="0.78381">
        <ele>150.2</ele>
        <time>2021-07-23T08:54:09Z</time>
      </trkpt>
      <trkpt lat="44.59615" lon="0.78367">
        <ele>150.2</ele>
        <time>2021-07-23T08:54:12Z</time>
      </trkpt>
      <trkpt lat="44.59611" lon="0.7835">
        <ele>150.2</ele>
        <time>2021-07-23T08:54:16Z</time>
      </trkpt>
      <trkpt lat="44.59612" lon="0.78347">
        <ele>150.5</ele>
        <time>2021-07-23T08:54:18Z</time>
      </trkpt>
      <trkpt lat="44.59612" lon="0.78344">
        <ele>150.5</ele>
        <time>2021-07-23T08:54:20Z</time>
      </trkpt>
      <trkpt lat="44.59612" lon="0.78341">
        <ele>150.3</ele>
        <time>2021-07-23T08:54:22Z</time>
      </trkpt>
      <trkpt lat="44.59613" lon="0.78333">
        <ele>150.6</ele>
        <time>2021-07-23T08:54:27Z</time>
      </trkpt>
      <trkpt lat="44.59614" lon="0.78326">
        <ele>150.7</ele>
        <time>2021-07-23T08:54:32Z</time>
      </trkpt>
      <trkpt lat="44.59615" lon="0.78324">
        <ele>150.8</ele>
        <time>2021-07-23T08:54:37Z</time>
      </trkpt>
      <trkpt lat="44.59621" lon="0.78309">
        <ele>151.4</ele>
        <time>2021-07-23T08:54:42Z</time>
      </trkpt>
      <trkpt lat="44.59626" lon="0.78299">
        <ele>151.9</ele>
        <time>2021-07-23T08:54:45Z</time>
      </trkpt>
      <trkpt lat="44.59629" lon="0.78294">
        <ele>152.1</ele>
        <time>2021-07-23T08:54:47Z</time>
      </trkpt>
      <trkpt lat="44.59635" lon="0.78278">
        <ele>152.5</ele>
        <time>2021-07-23T08:54:52Z</time>
      </trkpt>
      <trkpt lat="44.59632" lon="0.78273">
        <ele>152.4</ele>
        <time>2021-07-23T08:54:54Z</time>
      </trkpt>
      <trkpt lat="44.5963" lon="0.78271">
        <ele>152.4</ele>
        <time>2021-07-23T08:54:56Z</time>
      </trkpt>
      <trkpt lat="44.59615" lon="0.78266">
        <ele>152</ele>
        <time>2021-07-23T08:55:00Z</time>
      </trkpt>
      <trkpt lat="44.59601" lon="0.78265">
        <ele>151.7</ele>
        <time>2021-07-23T08:55:04Z</time>
      </trkpt>
      <trkpt lat="44.596" lon="0.78264">
        <ele>151.7</ele>
        <time>2021-07-23T08:55:06Z</time>
      </trkpt>
      <trkpt lat="44.59595" lon="0.78257">
        <ele>151.8</ele>
        <time>2021-07-23T08:55:20Z</time>
      </trkpt>
      <trkpt lat="44.59594" lon="0.78255">
        <ele>151.9</ele>
        <time>2021-07-23T08:55:21Z</time>
      </trkpt>
      <trkpt lat="44.59593" lon="0.78253">
        <ele>151.9</ele>
        <time>2021-07-23T08:55:22Z</time>
      </trkpt>
      <trkpt lat="44.59588" lon="0.78248">
        <ele>151.9</ele>
        <time>2021-07-23T08:55:25Z</time>
      </trkpt>
      <trkpt lat="44.59578" lon="0.78242">
        <ele>152.1</ele>
        <time>2021-07-23T08:55:28Z</time>
      </trkpt>
      <trkpt lat="44.59567" lon="0.78232">
        <ele>152.4</ele>
        <time>2021-07-23T08:55:33Z</time>
      </trkpt>
      <trkpt lat="44.59557" lon="0.78224">
        <ele>152.8</ele>
        <time>2021-07-23T08:55:38Z</time>
      </trkpt>
      <trkpt lat="44.59548" lon="0.78218">
        <ele>153.1</ele>
        <time>2021-07-23T08:55:43Z</time>
      </trkpt>
      <trkpt lat="44.59542" lon="0.78215">
        <ele>153.2</ele>
        <time>2021-07-23T08:55:46Z</time>
      </trkpt>
      <trkpt lat="44.59539" lon="0.78216">
        <ele>153.3</ele>
        <time>2021-07-23T08:55:48Z</time>
      </trkpt>
      <trkpt lat="44.59533" lon="0.78214">
        <ele>153.4</ele>
        <time>2021-07-23T08:55:52Z</time>
      </trkpt>
      <trkpt lat="44.59532" lon="0.7821">
        <ele>153.5</ele>
        <time>2021-07-23T08:55:54Z</time>
      </trkpt>
      <trkpt lat="44.59536" lon="0.78197">
        <ele>153.9</ele>
        <time>2021-07-23T08:55:59Z</time>
      </trkpt>
      <trkpt lat="44.59545" lon="0.78178">
        <ele>154.4</ele>
        <time>2021-07-23T08:56:06Z</time>
      </trkpt>
      <trkpt lat="44.59551" lon="0.78166">
        <ele>154.7</ele>
        <time>2021-07-23T08:56:10Z</time>
      </trkpt>
      <trkpt lat="44.59555" lon="0.78161">
        <ele>154.9</ele>
        <time>2021-07-23T08:56:12Z</time>
      </trkpt>
      <trkpt lat="44.59565" lon="0.78142">
        <ele>155.3</ele>
        <time>2021-07-23T08:56:18Z</time>
      </trkpt>
      <trkpt lat="44.59573" lon="0.78125">
        <ele>155.8</ele>
        <time>2021-07-23T08:56:24Z</time>
      </trkpt>
      <trkpt lat="44.59585" lon="0.78109">
        <ele>156.5</ele>
        <time>2021-07-23T08:56:30Z</time>
      </trkpt>
      <trkpt lat="44.59598" lon="0.78095">
        <ele>157.5</ele>
        <time>2021-07-23T08:56:36Z</time>
      </trkpt>
      <trkpt lat="44.59608" lon="0.7808">
        <ele>158.6</ele>
        <time>2021-07-23T08:56:42Z</time>
      </trkpt>
      <trkpt lat="44.59619" lon="0.78062">
        <ele>159.9</ele>
        <time>2021-07-23T08:56:49Z</time>
      </trkpt>
      <trkpt lat="44.59621" lon="0.78058">
        <ele>160.2</ele>
        <time>2021-07-23T08:56:51Z</time>
      </trkpt>
      <trkpt lat="44.59624" lon="0.78049">
        <ele>160.9</ele>
        <time>2021-07-23T08:56:55Z</time>
      </trkpt>
      <trkpt lat="44.5963" lon="0.78032">
        <ele>162</ele>
        <time>2021-07-23T08:57:02Z</time>
      </trkpt>
      <trkpt lat="44.59639" lon="0.78018">
        <ele>163</ele>
        <time>2021-07-23T08:57:09Z</time>
      </trkpt>
      <trkpt lat="44.59648" lon="0.78006">
        <ele>163.8</ele>
        <time>2021-07-23T08:57:16Z</time>
      </trkpt>
      <trkpt lat="44.59657" lon="0.77991">
        <ele>164.6</ele>
        <time>2021-07-23T08:57:23Z</time>
      </trkpt>
      <trkpt lat="44.59658" lon="0.77989">
        <ele>164.7</ele>
        <time>2021-07-23T08:57:24Z</time>
      </trkpt>
      <trkpt lat="44.59664" lon="0.77981">
        <ele>165.2</ele>
        <time>2021-07-23T08:57:28Z</time>
      </trkpt>
      <trkpt lat="44.59673" lon="0.77969">
        <ele>165.8</ele>
        <time>2021-07-23T08:57:34Z</time>
      </trkpt>
      <trkpt lat="44.59679" lon="0.7796">
        <ele>166.4</ele>
        <time>2021-07-23T08:57:39Z</time>
      </trkpt>
      <trkpt lat="44.59687" lon="0.77947">
        <ele>167.3</ele>
        <time>2021-07-23T08:57:45Z</time>
      </trkpt>
      <trkpt lat="44.59692" lon="0.77938">
        <ele>168</ele>
        <time>2021-07-23T08:57:49Z</time>
      </trkpt>
      <trkpt lat="44.59695" lon="0.77934">
        <ele>168.3</ele>
        <time>2021-07-23T08:57:51Z</time>
      </trkpt>
      <trkpt lat="44.59699" lon="0.77931">
        <ele>168.6</ele>
        <time>2021-07-23T08:57:54Z</time>
      </trkpt>
      <trkpt lat="44.59702" lon="0.77927">
        <ele>168.9</ele>
        <time>2021-07-23T08:57:56Z</time>
      </trkpt>
      <trkpt lat="44.59708" lon="0.77917">
        <ele>169.2</ele>
        <time>2021-07-23T08:58:01Z</time>
      </trkpt>
      <trkpt lat="44.59713" lon="0.77908">
        <ele>169.4</ele>
        <time>2021-07-23T08:58:05Z</time>
      </trkpt>
      <trkpt lat="44.59721" lon="0.77889">
        <ele>170.2</ele>
        <time>2021-07-23T08:58:12Z</time>
      </trkpt>
      <trkpt lat="44.59727" lon="0.77873">
        <ele>171.3</ele>
        <time>2021-07-23T08:58:18Z</time>
      </trkpt>
      <trkpt lat="44.59729" lon="0.77869">
        <ele>171.6</ele>
        <time>2021-07-23T08:58:20Z</time>
      </trkpt>
      <trkpt lat="44.59731" lon="0.77866">
        <ele>171.8</ele>
        <time>2021-07-23T08:58:22Z</time>
      </trkpt>
      <trkpt lat="44.59736" lon="0.77848">
        <ele>172.8</ele>
        <time>2021-07-23T08:58:28Z</time>
      </trkpt>
      <trkpt lat="44.59742" lon="0.77836">
        <ele>173.5</ele>
        <time>2021-07-23T08:58:33Z</time>
      </trkpt>
      <trkpt lat="44.59743" lon="0.77833">
        <ele>173.6</ele>
        <time>2021-07-23T08:58:34Z</time>
      </trkpt>
      <trkpt lat="44.59745" lon="0.77825">
        <ele>174.1</ele>
        <time>2021-07-23T08:58:37Z</time>
      </trkpt>
      <trkpt lat="44.59747" lon="0.77819">
        <ele>174.4</ele>
        <time>2021-07-23T08:58:39Z</time>
      </trkpt>
      <trkpt lat="44.59752" lon="0.77804">
        <ele>175.4</ele>
        <time>2021-07-23T08:58:45Z</time>
      </trkpt>
      <trkpt lat="44.59758" lon="0.77791">
        <ele>176.3</ele>
        <time>2021-07-23T08:58:50Z</time>
      </trkpt>
      <trkpt lat="44.59766" lon="0.77775">
        <ele>177.4</ele>
        <time>2021-07-23T08:58:56Z</time>
      </trkpt>
      <trkpt lat="44.59767" lon="0.77773">
        <ele>177.6</ele>
        <time>2021-07-23T08:58:57Z</time>
      </trkpt>
      <trkpt lat="44.5977" lon="0.77763">
        <ele>178.3</ele>
        <time>2021-07-23T08:59:01Z</time>
      </trkpt>
      <trkpt lat="44.59776" lon="0.77743">
        <ele>179.4</ele>
        <time>2021-07-23T08:59:08Z</time>
      </trkpt>
      <trkpt lat="44.59784" lon="0.77722">
        <ele>180.6</ele>
        <time>2021-07-23T08:59:16Z</time>
      </trkpt>
      <trkpt lat="44.5979" lon="0.77707">
        <ele>181.3</ele>
        <time>2021-07-23T08:59:22Z</time>
      </trkpt>
      <trkpt lat="44.59791" lon="0.77705">
        <ele>181.4</ele>
        <time>2021-07-23T08:59:23Z</time>
      </trkpt>
      <trkpt lat="44.59794" lon="0.77697">
        <ele>181.8</ele>
        <time>2021-07-23T08:59:26Z</time>
      </trkpt>
      <trkpt lat="44.59801" lon="0.77679">
        <ele>182.7</ele>
        <time>2021-07-23T08:59:33Z</time>
      </trkpt>
      <trkpt lat="44.59807" lon="0.77661">
        <ele>183.7</ele>
        <time>2021-07-23T08:59:39Z</time>
      </trkpt>
      <trkpt lat="44.59814" lon="0.77645">
        <ele>184.7</ele>
        <time>2021-07-23T08:59:45Z</time>
      </trkpt>
      <trkpt lat="44.5982" lon="0.77628">
        <ele>185.8</ele>
        <time>2021-07-23T08:59:51Z</time>
      </trkpt>
      <trkpt lat="44.59822" lon="0.77622">
        <ele>186.2</ele>
        <time>2021-07-23T08:59:53Z</time>
      </trkpt>
      <trkpt lat="44.59824" lon="0.77614">
        <ele>186.7</ele>
        <time>2021-07-23T08:59:56Z</time>
      </trkpt>
      <trkpt lat="44.59829" lon="0.77601">
        <ele>187.5</ele>
        <time>2021-07-23T09:00:01Z</time>
      </trkpt>
      <trkpt lat="44.59831" lon="0.77597">
        <ele>187.8</ele>
        <time>2021-07-23T09:00:03Z</time>
      </trkpt>
      <trkpt lat="44.59833" lon="0.77587">
        <ele>188.4</ele>
        <time>2021-07-23T09:00:06Z</time>
      </trkpt>
      <trkpt lat="44.59835" lon="0.7757">
        <ele>189.2</ele>
        <time>2021-07-23T09:00:11Z</time>
      </trkpt>
      <trkpt lat="44.59835" lon="0.77566">
        <ele>189.3</ele>
        <time>2021-07-23T09:00:12Z</time>
      </trkpt>
      <trkpt lat="44.59836" lon="0.7755">
        <ele>189.4</ele>
        <time>2021-07-23T09:00:15Z</time>
      </trkpt>
      <trkpt lat="44.59835" lon="0.77543">
        <ele>189.3</ele>
        <time>2021-07-23T09:00:16Z</time>
      </trkpt>
      <trkpt lat="44.59834" lon="0.77527">
        <ele>189</ele>
        <time>2021-07-23T09:00:18Z</time>
      </trkpt>
      <trkpt lat="44.59832" lon="0.77504">
        <ele>188.6</ele>
        <time>2021-07-23T09:00:21Z</time>
      </trkpt>
      <trkpt lat="44.59836" lon="0.77467">
        <ele>188.6</ele>
        <time>2021-07-23T09:00:27Z</time>
      </trkpt>
      <trkpt lat="44.59842" lon="0.77436">
        <ele>188.7</ele>
        <time>2021-07-23T09:00:33Z</time>
      </trkpt>
      <trkpt lat="44.59851" lon="0.77403">
        <ele>189</ele>
        <time>2021-07-23T09:00:39Z</time>
      </trkpt>
      <trkpt lat="44.59859" lon="0.77373">
        <ele>190</ele>
        <time>2021-07-23T09:00:45Z</time>
      </trkpt>
      <trkpt lat="44.59866" lon="0.77357">
        <ele>191.2</ele>
        <time>2021-07-23T09:00:49Z</time>
      </trkpt>
      <trkpt lat="44.59871" lon="0.77342">
        <ele>192.7</ele>
        <time>2021-07-23T09:00:54Z</time>
      </trkpt>
      <trkpt lat="44.59874" lon="0.77333">
        <ele>193.8</ele>
        <time>2021-07-23T09:00:59Z</time>
      </trkpt>
      <trkpt lat="44.59878" lon="0.77321">
        <ele>195</ele>
        <time>2021-07-23T09:01:05Z</time>
      </trkpt>
      <trkpt lat="44.5988" lon="0.77313">
        <ele>195.7</ele>
        <time>2021-07-23T09:01:09Z</time>
      </trkpt>
      <trkpt lat="44.59882" lon="0.77307">
        <ele>196</ele>
        <time>2021-07-23T09:01:11Z</time>
      </trkpt>
      <trkpt lat="44.59887" lon="0.77286">
        <ele>196.1</ele>
        <time>2021-07-23T09:01:15Z</time>
      </trkpt>
      <trkpt lat="44.59888" lon="0.77279">
        <ele>196</ele>
        <time>2021-07-23T09:01:16Z</time>
      </trkpt>
      <trkpt lat="44.59891" lon="0.77248">
        <ele>195.1</ele>
        <time>2021-07-23T09:01:20Z</time>
      </trkpt>
      <trkpt lat="44.59891" lon="0.7724">
        <ele>194.8</ele>
        <time>2021-07-23T09:01:21Z</time>
      </trkpt>
      <trkpt lat="44.59895" lon="0.77195">
        <ele>192.5</ele>
        <time>2021-07-23T09:01:26Z</time>
      </trkpt>
      <trkpt lat="44.59897" lon="0.77169">
        <ele>191.7</ele>
        <time>2021-07-23T09:01:29Z</time>
      </trkpt>
      <trkpt lat="44.59897" lon="0.77157">
        <ele>191.5</ele>
        <time>2021-07-23T09:01:31Z</time>
      </trkpt>
      <trkpt lat="44.599" lon="0.7714">
        <ele>191.1</ele>
        <time>2021-07-23T09:01:34Z</time>
      </trkpt>
      <trkpt lat="44.599" lon="0.77134">
        <ele>191</ele>
        <time>2021-07-23T09:01:35Z</time>
      </trkpt>
      <trkpt lat="44.59906" lon="0.77119">
        <ele>190.7</ele>
        <time>2021-07-23T09:01:38Z</time>
      </trkpt>
      <trkpt lat="44.59908" lon="0.77114">
        <ele>190.6</ele>
        <time>2021-07-23T09:01:39Z</time>
      </trkpt>
      <trkpt lat="44.59919" lon="0.77102">
        <ele>190.4</ele>
        <time>2021-07-23T09:01:42Z</time>
      </trkpt>
      <trkpt lat="44.59923" lon="0.77098">
        <ele>190.3</ele>
        <time>2021-07-23T09:01:43Z</time>
      </trkpt>
      <trkpt lat="44.59949" lon="0.77076">
        <ele>189.3</ele>
        <time>2021-07-23T09:01:48Z</time>
      </trkpt>
      <trkpt lat="44.59983" lon="0.77047">
        <ele>188.2</ele>
        <time>2021-07-23T09:01:54Z</time>
      </trkpt>
      <trkpt lat="44.59988" lon="0.77044">
        <ele>188</ele>
        <time>2021-07-23T09:01:55Z</time>
      </trkpt>
      <trkpt lat="44.59995" lon="0.77037">
        <ele>187.7</ele>
        <time>2021-07-23T09:01:57Z</time>
      </trkpt>
      <trkpt lat="44.59998" lon="0.77031">
        <ele>187.4</ele>
        <time>2021-07-23T09:01:59Z</time>
      </trkpt>
      <trkpt lat="44.59999" lon="0.77029">
        <ele>187.3</ele>
        <time>2021-07-23T09:02:00Z</time>
      </trkpt>
      <trkpt lat="44.60001" lon="0.7702">
        <ele>186.9</ele>
        <time>2021-07-23T09:02:02Z</time>
      </trkpt>
      <trkpt lat="44.6" lon="0.77012">
        <ele>186.5</ele>
        <time>2021-07-23T09:02:03Z</time>
      </trkpt>
      <trkpt lat="44.59999" lon="0.77005">
        <ele>186.2</ele>
        <time>2021-07-23T09:02:04Z</time>
      </trkpt>
      <trkpt lat="44.59997" lon="0.76972">
        <ele>184.7</ele>
        <time>2021-07-23T09:02:08Z</time>
      </trkpt>
      <trkpt lat="44.59997" lon="0.76949">
        <ele>183.7</ele>
        <time>2021-07-23T09:02:11Z</time>
      </trkpt>
      <trkpt lat="44.59997" lon="0.76942">
        <ele>183.4</ele>
        <time>2021-07-23T09:02:12Z</time>
      </trkpt>
      <trkpt lat="44.59995" lon="0.76935">
        <ele>183.1</ele>
        <time>2021-07-23T09:02:13Z</time>
      </trkpt>
      <trkpt lat="44.59992" lon="0.76919">
        <ele>182.3</ele>
        <time>2021-07-23T09:02:15Z</time>
      </trkpt>
      <trkpt lat="44.59991" lon="0.76901">
        <ele>181.2</ele>
        <time>2021-07-23T09:02:17Z</time>
      </trkpt>
      <trkpt lat="44.5999" lon="0.76888">
        <ele>180.5</ele>
        <time>2021-07-23T09:02:19Z</time>
      </trkpt>
      <trkpt lat="44.59993" lon="0.7688">
        <ele>179.9</ele>
        <time>2021-07-23T09:02:21Z</time>
      </trkpt>
      <trkpt lat="44.59998" lon="0.76877">
        <ele>179.5</ele>
        <time>2021-07-23T09:02:23Z</time>
      </trkpt>
      <trkpt lat="44.60014" lon="0.76876">
        <ele>178.5</ele>
        <time>2021-07-23T09:02:28Z</time>
      </trkpt>
      <trkpt lat="44.60034" lon="0.7688">
        <ele>177.4</ele>
        <time>2021-07-23T09:02:34Z</time>
      </trkpt>
      <trkpt lat="44.60049" lon="0.76885">
        <ele>176.5</ele>
        <time>2021-07-23T09:02:37Z</time>
      </trkpt>
      <trkpt lat="44.60059" lon="0.7689">
        <ele>175.9</ele>
        <time>2021-07-23T09:02:39Z</time>
      </trkpt>
      <trkpt lat="44.6009" lon="0.76904">
        <ele>174.5</ele>
        <time>2021-07-23T09:02:45Z</time>
      </trkpt>
      <trkpt lat="44.60109" lon="0.76909">
        <ele>173.8</ele>
        <time>2021-07-23T09:02:49Z</time>
      </trkpt>
      <trkpt lat="44.60131" lon="0.76907">
        <ele>172.9</ele>
        <time>2021-07-23T09:02:54Z</time>
      </trkpt>
      <trkpt lat="44.60156" lon="0.76904">
        <ele>171.6</ele>
        <time>2021-07-23T09:02:59Z</time>
      </trkpt>
      <trkpt lat="44.60172" lon="0.76904">
        <ele>171.1</ele>
        <time>2021-07-23T09:03:02Z</time>
      </trkpt>
      <trkpt lat="44.60186" lon="0.76905">
        <ele>170.5</ele>
        <time>2021-07-23T09:03:05Z</time>
      </trkpt>
      <trkpt lat="44.60214" lon="0.76913">
        <ele>169.3</ele>
        <time>2021-07-23T09:03:11Z</time>
      </trkpt>
      <trkpt lat="44.60243" lon="0.76918">
        <ele>167.9</ele>
        <time>2021-07-23T09:03:16Z</time>
      </trkpt>
      <trkpt lat="44.60281" lon="0.76915">
        <ele>166.3</ele>
        <time>2021-07-23T09:03:22Z</time>
      </trkpt>
      <trkpt lat="44.60318" lon="0.76903">
        <ele>164.9</ele>
        <time>2021-07-23T09:03:28Z</time>
      </trkpt>
      <trkpt lat="44.60335" lon="0.76897">
        <ele>164.4</ele>
        <time>2021-07-23T09:03:31Z</time>
      </trkpt>
      <trkpt lat="44.60346" lon="0.76892">
        <ele>163.9</ele>
        <time>2021-07-23T09:03:33Z</time>
      </trkpt>
      <trkpt lat="44.60377" lon="0.76869">
        <ele>162</ele>
        <time>2021-07-23T09:03:38Z</time>
      </trkpt>
      <trkpt lat="44.60383" lon="0.76863">
        <ele>161.6</ele>
        <time>2021-07-23T09:03:39Z</time>
      </trkpt>
      <trkpt lat="44.604" lon="0.76841">
        <ele>160.2</ele>
        <time>2021-07-23T09:03:42Z</time>
      </trkpt>
      <trkpt lat="44.60435" lon="0.76796">
        <ele>157.8</ele>
        <time>2021-07-23T09:03:48Z</time>
      </trkpt>
      <trkpt lat="44.60471" lon="0.76752">
        <ele>156.6</ele>
        <time>2021-07-23T09:03:54Z</time>
      </trkpt>
      <trkpt lat="44.60497" lon="0.76721">
        <ele>155.7</ele>
        <time>2021-07-23T09:03:59Z</time>
      </trkpt>
      <trkpt lat="44.60501" lon="0.7671">
        <ele>155.4</ele>
        <time>2021-07-23T09:04:01Z</time>
      </trkpt>
      <trkpt lat="44.60497" lon="0.76701">
        <ele>155.1</ele>
        <time>2021-07-23T09:04:02Z</time>
      </trkpt>
      <trkpt lat="44.60492" lon="0.76695">
        <ele>154.2</ele>
        <time>2021-07-23T09:04:03Z</time>
      </trkpt>
      <trkpt lat="44.60482" lon="0.76687">
        <ele>153.4</ele>
        <time>2021-07-23T09:04:05Z</time>
      </trkpt>
      <trkpt lat="44.60456" lon="0.76663">
        <ele>152.3</ele>
        <time>2021-07-23T09:04:10Z</time>
      </trkpt>
      <trkpt lat="44.60426" lon="0.76637">
        <ele>151.9</ele>
        <time>2021-07-23T09:04:15Z</time>
      </trkpt>
      <trkpt lat="44.60398" lon="0.76614">
        <ele>153.2</ele>
        <time>2021-07-23T09:04:20Z</time>
      </trkpt>
      <trkpt lat="44.6038" lon="0.76598">
        <ele>154.3</ele>
        <time>2021-07-23T09:04:25Z</time>
      </trkpt>
      <trkpt lat="44.60367" lon="0.76588">
        <ele>154.2</ele>
        <time>2021-07-23T09:04:30Z</time>
      </trkpt>
      <trkpt lat="44.6035" lon="0.76576">
        <ele>153.7</ele>
        <time>2021-07-23T09:04:34Z</time>
      </trkpt>
      <trkpt lat="44.60316" lon="0.76553">
        <ele>152.7</ele>
        <time>2021-07-23T09:04:40Z</time>
      </trkpt>
      <trkpt lat="44.60285" lon="0.76531">
        <ele>151.9</ele>
        <time>2021-07-23T09:04:46Z</time>
      </trkpt>
      <trkpt lat="44.60249" lon="0.76506">
        <ele>150.9</ele>
        <time>2021-07-23T09:04:53Z</time>
      </trkpt>
      <trkpt lat="44.60201" lon="0.76472">
        <ele>149.2</ele>
        <time>2021-07-23T09:05:02Z</time>
      </trkpt>
      <trkpt lat="44.60162" lon="0.76444">
        <ele>149.8</ele>
        <time>2021-07-23T09:05:10Z</time>
      </trkpt>
      <trkpt lat="44.6014" lon="0.76427">
        <ele>150.5</ele>
        <time>2021-07-23T09:05:16Z</time>
      </trkpt>
      <trkpt lat="44.60116" lon="0.76408">
        <ele>149.5</ele>
        <time>2021-07-23T09:05:23Z</time>
      </trkpt>
      <trkpt lat="44.60086" lon="0.76383">
        <ele>147.3</ele>
        <time>2021-07-23T09:05:29Z</time>
      </trkpt>
      <trkpt lat="44.6006" lon="0.76361">
        <ele>146.2</ele>
        <time>2021-07-23T09:05:34Z</time>
      </trkpt>
      <trkpt lat="44.60052" lon="0.76349">
        <ele>145.9</ele>
        <time>2021-07-23T09:05:36Z</time>
      </trkpt>
      <trkpt lat="44.60043" lon="0.76324">
        <ele>145.3</ele>
        <time>2021-07-23T09:05:40Z</time>
      </trkpt>
      <trkpt lat="44.6004" lon="0.76319">
        <ele>145.2</ele>
        <time>2021-07-23T09:05:41Z</time>
      </trkpt>
      <trkpt lat="44.60037" lon="0.76313">
        <ele>145</ele>
        <time>2021-07-23T09:05:42Z</time>
      </trkpt>
      <trkpt lat="44.60027" lon="0.76303">
        <ele>144.9</ele>
        <time>2021-07-23T09:05:45Z</time>
      </trkpt>
      <trkpt lat="44.59999" lon="0.76286">
        <ele>145</ele>
        <time>2021-07-23T09:05:52Z</time>
      </trkpt>
      <trkpt lat="44.59992" lon="0.76281">
        <ele>145.3</ele>
        <time>2021-07-23T09:05:54Z</time>
      </trkpt>
      <trkpt lat="44.59979" lon="0.76277">
        <ele>145.9</ele>
        <time>2021-07-23T09:05:57Z</time>
      </trkpt>
      <trkpt lat="44.59975" lon="0.76275">
        <ele>146.1</ele>
        <time>2021-07-23T09:05:58Z</time>
      </trkpt>
      <trkpt lat="44.59971" lon="0.76273">
        <ele>146.4</ele>
        <time>2021-07-23T09:05:59Z</time>
      </trkpt>
      <trkpt lat="44.59959" lon="0.76269">
        <ele>147.4</ele>
        <time>2021-07-23T09:06:02Z</time>
      </trkpt>
      <trkpt lat="44.59942" lon="0.7627">
        <ele>148.9</ele>
        <time>2021-07-23T09:06:08Z</time>
      </trkpt>
      <trkpt lat="44.59929" lon="0.76261">
        <ele>148.5</ele>
        <time>2021-07-23T09:06:13Z</time>
      </trkpt>
      <trkpt lat="44.59911" lon="0.76251">
        <ele>147.4</ele>
        <time>2021-07-23T09:06:18Z</time>
      </trkpt>
      <trkpt lat="44.59907" lon="0.76248">
        <ele>147</ele>
        <time>2021-07-23T09:06:19Z</time>
      </trkpt>
      <trkpt lat="44.59873" lon="0.76231">
        <ele>144.8</ele>
        <time>2021-07-23T09:06:25Z</time>
      </trkpt>
      <trkpt lat="44.59853" lon="0.7622">
        <ele>144</ele>
        <time>2021-07-23T09:06:28Z</time>
      </trkpt>
      <trkpt lat="44.59843" lon="0.76208">
        <ele>143.6</ele>
        <time>2021-07-23T09:06:30Z</time>
      </trkpt>
      <trkpt lat="44.59841" lon="0.7619">
        <ele>143</ele>
        <time>2021-07-23T09:06:32Z</time>
      </trkpt>
      <trkpt lat="44.59843" lon="0.7617">
        <ele>142.2</ele>
        <time>2021-07-23T09:06:34Z</time>
      </trkpt>
      <trkpt lat="44.59847" lon="0.7615">
        <ele>141.2</ele>
        <time>2021-07-23T09:06:36Z</time>
      </trkpt>
      <trkpt lat="44.59859" lon="0.76081">
        <ele>138.7</ele>
        <time>2021-07-23T09:06:42Z</time>
      </trkpt>
      <trkpt lat="44.59867" lon="0.76007">
        <ele>137.4</ele>
        <time>2021-07-23T09:06:48Z</time>
      </trkpt>
      <trkpt lat="44.5988" lon="0.75956">
        <ele>137.1</ele>
        <time>2021-07-23T09:06:53Z</time>
      </trkpt>
      <trkpt lat="44.59899" lon="0.75883">
        <ele>136.5</ele>
        <time>2021-07-23T09:07:01Z</time>
      </trkpt>
      <trkpt lat="44.59905" lon="0.75848">
        <ele>136.5</ele>
        <time>2021-07-23T09:07:05Z</time>
      </trkpt>
      <trkpt lat="44.59905" lon="0.75839">
        <ele>136.5</ele>
        <time>2021-07-23T09:07:06Z</time>
      </trkpt>
      <trkpt lat="44.59907" lon="0.75814">
        <ele>136.9</ele>
        <time>2021-07-23T09:07:09Z</time>
      </trkpt>
      <trkpt lat="44.5991" lon="0.758">
        <ele>137.2</ele>
        <time>2021-07-23T09:07:11Z</time>
      </trkpt>
      <trkpt lat="44.5992" lon="0.75785">
        <ele>137.7</ele>
        <time>2021-07-23T09:07:15Z</time>
      </trkpt>
      <trkpt lat="44.59929" lon="0.75788">
        <ele>137.8</ele>
        <time>2021-07-23T09:07:17Z</time>
      </trkpt>
      <trkpt lat="44.59938" lon="0.75794">
        <ele>137.9</ele>
        <time>2021-07-23T09:07:19Z</time>
      </trkpt>
      <trkpt lat="44.59977" lon="0.75813">
        <ele>138.3</ele>
        <time>2021-07-23T09:07:28Z</time>
      </trkpt>
      <trkpt lat="44.59998" lon="0.75821">
        <ele>138.6</ele>
        <time>2021-07-23T09:07:33Z</time>
      </trkpt>
      <trkpt lat="44.60003" lon="0.75822">
        <ele>138.7</ele>
        <time>2021-07-23T09:07:34Z</time>
      </trkpt>
      <trkpt lat="44.60011" lon="0.7582">
        <ele>139</ele>
        <time>2021-07-23T09:07:36Z</time>
      </trkpt>
      <trkpt lat="44.60024" lon="0.75802">
        <ele>139.9</ele>
        <time>2021-07-23T09:07:40Z</time>
      </trkpt>
      <trkpt lat="44.60035" lon="0.75783">
        <ele>140.8</ele>
        <time>2021-07-23T09:07:45Z</time>
      </trkpt>
      <trkpt lat="44.60047" lon="0.75763">
        <ele>141.7</ele>
        <time>2021-07-23T09:07:50Z</time>
      </trkpt>
      <trkpt lat="44.6006" lon="0.75745">
        <ele>142.8</ele>
        <time>2021-07-23T09:07:55Z</time>
      </trkpt>
      <trkpt lat="44.60069" lon="0.75728">
        <ele>143.7</ele>
        <time>2021-07-23T09:07:59Z</time>
      </trkpt>
      <trkpt lat="44.60071" lon="0.75724">
        <ele>144</ele>
        <time>2021-07-23T09:08:00Z</time>
      </trkpt>
      <trkpt lat="44.60082" lon="0.75706">
        <ele>145</ele>
        <time>2021-07-23T09:08:05Z</time>
      </trkpt>
      <trkpt lat="44.60095" lon="0.75683">
        <ele>146.4</ele>
        <time>2021-07-23T09:08:12Z</time>
      </trkpt>
      <trkpt lat="44.60105" lon="0.75664">
        <ele>147.8</ele>
        <time>2021-07-23T09:08:18Z</time>
      </trkpt>
      <trkpt lat="44.60112" lon="0.75654">
        <ele>148.8</ele>
        <time>2021-07-23T09:08:22Z</time>
      </trkpt>
      <trkpt lat="44.60114" lon="0.75651">
        <ele>149</ele>
        <time>2021-07-23T09:08:23Z</time>
      </trkpt>
      <trkpt lat="44.6012" lon="0.7564">
        <ele>150</ele>
        <time>2021-07-23T09:08:28Z</time>
      </trkpt>
      <trkpt lat="44.60127" lon="0.75631">
        <ele>151.3</ele>
        <time>2021-07-23T09:08:33Z</time>
      </trkpt>
      <trkpt lat="44.60131" lon="0.75625">
        <ele>152.1</ele>
        <time>2021-07-23T09:08:36Z</time>
      </trkpt>
      <trkpt lat="44.60133" lon="0.75622">
        <ele>152.5</ele>
        <time>2021-07-23T09:08:38Z</time>
      </trkpt>
      <trkpt lat="44.60139" lon="0.75612">
        <ele>153.6</ele>
        <time>2021-07-23T09:08:44Z</time>
      </trkpt>
      <trkpt lat="44.6014" lon="0.7561">
        <ele>153.7</ele>
        <time>2021-07-23T09:08:45Z</time>
      </trkpt>
      <trkpt lat="44.60147" lon="0.75596">
        <ele>155.1</ele>
        <time>2021-07-23T09:08:54Z</time>
      </trkpt>
      <trkpt lat="44.6015" lon="0.7559">
        <ele>155.8</ele>
        <time>2021-07-23T09:08:59Z</time>
      </trkpt>
      <trkpt lat="44.60151" lon="0.75588">
        <ele>156</ele>
        <time>2021-07-23T09:09:00Z</time>
      </trkpt>
      <trkpt lat="44.60155" lon="0.75582">
        <ele>156.7</ele>
        <time>2021-07-23T09:09:05Z</time>
      </trkpt>
      <trkpt lat="44.60159" lon="0.75575">
        <ele>157.4</ele>
        <time>2021-07-23T09:09:10Z</time>
      </trkpt>
      <trkpt lat="44.60166" lon="0.75563">
        <ele>158.4</ele>
        <time>2021-07-23T09:09:17Z</time>
      </trkpt>
      <trkpt lat="44.60172" lon="0.75554">
        <ele>159.2</ele>
        <time>2021-07-23T09:09:23Z</time>
      </trkpt>
      <trkpt lat="44.60177" lon="0.75543">
        <ele>159.9</ele>
        <time>2021-07-23T09:09:29Z</time>
      </trkpt>
      <trkpt lat="44.60183" lon="0.75534">
        <ele>160.4</ele>
        <time>2021-07-23T09:09:34Z</time>
      </trkpt>
      <trkpt lat="44.60191" lon="0.7552">
        <ele>161.1</ele>
        <time>2021-07-23T09:09:41Z</time>
      </trkpt>
      <trkpt lat="44.60192" lon="0.75518">
        <ele>161.2</ele>
        <time>2021-07-23T09:09:42Z</time>
      </trkpt>
      <trkpt lat="44.60194" lon="0.75516">
        <ele>161.3</ele>
        <time>2021-07-23T09:09:43Z</time>
      </trkpt>
      <trkpt lat="44.60199" lon="0.75504">
        <ele>161.8</ele>
        <time>2021-07-23T09:09:47Z</time>
      </trkpt>
      <trkpt lat="44.60207" lon="0.7549">
        <ele>162.4</ele>
        <time>2021-07-23T09:09:52Z</time>
      </trkpt>
      <trkpt lat="44.60215" lon="0.75479">
        <ele>163</ele>
        <time>2021-07-23T09:09:57Z</time>
      </trkpt>
      <trkpt lat="44.60225" lon="0.75462">
        <ele>163.8</ele>
        <time>2021-07-23T09:10:04Z</time>
      </trkpt>
      <trkpt lat="44.60234" lon="0.75439">
        <ele>164.2</ele>
        <time>2021-07-23T09:10:11Z</time>
      </trkpt>
      <trkpt lat="44.60244" lon="0.75416">
        <ele>164.3</ele>
        <time>2021-07-23T09:10:17Z</time>
      </trkpt>
      <trkpt lat="44.60249" lon="0.75409">
        <ele>164.2</ele>
        <time>2021-07-23T09:10:19Z</time>
      </trkpt>
      <trkpt lat="44.60256" lon="0.75403">
        <ele>164</ele>
        <time>2021-07-23T09:10:21Z</time>
      </trkpt>
      <trkpt lat="44.6027" lon="0.75403">
        <ele>163.5</ele>
        <time>2021-07-23T09:10:24Z</time>
      </trkpt>
      <trkpt lat="44.60275" lon="0.75405">
        <ele>163.3</ele>
        <time>2021-07-23T09:10:25Z</time>
      </trkpt>
      <trkpt lat="44.60308" lon="0.75418">
        <ele>162.2</ele>
        <time>2021-07-23T09:10:31Z</time>
      </trkpt>
      <trkpt lat="44.60342" lon="0.75437">
        <ele>160.9</ele>
        <time>2021-07-23T09:10:37Z</time>
      </trkpt>
      <trkpt lat="44.60358" lon="0.75448">
        <ele>160.4</ele>
        <time>2021-07-23T09:10:40Z</time>
      </trkpt>
      <trkpt lat="44.60368" lon="0.75456">
        <ele>160.2</ele>
        <time>2021-07-23T09:10:42Z</time>
      </trkpt>
      <trkpt lat="44.60395" lon="0.75476">
        <ele>160</ele>
        <time>2021-07-23T09:10:47Z</time>
      </trkpt>
      <trkpt lat="44.604" lon="0.75479">
        <ele>160</ele>
        <time>2021-07-23T09:10:48Z</time>
      </trkpt>
      <trkpt lat="44.60415" lon="0.7549">
        <ele>159.9</ele>
        <time>2021-07-23T09:10:52Z</time>
      </trkpt>
      <trkpt lat="44.60419" lon="0.75493">
        <ele>159.9</ele>
        <time>2021-07-23T09:10:53Z</time>
      </trkpt>
      <trkpt lat="44.60428" lon="0.75496">
        <ele>159.8</ele>
        <time>2021-07-23T09:10:55Z</time>
      </trkpt>
      <trkpt lat="44.60436" lon="0.75501">
        <ele>159.7</ele>
        <time>2021-07-23T09:10:57Z</time>
      </trkpt>
      <trkpt lat="44.60455" lon="0.75509">
        <ele>159.5</ele>
        <time>2021-07-23T09:11:01Z</time>
      </trkpt>
      <trkpt lat="44.6046" lon="0.75511">
        <ele>159.5</ele>
        <time>2021-07-23T09:11:02Z</time>
      </trkpt>
      <trkpt lat="44.60465" lon="0.75512">
        <ele>159.4</ele>
        <time>2021-07-23T09:11:03Z</time>
      </trkpt>
      <trkpt lat="44.60485" lon="0.75513">
        <ele>159.2</ele>
        <time>2021-07-23T09:11:07Z</time>
      </trkpt>
      <trkpt lat="44.60508" lon="0.75512">
        <ele>159.1</ele>
        <time>2021-07-23T09:11:11Z</time>
      </trkpt>
      <trkpt lat="44.60514" lon="0.75511">
        <ele>159</ele>
        <time>2021-07-23T09:11:12Z</time>
      </trkpt>
      <trkpt lat="44.60524" lon="0.75507">
        <ele>158.9</ele>
        <time>2021-07-23T09:11:14Z</time>
      </trkpt>
      <trkpt lat="44.60529" lon="0.75506">
        <ele>158.9</ele>
        <time>2021-07-23T09:11:15Z</time>
      </trkpt>
      <trkpt lat="44.60552" lon="0.75503">
        <ele>158.9</ele>
        <time>2021-07-23T09:11:20Z</time>
      </trkpt>
      <trkpt lat="44.60557" lon="0.75504">
        <ele>158.9</ele>
        <time>2021-07-23T09:11:21Z</time>
      </trkpt>
      <trkpt lat="44.60562" lon="0.75506">
        <ele>158.9</ele>
        <time>2021-07-23T09:11:22Z</time>
      </trkpt>
      <trkpt lat="44.60577" lon="0.75509">
        <ele>159</ele>
        <time>2021-07-23T09:11:25Z</time>
      </trkpt>
      <trkpt lat="44.60592" lon="0.75507">
        <ele>159.1</ele>
        <time>2021-07-23T09:11:28Z</time>
      </trkpt>
      <trkpt lat="44.60608" lon="0.75504">
        <ele>159.3</ele>
        <time>2021-07-23T09:11:31Z</time>
      </trkpt>
      <trkpt lat="44.60635" lon="0.75501">
        <ele>159.8</ele>
        <time>2021-07-23T09:11:36Z</time>
      </trkpt>
      <trkpt lat="44.60659" lon="0.75499">
        <ele>160.2</ele>
        <time>2021-07-23T09:11:41Z</time>
      </trkpt>
      <trkpt lat="44.60685" lon="0.75498">
        <ele>161</ele>
        <time>2021-07-23T09:11:47Z</time>
      </trkpt>
      <trkpt lat="44.60701" lon="0.75497">
        <ele>161.5</ele>
        <time>2021-07-23T09:11:51Z</time>
      </trkpt>
      <trkpt lat="44.60705" lon="0.75496">
        <ele>161.6</ele>
        <time>2021-07-23T09:11:52Z</time>
      </trkpt>
      <trkpt lat="44.60718" lon="0.75494">
        <ele>162</ele>
        <time>2021-07-23T09:11:56Z</time>
      </trkpt>
      <trkpt lat="44.60743" lon="0.75493">
        <ele>162.7</ele>
        <time>2021-07-23T09:12:01Z</time>
      </trkpt>
      <trkpt lat="44.60748" lon="0.75493">
        <ele>162.8</ele>
        <time>2021-07-23T09:12:02Z</time>
      </trkpt>
      <trkpt lat="44.60767" lon="0.75496">
        <ele>163.3</ele>
        <time>2021-07-23T09:12:06Z</time>
      </trkpt>
      <trkpt lat="44.60776" lon="0.75496">
        <ele>163.6</ele>
        <time>2021-07-23T09:12:08Z</time>
      </trkpt>
      <trkpt lat="44.60781" lon="0.75496">
        <ele>163.7</ele>
        <time>2021-07-23T09:12:09Z</time>
      </trkpt>
      <trkpt lat="44.60804" lon="0.75496">
        <ele>164.7</ele>
        <time>2021-07-23T09:12:14Z</time>
      </trkpt>
      <trkpt lat="44.60826" lon="0.75489">
        <ele>166.1</ele>
        <time>2021-07-23T09:12:20Z</time>
      </trkpt>
      <trkpt lat="44.60842" lon="0.75483">
        <ele>167.2</ele>
        <time>2021-07-23T09:12:25Z</time>
      </trkpt>
      <trkpt lat="44.60856" lon="0.7548">
        <ele>168.4</ele>
        <time>2021-07-23T09:12:30Z</time>
      </trkpt>
      <trkpt lat="44.60865" lon="0.75473">
        <ele>169.2</ele>
        <time>2021-07-23T09:12:34Z</time>
      </trkpt>
      <trkpt lat="44.60881" lon="0.7546">
        <ele>170.7</ele>
        <time>2021-07-23T09:12:41Z</time>
      </trkpt>
      <trkpt lat="44.60893" lon="0.75453">
        <ele>171.3</ele>
        <time>2021-07-23T09:12:46Z</time>
      </trkpt>
      <trkpt lat="44.6091" lon="0.75447">
        <ele>171.9</ele>
        <time>2021-07-23T09:12:52Z</time>
      </trkpt>
      <trkpt lat="44.60927" lon="0.75437">
        <ele>172.1</ele>
        <time>2021-07-23T09:12:58Z</time>
      </trkpt>
      <trkpt lat="44.60944" lon="0.7543">
        <ele>171.7</ele>
        <time>2021-07-23T09:13:04Z</time>
      </trkpt>
      <trkpt lat="44.60969" lon="0.75421">
        <ele>170</ele>
        <time>2021-07-23T09:13:09Z</time>
      </trkpt>
      <trkpt lat="44.61002" lon="0.75403">
        <ele>167.2</ele>
        <time>2021-07-23T09:13:14Z</time>
      </trkpt>
      <trkpt lat="44.61034" lon="0.75387">
        <ele>164.9</ele>
        <time>2021-07-23T09:13:18Z</time>
      </trkpt>
      <trkpt lat="44.61076" lon="0.75369">
        <ele>162.3</ele>
        <time>2021-07-23T09:13:23Z</time>
      </trkpt>
      <trkpt lat="44.61135" lon="0.75349">
        <ele>160.5</ele>
        <time>2021-07-23T09:13:30Z</time>
      </trkpt>
      <trkpt lat="44.61142" lon="0.75347">
        <ele>160.3</ele>
        <time>2021-07-23T09:13:31Z</time>
      </trkpt>
      <trkpt lat="44.61154" lon="0.75346">
        <ele>159.9</ele>
        <time>2021-07-23T09:13:33Z</time>
      </trkpt>
      <trkpt lat="44.6116" lon="0.75346">
        <ele>159.7</ele>
        <time>2021-07-23T09:13:34Z</time>
      </trkpt>
      <trkpt lat="44.61166" lon="0.75347">
        <ele>159.4</ele>
        <time>2021-07-23T09:13:35Z</time>
      </trkpt>
      <trkpt lat="44.61192" lon="0.75345">
        <ele>158.1</ele>
        <time>2021-07-23T09:13:39Z</time>
      </trkpt>
      <trkpt lat="44.61235" lon="0.75339">
        <ele>154.5</ele>
        <time>2021-07-23T09:13:45Z</time>
      </trkpt>
      <trkpt lat="44.61281" lon="0.75333">
        <ele>149.9</ele>
        <time>2021-07-23T09:13:51Z</time>
      </trkpt>
      <trkpt lat="44.61296" lon="0.75333">
        <ele>147.9</ele>
        <time>2021-07-23T09:13:53Z</time>
      </trkpt>
      <trkpt lat="44.61312" lon="0.7534">
        <ele>145.7</ele>
        <time>2021-07-23T09:13:55Z</time>
      </trkpt>
      <trkpt lat="44.61354" lon="0.75371">
        <ele>141.6</ele>
        <time>2021-07-23T09:14:00Z</time>
      </trkpt>
      <trkpt lat="44.61406" lon="0.75409">
        <ele>139.6</ele>
        <time>2021-07-23T09:14:06Z</time>
      </trkpt>
      <trkpt lat="44.61413" lon="0.75416">
        <ele>139.3</ele>
        <time>2021-07-23T09:14:07Z</time>
      </trkpt>
      <trkpt lat="44.61433" lon="0.75431">
        <ele>138.7</ele>
        <time>2021-07-23T09:14:10Z</time>
      </trkpt>
      <trkpt lat="44.61442" lon="0.75432">
        <ele>138.2</ele>
        <time>2021-07-23T09:14:12Z</time>
      </trkpt>
      <trkpt lat="44.61447" lon="0.75433">
        <ele>137.9</ele>
        <time>2021-07-23T09:14:13Z</time>
      </trkpt>
      <trkpt lat="44.61451" lon="0.75434">
        <ele>137.5</ele>
        <time>2021-07-23T09:14:14Z</time>
      </trkpt>
      <trkpt lat="44.61461" lon="0.75437">
        <ele>136.5</ele>
        <time>2021-07-23T09:14:16Z</time>
      </trkpt>
      <trkpt lat="44.61467" lon="0.75438">
        <ele>135.8</ele>
        <time>2021-07-23T09:14:17Z</time>
      </trkpt>
      <trkpt lat="44.61496" lon="0.75441">
        <ele>130.4</ele>
        <time>2021-07-23T09:14:22Z</time>
      </trkpt>
      <trkpt lat="44.61524" lon="0.75441">
        <ele>125.7</ele>
        <time>2021-07-23T09:14:25Z</time>
      </trkpt>
      <trkpt lat="44.61579" lon="0.75435">
        <ele>121.8</ele>
        <time>2021-07-23T09:14:30Z</time>
      </trkpt>
      <trkpt lat="44.61589" lon="0.75433">
        <ele>121.5</ele>
        <time>2021-07-23T09:14:31Z</time>
      </trkpt>
      <trkpt lat="44.61636" lon="0.75431">
        <ele>120.1</ele>
        <time>2021-07-23T09:14:36Z</time>
      </trkpt>
      <trkpt lat="44.61697" lon="0.75427">
        <ele>117.8</ele>
        <time>2021-07-23T09:14:43Z</time>
      </trkpt>
      <trkpt lat="44.6175" lon="0.75425">
        <ele>115.7</ele>
        <time>2021-07-23T09:14:49Z</time>
      </trkpt>
      <trkpt lat="44.61808" lon="0.75431">
        <ele>114.1</ele>
        <time>2021-07-23T09:14:56Z</time>
      </trkpt>
      <trkpt lat="44.61865" lon="0.75439">
        <ele>113.2</ele>
        <time>2021-07-23T09:15:04Z</time>
      </trkpt>
      <trkpt lat="44.61906" lon="0.75444">
        <ele>112.5</ele>
        <time>2021-07-23T09:15:11Z</time>
      </trkpt>
      <trkpt lat="44.61958" lon="0.75442">
        <ele>111.7</ele>
        <time>2021-07-23T09:15:20Z</time>
      </trkpt>
      <trkpt lat="44.6198" lon="0.75443">
        <ele>111.5</ele>
        <time>2021-07-23T09:15:24Z</time>
      </trkpt>
      <trkpt lat="44.6199" lon="0.75441">
        <ele>111.4</ele>
        <time>2021-07-23T09:15:26Z</time>
      </trkpt>
      <trkpt lat="44.6201" lon="0.7544">
        <ele>111.2</ele>
        <time>2021-07-23T09:15:30Z</time>
      </trkpt>
      <trkpt lat="44.6202" lon="0.75441">
        <ele>111.1</ele>
        <time>2021-07-23T09:15:32Z</time>
      </trkpt>
      <trkpt lat="44.62063" lon="0.75449">
        <ele>111.1</ele>
        <time>2021-07-23T09:15:40Z</time>
      </trkpt>
      <trkpt lat="44.62102" lon="0.75455">
        <ele>111.3</ele>
        <time>2021-07-23T09:15:47Z</time>
      </trkpt>
      <trkpt lat="44.62113" lon="0.75458">
        <ele>111.3</ele>
        <time>2021-07-23T09:15:49Z</time>
      </trkpt>
      <trkpt lat="44.62153" lon="0.75465">
        <ele>111</ele>
        <time>2021-07-23T09:15:56Z</time>
      </trkpt>
      <trkpt lat="44.62191" lon="0.75465">
        <ele>110.2</ele>
        <time>2021-07-23T09:16:02Z</time>
      </trkpt>
      <trkpt lat="44.62221" lon="0.75458">
        <ele>109.8</ele>
        <time>2021-07-23T09:16:07Z</time>
      </trkpt>
      <trkpt lat="44.62233" lon="0.75459">
        <ele>109.7</ele>
        <time>2021-07-23T09:16:09Z</time>
      </trkpt>
      <trkpt lat="44.62269" lon="0.7546">
        <ele>109.4</ele>
        <time>2021-07-23T09:16:15Z</time>
      </trkpt>
      <trkpt lat="44.62306" lon="0.75458">
        <ele>109.2</ele>
        <time>2021-07-23T09:16:21Z</time>
      </trkpt>
      <trkpt lat="44.62338" lon="0.75454">
        <ele>109.2</ele>
        <time>2021-07-23T09:16:27Z</time>
      </trkpt>
      <trkpt lat="44.62363" lon="0.75452">
        <ele>109.5</ele>
        <time>2021-07-23T09:16:33Z</time>
      </trkpt>
      <trkpt lat="44.62379" lon="0.75448">
        <ele>109.7</ele>
        <time>2021-07-23T09:16:37Z</time>
      </trkpt>
      <trkpt lat="44.62388" lon="0.75444">
        <ele>109.9</ele>
        <time>2021-07-23T09:16:39Z</time>
      </trkpt>
      <trkpt lat="44.62417" lon="0.75426">
        <ele>110.3</ele>
        <time>2021-07-23T09:16:45Z</time>
      </trkpt>
      <trkpt lat="44.62444" lon="0.75398">
        <ele>110.7</ele>
        <time>2021-07-23T09:16:51Z</time>
      </trkpt>
      <trkpt lat="44.62456" lon="0.75382">
        <ele>110.7</ele>
        <time>2021-07-23T09:16:54Z</time>
      </trkpt>
      <trkpt lat="44.62465" lon="0.75371">
        <ele>110.4</ele>
        <time>2021-07-23T09:16:56Z</time>
      </trkpt>
      <trkpt lat="44.62469" lon="0.75365">
        <ele>110.3</ele>
        <time>2021-07-23T09:16:57Z</time>
      </trkpt>
      <trkpt lat="44.62488" lon="0.75338">
        <ele>109.5</ele>
        <time>2021-07-23T09:17:01Z</time>
      </trkpt>
      <trkpt lat="44.62493" lon="0.75331">
        <ele>109.3</ele>
        <time>2021-07-23T09:17:02Z</time>
      </trkpt>
      <trkpt lat="44.62511" lon="0.75303">
        <ele>108.6</ele>
        <time>2021-07-23T09:17:06Z</time>
      </trkpt>
      <trkpt lat="44.62547" lon="0.7525">
        <ele>107.5</ele>
        <time>2021-07-23T09:17:14Z</time>
      </trkpt>
      <trkpt lat="44.62571" lon="0.75217">
        <ele>106.7</ele>
        <time>2021-07-23T09:17:19Z</time>
      </trkpt>
      <trkpt lat="44.62585" lon="0.75198">
        <ele>106.3</ele>
        <time>2021-07-23T09:17:22Z</time>
      </trkpt>
      <trkpt lat="44.62601" lon="0.75181">
        <ele>105.8</ele>
        <time>2021-07-23T09:17:25Z</time>
      </trkpt>
      <trkpt lat="44.62607" lon="0.75176">
        <ele>105.7</ele>
        <time>2021-07-23T09:17:26Z</time>
      </trkpt>
      <trkpt lat="44.6263" lon="0.75153">
        <ele>105.2</ele>
        <time>2021-07-23T09:17:30Z</time>
      </trkpt>
      <trkpt lat="44.62676" lon="0.75117">
        <ele>104.1</ele>
        <time>2021-07-23T09:17:37Z</time>
      </trkpt>
      <trkpt lat="44.62718" lon="0.75086">
        <ele>103.3</ele>
        <time>2021-07-23T09:17:43Z</time>
      </trkpt>
      <trkpt lat="44.62759" lon="0.75047">
        <ele>102.2</ele>
        <time>2021-07-23T09:17:49Z</time>
      </trkpt>
      <trkpt lat="44.628" lon="0.74998">
        <ele>101.1</ele>
        <time>2021-07-23T09:17:56Z</time>
      </trkpt>
      <trkpt lat="44.62811" lon="0.74985">
        <ele>100.8</ele>
        <time>2021-07-23T09:17:58Z</time>
      </trkpt>
      <trkpt lat="44.62855" lon="0.74934">
        <ele>99.8</ele>
        <time>2021-07-23T09:18:06Z</time>
      </trkpt>
      <trkpt lat="44.62892" lon="0.74891">
        <ele>98.1</ele>
        <time>2021-07-23T09:18:13Z</time>
      </trkpt>
      <trkpt lat="44.62938" lon="0.74839">
        <ele>96.3</ele>
        <time>2021-07-23T09:18:21Z</time>
      </trkpt>
      <trkpt lat="44.62977" lon="0.74792">
        <ele>94.6</ele>
        <time>2021-07-23T09:18:28Z</time>
      </trkpt>
      <trkpt lat="44.63016" lon="0.74741">
        <ele>93.1</ele>
        <time>2021-07-23T09:18:35Z</time>
      </trkpt>
      <trkpt lat="44.63041" lon="0.74706">
        <ele>92.8</ele>
        <time>2021-07-23T09:18:40Z</time>
      </trkpt>
      <trkpt lat="44.6305" lon="0.74693">
        <ele>92.7</ele>
        <time>2021-07-23T09:18:42Z</time>
      </trkpt>
      <trkpt lat="44.63081" lon="0.74647">
        <ele>92.8</ele>
        <time>2021-07-23T09:18:49Z</time>
      </trkpt>
      <trkpt lat="44.63085" lon="0.74643">
        <ele>92.8</ele>
        <time>2021-07-23T09:18:50Z</time>
      </trkpt>
      <trkpt lat="44.6309" lon="0.74639">
        <ele>92.8</ele>
        <time>2021-07-23T09:18:51Z</time>
      </trkpt>
      <trkpt lat="44.63108" lon="0.74631">
        <ele>92.6</ele>
        <time>2021-07-23T09:18:54Z</time>
      </trkpt>
      <trkpt lat="44.63158" lon="0.74614">
        <ele>92.6</ele>
        <time>2021-07-23T09:19:02Z</time>
      </trkpt>
      <trkpt lat="44.63192" lon="0.74612">
        <ele>92.7</ele>
        <time>2021-07-23T09:19:08Z</time>
      </trkpt>
      <trkpt lat="44.63222" lon="0.74615">
        <ele>93.6</ele>
        <time>2021-07-23T09:19:14Z</time>
      </trkpt>
      <trkpt lat="44.63234" lon="0.74617">
        <ele>94</ele>
        <time>2021-07-23T09:19:17Z</time>
      </trkpt>
      <trkpt lat="44.63238" lon="0.74619">
        <ele>94.2</ele>
        <time>2021-07-23T09:19:18Z</time>
      </trkpt>
      <trkpt lat="44.63242" lon="0.74618">
        <ele>94.4</ele>
        <time>2021-07-23T09:19:19Z</time>
      </trkpt>
      <trkpt lat="44.63249" lon="0.74615">
        <ele>95</ele>
        <time>2021-07-23T09:19:21Z</time>
      </trkpt>
      <trkpt lat="44.63267" lon="0.74613">
        <ele>96.6</ele>
        <time>2021-07-23T09:19:27Z</time>
      </trkpt>
      <trkpt lat="44.6328" lon="0.74612">
        <ele>97.9</ele>
        <time>2021-07-23T09:19:33Z</time>
      </trkpt>
      <trkpt lat="44.63291" lon="0.74612">
        <ele>99.1</ele>
        <time>2021-07-23T09:19:38Z</time>
      </trkpt>
      <trkpt lat="44.63305" lon="0.74614">
        <ele>100.6</ele>
        <time>2021-07-23T09:19:44Z</time>
      </trkpt>
      <trkpt lat="44.63319" lon="0.74614">
        <ele>102.4</ele>
        <time>2021-07-23T09:19:50Z</time>
      </trkpt>
      <trkpt lat="44.63334" lon="0.74608">
        <ele>104.4</ele>
        <time>2021-07-23T09:19:56Z</time>
      </trkpt>
      <trkpt lat="44.63349" lon="0.74605">
        <ele>105.6</ele>
        <time>2021-07-23T09:20:02Z</time>
      </trkpt>
      <trkpt lat="44.63357" lon="0.74597">
        <ele>106.1</ele>
        <time>2021-07-23T09:20:06Z</time>
      </trkpt>
      <trkpt lat="44.6337" lon="0.74592">
        <ele>106.7</ele>
        <time>2021-07-23T09:20:12Z</time>
      </trkpt>
      <trkpt lat="44.63386" lon="0.74579">
        <ele>106.9</ele>
        <time>2021-07-23T09:20:18Z</time>
      </trkpt>
      <trkpt lat="44.63404" lon="0.74565">
        <ele>106.9</ele>
        <time>2021-07-23T09:20:24Z</time>
      </trkpt>
      <trkpt lat="44.63426" lon="0.74552">
        <ele>106.6</ele>
        <time>2021-07-23T09:20:30Z</time>
      </trkpt>
      <trkpt lat="44.6343" lon="0.7455">
        <ele>106.5</ele>
        <time>2021-07-23T09:20:31Z</time>
      </trkpt>
      <trkpt lat="44.63438" lon="0.74546">
        <ele>106.4</ele>
        <time>2021-07-23T09:20:33Z</time>
      </trkpt>
      <trkpt lat="44.63445" lon="0.74539">
        <ele>106.2</ele>
        <time>2021-07-23T09:20:35Z</time>
      </trkpt>
      <trkpt lat="44.63456" lon="0.74532">
        <ele>105.9</ele>
        <time>2021-07-23T09:20:38Z</time>
      </trkpt>
      <trkpt lat="44.63466" lon="0.74522">
        <ele>105.6</ele>
        <time>2021-07-23T09:20:41Z</time>
      </trkpt>
      <trkpt lat="44.6348" lon="0.74517">
        <ele>105.1</ele>
        <time>2021-07-23T09:20:44Z</time>
      </trkpt>
      <trkpt lat="44.6349" lon="0.74511">
        <ele>104.5</ele>
        <time>2021-07-23T09:20:46Z</time>
      </trkpt>
      <trkpt lat="44.63524" lon="0.74483">
        <ele>103.6</ele>
        <time>2021-07-23T09:20:53Z</time>
      </trkpt>
      <trkpt lat="44.6354" lon="0.74472">
        <ele>103.5</ele>
        <time>2021-07-23T09:20:57Z</time>
      </trkpt>
      <trkpt lat="44.63541" lon="0.74472">
        <ele>103.5</ele>
        <time>2021-07-23T09:20:59Z</time>
      </trkpt>
      <trkpt lat="44.63542" lon="0.74471">
        <ele>103.5</ele>
        <time>2021-07-23T09:21:01Z</time>
      </trkpt>
      <trkpt lat="44.63544" lon="0.7447">
        <ele>103.4</ele>
        <time>2021-07-23T09:21:02Z</time>
      </trkpt>
      <trkpt lat="44.6356" lon="0.74457">
        <ele>103.2</ele>
        <time>2021-07-23T09:21:07Z</time>
      </trkpt>
      <trkpt lat="44.63568" lon="0.74452">
        <ele>103</ele>
        <time>2021-07-23T09:21:09Z</time>
      </trkpt>
      <trkpt lat="44.63582" lon="0.7444">
        <ele>102.8</ele>
        <time>2021-07-23T09:21:13Z</time>
      </trkpt>
      <trkpt lat="44.6361" lon="0.74419">
        <ele>102.3</ele>
        <time>2021-07-23T09:21:20Z</time>
      </trkpt>
      <trkpt lat="44.63643" lon="0.74395">
        <ele>101.3</ele>
        <time>2021-07-23T09:21:27Z</time>
      </trkpt>
      <trkpt lat="44.63675" lon="0.74373">
        <ele>100.2</ele>
        <time>2021-07-23T09:21:33Z</time>
      </trkpt>
      <trkpt lat="44.63706" lon="0.74351">
        <ele>99.2</ele>
        <time>2021-07-23T09:21:39Z</time>
      </trkpt>
      <trkpt lat="44.63714" lon="0.74344">
        <ele>99</ele>
        <time>2021-07-23T09:21:42Z</time>
      </trkpt>
      <trkpt lat="44.63722" lon="0.74325">
        <ele>98.7</ele>
        <time>2021-07-23T09:21:48Z</time>
      </trkpt>
      <trkpt lat="44.63729" lon="0.74317">
        <ele>98.5</ele>
        <time>2021-07-23T09:21:51Z</time>
      </trkpt>
      <trkpt lat="44.63745" lon="0.74303">
        <ele>98.3</ele>
        <time>2021-07-23T09:21:56Z</time>
      </trkpt>
      <trkpt lat="44.63741" lon="0.7429">
        <ele>98.2</ele>
        <time>2021-07-23T09:21:59Z</time>
      </trkpt>
      <trkpt lat="44.63736" lon="0.74267">
        <ele>98.1</ele>
        <time>2021-07-23T09:22:05Z</time>
      </trkpt>
      <trkpt lat="44.63739" lon="0.74252">
        <ele>97.8</ele>
        <time>2021-07-23T09:22:09Z</time>
      </trkpt>
      <trkpt lat="44.63738" lon="0.74248">
        <ele>97.8</ele>
        <time>2021-07-23T09:22:10Z</time>
      </trkpt>
      <trkpt lat="44.6373" lon="0.74224">
        <ele>97.6</ele>
        <time>2021-07-23T09:22:15Z</time>
      </trkpt>
      <trkpt lat="44.63718" lon="0.74198">
        <ele>96.1</ele>
        <time>2021-07-23T09:22:20Z</time>
      </trkpt>
      <trkpt lat="44.63707" lon="0.74172">
        <ele>95.8</ele>
        <time>2021-07-23T09:22:25Z</time>
      </trkpt>
      <trkpt lat="44.63694" lon="0.74142">
        <ele>95.4</ele>
        <time>2021-07-23T09:22:30Z</time>
      </trkpt>
      <trkpt lat="44.6368" lon="0.74106">
        <ele>95.1</ele>
        <time>2021-07-23T09:22:36Z</time>
      </trkpt>
      <trkpt lat="44.63661" lon="0.74064">
        <ele>94.1</ele>
        <time>2021-07-23T09:22:43Z</time>
      </trkpt>
      <trkpt lat="44.63649" lon="0.7403">
        <ele>92.9</ele>
        <time>2021-07-23T09:22:49Z</time>
      </trkpt>
      <trkpt lat="44.63637" lon="0.74004">
        <ele>91.9</ele>
        <time>2021-07-23T09:22:53Z</time>
      </trkpt>
      <trkpt lat="44.63635" lon="0.73995">
        <ele>91.5</ele>
        <time>2021-07-23T09:22:55Z</time>
      </trkpt>
      <trkpt lat="44.63639" lon="0.73982">
        <ele>90.6</ele>
        <time>2021-07-23T09:22:59Z</time>
      </trkpt>
      <trkpt lat="44.63642" lon="0.73979">
        <ele>90.5</ele>
        <time>2021-07-23T09:23:00Z</time>
      </trkpt>
      <trkpt lat="44.63651" lon="0.73976">
        <ele>90.4</ele>
        <time>2021-07-23T09:23:02Z</time>
      </trkpt>
      <trkpt lat="44.63659" lon="0.73965">
        <ele>90.3</ele>
        <time>2021-07-23T09:23:06Z</time>
      </trkpt>
      <trkpt lat="44.6366" lon="0.73961">
        <ele>90.3</ele>
        <time>2021-07-23T09:23:09Z</time>
      </trkpt>
      <trkpt lat="44.63658" lon="0.73961">
        <ele>90.3</ele>
        <time>2021-07-23T09:23:13Z</time>
      </trkpt>
      <trkpt lat="44.63657" lon="0.73961">
        <ele>90.3</ele>
        <time>2021-07-23T09:23:15Z</time>
      </trkpt>
      <trkpt lat="44.63656" lon="0.73962">
        <ele>90.3</ele>
        <time>2021-07-23T09:28:15Z</time>
      </trkpt>
      <trkpt lat="44.63656" lon="0.73963">
        <ele>90.3</ele>
        <time>2021-07-23T09:28:16Z</time>
      </trkpt>
      <trkpt lat="44.63655" lon="0.73964">
        <ele>90.3</ele>
        <time>2021-07-23T09:28:18Z</time>
      </trkpt>
      <trkpt lat="44.63656" lon="0.73965">
        <ele>90.4</ele>
        <time>2021-07-23T09:28:20Z</time>
      </trkpt>
      <trkpt lat="44.63656" lon="0.73967">
        <ele>90.4</ele>
        <time>2021-07-23T09:28:21Z</time>
      </trkpt>
      <trkpt lat="44.63654" lon="0.7397">
        <ele>90.4</ele>
        <time>2021-07-23T09:28:23Z</time>
      </trkpt>
      <trkpt lat="44.6365" lon="0.7397">
        <ele>90.4</ele>
        <time>2021-07-23T09:28:25Z</time>
      </trkpt>
      <trkpt lat="44.63634" lon="0.73961">
        <ele>90.5</ele>
        <time>2021-07-23T09:28:32Z</time>
      </trkpt>
      <trkpt lat="44.63628" lon="0.7395">
        <ele>90.1</ele>
        <time>2021-07-23T09:28:36Z</time>
      </trkpt>
      <trkpt lat="44.63618" lon="0.73921">
        <ele>89.3</ele>
        <time>2021-07-23T09:28:41Z</time>
      </trkpt>
      <trkpt lat="44.63611" lon="0.73901">
        <ele>88.8</ele>
        <time>2021-07-23T09:28:44Z</time>
      </trkpt>
      <trkpt lat="44.63605" lon="0.73878">
        <ele>88.7</ele>
        <time>2021-07-23T09:28:47Z</time>
      </trkpt>
      <trkpt lat="44.63586" lon="0.73804">
        <ele>88.3</ele>
        <time>2021-07-23T09:28:57Z</time>
      </trkpt>
      <trkpt lat="44.6357" lon="0.73746">
        <ele>88.4</ele>
        <time>2021-07-23T09:29:05Z</time>
      </trkpt>
      <trkpt lat="44.63559" lon="0.73699">
        <ele>88.6</ele>
        <time>2021-07-23T09:29:12Z</time>
      </trkpt>
      <trkpt lat="44.63545" lon="0.73647">
        <ele>88.7</ele>
        <time>2021-07-23T09:29:20Z</time>
      </trkpt>
      <trkpt lat="44.63529" lon="0.73586">
        <ele>89</ele>
        <time>2021-07-23T09:29:29Z</time>
      </trkpt>
      <trkpt lat="44.63512" lon="0.73523">
        <ele>89.3</ele>
        <time>2021-07-23T09:29:38Z</time>
      </trkpt>
      <trkpt lat="44.63501" lon="0.73477">
        <ele>89.5</ele>
        <time>2021-07-23T09:29:45Z</time>
      </trkpt>
      <trkpt lat="44.63508" lon="0.73469">
        <ele>89.3</ele>
        <time>2021-07-23T09:29:47Z</time>
      </trkpt>
      <trkpt lat="44.63514" lon="0.73467">
        <ele>89.3</ele>
        <time>2021-07-23T09:29:48Z</time>
      </trkpt>
      <trkpt lat="44.63525" lon="0.73463">
        <ele>89.1</ele>
        <time>2021-07-23T09:29:50Z</time>
      </trkpt>
      <trkpt lat="44.63537" lon="0.73458">
        <ele>89</ele>
        <time>2021-07-23T09:29:52Z</time>
      </trkpt>
      <trkpt lat="44.63541" lon="0.73453">
        <ele>88.9</ele>
        <time>2021-07-23T09:29:53Z</time>
      </trkpt>
      <trkpt lat="44.63543" lon="0.73446">
        <ele>88.8</ele>
        <time>2021-07-23T09:29:54Z</time>
      </trkpt>
      <trkpt lat="44.63542" lon="0.73438">
        <ele>88.8</ele>
        <time>2021-07-23T09:29:55Z</time>
      </trkpt>
      <trkpt lat="44.63537" lon="0.73394">
        <ele>88.4</ele>
        <time>2021-07-23T09:30:01Z</time>
      </trkpt>
      <trkpt lat="44.63532" lon="0.73344">
        <ele>87.8</ele>
        <time>2021-07-23T09:30:08Z</time>
      </trkpt>
      <trkpt lat="44.63528" lon="0.73285">
        <ele>87.5</ele>
        <time>2021-07-23T09:30:17Z</time>
      </trkpt>
      <trkpt lat="44.63525" lon="0.73241">
        <ele>87.3</ele>
        <time>2021-07-23T09:30:24Z</time>
      </trkpt>
      <trkpt lat="44.63524" lon="0.73234">
        <ele>87.3</ele>
        <time>2021-07-23T09:30:25Z</time>
      </trkpt>
      <trkpt lat="44.6352" lon="0.73198">
        <ele>87.4</ele>
        <time>2021-07-23T09:30:31Z</time>
      </trkpt>
      <trkpt lat="44.63518" lon="0.73175">
        <ele>87.5</ele>
        <time>2021-07-23T09:30:35Z</time>
      </trkpt>
      <trkpt lat="44.63517" lon="0.73157">
        <ele>87.3</ele>
        <time>2021-07-23T09:30:38Z</time>
      </trkpt>
      <trkpt lat="44.63518" lon="0.73145">
        <ele>87.2</ele>
        <time>2021-07-23T09:30:40Z</time>
      </trkpt>
      <trkpt lat="44.63522" lon="0.73127">
        <ele>87.3</ele>
        <time>2021-07-23T09:30:43Z</time>
      </trkpt>
      <trkpt lat="44.63532" lon="0.7309">
        <ele>87.2</ele>
        <time>2021-07-23T09:30:50Z</time>
      </trkpt>
      <trkpt lat="44.63544" lon="0.73058">
        <ele>87.1</ele>
        <time>2021-07-23T09:30:57Z</time>
      </trkpt>
      <trkpt lat="44.63557" lon="0.73021">
        <ele>86.6</ele>
        <time>2021-07-23T09:31:05Z</time>
      </trkpt>
      <trkpt lat="44.63561" lon="0.73011">
        <ele>86.5</ele>
        <time>2021-07-23T09:31:07Z</time>
      </trkpt>
      <trkpt lat="44.63563" lon="0.73001">
        <ele>86.4</ele>
        <time>2021-07-23T09:31:09Z</time>
      </trkpt>
      <trkpt lat="44.63565" lon="0.72982">
        <ele>86.3</ele>
        <time>2021-07-23T09:31:12Z</time>
      </trkpt>
      <trkpt lat="44.63564" lon="0.72963">
        <ele>86.1</ele>
        <time>2021-07-23T09:31:15Z</time>
      </trkpt>
      <trkpt lat="44.63564" lon="0.7295">
        <ele>85.9</ele>
        <time>2021-07-23T09:31:17Z</time>
      </trkpt>
      <trkpt lat="44.63561" lon="0.72933">
        <ele>85.8</ele>
        <time>2021-07-23T09:31:20Z</time>
      </trkpt>
      <trkpt lat="44.63559" lon="0.7289">
        <ele>85.6</ele>
        <time>2021-07-23T09:31:27Z</time>
      </trkpt>
      <trkpt lat="44.63557" lon="0.72846">
        <ele>85.5</ele>
        <time>2021-07-23T09:31:34Z</time>
      </trkpt>
      <trkpt lat="44.63558" lon="0.72814">
        <ele>85.1</ele>
        <time>2021-07-23T09:31:40Z</time>
      </trkpt>
      <trkpt lat="44.6356" lon="0.72799">
        <ele>85</ele>
        <time>2021-07-23T09:31:45Z</time>
      </trkpt>
      <trkpt lat="44.63567" lon="0.72769">
        <ele>84.7</ele>
        <time>2021-07-23T09:31:51Z</time>
      </trkpt>
      <trkpt lat="44.6357" lon="0.72751">
        <ele>84.4</ele>
        <time>2021-07-23T09:31:54Z</time>
      </trkpt>
      <trkpt lat="44.63572" lon="0.72733">
        <ele>84.4</ele>
        <time>2021-07-23T09:31:57Z</time>
      </trkpt>
      <trkpt lat="44.63575" lon="0.72684">
        <ele>84.8</ele>
        <time>2021-07-23T09:32:05Z</time>
      </trkpt>
      <trkpt lat="44.63577" lon="0.7262">
        <ele>84.7</ele>
        <time>2021-07-23T09:32:15Z</time>
      </trkpt>
      <trkpt lat="44.63577" lon="0.72575">
        <ele>84.7</ele>
        <time>2021-07-23T09:32:22Z</time>
      </trkpt>
      <trkpt lat="44.63577" lon="0.72551">
        <ele>84.9</ele>
        <time>2021-07-23T09:32:26Z</time>
      </trkpt>
      <trkpt lat="44.63576" lon="0.72535">
        <ele>85</ele>
        <time>2021-07-23T09:32:29Z</time>
      </trkpt>
      <trkpt lat="44.63572" lon="0.72519">
        <ele>85</ele>
        <time>2021-07-23T09:32:33Z</time>
      </trkpt>
      <trkpt lat="44.63569" lon="0.72504">
        <ele>85.1</ele>
        <time>2021-07-23T09:32:39Z</time>
      </trkpt>
      <trkpt lat="44.63568" lon="0.72491">
        <ele>85.2</ele>
        <time>2021-07-23T09:32:44Z</time>
      </trkpt>
      <trkpt lat="44.63568" lon="0.72491">
        <ele>85.2</ele>
        <time>2021-07-23T09:32:45Z</time>
      </trkpt>
      <trkpt lat="44.63567" lon="0.7249">
        <ele>85.2</ele>
        <time>2021-07-23T09:32:48Z</time>
      </trkpt>
      <trkpt lat="44.63566" lon="0.72488">
        <ele>85.3</ele>
        <time>2021-07-23T09:32:49Z</time>
      </trkpt>
      <trkpt lat="44.63565" lon="0.72485">
        <ele>85.3</ele>
        <time>2021-07-23T09:32:50Z</time>
      </trkpt>
      <trkpt lat="44.63553" lon="0.72473">
        <ele>85.5</ele>
        <time>2021-07-23T09:32:54Z</time>
      </trkpt>
      <trkpt lat="44.63535" lon="0.72455">
        <ele>85.7</ele>
        <time>2021-07-23T09:33:00Z</time>
      </trkpt>
      <trkpt lat="44.63522" lon="0.72438">
        <ele>86</ele>
        <time>2021-07-23T09:33:04Z</time>
      </trkpt>
      <trkpt lat="44.63517" lon="0.72428">
        <ele>86.1</ele>
        <time>2021-07-23T09:33:06Z</time>
      </trkpt>
      <trkpt lat="44.635" lon="0.72396">
        <ele>86.2</ele>
        <time>2021-07-23T09:33:12Z</time>
      </trkpt>
      <trkpt lat="44.63483" lon="0.72362">
        <ele>86.4</ele>
        <time>2021-07-23T09:33:18Z</time>
      </trkpt>
      <trkpt lat="44.63462" lon="0.72323">
        <ele>86.8</ele>
        <time>2021-07-23T09:33:25Z</time>
      </trkpt>
      <trkpt lat="44.63455" lon="0.72316">
        <ele>86.6</ele>
        <time>2021-07-23T09:33:27Z</time>
      </trkpt>
      <trkpt lat="44.63447" lon="0.72316">
        <ele>86.6</ele>
        <time>2021-07-23T09:33:29Z</time>
      </trkpt>
      <trkpt lat="44.63416" lon="0.72324">
        <ele>87.2</ele>
        <time>2021-07-23T09:33:36Z</time>
      </trkpt>
      <trkpt lat="44.63382" lon="0.72329">
        <ele>87.9</ele>
        <time>2021-07-23T09:33:43Z</time>
      </trkpt>
      <trkpt lat="44.63344" lon="0.72334">
        <ele>88.3</ele>
        <time>2021-07-23T09:33:51Z</time>
      </trkpt>
      <trkpt lat="44.6334" lon="0.72334">
        <ele>88.4</ele>
        <time>2021-07-23T09:33:52Z</time>
      </trkpt>
      <trkpt lat="44.63302" lon="0.72341">
        <ele>89</ele>
        <time>2021-07-23T09:34:01Z</time>
      </trkpt>
      <trkpt lat="44.63275" lon="0.72351">
        <ele>89.9</ele>
        <time>2021-07-23T09:34:08Z</time>
      </trkpt>
      <trkpt lat="44.63253" lon="0.72362">
        <ele>90.8</ele>
        <time>2021-07-23T09:34:15Z</time>
      </trkpt>
      <trkpt lat="44.63231" lon="0.72374">
        <ele>92.2</ele>
        <time>2021-07-23T09:34:23Z</time>
      </trkpt>
      <trkpt lat="44.63213" lon="0.72381">
        <ele>93</ele>
        <time>2021-07-23T09:34:31Z</time>
      </trkpt>
      <trkpt lat="44.63212" lon="0.72378">
        <ele>93.1</ele>
        <time>2021-07-23T09:34:33Z</time>
      </trkpt>
      <trkpt lat="44.63207" lon="0.72377">
        <ele>93.2</ele>
        <time>2021-07-23T09:34:36Z</time>
      </trkpt>
      <trkpt lat="44.63196" lon="0.72384">
        <ele>93.7</ele>
        <time>2021-07-23T09:34:41Z</time>
      </trkpt>
      <trkpt lat="44.63187" lon="0.7239">
        <ele>94</ele>
        <time>2021-07-23T09:34:46Z</time>
      </trkpt>
      <trkpt lat="44.63175" lon="0.72397">
        <ele>94.6</ele>
        <time>2021-07-23T09:34:52Z</time>
      </trkpt>
      <trkpt lat="44.63165" lon="0.72404">
        <ele>95</ele>
        <time>2021-07-23T09:34:57Z</time>
      </trkpt>
      <trkpt lat="44.6315" lon="0.72408">
        <ele>95.6</ele>
        <time>2021-07-23T09:35:03Z</time>
      </trkpt>
      <trkpt lat="44.63131" lon="0.72415">
        <ele>96.3</ele>
        <time>2021-07-23T09:35:11Z</time>
      </trkpt>
      <trkpt lat="44.6311" lon="0.72417">
        <ele>96.9</ele>
        <time>2021-07-23T09:35:18Z</time>
      </trkpt>
      <trkpt lat="44.63087" lon="0.72418">
        <ele>97.5</ele>
        <time>2021-07-23T09:35:26Z</time>
      </trkpt>
      <trkpt lat="44.63063" lon="0.72421">
        <ele>98.1</ele>
        <time>2021-07-23T09:35:33Z</time>
      </trkpt>
      <trkpt lat="44.63034" lon="0.72419">
        <ele>98.7</ele>
        <time>2021-07-23T09:35:41Z</time>
      </trkpt>
      <trkpt lat="44.63024" lon="0.72418">
        <ele>98.9</ele>
        <time>2021-07-23T09:35:45Z</time>
      </trkpt>
      <trkpt lat="44.63022" lon="0.72417">
        <ele>98.9</ele>
        <time>2021-07-23T09:35:46Z</time>
      </trkpt>
      <trkpt lat="44.6302" lon="0.7242">
        <ele>99</ele>
        <time>2021-07-23T09:35:48Z</time>
      </trkpt>
      <trkpt lat="44.63024" lon="0.7242">
        <ele>99</ele>
        <time>2021-07-23T09:35:50Z</time>
      </trkpt>
      <trkpt lat="44.6303" lon="0.7242">
        <ele>99.1</ele>
        <time>2021-07-23T09:35:52Z</time>
      </trkpt>
      <trkpt lat="44.63048" lon="0.72419">
        <ele>99.3</ele>
        <time>2021-07-23T09:35:57Z</time>
      </trkpt>
      <trkpt lat="44.63053" lon="0.7242">
        <ele>99.4</ele>
        <time>2021-07-23T09:35:59Z</time>
      </trkpt>
      <trkpt lat="44.63052" lon="0.72422">
        <ele>99.4</ele>
        <time>2021-07-23T09:36:00Z</time>
      </trkpt>
      <trkpt lat="44.63043" lon="0.7242">
        <ele>99.5</ele>
        <time>2021-07-23T09:36:04Z</time>
      </trkpt>
      <trkpt lat="44.63014" lon="0.72417">
        <ele>99.7</ele>
        <time>2021-07-23T09:36:11Z</time>
      </trkpt>
      <trkpt lat="44.63009" lon="0.72416">
        <ele>99.8</ele>
        <time>2021-07-23T09:36:12Z</time>
      </trkpt>
      <trkpt lat="44.63" lon="0.72413">
        <ele>99.8</ele>
        <time>2021-07-23T09:36:14Z</time>
      </trkpt>
      <trkpt lat="44.62995" lon="0.72412">
        <ele>99.8</ele>
        <time>2021-07-23T09:36:15Z</time>
      </trkpt>
      <trkpt lat="44.6297" lon="0.72407">
        <ele>99.8</ele>
        <time>2021-07-23T09:36:21Z</time>
      </trkpt>
      <trkpt lat="44.62965" lon="0.72408">
        <ele>99.8</ele>
        <time>2021-07-23T09:36:22Z</time>
      </trkpt>
      <trkpt lat="44.6295" lon="0.7241">
        <ele>99.7</ele>
        <time>2021-07-23T09:36:26Z</time>
      </trkpt>
      <trkpt lat="44.62942" lon="0.72412">
        <ele>99.6</ele>
        <time>2021-07-23T09:36:28Z</time>
      </trkpt>
      <trkpt lat="44.62929" lon="0.72418">
        <ele>99.5</ele>
        <time>2021-07-23T09:36:31Z</time>
      </trkpt>
      <trkpt lat="44.62909" lon="0.72426">
        <ele>99.4</ele>
        <time>2021-07-23T09:36:35Z</time>
      </trkpt>
      <trkpt lat="44.62902" lon="0.72429">
        <ele>99.3</ele>
        <time>2021-07-23T09:36:37Z</time>
      </trkpt>
      <trkpt lat="44.62889" lon="0.72436">
        <ele>99.1</ele>
        <time>2021-07-23T09:36:42Z</time>
      </trkpt>
      <trkpt lat="44.62871" lon="0.72445">
        <ele>99</ele>
        <time>2021-07-23T09:36:47Z</time>
      </trkpt>
      <trkpt lat="44.62867" lon="0.72447">
        <ele>99</ele>
        <time>2021-07-23T09:36:48Z</time>
      </trkpt>
      <trkpt lat="44.62836" lon="0.72461">
        <ele>99</ele>
        <time>2021-07-23T09:36:55Z</time>
      </trkpt>
      <trkpt lat="44.62809" lon="0.72474">
        <ele>99.1</ele>
        <time>2021-07-23T09:37:01Z</time>
      </trkpt>
      <trkpt lat="44.62787" lon="0.72489">
        <ele>99.2</ele>
        <time>2021-07-23T09:37:07Z</time>
      </trkpt>
      <trkpt lat="44.62765" lon="0.72509">
        <ele>99.3</ele>
        <time>2021-07-23T09:37:13Z</time>
      </trkpt>
      <trkpt lat="44.62761" lon="0.72513">
        <ele>99.3</ele>
        <time>2021-07-23T09:37:14Z</time>
      </trkpt>
      <trkpt lat="44.62725" lon="0.72547">
        <ele>98.3</ele>
        <time>2021-07-23T09:37:22Z</time>
      </trkpt>
      <trkpt lat="44.62694" lon="0.72578">
        <ele>97</ele>
        <time>2021-07-23T09:37:28Z</time>
      </trkpt>
      <trkpt lat="44.6266" lon="0.72611">
        <ele>95.3</ele>
        <time>2021-07-23T09:37:34Z</time>
      </trkpt>
      <trkpt lat="44.62626" lon="0.72642">
        <ele>93.8</ele>
        <time>2021-07-23T09:37:40Z</time>
      </trkpt>
      <trkpt lat="44.62617" lon="0.72651">
        <ele>93.4</ele>
        <time>2021-07-23T09:37:42Z</time>
      </trkpt>
      <trkpt lat="44.62614" lon="0.72656">
        <ele>93.2</ele>
        <time>2021-07-23T09:37:43Z</time>
      </trkpt>
      <trkpt lat="44.62613" lon="0.7266">
        <ele>93.3</ele>
        <time>2021-07-23T09:37:44Z</time>
      </trkpt>
      <trkpt lat="44.62616" lon="0.72669">
        <ele>93.5</ele>
        <time>2021-07-23T09:37:46Z</time>
      </trkpt>
      <trkpt lat="44.6263" lon="0.72686">
        <ele>94.2</ele>
        <time>2021-07-23T09:37:50Z</time>
      </trkpt>
      <trkpt lat="44.62641" lon="0.72701">
        <ele>94.8</ele>
        <time>2021-07-23T09:37:53Z</time>
      </trkpt>
      <trkpt lat="44.62648" lon="0.72712">
        <ele>95.2</ele>
        <time>2021-07-23T09:37:55Z</time>
      </trkpt>
      <trkpt lat="44.6266" lon="0.72728">
        <ele>95.8</ele>
        <time>2021-07-23T09:37:58Z</time>
      </trkpt>
      <trkpt lat="44.62667" lon="0.72738">
        <ele>96.1</ele>
        <time>2021-07-23T09:38:00Z</time>
      </trkpt>
      <trkpt lat="44.62685" lon="0.72769">
        <ele>97.3</ele>
        <time>2021-07-23T09:38:06Z</time>
      </trkpt>
      <trkpt lat="44.62704" lon="0.72809">
        <ele>99</ele>
        <time>2021-07-23T09:38:14Z</time>
      </trkpt>
      <trkpt lat="44.62713" lon="0.72836">
        <ele>100</ele>
        <time>2021-07-23T09:38:20Z</time>
      </trkpt>
      <trkpt lat="44.62721" lon="0.72864">
        <ele>101</ele>
        <time>2021-07-23T09:38:26Z</time>
      </trkpt>
      <trkpt lat="44.62738" lon="0.72898">
        <ele>102.1</ele>
        <time>2021-07-23T09:38:33Z</time>
      </trkpt>
      <trkpt lat="44.62743" lon="0.72908">
        <ele>102.5</ele>
        <time>2021-07-23T09:38:35Z</time>
      </trkpt>
      <trkpt lat="44.62749" lon="0.72917">
        <ele>102.7</ele>
        <time>2021-07-23T09:38:37Z</time>
      </trkpt>
      <trkpt lat="44.62752" lon="0.72922">
        <ele>102.9</ele>
        <time>2021-07-23T09:38:38Z</time>
      </trkpt>
      <trkpt lat="44.6276" lon="0.72941">
        <ele>103.4</ele>
        <time>2021-07-23T09:38:42Z</time>
      </trkpt>
      <trkpt lat="44.62766" lon="0.7295">
        <ele>103.7</ele>
        <time>2021-07-23T09:38:44Z</time>
      </trkpt>
      <trkpt lat="44.62785" lon="0.72981">
        <ele>104.8</ele>
        <time>2021-07-23T09:38:51Z</time>
      </trkpt>
      <trkpt lat="44.62791" lon="0.72994">
        <ele>105.2</ele>
        <time>2021-07-23T09:38:54Z</time>
      </trkpt>
      <trkpt lat="44.62795" lon="0.73004">
        <ele>105.5</ele>
        <time>2021-07-23T09:38:56Z</time>
      </trkpt>
      <trkpt lat="44.62807" lon="0.73027">
        <ele>106.2</ele>
        <time>2021-07-23T09:39:01Z</time>
      </trkpt>
      <trkpt lat="44.62823" lon="0.73066">
        <ele>107.4</ele>
        <time>2021-07-23T09:39:08Z</time>
      </trkpt>
      <trkpt lat="44.62826" lon="0.73078">
        <ele>107.8</ele>
        <time>2021-07-23T09:39:10Z</time>
      </trkpt>
      <trkpt lat="44.62828" lon="0.7309">
        <ele>108.2</ele>
        <time>2021-07-23T09:39:12Z</time>
      </trkpt>
      <trkpt lat="44.6283" lon="0.73096">
        <ele>108.4</ele>
        <time>2021-07-23T09:39:13Z</time>
      </trkpt>
      <trkpt lat="44.62834" lon="0.73106">
        <ele>108.7</ele>
        <time>2021-07-23T09:39:15Z</time>
      </trkpt>
      <trkpt lat="44.6284" lon="0.73128">
        <ele>109.3</ele>
        <time>2021-07-23T09:39:19Z</time>
      </trkpt>
      <trkpt lat="44.62847" lon="0.73173">
        <ele>110.1</ele>
        <time>2021-07-23T09:39:27Z</time>
      </trkpt>
      <trkpt lat="44.62853" lon="0.73227">
        <ele>110.4</ele>
        <time>2021-07-23T09:39:36Z</time>
      </trkpt>
      <trkpt lat="44.62857" lon="0.73274">
        <ele>110.2</ele>
        <time>2021-07-23T09:39:43Z</time>
      </trkpt>
      <trkpt lat="44.62861" lon="0.73324">
        <ele>109.8</ele>
        <time>2021-07-23T09:39:50Z</time>
      </trkpt>
      <trkpt lat="44.62862" lon="0.73337">
        <ele>109.7</ele>
        <time>2021-07-23T09:39:52Z</time>
      </trkpt>
      <trkpt lat="44.62867" lon="0.73364">
        <ele>109.7</ele>
        <time>2021-07-23T09:39:56Z</time>
      </trkpt>
      <trkpt lat="44.6287" lon="0.73376">
        <ele>109.7</ele>
        <time>2021-07-23T09:39:58Z</time>
      </trkpt>
      <trkpt lat="44.62874" lon="0.73394">
        <ele>109.7</ele>
        <time>2021-07-23T09:40:01Z</time>
      </trkpt>
      <trkpt lat="44.62883" lon="0.73423">
        <ele>109.8</ele>
        <time>2021-07-23T09:40:07Z</time>
      </trkpt>
      <trkpt lat="44.62881" lon="0.73427">
        <ele>109.9</ele>
        <time>2021-07-23T09:40:08Z</time>
      </trkpt>
      <trkpt lat="44.62875" lon="0.73431">
        <ele>109.8</ele>
        <time>2021-07-23T09:40:10Z</time>
      </trkpt>
      <trkpt lat="44.62871" lon="0.7343">
        <ele>109.8</ele>
        <time>2021-07-23T09:40:11Z</time>
      </trkpt>
      <trkpt lat="44.62855" lon="0.73422">
        <ele>109.6</ele>
        <time>2021-07-23T09:40:15Z</time>
      </trkpt>
      <trkpt lat="44.62851" lon="0.73421">
        <ele>109.5</ele>
        <time>2021-07-23T09:40:16Z</time>
      </trkpt>
      <trkpt lat="44.62833" lon="0.73416">
        <ele>109.3</ele>
        <time>2021-07-23T09:40:20Z</time>
      </trkpt>
      <trkpt lat="44.62802" lon="0.73408">
        <ele>108.2</ele>
        <time>2021-07-23T09:40:26Z</time>
      </trkpt>
      <trkpt lat="44.62766" lon="0.73397">
        <ele>106.3</ele>
        <time>2021-07-23T09:40:32Z</time>
      </trkpt>
      <trkpt lat="44.62739" lon="0.73388">
        <ele>104.4</ele>
        <time>2021-07-23T09:40:36Z</time>
      </trkpt>
      <trkpt lat="44.62733" lon="0.73388">
        <ele>104</ele>
        <time>2021-07-23T09:40:37Z</time>
      </trkpt>
      <trkpt lat="44.62724" lon="0.73388">
        <ele>103.2</ele>
        <time>2021-07-23T09:40:39Z</time>
      </trkpt>
      <trkpt lat="44.62721" lon="0.73387">
        <ele>102.9</ele>
        <time>2021-07-23T09:40:40Z</time>
      </trkpt>
      <trkpt lat="44.62717" lon="0.73386">
        <ele>102.5</ele>
        <time>2021-07-23T09:40:41Z</time>
      </trkpt>
      <trkpt lat="44.62698" lon="0.7338">
        <ele>100.8</ele>
        <time>2021-07-23T09:40:45Z</time>
      </trkpt>
      <trkpt lat="44.62681" lon="0.73375">
        <ele>99.6</ele>
        <time>2021-07-23T09:40:48Z</time>
      </trkpt>
      <trkpt lat="44.62664" lon="0.73368">
        <ele>99</ele>
        <time>2021-07-23T09:40:51Z</time>
      </trkpt>
      <trkpt lat="44.62647" lon="0.73363">
        <ele>98.4</ele>
        <time>2021-07-23T09:40:54Z</time>
      </trkpt>
      <trkpt lat="44.62642" lon="0.73361">
        <ele>98.2</ele>
        <time>2021-07-23T09:40:55Z</time>
      </trkpt>
      <trkpt lat="44.62617" lon="0.73353">
        <ele>97.7</ele>
        <time>2021-07-23T09:41:00Z</time>
      </trkpt>
      <trkpt lat="44.62606" lon="0.73349">
        <ele>97.6</ele>
        <time>2021-07-23T09:41:03Z</time>
      </trkpt>
      <trkpt lat="44.62597" lon="0.73346">
        <ele>97.4</ele>
        <time>2021-07-23T09:41:05Z</time>
      </trkpt>
      <trkpt lat="44.62588" lon="0.73341">
        <ele>97.3</ele>
        <time>2021-07-23T09:41:07Z</time>
      </trkpt>
      <trkpt lat="44.62578" lon="0.73336">
        <ele>97</ele>
        <time>2021-07-23T09:41:09Z</time>
      </trkpt>
      <trkpt lat="44.62554" lon="0.73325">
        <ele>96.7</ele>
        <time>2021-07-23T09:41:14Z</time>
      </trkpt>
      <trkpt lat="44.62549" lon="0.73323">
        <ele>96.6</ele>
        <time>2021-07-23T09:41:15Z</time>
      </trkpt>
      <trkpt lat="44.62505" lon="0.73302">
        <ele>96.4</ele>
        <time>2021-07-23T09:41:23Z</time>
      </trkpt>
      <trkpt lat="44.625" lon="0.73299">
        <ele>96.4</ele>
        <time>2021-07-23T09:41:24Z</time>
      </trkpt>
      <trkpt lat="44.62486" lon="0.73292">
        <ele>96.3</ele>
        <time>2021-07-23T09:41:27Z</time>
      </trkpt>
      <trkpt lat="44.62477" lon="0.73287">
        <ele>96.2</ele>
        <time>2021-07-23T09:41:29Z</time>
      </trkpt>
      <trkpt lat="44.62467" lon="0.73285">
        <ele>96</ele>
        <time>2021-07-23T09:41:31Z</time>
      </trkpt>
      <trkpt lat="44.6244" lon="0.73276">
        <ele>94.2</ele>
        <time>2021-07-23T09:41:35Z</time>
      </trkpt>
      <trkpt lat="44.62392" lon="0.73267">
        <ele>90.9</ele>
        <time>2021-07-23T09:41:41Z</time>
      </trkpt>
      <trkpt lat="44.62341" lon="0.73254">
        <ele>89.6</ele>
        <time>2021-07-23T09:41:48Z</time>
      </trkpt>
      <trkpt lat="44.62309" lon="0.73238">
        <ele>88.9</ele>
        <time>2021-07-23T09:41:53Z</time>
      </trkpt>
      <trkpt lat="44.62274" lon="0.73216">
        <ele>88.2</ele>
        <time>2021-07-23T09:41:59Z</time>
      </trkpt>
      <trkpt lat="44.6225" lon="0.73194">
        <ele>87.6</ele>
        <time>2021-07-23T09:42:04Z</time>
      </trkpt>
      <trkpt lat="44.62245" lon="0.7319">
        <ele>87.5</ele>
        <time>2021-07-23T09:42:05Z</time>
      </trkpt>
      <trkpt lat="44.62236" lon="0.73184">
        <ele>87.4</ele>
        <time>2021-07-23T09:42:07Z</time>
      </trkpt>
      <trkpt lat="44.62223" lon="0.73177">
        <ele>87.3</ele>
        <time>2021-07-23T09:42:10Z</time>
      </trkpt>
      <trkpt lat="44.62194" lon="0.73166">
        <ele>87</ele>
        <time>2021-07-23T09:42:16Z</time>
      </trkpt>
      <trkpt lat="44.62176" lon="0.7316">
        <ele>86.9</ele>
        <time>2021-07-23T09:42:20Z</time>
      </trkpt>
      <trkpt lat="44.62155" lon="0.7315">
        <ele>86.9</ele>
        <time>2021-07-23T09:42:25Z</time>
      </trkpt>
      <trkpt lat="44.62126" lon="0.73139">
        <ele>87.1</ele>
        <time>2021-07-23T09:42:31Z</time>
      </trkpt>
      <trkpt lat="44.62103" lon="0.73132">
        <ele>87.5</ele>
        <time>2021-07-23T09:42:36Z</time>
      </trkpt>
      <trkpt lat="44.62098" lon="0.7313">
        <ele>87.6</ele>
        <time>2021-07-23T09:42:37Z</time>
      </trkpt>
      <trkpt lat="44.62089" lon="0.73125">
        <ele>87.9</ele>
        <time>2021-07-23T09:42:39Z</time>
      </trkpt>
      <trkpt lat="44.62078" lon="0.73115">
        <ele>88.2</ele>
        <time>2021-07-23T09:42:42Z</time>
      </trkpt>
      <trkpt lat="44.62068" lon="0.73104">
        <ele>88.5</ele>
        <time>2021-07-23T09:42:45Z</time>
      </trkpt>
      <trkpt lat="44.62059" lon="0.73091">
        <ele>88.5</ele>
        <time>2021-07-23T09:42:48Z</time>
      </trkpt>
      <trkpt lat="44.62037" lon="0.73062">
        <ele>88.4</ele>
        <time>2021-07-23T09:42:55Z</time>
      </trkpt>
      <trkpt lat="44.62024" lon="0.73043">
        <ele>88.7</ele>
        <time>2021-07-23T09:42:59Z</time>
      </trkpt>
      <trkpt lat="44.62005" lon="0.73012">
        <ele>89.8</ele>
        <time>2021-07-23T09:43:06Z</time>
      </trkpt>
      <trkpt lat="44.62" lon="0.72991">
        <ele>90.7</ele>
        <time>2021-07-23T09:43:11Z</time>
      </trkpt>
      <trkpt lat="44.61998" lon="0.72981">
        <ele>91.2</ele>
        <time>2021-07-23T09:43:16Z</time>
      </trkpt>
      <trkpt lat="44.61999" lon="0.72975">
        <ele>91.5</ele>
        <time>2021-07-23T09:43:19Z</time>
      </trkpt>
      <trkpt lat="44.61997" lon="0.7297">
        <ele>91.7</ele>
        <time>2021-07-23T09:43:22Z</time>
      </trkpt>
      <trkpt lat="44.61988" lon="0.72967">
        <ele>92.1</ele>
        <time>2021-07-23T09:43:26Z</time>
      </trkpt>
      <trkpt lat="44.61969" lon="0.72964">
        <ele>92.2</ele>
        <time>2021-07-23T09:43:32Z</time>
      </trkpt>
      <trkpt lat="44.61948" lon="0.72957">
        <ele>92.4</ele>
        <time>2021-07-23T09:43:38Z</time>
      </trkpt>
      <trkpt lat="44.61917" lon="0.72939">
        <ele>92.4</ele>
        <time>2021-07-23T09:43:46Z</time>
      </trkpt>
      <trkpt lat="44.61877" lon="0.72916">
        <ele>92.7</ele>
        <time>2021-07-23T09:43:55Z</time>
      </trkpt>
      <trkpt lat="44.61851" lon="0.72903">
        <ele>92.8</ele>
        <time>2021-07-23T09:44:01Z</time>
      </trkpt>
      <trkpt lat="44.6183" lon="0.72889">
        <ele>92.9</ele>
        <time>2021-07-23T09:44:07Z</time>
      </trkpt>
      <trkpt lat="44.61819" lon="0.72882">
        <ele>92.8</ele>
        <time>2021-07-23T09:44:10Z</time>
      </trkpt>
      <trkpt lat="44.61805" lon="0.72874">
        <ele>92.8</ele>
        <time>2021-07-23T09:44:14Z</time>
      </trkpt>
      <trkpt lat="44.61785" lon="0.72864">
        <ele>92.6</ele>
        <time>2021-07-23T09:44:21Z</time>
      </trkpt>
      <trkpt lat="44.61783" lon="0.72861">
        <ele>92.6</ele>
        <time>2021-07-23T09:44:22Z</time>
      </trkpt>
      <trkpt lat="44.61784" lon="0.72858">
        <ele>92.6</ele>
        <time>2021-07-23T09:44:23Z</time>
      </trkpt>
      <trkpt lat="44.6179" lon="0.72849">
        <ele>92.6</ele>
        <time>2021-07-23T09:44:27Z</time>
      </trkpt>
      <trkpt lat="44.61797" lon="0.72834">
        <ele>92.6</ele>
        <time>2021-07-23T09:44:32Z</time>
      </trkpt>
      <trkpt lat="44.61807" lon="0.72817">
        <ele>92.6</ele>
        <time>2021-07-23T09:44:38Z</time>
      </trkpt>
      <trkpt lat="44.61815" lon="0.72805">
        <ele>92.7</ele>
        <time>2021-07-23T09:44:42Z</time>
      </trkpt>
      <trkpt lat="44.61825" lon="0.72784">
        <ele>92.5</ele>
        <time>2021-07-23T09:44:47Z</time>
      </trkpt>
      <trkpt lat="44.61828" lon="0.72776">
        <ele>92.4</ele>
        <time>2021-07-23T09:44:49Z</time>
      </trkpt>
      <trkpt lat="44.61831" lon="0.72768">
        <ele>92.3</ele>
        <time>2021-07-23T09:44:51Z</time>
      </trkpt>
      <trkpt lat="44.61836" lon="0.72753">
        <ele>92.2</ele>
        <time>2021-07-23T09:44:54Z</time>
      </trkpt>
      <trkpt lat="44.6184" lon="0.72747">
        <ele>92.2</ele>
        <time>2021-07-23T09:44:56Z</time>
      </trkpt>
      <trkpt lat="44.61847" lon="0.72736">
        <ele>92.3</ele>
        <time>2021-07-23T09:44:59Z</time>
      </trkpt>
      <trkpt lat="44.61849" lon="0.72731">
        <ele>92.3</ele>
        <time>2021-07-23T09:45:00Z</time>
      </trkpt>
      <trkpt lat="44.61857" lon="0.72708">
        <ele>92.4</ele>
        <time>2021-07-23T09:45:05Z</time>
      </trkpt>
      <trkpt lat="44.61865" lon="0.72681">
        <ele>92.7</ele>
        <time>2021-07-23T09:45:10Z</time>
      </trkpt>
      <trkpt lat="44.61876" lon="0.72655">
        <ele>92.9</ele>
        <time>2021-07-23T09:45:16Z</time>
      </trkpt>
      <trkpt lat="44.61888" lon="0.72631">
        <ele>93</ele>
        <time>2021-07-23T09:45:22Z</time>
      </trkpt>
      <trkpt lat="44.619" lon="0.72608">
        <ele>92.8</ele>
        <time>2021-07-23T09:45:27Z</time>
      </trkpt>
      <trkpt lat="44.61922" lon="0.72577">
        <ele>92</ele>
        <time>2021-07-23T09:45:34Z</time>
      </trkpt>
      <trkpt lat="44.61934" lon="0.72563">
        <ele>91.6</ele>
        <time>2021-07-23T09:45:38Z</time>
      </trkpt>
      <trkpt lat="44.61947" lon="0.72547">
        <ele>90.9</ele>
        <time>2021-07-23T09:45:43Z</time>
      </trkpt>
      <trkpt lat="44.61957" lon="0.72533">
        <ele>90.3</ele>
        <time>2021-07-23T09:45:47Z</time>
      </trkpt>
      <trkpt lat="44.61965" lon="0.72521">
        <ele>89.9</ele>
        <time>2021-07-23T09:45:51Z</time>
      </trkpt>
      <trkpt lat="44.6197" lon="0.72515">
        <ele>89.8</ele>
        <time>2021-07-23T09:45:53Z</time>
      </trkpt>
      <trkpt lat="44.61974" lon="0.72507">
        <ele>89.6</ele>
        <time>2021-07-23T09:45:55Z</time>
      </trkpt>
      <trkpt lat="44.61985" lon="0.72479">
        <ele>89</ele>
        <time>2021-07-23T09:46:01Z</time>
      </trkpt>
      <trkpt lat="44.6199" lon="0.72467">
        <ele>88.8</ele>
        <time>2021-07-23T09:46:05Z</time>
      </trkpt>
      <trkpt lat="44.61999" lon="0.72446">
        <ele>88.8</ele>
        <time>2021-07-23T09:46:10Z</time>
      </trkpt>
      <trkpt lat="44.62004" lon="0.72425">
        <ele>88.9</ele>
        <time>2021-07-23T09:46:15Z</time>
      </trkpt>
      <trkpt lat="44.62014" lon="0.72398">
        <ele>88.7</ele>
        <time>2021-07-23T09:46:21Z</time>
      </trkpt>
      <trkpt lat="44.62027" lon="0.72367">
        <ele>88.3</ele>
        <time>2021-07-23T09:46:28Z</time>
      </trkpt>
      <trkpt lat="44.62037" lon="0.72331">
        <ele>88.8</ele>
        <time>2021-07-23T09:46:35Z</time>
      </trkpt>
      <trkpt lat="44.62039" lon="0.72319">
        <ele>89</ele>
        <time>2021-07-23T09:46:39Z</time>
      </trkpt>
      <trkpt lat="44.62039" lon="0.72319">
        <ele>89.2</ele>
        <time>2021-07-23T09:46:40Z</time>
      </trkpt>
      <trkpt lat="44.62039" lon="0.72318">
        <ele>89.2</ele>
        <time>2021-07-23T09:46:46Z</time>
      </trkpt>
      <trkpt lat="44.62037" lon="0.72314">
        <ele>89.4</ele>
        <time>2021-07-23T09:46:48Z</time>
      </trkpt>
      <trkpt lat="44.62026" lon="0.72299">
        <ele>90.3</ele>
        <time>2021-07-23T09:46:53Z</time>
      </trkpt>
      <trkpt lat="44.62014" lon="0.72283">
        <ele>91.5</ele>
        <time>2021-07-23T09:46:59Z</time>
      </trkpt>
      <trkpt lat="44.62001" lon="0.72267">
        <ele>93.1</ele>
        <time>2021-07-23T09:47:06Z</time>
      </trkpt>
      <trkpt lat="44.61991" lon="0.72254">
        <ele>94.5</ele>
        <time>2021-07-23T09:47:13Z</time>
      </trkpt>
      <trkpt lat="44.61983" lon="0.72244">
        <ele>95.6</ele>
        <time>2021-07-23T09:47:18Z</time>
      </trkpt>
      <trkpt lat="44.61972" lon="0.72228">
        <ele>96.9</ele>
        <time>2021-07-23T09:47:25Z</time>
      </trkpt>
      <trkpt lat="44.61962" lon="0.72213">
        <ele>97.8</ele>
        <time>2021-07-23T09:47:31Z</time>
      </trkpt>
      <trkpt lat="44.61949" lon="0.72184">
        <ele>98.8</ele>
        <time>2021-07-23T09:47:39Z</time>
      </trkpt>
      <trkpt lat="44.61938" lon="0.72158">
        <ele>98.5</ele>
        <time>2021-07-23T09:47:46Z</time>
      </trkpt>
      <trkpt lat="44.61926" lon="0.7213">
        <ele>97.6</ele>
        <time>2021-07-23T09:47:52Z</time>
      </trkpt>
      <trkpt lat="44.61915" lon="0.72097">
        <ele>95.8</ele>
        <time>2021-07-23T09:47:57Z</time>
      </trkpt>
      <trkpt lat="44.61902" lon="0.72049">
        <ele>91.9</ele>
        <time>2021-07-23T09:48:01Z</time>
      </trkpt>
      <trkpt lat="44.61878" lon="0.71982">
        <ele>88.1</ele>
        <time>2021-07-23T09:48:06Z</time>
      </trkpt>
      <trkpt lat="44.61855" lon="0.71942">
        <ele>87.4</ele>
        <time>2021-07-23T09:48:10Z</time>
      </trkpt>
      <trkpt lat="44.6184" lon="0.7192">
        <ele>87.5</ele>
        <time>2021-07-23T09:48:13Z</time>
      </trkpt>
      <trkpt lat="44.61835" lon="0.71914">
        <ele>87.6</ele>
        <time>2021-07-23T09:48:14Z</time>
      </trkpt>
      <trkpt lat="44.61814" lon="0.7189">
        <ele>87.4</ele>
        <time>2021-07-23T09:48:19Z</time>
      </trkpt>
      <trkpt lat="44.61809" lon="0.71885">
        <ele>87.3</ele>
        <time>2021-07-23T09:48:20Z</time>
      </trkpt>
      <trkpt lat="44.61778" lon="0.71856">
        <ele>86.5</ele>
        <time>2021-07-23T09:48:26Z</time>
      </trkpt>
      <trkpt lat="44.61739" lon="0.71813">
        <ele>86.2</ele>
        <time>2021-07-23T09:48:34Z</time>
      </trkpt>
      <trkpt lat="44.61713" lon="0.71783">
        <ele>86.8</ele>
        <time>2021-07-23T09:48:40Z</time>
      </trkpt>
      <trkpt lat="44.61686" lon="0.71751">
        <ele>87.8</ele>
        <time>2021-07-23T09:48:47Z</time>
      </trkpt>
      <trkpt lat="44.61655" lon="0.71717">
        <ele>88.6</ele>
        <time>2021-07-23T09:48:55Z</time>
      </trkpt>
      <trkpt lat="44.61623" lon="0.71682">
        <ele>88.8</ele>
        <time>2021-07-23T09:49:03Z</time>
      </trkpt>
      <trkpt lat="44.61597" lon="0.71663">
        <ele>89.2</ele>
        <time>2021-07-23T09:49:09Z</time>
      </trkpt>
      <trkpt lat="44.61567" lon="0.7165">
        <ele>89.5</ele>
        <time>2021-07-23T09:49:15Z</time>
      </trkpt>
      <trkpt lat="44.6153" lon="0.71646">
        <ele>89.6</ele>
        <time>2021-07-23T09:49:22Z</time>
      </trkpt>
      <trkpt lat="44.6149" lon="0.71644">
        <ele>89.2</ele>
        <time>2021-07-23T09:49:29Z</time>
      </trkpt>
      <trkpt lat="44.61451" lon="0.71636">
        <ele>89.1</ele>
        <time>2021-07-23T09:49:36Z</time>
      </trkpt>
      <trkpt lat="44.61434" lon="0.71632">
        <ele>89.2</ele>
        <time>2021-07-23T09:49:39Z</time>
      </trkpt>
      <trkpt lat="44.61423" lon="0.71629">
        <ele>89.2</ele>
        <time>2021-07-23T09:49:41Z</time>
      </trkpt>
      <trkpt lat="44.61387" lon="0.71621">
        <ele>89.1</ele>
        <time>2021-07-23T09:49:47Z</time>
      </trkpt>
      <trkpt lat="44.61348" lon="0.71613">
        <ele>89</ele>
        <time>2021-07-23T09:49:54Z</time>
      </trkpt>
      <trkpt lat="44.61333" lon="0.71612">
        <ele>89.1</ele>
        <time>2021-07-23T09:49:57Z</time>
      </trkpt>
      <trkpt lat="44.61319" lon="0.71611">
        <ele>89.1</ele>
        <time>2021-07-23T09:50:00Z</time>
      </trkpt>
      <trkpt lat="44.61295" lon="0.71609">
        <ele>89.2</ele>
        <time>2021-07-23T09:50:05Z</time>
      </trkpt>
      <trkpt lat="44.61285" lon="0.71606">
        <ele>89.3</ele>
        <time>2021-07-23T09:50:07Z</time>
      </trkpt>
      <trkpt lat="44.61276" lon="0.716">
        <ele>89.4</ele>
        <time>2021-07-23T09:50:09Z</time>
      </trkpt>
      <trkpt lat="44.61263" lon="0.71586">
        <ele>89.7</ele>
        <time>2021-07-23T09:50:12Z</time>
      </trkpt>
      <trkpt lat="44.61262" lon="0.71574">
        <ele>90</ele>
        <time>2021-07-23T09:50:14Z</time>
      </trkpt>
      <trkpt lat="44.61268" lon="0.71566">
        <ele>90.4</ele>
        <time>2021-07-23T09:50:16Z</time>
      </trkpt>
      <trkpt lat="44.61272" lon="0.71563">
        <ele>90.5</ele>
        <time>2021-07-23T09:50:17Z</time>
      </trkpt>
      <trkpt lat="44.61288" lon="0.71549">
        <ele>90.8</ele>
        <time>2021-07-23T09:50:21Z</time>
      </trkpt>
      <trkpt lat="44.61295" lon="0.71539">
        <ele>91</ele>
        <time>2021-07-23T09:50:23Z</time>
      </trkpt>
      <trkpt lat="44.61301" lon="0.71528">
        <ele>91.2</ele>
        <time>2021-07-23T09:50:25Z</time>
      </trkpt>
      <trkpt lat="44.61305" lon="0.71514">
        <ele>91.3</ele>
        <time>2021-07-23T09:50:27Z</time>
      </trkpt>
      <trkpt lat="44.61307" lon="0.71507">
        <ele>91.5</ele>
        <time>2021-07-23T09:50:28Z</time>
      </trkpt>
      <trkpt lat="44.61313" lon="0.71481">
        <ele>91.9</ele>
        <time>2021-07-23T09:50:32Z</time>
      </trkpt>
      <trkpt lat="44.61313" lon="0.71475">
        <ele>92</ele>
        <time>2021-07-23T09:50:33Z</time>
      </trkpt>
      <trkpt lat="44.61314" lon="0.71469">
        <ele>92.1</ele>
        <time>2021-07-23T09:50:34Z</time>
      </trkpt>
      <trkpt lat="44.61319" lon="0.71432">
        <ele>92.7</ele>
        <time>2021-07-23T09:50:40Z</time>
      </trkpt>
      <trkpt lat="44.6132" lon="0.71426">
        <ele>92.8</ele>
        <time>2021-07-23T09:50:41Z</time>
      </trkpt>
      <trkpt lat="44.61324" lon="0.71401">
        <ele>93</ele>
        <time>2021-07-23T09:50:45Z</time>
      </trkpt>
      <trkpt lat="44.61325" lon="0.71394">
        <ele>93</ele>
        <time>2021-07-23T09:50:46Z</time>
      </trkpt>
      <trkpt lat="44.61329" lon="0.71366">
        <ele>92.9</ele>
        <time>2021-07-23T09:50:50Z</time>
      </trkpt>
      <trkpt lat="44.61338" lon="0.71307">
        <ele>92.2</ele>
        <time>2021-07-23T09:50:57Z</time>
      </trkpt>
      <trkpt lat="44.61352" lon="0.71228">
        <ele>91.4</ele>
        <time>2021-07-23T09:51:06Z</time>
      </trkpt>
      <trkpt lat="44.61355" lon="0.7121">
        <ele>91.2</ele>
        <time>2021-07-23T09:51:08Z</time>
      </trkpt>
      <trkpt lat="44.61367" lon="0.71147">
        <ele>90.6</ele>
        <time>2021-07-23T09:51:15Z</time>
      </trkpt>
      <trkpt lat="44.61381" lon="0.71074">
        <ele>89.7</ele>
        <time>2021-07-23T09:51:23Z</time>
      </trkpt>
      <trkpt lat="44.6139" lon="0.71017">
        <ele>89.2</ele>
        <time>2021-07-23T09:51:29Z</time>
      </trkpt>
      <trkpt lat="44.61399" lon="0.7097">
        <ele>89</ele>
        <time>2021-07-23T09:51:34Z</time>
      </trkpt>
      <trkpt lat="44.61413" lon="0.70895">
        <ele>89</ele>
        <time>2021-07-23T09:51:42Z</time>
      </trkpt>
      <trkpt lat="44.61419" lon="0.70857">
        <ele>89.8</ele>
        <time>2021-07-23T09:51:47Z</time>
      </trkpt>
      <trkpt lat="44.61424" lon="0.70825">
        <ele>90.7</ele>
        <time>2021-07-23T09:51:53Z</time>
      </trkpt>
      <trkpt lat="44.61426" lon="0.708">
        <ele>90.9</ele>
        <time>2021-07-23T09:51:58Z</time>
      </trkpt>
      <trkpt lat="44.61427" lon="0.70795">
        <ele>90.9</ele>
        <time>2021-07-23T09:51:59Z</time>
      </trkpt>
      <trkpt lat="44.61428" lon="0.70774">
        <ele>90.9</ele>
        <time>2021-07-23T09:52:02Z</time>
      </trkpt>
      <trkpt lat="44.61434" lon="0.70734">
        <ele>91</ele>
        <time>2021-07-23T09:52:07Z</time>
      </trkpt>
      <trkpt lat="44.61434" lon="0.70727">
        <ele>91</ele>
        <time>2021-07-23T09:52:08Z</time>
      </trkpt>
      <trkpt lat="44.61435" lon="0.70699">
        <ele>91.1</ele>
        <time>2021-07-23T09:52:12Z</time>
      </trkpt>
      <trkpt lat="44.61431" lon="0.70664">
        <ele>91.2</ele>
        <time>2021-07-23T09:52:17Z</time>
      </trkpt>
      <trkpt lat="44.61426" lon="0.70644">
        <ele>91.3</ele>
        <time>2021-07-23T09:52:20Z</time>
      </trkpt>
      <trkpt lat="44.61424" lon="0.70636">
        <ele>91.3</ele>
        <time>2021-07-23T09:52:21Z</time>
      </trkpt>
      <trkpt lat="44.61422" lon="0.70629">
        <ele>91.3</ele>
        <time>2021-07-23T09:52:22Z</time>
      </trkpt>
      <trkpt lat="44.61413" lon="0.70608">
        <ele>91.3</ele>
        <time>2021-07-23T09:52:25Z</time>
      </trkpt>
      <trkpt lat="44.61398" lon="0.70577">
        <ele>91.4</ele>
        <time>2021-07-23T09:52:30Z</time>
      </trkpt>
      <trkpt lat="44.61395" lon="0.7057">
        <ele>91.4</ele>
        <time>2021-07-23T09:52:31Z</time>
      </trkpt>
      <trkpt lat="44.61391" lon="0.70556">
        <ele>91.4</ele>
        <time>2021-07-23T09:52:33Z</time>
      </trkpt>
      <trkpt lat="44.6139" lon="0.7055">
        <ele>91.4</ele>
        <time>2021-07-23T09:52:34Z</time>
      </trkpt>
      <trkpt lat="44.61388" lon="0.70542">
        <ele>91.4</ele>
        <time>2021-07-23T09:52:35Z</time>
      </trkpt>
      <trkpt lat="44.61387" lon="0.70526">
        <ele>91.5</ele>
        <time>2021-07-23T09:52:37Z</time>
      </trkpt>
      <trkpt lat="44.61386" lon="0.70518">
        <ele>91.5</ele>
        <time>2021-07-23T09:52:38Z</time>
      </trkpt>
      <trkpt lat="44.61383" lon="0.70488">
        <ele>91.7</ele>
        <time>2021-07-23T09:52:42Z</time>
      </trkpt>
      <trkpt lat="44.61382" lon="0.7048">
        <ele>91.7</ele>
        <time>2021-07-23T09:52:43Z</time>
      </trkpt>
      <trkpt lat="44.61376" lon="0.70435">
        <ele>91.7</ele>
        <time>2021-07-23T09:52:49Z</time>
      </trkpt>
      <trkpt lat="44.61375" lon="0.7042">
        <ele>91.8</ele>
        <time>2021-07-23T09:52:51Z</time>
      </trkpt>
      <trkpt lat="44.61373" lon="0.70404">
        <ele>91.9</ele>
        <time>2021-07-23T09:52:53Z</time>
      </trkpt>
      <trkpt lat="44.61368" lon="0.70377">
        <ele>91.9</ele>
        <time>2021-07-23T09:52:57Z</time>
      </trkpt>
      <trkpt lat="44.61368" lon="0.7037">
        <ele>92</ele>
        <time>2021-07-23T09:52:58Z</time>
      </trkpt>
      <trkpt lat="44.61366" lon="0.70354">
        <ele>92</ele>
        <time>2021-07-23T09:53:00Z</time>
      </trkpt>
      <trkpt lat="44.61363" lon="0.70339">
        <ele>91.9</ele>
        <time>2021-07-23T09:53:02Z</time>
      </trkpt>
      <trkpt lat="44.61361" lon="0.70322">
        <ele>92</ele>
        <time>2021-07-23T09:53:04Z</time>
      </trkpt>
      <trkpt lat="44.61357" lon="0.70298">
        <ele>92.3</ele>
        <time>2021-07-23T09:53:07Z</time>
      </trkpt>
      <trkpt lat="44.61352" lon="0.70262">
        <ele>92.5</ele>
        <time>2021-07-23T09:53:12Z</time>
      </trkpt>
      <trkpt lat="44.6135" lon="0.70242">
        <ele>92.5</ele>
        <time>2021-07-23T09:53:15Z</time>
      </trkpt>
      <trkpt lat="44.61348" lon="0.70229">
        <ele>92.6</ele>
        <time>2021-07-23T09:53:17Z</time>
      </trkpt>
      <trkpt lat="44.61347" lon="0.70223">
        <ele>92.6</ele>
        <time>2021-07-23T09:53:18Z</time>
      </trkpt>
      <trkpt lat="44.61343" lon="0.70197">
        <ele>92.7</ele>
        <time>2021-07-23T09:53:22Z</time>
      </trkpt>
      <trkpt lat="44.61341" lon="0.70191">
        <ele>92.8</ele>
        <time>2021-07-23T09:53:23Z</time>
      </trkpt>
      <trkpt lat="44.61334" lon="0.70167">
        <ele>92.8</ele>
        <time>2021-07-23T09:53:27Z</time>
      </trkpt>
      <trkpt lat="44.61332" lon="0.70161">
        <ele>92.8</ele>
        <time>2021-07-23T09:53:28Z</time>
      </trkpt>
      <trkpt lat="44.61321" lon="0.70127">
        <ele>92.9</ele>
        <time>2021-07-23T09:53:34Z</time>
      </trkpt>
      <trkpt lat="44.61311" lon="0.70093">
        <ele>93</ele>
        <time>2021-07-23T09:53:40Z</time>
      </trkpt>
      <trkpt lat="44.61309" lon="0.70087">
        <ele>93</ele>
        <time>2021-07-23T09:53:41Z</time>
      </trkpt>
      <trkpt lat="44.61302" lon="0.70062">
        <ele>93.1</ele>
        <time>2021-07-23T09:53:46Z</time>
      </trkpt>
      <trkpt lat="44.61292" lon="0.70031">
        <ele>93.4</ele>
        <time>2021-07-23T09:53:52Z</time>
      </trkpt>
      <trkpt lat="44.61291" lon="0.70025">
        <ele>93.4</ele>
        <time>2021-07-23T09:53:53Z</time>
      </trkpt>
      <trkpt lat="44.61287" lon="0.70008">
        <ele>93.6</ele>
        <time>2021-07-23T09:53:56Z</time>
      </trkpt>
      <trkpt lat="44.61286" lon="0.70003">
        <ele>93.6</ele>
        <time>2021-07-23T09:53:57Z</time>
      </trkpt>
      <trkpt lat="44.61268" lon="0.69947">
        <ele>94</ele>
        <time>2021-07-23T09:54:07Z</time>
      </trkpt>
      <trkpt lat="44.61252" lon="0.69901">
        <ele>94.5</ele>
        <time>2021-07-23T09:54:15Z</time>
      </trkpt>
      <trkpt lat="44.61248" lon="0.6989">
        <ele>94.6</ele>
        <time>2021-07-23T09:54:17Z</time>
      </trkpt>
      <trkpt lat="44.61239" lon="0.69864">
        <ele>94.9</ele>
        <time>2021-07-23T09:54:22Z</time>
      </trkpt>
      <trkpt lat="44.61224" lon="0.69821">
        <ele>95.5</ele>
        <time>2021-07-23T09:54:30Z</time>
      </trkpt>
      <trkpt lat="44.61209" lon="0.69785">
        <ele>96.1</ele>
        <time>2021-07-23T09:54:37Z</time>
      </trkpt>
      <trkpt lat="44.61192" lon="0.69748">
        <ele>96.7</ele>
        <time>2021-07-23T09:54:44Z</time>
      </trkpt>
      <trkpt lat="44.61187" lon="0.69732">
        <ele>97</ele>
        <time>2021-07-23T09:54:47Z</time>
      </trkpt>
      <trkpt lat="44.61185" lon="0.69721">
        <ele>97.1</ele>
        <time>2021-07-23T09:54:49Z</time>
      </trkpt>
      <trkpt lat="44.61186" lon="0.69694">
        <ele>97.4</ele>
        <time>2021-07-23T09:54:54Z</time>
      </trkpt>
      <trkpt lat="44.61183" lon="0.69666">
        <ele>97.6</ele>
        <time>2021-07-23T09:54:59Z</time>
      </trkpt>
      <trkpt lat="44.61178" lon="0.69648">
        <ele>97.7</ele>
        <time>2021-07-23T09:55:04Z</time>
      </trkpt>
      <trkpt lat="44.61177" lon="0.6963">
        <ele>97.9</ele>
        <time>2021-07-23T09:55:10Z</time>
      </trkpt>
      <trkpt lat="44.6118" lon="0.69624">
        <ele>98</ele>
        <time>2021-07-23T09:55:12Z</time>
      </trkpt>
      <trkpt lat="44.61184" lon="0.69618">
        <ele>98.1</ele>
        <time>2021-07-23T09:55:14Z</time>
      </trkpt>
      <trkpt lat="44.61196" lon="0.69598">
        <ele>98.5</ele>
        <time>2021-07-23T09:55:20Z</time>
      </trkpt>
      <trkpt lat="44.61207" lon="0.69579">
        <ele>98.9</ele>
        <time>2021-07-23T09:55:25Z</time>
      </trkpt>
      <trkpt lat="44.61221" lon="0.69554">
        <ele>99.3</ele>
        <time>2021-07-23T09:55:31Z</time>
      </trkpt>
      <trkpt lat="44.61234" lon="0.69534">
        <ele>99.5</ele>
        <time>2021-07-23T09:55:36Z</time>
      </trkpt>
      <trkpt lat="44.61247" lon="0.69517">
        <ele>99.8</ele>
        <time>2021-07-23T09:55:41Z</time>
      </trkpt>
      <trkpt lat="44.61259" lon="0.69498">
        <ele>100</ele>
        <time>2021-07-23T09:55:46Z</time>
      </trkpt>
      <trkpt lat="44.61262" lon="0.69494">
        <ele>100</ele>
        <time>2021-07-23T09:55:47Z</time>
      </trkpt>
      <trkpt lat="44.61281" lon="0.6947">
        <ele>100</ele>
        <time>2021-07-23T09:55:53Z</time>
      </trkpt>
      <trkpt lat="44.61301" lon="0.69434">
        <ele>100.2</ele>
        <time>2021-07-23T09:56:01Z</time>
      </trkpt>
      <trkpt lat="44.61315" lon="0.69409">
        <ele>100.4</ele>
        <time>2021-07-23T09:56:07Z</time>
      </trkpt>
      <trkpt lat="44.61323" lon="0.69385">
        <ele>100.7</ele>
        <time>2021-07-23T09:56:12Z</time>
      </trkpt>
      <trkpt lat="44.61324" lon="0.6938">
        <ele>100.8</ele>
        <time>2021-07-23T09:56:15Z</time>
      </trkpt>
      <trkpt lat="44.61325" lon="0.69378">
        <ele>100.9</ele>
        <time>2021-07-23T09:56:19Z</time>
      </trkpt>
      <trkpt lat="44.61326" lon="0.69372">
        <ele>101</ele>
        <time>2021-07-23T09:56:22Z</time>
      </trkpt>
      <trkpt lat="44.61327" lon="0.6936">
        <ele>101.1</ele>
        <time>2021-07-23T09:56:29Z</time>
      </trkpt>
      <trkpt lat="44.61329" lon="0.69348">
        <ele>101.2</ele>
        <time>2021-07-23T09:56:36Z</time>
      </trkpt>
      <trkpt lat="44.61329" lon="0.69348">
        <ele>101.2</ele>
        <time>2021-07-23T09:56:38Z</time>
      </trkpt>
      <trkpt lat="44.61329" lon="0.69345">
        <ele>101.2</ele>
        <time>2021-07-23T09:56:40Z</time>
      </trkpt>
      <trkpt lat="44.61329" lon="0.69342">
        <ele>101.2</ele>
        <time>2021-07-23T09:56:41Z</time>
      </trkpt>
      <trkpt lat="44.61329" lon="0.69322">
        <ele>101.3</ele>
        <time>2021-07-23T09:56:46Z</time>
      </trkpt>
      <trkpt lat="44.61328" lon="0.69297">
        <ele>101.5</ele>
        <time>2021-07-23T09:56:52Z</time>
      </trkpt>
      <trkpt lat="44.61325" lon="0.69262">
        <ele>101.8</ele>
        <time>2021-07-23T09:56:59Z</time>
      </trkpt>
      <trkpt lat="44.61322" lon="0.69231">
        <ele>102.2</ele>
        <time>2021-07-23T09:57:05Z</time>
      </trkpt>
      <trkpt lat="44.61316" lon="0.692">
        <ele>102.4</ele>
        <time>2021-07-23T09:57:11Z</time>
      </trkpt>
      <trkpt lat="44.6131" lon="0.69172">
        <ele>102.9</ele>
        <time>2021-07-23T09:57:17Z</time>
      </trkpt>
      <trkpt lat="44.61308" lon="0.69147">
        <ele>103.4</ele>
        <time>2021-07-23T09:57:22Z</time>
      </trkpt>
      <trkpt lat="44.61311" lon="0.69118">
        <ele>103.7</ele>
        <time>2021-07-23T09:57:28Z</time>
      </trkpt>
      <trkpt lat="44.61314" lon="0.69095">
        <ele>103.7</ele>
        <time>2021-07-23T09:57:34Z</time>
      </trkpt>
      <trkpt lat="44.61316" lon="0.69076">
        <ele>103.2</ele>
        <time>2021-07-23T09:57:39Z</time>
      </trkpt>
      <trkpt lat="44.61318" lon="0.69048">
        <ele>102.8</ele>
        <time>2021-07-23T09:57:45Z</time>
      </trkpt>
      <trkpt lat="44.6132" lon="0.69027">
        <ele>102.7</ele>
        <time>2021-07-23T09:57:50Z</time>
      </trkpt>
      <trkpt lat="44.61318" lon="0.69011">
        <ele>102.8</ele>
        <time>2021-07-23T09:57:53Z</time>
      </trkpt>
      <trkpt lat="44.61317" lon="0.69006">
        <ele>102.8</ele>
        <time>2021-07-23T09:57:54Z</time>
      </trkpt>
      <trkpt lat="44.61305" lon="0.68984">
        <ele>103.2</ele>
        <time>2021-07-23T09:57:59Z</time>
      </trkpt>
      <trkpt lat="44.61294" lon="0.68965">
        <ele>103.3</ele>
        <time>2021-07-23T09:58:03Z</time>
      </trkpt>
      <trkpt lat="44.61287" lon="0.68953">
        <ele>103.5</ele>
        <time>2021-07-23T09:58:06Z</time>
      </trkpt>
      <trkpt lat="44.61284" lon="0.68943">
        <ele>103.6</ele>
        <time>2021-07-23T09:58:08Z</time>
      </trkpt>
      <trkpt lat="44.61282" lon="0.68916">
        <ele>103.9</ele>
        <time>2021-07-23T09:58:13Z</time>
      </trkpt>
      <trkpt lat="44.61286" lon="0.68882">
        <ele>104.1</ele>
        <time>2021-07-23T09:58:19Z</time>
      </trkpt>
      <trkpt lat="44.61289" lon="0.68855">
        <ele>104.4</ele>
        <time>2021-07-23T09:58:24Z</time>
      </trkpt>
      <trkpt lat="44.61292" lon="0.6882">
        <ele>105</ele>
        <time>2021-07-23T09:58:30Z</time>
      </trkpt>
      <trkpt lat="44.61295" lon="0.68788">
        <ele>105.9</ele>
        <time>2021-07-23T09:58:36Z</time>
      </trkpt>
      <trkpt lat="44.61296" lon="0.68767">
        <ele>106.6</ele>
        <time>2021-07-23T09:58:41Z</time>
      </trkpt>
      <trkpt lat="44.61296" lon="0.68759">
        <ele>106.9</ele>
        <time>2021-07-23T09:58:43Z</time>
      </trkpt>
      <trkpt lat="44.61293" lon="0.68749">
        <ele>107.3</ele>
        <time>2021-07-23T09:58:46Z</time>
      </trkpt>
      <trkpt lat="44.61293" lon="0.68742">
        <ele>107.5</ele>
        <time>2021-07-23T09:58:48Z</time>
      </trkpt>
      <trkpt lat="44.61292" lon="0.68736">
        <ele>107.8</ele>
        <time>2021-07-23T09:58:50Z</time>
      </trkpt>
      <trkpt lat="44.6129" lon="0.68726">
        <ele>108.2</ele>
        <time>2021-07-23T09:58:53Z</time>
      </trkpt>
      <trkpt lat="44.6129" lon="0.68719">
        <ele>108.5</ele>
        <time>2021-07-23T09:58:55Z</time>
      </trkpt>
      <trkpt lat="44.61287" lon="0.68692">
        <ele>109.7</ele>
        <time>2021-07-23T09:59:03Z</time>
      </trkpt>
      <trkpt lat="44.61285" lon="0.68674">
        <ele>110.4</ele>
        <time>2021-07-23T09:59:08Z</time>
      </trkpt>
      <trkpt lat="44.61282" lon="0.68659">
        <ele>111.2</ele>
        <time>2021-07-23T09:59:13Z</time>
      </trkpt>
      <trkpt lat="44.61279" lon="0.68643">
        <ele>112.2</ele>
        <time>2021-07-23T09:59:19Z</time>
      </trkpt>
      <trkpt lat="44.61278" lon="0.68628">
        <ele>113.5</ele>
        <time>2021-07-23T09:59:27Z</time>
      </trkpt>
      <trkpt lat="44.61276" lon="0.68616">
        <ele>114.7</ele>
        <time>2021-07-23T09:59:33Z</time>
      </trkpt>
      <trkpt lat="44.61275" lon="0.68614">
        <ele>115</ele>
        <time>2021-07-23T09:59:34Z</time>
      </trkpt>
      <trkpt lat="44.61274" lon="0.68607">
        <ele>115.8</ele>
        <time>2021-07-23T09:59:38Z</time>
      </trkpt>
      <trkpt lat="44.61274" lon="0.68605">
        <ele>116</ele>
        <time>2021-07-23T09:59:39Z</time>
      </trkpt>
      <trkpt lat="44.61274" lon="0.68599">
        <ele>116.6</ele>
        <time>2021-07-23T09:59:42Z</time>
      </trkpt>
      <trkpt lat="44.61277" lon="0.68596">
        <ele>117.1</ele>
        <time>2021-07-23T09:59:45Z</time>
      </trkpt>
      <trkpt lat="44.61275" lon="0.68591">
        <ele>117.6</ele>
        <time>2021-07-23T09:59:48Z</time>
      </trkpt>
      <trkpt lat="44.61273" lon="0.68589">
        <ele>118</ele>
        <time>2021-07-23T09:59:50Z</time>
      </trkpt>
      <trkpt lat="44.61264" lon="0.68581">
        <ele>118.7</ele>
        <time>2021-07-23T09:59:56Z</time>
      </trkpt>
      <trkpt lat="44.61253" lon="0.6857">
        <ele>119</ele>
        <time>2021-07-23T10:00:03Z</time>
      </trkpt>
      <trkpt lat="44.61246" lon="0.68571">
        <ele>119.1</ele>
        <time>2021-07-23T10:00:09Z</time>
      </trkpt>
      <trkpt lat="44.61245" lon="0.6857">
        <ele>119.1</ele>
        <time>2021-07-23T10:00:10Z</time>
      </trkpt>
      <trkpt lat="44.61243" lon="0.68565">
        <ele>119.2</ele>
        <time>2021-07-23T10:00:13Z</time>
      </trkpt>
      <trkpt lat="44.61241" lon="0.68561">
        <ele>119.3</ele>
        <time>2021-07-23T10:00:16Z</time>
      </trkpt>
      <trkpt lat="44.61242" lon="0.68559">
        <ele>119.3</ele>
        <time>2021-07-23T10:00:18Z</time>
      </trkpt>
      <trkpt lat="44.61244" lon="0.68559">
        <ele>119.4</ele>
        <time>2021-07-23T10:00:19Z</time>
      </trkpt>
      <trkpt lat="44.61252" lon="0.68554">
        <ele>119.8</ele>
        <time>2021-07-23T10:00:24Z</time>
      </trkpt>
      <trkpt lat="44.61252" lon="0.68553">
        <ele>120</ele>
        <time>2021-07-23T10:00:25Z</time>
      </trkpt>
      <trkpt lat="44.61252" lon="0.68551">
        <ele>120.1</ele>
        <time>2021-07-23T10:00:26Z</time>
      </trkpt>
      <trkpt lat="44.61255" lon="0.68545">
        <ele>120.6</ele>
        <time>2021-07-23T10:00:30Z</time>
      </trkpt>
      <trkpt lat="44.61254" lon="0.68531">
        <ele>122</ele>
        <time>2021-07-23T10:00:37Z</time>
      </trkpt>
      <trkpt lat="44.61252" lon="0.68522">
        <ele>122.9</ele>
        <time>2021-07-23T10:00:42Z</time>
      </trkpt>
      <trkpt lat="44.61251" lon="0.68518">
        <ele>123.4</ele>
        <time>2021-07-23T10:00:44Z</time>
      </trkpt>
      <trkpt lat="44.61251" lon="0.6851">
        <ele>124.3</ele>
        <time>2021-07-23T10:00:48Z</time>
      </trkpt>
      <trkpt lat="44.61248" lon="0.685">
        <ele>125.7</ele>
        <time>2021-07-23T10:00:53Z</time>
      </trkpt>
      <trkpt lat="44.61247" lon="0.68491">
        <ele>126.9</ele>
        <time>2021-07-23T10:00:57Z</time>
      </trkpt>
      <trkpt lat="44.61248" lon="0.68486">
        <ele>127.6</ele>
        <time>2021-07-23T10:01:00Z</time>
      </trkpt>
      <trkpt lat="44.61247" lon="0.6848">
        <ele>128.6</ele>
        <time>2021-07-23T10:01:04Z</time>
      </trkpt>
      <trkpt lat="44.61246" lon="0.68474">
        <ele>129.5</ele>
        <time>2021-07-23T10:01:07Z</time>
      </trkpt>
      <trkpt lat="44.61245" lon="0.68463">
        <ele>131.4</ele>
        <time>2021-07-23T10:01:13Z</time>
      </trkpt>
      <trkpt lat="44.61244" lon="0.68455">
        <ele>132.8</ele>
        <time>2021-07-23T10:01:18Z</time>
      </trkpt>
      <trkpt lat="44.61244" lon="0.68453">
        <ele>133.2</ele>
        <time>2021-07-23T10:01:19Z</time>
      </trkpt>
      <trkpt lat="44.61245" lon="0.68445">
        <ele>134.7</ele>
        <time>2021-07-23T10:01:25Z</time>
      </trkpt>
      <trkpt lat="44.61245" lon="0.6844">
        <ele>135.8</ele>
        <time>2021-07-23T10:01:29Z</time>
      </trkpt>
      <trkpt lat="44.61245" lon="0.6844">
        <ele>135.8</ele>
        <time>2021-07-23T10:01:30Z</time>
      </trkpt>
      <trkpt lat="44.61245" lon="0.6844">
        <ele>135.8</ele>
        <time>2021-07-23T10:01:39Z</time>
      </trkpt>
      <trkpt lat="44.61246" lon="0.68434">
        <ele>137</ele>
        <time>2021-07-23T10:01:43Z</time>
      </trkpt>
      <trkpt lat="44.61246" lon="0.68425">
        <ele>138.9</ele>
        <time>2021-07-23T10:01:48Z</time>
      </trkpt>
      <trkpt lat="44.61246" lon="0.68419">
        <ele>140.2</ele>
        <time>2021-07-23T10:01:52Z</time>
      </trkpt>
      <trkpt lat="44.61246" lon="0.68413">
        <ele>141.5</ele>
        <time>2021-07-23T10:01:57Z</time>
      </trkpt>
      <trkpt lat="44.61247" lon="0.6841">
        <ele>142</ele>
        <time>2021-07-23T10:01:59Z</time>
      </trkpt>
      <trkpt lat="44.61248" lon="0.68403">
        <ele>143.4</ele>
        <time>2021-07-23T10:02:05Z</time>
      </trkpt>
      <trkpt lat="44.61248" lon="0.68398">
        <ele>144.3</ele>
        <time>2021-07-23T10:02:11Z</time>
      </trkpt>
      <trkpt lat="44.61248" lon="0.68391">
        <ele>145.5</ele>
        <time>2021-07-23T10:02:17Z</time>
      </trkpt>
      <trkpt lat="44.61249" lon="0.68384">
        <ele>146.5</ele>
        <time>2021-07-23T10:02:23Z</time>
      </trkpt>
      <trkpt lat="44.61249" lon="0.68376">
        <ele>147.6</ele>
        <time>2021-07-23T10:02:30Z</time>
      </trkpt>
      <trkpt lat="44.61251" lon="0.68371">
        <ele>148.1</ele>
        <time>2021-07-23T10:02:34Z</time>
      </trkpt>
      <trkpt lat="44.61251" lon="0.68368">
        <ele>148.4</ele>
        <time>2021-07-23T10:02:37Z</time>
      </trkpt>
      <trkpt lat="44.61251" lon="0.68362">
        <ele>148.9</ele>
        <time>2021-07-23T10:02:42Z</time>
      </trkpt>
      <trkpt lat="44.61251" lon="0.6836">
        <ele>149</ele>
        <time>2021-07-23T10:02:44Z</time>
      </trkpt>
      <trkpt lat="44.61251" lon="0.68357">
        <ele>149.2</ele>
        <time>2021-07-23T10:02:47Z</time>
      </trkpt>
      <trkpt lat="44.61249" lon="0.68354">
        <ele>149.3</ele>
        <time>2021-07-23T10:02:49Z</time>
      </trkpt>
      <trkpt lat="44.61248" lon="0.68353">
        <ele>149.4</ele>
        <time>2021-07-23T10:02:51Z</time>
      </trkpt>
      <trkpt lat="44.61249" lon="0.68352">
        <ele>149.4</ele>
        <time>2021-07-23T10:02:52Z</time>
      </trkpt>
      <trkpt lat="44.61248" lon="0.68351">
        <ele>149.4</ele>
        <time>2021-07-23T10:02:54Z</time>
      </trkpt>
      <trkpt lat="44.61249" lon="0.6835">
        <ele>149.5</ele>
        <time>2021-07-23T10:07:06Z</time>
      </trkpt>
      <trkpt lat="44.6125" lon="0.68349">
        <ele>149.5</ele>
        <time>2021-07-23T10:07:08Z</time>
      </trkpt>
      <trkpt lat="44.61248" lon="0.68347">
        <ele>149.6</ele>
        <time>2021-07-23T10:07:28Z</time>
      </trkpt>
      <trkpt lat="44.61246" lon="0.68345">
        <ele>149.7</ele>
        <time>2021-07-23T10:07:30Z</time>
      </trkpt>
      <trkpt lat="44.61239" lon="0.68336">
        <ele>149.5</ele>
        <time>2021-07-23T10:07:36Z</time>
      </trkpt>
      <trkpt lat="44.61226" lon="0.68318">
        <ele>149.2</ele>
        <time>2021-07-23T10:07:43Z</time>
      </trkpt>
      <trkpt lat="44.61212" lon="0.68298">
        <ele>148.9</ele>
        <time>2021-07-23T10:07:50Z</time>
      </trkpt>
      <trkpt lat="44.61198" lon="0.68276">
        <ele>148.9</ele>
        <time>2021-07-23T10:07:57Z</time>
      </trkpt>
      <trkpt lat="44.61177" lon="0.68244">
        <ele>148.9</ele>
        <time>2021-07-23T10:08:05Z</time>
      </trkpt>
      <trkpt lat="44.61156" lon="0.68216">
        <ele>149.1</ele>
        <time>2021-07-23T10:08:12Z</time>
      </trkpt>
      <trkpt lat="44.61136" lon="0.68191">
        <ele>149.5</ele>
        <time>2021-07-23T10:08:19Z</time>
      </trkpt>
      <trkpt lat="44.61105" lon="0.68167">
        <ele>149.6</ele>
        <time>2021-07-23T10:08:28Z</time>
      </trkpt>
      <trkpt lat="44.61088" lon="0.68151">
        <ele>149.4</ele>
        <time>2021-07-23T10:08:34Z</time>
      </trkpt>
      <trkpt lat="44.61062" lon="0.68132">
        <ele>149</ele>
        <time>2021-07-23T10:08:42Z</time>
      </trkpt>
      <trkpt lat="44.61031" lon="0.68102">
        <ele>148.6</ele>
        <time>2021-07-23T10:08:50Z</time>
      </trkpt>
      <trkpt lat="44.61009" lon="0.68071">
        <ele>148.6</ele>
        <time>2021-07-23T10:08:56Z</time>
      </trkpt>
      <trkpt lat="44.60989" lon="0.68028">
        <ele>149.1</ele>
        <time>2021-07-23T10:09:03Z</time>
      </trkpt>
      <trkpt lat="44.60966" lon="0.67983">
        <ele>150</ele>
        <time>2021-07-23T10:09:11Z</time>
      </trkpt>
      <trkpt lat="44.60946" lon="0.67936">
        <ele>150.9</ele>
        <time>2021-07-23T10:09:19Z</time>
      </trkpt>
      <trkpt lat="44.60937" lon="0.67913">
        <ele>151.2</ele>
        <time>2021-07-23T10:09:24Z</time>
      </trkpt>
      <trkpt lat="44.60925" lon="0.67884">
        <ele>151.5</ele>
        <time>2021-07-23T10:09:30Z</time>
      </trkpt>
      <trkpt lat="44.60907" lon="0.67837">
        <ele>151.1</ele>
        <time>2021-07-23T10:09:38Z</time>
      </trkpt>
      <trkpt lat="44.60885" lon="0.67781">
        <ele>150.3</ele>
        <time>2021-07-23T10:09:46Z</time>
      </trkpt>
      <trkpt lat="44.60875" lon="0.67759">
        <ele>150.1</ele>
        <time>2021-07-23T10:09:49Z</time>
      </trkpt>
      <trkpt lat="44.60875" lon="0.67751">
        <ele>150.2</ele>
        <time>2021-07-23T10:09:50Z</time>
      </trkpt>
      <trkpt lat="44.60876" lon="0.67745">
        <ele>150.5</ele>
        <time>2021-07-23T10:09:51Z</time>
      </trkpt>
      <trkpt lat="44.60883" lon="0.67738">
        <ele>150.9</ele>
        <time>2021-07-23T10:09:53Z</time>
      </trkpt>
      <trkpt lat="44.60907" lon="0.67723">
        <ele>151.9</ele>
        <time>2021-07-23T10:10:00Z</time>
      </trkpt>
      <trkpt lat="44.6093" lon="0.67702">
        <ele>152.4</ele>
        <time>2021-07-23T10:10:07Z</time>
      </trkpt>
      <trkpt lat="44.60955" lon="0.67676">
        <ele>152</ele>
        <time>2021-07-23T10:10:14Z</time>
      </trkpt>
      <trkpt lat="44.60984" lon="0.67646">
        <ele>151.1</ele>
        <time>2021-07-23T10:10:21Z</time>
      </trkpt>
      <trkpt lat="44.61004" lon="0.6762">
        <ele>150.6</ele>
        <time>2021-07-23T10:10:26Z</time>
      </trkpt>
      <trkpt lat="44.61006" lon="0.67613">
        <ele>150.5</ele>
        <time>2021-07-23T10:10:27Z</time>
      </trkpt>
      <trkpt lat="44.61008" lon="0.67605">
        <ele>150.3</ele>
        <time>2021-07-23T10:10:28Z</time>
      </trkpt>
      <trkpt lat="44.61006" lon="0.6759">
        <ele>150.1</ele>
        <time>2021-07-23T10:10:30Z</time>
      </trkpt>
      <trkpt lat="44.60993" lon="0.67557">
        <ele>149.8</ele>
        <time>2021-07-23T10:10:35Z</time>
      </trkpt>
      <trkpt lat="44.6099" lon="0.67551">
        <ele>149.7</ele>
        <time>2021-07-23T10:10:36Z</time>
      </trkpt>
      <trkpt lat="44.60979" lon="0.67513">
        <ele>149.1</ele>
        <time>2021-07-23T10:10:41Z</time>
      </trkpt>
      <trkpt lat="44.60972" lon="0.6749">
        <ele>148.7</ele>
        <time>2021-07-23T10:10:44Z</time>
      </trkpt>
      <trkpt lat="44.60972" lon="0.67482">
        <ele>148.6</ele>
        <time>2021-07-23T10:10:45Z</time>
      </trkpt>
      <trkpt lat="44.60971" lon="0.67441">
        <ele>148.2</ele>
        <time>2021-07-23T10:10:51Z</time>
      </trkpt>
      <trkpt lat="44.60971" lon="0.67406">
        <ele>147.3</ele>
        <time>2021-07-23T10:10:56Z</time>
      </trkpt>
      <trkpt lat="44.60974" lon="0.67352">
        <ele>146</ele>
        <time>2021-07-23T10:11:02Z</time>
      </trkpt>
      <trkpt lat="44.60975" lon="0.67337">
        <ele>145.9</ele>
        <time>2021-07-23T10:11:04Z</time>
      </trkpt>
      <trkpt lat="44.60976" lon="0.67317">
        <ele>145.9</ele>
        <time>2021-07-23T10:11:07Z</time>
      </trkpt>
      <trkpt lat="44.60978" lon="0.6731">
        <ele>145.9</ele>
        <time>2021-07-23T10:11:08Z</time>
      </trkpt>
      <trkpt lat="44.60984" lon="0.67298">
        <ele>145.9</ele>
        <time>2021-07-23T10:11:10Z</time>
      </trkpt>
      <trkpt lat="44.60992" lon="0.67282">
        <ele>146.1</ele>
        <time>2021-07-23T10:11:13Z</time>
      </trkpt>
      <trkpt lat="44.61005" lon="0.67263">
        <ele>146.2</ele>
        <time>2021-07-23T10:11:17Z</time>
      </trkpt>
      <trkpt lat="44.6101" lon="0.67252">
        <ele>146.1</ele>
        <time>2021-07-23T10:11:19Z</time>
      </trkpt>
      <trkpt lat="44.61016" lon="0.67239">
        <ele>146.1</ele>
        <time>2021-07-23T10:11:21Z</time>
      </trkpt>
      <trkpt lat="44.61023" lon="0.6723">
        <ele>146</ele>
        <time>2021-07-23T10:11:23Z</time>
      </trkpt>
      <trkpt lat="44.6103" lon="0.67221">
        <ele>146</ele>
        <time>2021-07-23T10:11:25Z</time>
      </trkpt>
      <trkpt lat="44.61033" lon="0.67215">
        <ele>145.9</ele>
        <time>2021-07-23T10:11:26Z</time>
      </trkpt>
      <trkpt lat="44.6104" lon="0.67204">
        <ele>145.9</ele>
        <time>2021-07-23T10:11:28Z</time>
      </trkpt>
      <trkpt lat="44.61043" lon="0.67198">
        <ele>145.9</ele>
        <time>2021-07-23T10:11:29Z</time>
      </trkpt>
      <trkpt lat="44.61052" lon="0.67181">
        <ele>146</ele>
        <time>2021-07-23T10:11:32Z</time>
      </trkpt>
      <trkpt lat="44.6106" lon="0.67174">
        <ele>146.1</ele>
        <time>2021-07-23T10:11:34Z</time>
      </trkpt>
      <trkpt lat="44.61075" lon="0.67162">
        <ele>146.1</ele>
        <time>2021-07-23T10:11:38Z</time>
      </trkpt>
      <trkpt lat="44.61092" lon="0.67144">
        <ele>146.4</ele>
        <time>2021-07-23T10:11:43Z</time>
      </trkpt>
      <trkpt lat="44.61105" lon="0.67132">
        <ele>147</ele>
        <time>2021-07-23T10:11:47Z</time>
      </trkpt>
      <trkpt lat="44.61108" lon="0.67131">
        <ele>147.2</ele>
        <time>2021-07-23T10:11:48Z</time>
      </trkpt>
      <trkpt lat="44.61125" lon="0.67118">
        <ele>148.2</ele>
        <time>2021-07-23T10:11:53Z</time>
      </trkpt>
      <trkpt lat="44.61141" lon="0.67102">
        <ele>149.5</ele>
        <time>2021-07-23T10:11:58Z</time>
      </trkpt>
      <trkpt lat="44.61145" lon="0.67097">
        <ele>150</ele>
        <time>2021-07-23T10:12:00Z</time>
      </trkpt>
      <trkpt lat="44.61151" lon="0.67088">
        <ele>150.8</ele>
        <time>2021-07-23T10:12:03Z</time>
      </trkpt>
      <trkpt lat="44.61155" lon="0.67078">
        <ele>151.7</ele>
        <time>2021-07-23T10:12:06Z</time>
      </trkpt>
      <trkpt lat="44.61159" lon="0.6707">
        <ele>152.2</ele>
        <time>2021-07-23T10:12:08Z</time>
      </trkpt>
      <trkpt lat="44.61166" lon="0.6706">
        <ele>152.8</ele>
        <time>2021-07-23T10:12:11Z</time>
      </trkpt>
      <trkpt lat="44.6117" lon="0.67056">
        <ele>153.1</ele>
        <time>2021-07-23T10:12:13Z</time>
      </trkpt>
      <trkpt lat="44.6118" lon="0.67038">
        <ele>153.9</ele>
        <time>2021-07-23T10:12:18Z</time>
      </trkpt>
      <trkpt lat="44.61192" lon="0.67019">
        <ele>155.3</ele>
        <time>2021-07-23T10:12:24Z</time>
      </trkpt>
      <trkpt lat="44.61208" lon="0.67009">
        <ele>155</ele>
        <time>2021-07-23T10:12:29Z</time>
      </trkpt>
      <trkpt lat="44.61223" lon="0.67004">
        <ele>154.8</ele>
        <time>2021-07-23T10:12:33Z</time>
      </trkpt>
      <trkpt lat="44.61242" lon="0.66993">
        <ele>154.8</ele>
        <time>2021-07-23T10:12:38Z</time>
      </trkpt>
      <trkpt lat="44.61261" lon="0.66983">
        <ele>155</ele>
        <time>2021-07-23T10:12:43Z</time>
      </trkpt>
      <trkpt lat="44.61281" lon="0.66971">
        <ele>155.1</ele>
        <time>2021-07-23T10:12:48Z</time>
      </trkpt>
      <trkpt lat="44.613" lon="0.66957">
        <ele>155.2</ele>
        <time>2021-07-23T10:12:53Z</time>
      </trkpt>
      <trkpt lat="44.61318" lon="0.66939">
        <ele>155.5</ele>
        <time>2021-07-23T10:12:58Z</time>
      </trkpt>
      <trkpt lat="44.61335" lon="0.66919">
        <ele>155.8</ele>
        <time>2021-07-23T10:13:03Z</time>
      </trkpt>
      <trkpt lat="44.61344" lon="0.66913">
        <ele>155.9</ele>
        <time>2021-07-23T10:13:05Z</time>
      </trkpt>
      <trkpt lat="44.61359" lon="0.66903">
        <ele>156</ele>
        <time>2021-07-23T10:13:08Z</time>
      </trkpt>
      <trkpt lat="44.61372" lon="0.66896">
        <ele>155.9</ele>
        <time>2021-07-23T10:13:11Z</time>
      </trkpt>
      <trkpt lat="44.6138" lon="0.66893">
        <ele>155.9</ele>
        <time>2021-07-23T10:13:13Z</time>
      </trkpt>
      <trkpt lat="44.61384" lon="0.6689">
        <ele>155.8</ele>
        <time>2021-07-23T10:13:14Z</time>
      </trkpt>
      <trkpt lat="44.61402" lon="0.66878">
        <ele>155.7</ele>
        <time>2021-07-23T10:13:18Z</time>
      </trkpt>
      <trkpt lat="44.61422" lon="0.66862">
        <ele>155.7</ele>
        <time>2021-07-23T10:13:24Z</time>
      </trkpt>
      <trkpt lat="44.61442" lon="0.66846">
        <ele>155.4</ele>
        <time>2021-07-23T10:13:30Z</time>
      </trkpt>
      <trkpt lat="44.6145" lon="0.6684">
        <ele>155.3</ele>
        <time>2021-07-23T10:13:32Z</time>
      </trkpt>
      <trkpt lat="44.61466" lon="0.6683">
        <ele>155.1</ele>
        <time>2021-07-23T10:13:35Z</time>
      </trkpt>
      <trkpt lat="44.61471" lon="0.66826">
        <ele>155</ele>
        <time>2021-07-23T10:13:36Z</time>
      </trkpt>
      <trkpt lat="44.61486" lon="0.66817">
        <ele>154.9</ele>
        <time>2021-07-23T10:13:39Z</time>
      </trkpt>
      <trkpt lat="44.61507" lon="0.66805">
        <ele>154.6</ele>
        <time>2021-07-23T10:13:44Z</time>
      </trkpt>
      <trkpt lat="44.61534" lon="0.6679">
        <ele>154.3</ele>
        <time>2021-07-23T10:13:49Z</time>
      </trkpt>
      <trkpt lat="44.61545" lon="0.66783">
        <ele>154.2</ele>
        <time>2021-07-23T10:13:51Z</time>
      </trkpt>
      <trkpt lat="44.61562" lon="0.66773">
        <ele>154</ele>
        <time>2021-07-23T10:13:54Z</time>
      </trkpt>
      <trkpt lat="44.61593" lon="0.66761">
        <ele>153.8</ele>
        <time>2021-07-23T10:13:59Z</time>
      </trkpt>
      <trkpt lat="44.61636" lon="0.66746">
        <ele>153.5</ele>
        <time>2021-07-23T10:14:06Z</time>
      </trkpt>
      <trkpt lat="44.61665" lon="0.66741">
        <ele>153.5</ele>
        <time>2021-07-23T10:14:11Z</time>
      </trkpt>
      <trkpt lat="44.61703" lon="0.66732">
        <ele>153.5</ele>
        <time>2021-07-23T10:14:18Z</time>
      </trkpt>
      <trkpt lat="44.61737" lon="0.66723">
        <ele>153.8</ele>
        <time>2021-07-23T10:14:24Z</time>
      </trkpt>
      <trkpt lat="44.61748" lon="0.66717">
        <ele>154</ele>
        <time>2021-07-23T10:14:26Z</time>
      </trkpt>
      <trkpt lat="44.61771" lon="0.6671">
        <ele>154.1</ele>
        <time>2021-07-23T10:14:30Z</time>
      </trkpt>
      <trkpt lat="44.61794" lon="0.66705">
        <ele>154.2</ele>
        <time>2021-07-23T10:14:34Z</time>
      </trkpt>
      <trkpt lat="44.61799" lon="0.66703">
        <ele>154.2</ele>
        <time>2021-07-23T10:14:35Z</time>
      </trkpt>
      <trkpt lat="44.61829" lon="0.6669">
        <ele>154.2</ele>
        <time>2021-07-23T10:14:41Z</time>
      </trkpt>
      <trkpt lat="44.61834" lon="0.66688">
        <ele>154.2</ele>
        <time>2021-07-23T10:14:42Z</time>
      </trkpt>
      <trkpt lat="44.61843" lon="0.66682">
        <ele>154.2</ele>
        <time>2021-07-23T10:14:44Z</time>
      </trkpt>
      <trkpt lat="44.61853" lon="0.66677">
        <ele>154.3</ele>
        <time>2021-07-23T10:14:46Z</time>
      </trkpt>
      <trkpt lat="44.61882" lon="0.66662">
        <ele>154.5</ele>
        <time>2021-07-23T10:14:52Z</time>
      </trkpt>
      <trkpt lat="44.61896" lon="0.66655">
        <ele>154.7</ele>
        <time>2021-07-23T10:14:55Z</time>
      </trkpt>
      <trkpt lat="44.61905" lon="0.6665">
        <ele>154.8</ele>
        <time>2021-07-23T10:14:57Z</time>
      </trkpt>
      <trkpt lat="44.61936" lon="0.6663">
        <ele>155.3</ele>
        <time>2021-07-23T10:15:03Z</time>
      </trkpt>
      <trkpt lat="44.61946" lon="0.66623">
        <ele>155.4</ele>
        <time>2021-07-23T10:15:05Z</time>
      </trkpt>
      <trkpt lat="44.61959" lon="0.66612">
        <ele>155.8</ele>
        <time>2021-07-23T10:15:08Z</time>
      </trkpt>
      <trkpt lat="44.61983" lon="0.66593">
        <ele>156.3</ele>
        <time>2021-07-23T10:15:14Z</time>
      </trkpt>
      <trkpt lat="44.62014" lon="0.66566">
        <ele>156</ele>
        <time>2021-07-23T10:15:21Z</time>
      </trkpt>
      <trkpt lat="44.62028" lon="0.66552">
        <ele>155.7</ele>
        <time>2021-07-23T10:15:24Z</time>
      </trkpt>
      <trkpt lat="44.62042" lon="0.66537">
        <ele>155</ele>
        <time>2021-07-23T10:15:27Z</time>
      </trkpt>
      <trkpt lat="44.62072" lon="0.66507">
        <ele>154.1</ele>
        <time>2021-07-23T10:15:33Z</time>
      </trkpt>
      <trkpt lat="44.62091" lon="0.6649">
        <ele>154.1</ele>
        <time>2021-07-23T10:15:38Z</time>
      </trkpt>
      <trkpt lat="44.62094" lon="0.66485">
        <ele>154</ele>
        <time>2021-07-23T10:15:39Z</time>
      </trkpt>
      <trkpt lat="44.62117" lon="0.6645">
        <ele>153.7</ele>
        <time>2021-07-23T10:15:46Z</time>
      </trkpt>
      <trkpt lat="44.6212" lon="0.66444">
        <ele>153.6</ele>
        <time>2021-07-23T10:15:47Z</time>
      </trkpt>
      <trkpt lat="44.62135" lon="0.66422">
        <ele>153.4</ele>
        <time>2021-07-23T10:15:51Z</time>
      </trkpt>
      <trkpt lat="44.62163" lon="0.66382">
        <ele>153.1</ele>
        <time>2021-07-23T10:15:58Z</time>
      </trkpt>
      <trkpt lat="44.62175" lon="0.66365">
        <ele>153</ele>
        <time>2021-07-23T10:16:01Z</time>
      </trkpt>
      <trkpt lat="44.62178" lon="0.66359">
        <ele>153</ele>
        <time>2021-07-23T10:16:02Z</time>
      </trkpt>
      <trkpt lat="44.62191" lon="0.66332">
        <ele>152.8</ele>
        <time>2021-07-23T10:16:06Z</time>
      </trkpt>
      <trkpt lat="44.62204" lon="0.66296">
        <ele>152</ele>
        <time>2021-07-23T10:16:11Z</time>
      </trkpt>
      <trkpt lat="44.62217" lon="0.66255">
        <ele>150.5</ele>
        <time>2021-07-23T10:16:16Z</time>
      </trkpt>
      <trkpt lat="44.62223" lon="0.66238">
        <ele>149.8</ele>
        <time>2021-07-23T10:16:18Z</time>
      </trkpt>
      <trkpt lat="44.62231" lon="0.66223">
        <ele>148.8</ele>
        <time>2021-07-23T10:16:20Z</time>
      </trkpt>
      <trkpt lat="44.62236" lon="0.66216">
        <ele>148.2</ele>
        <time>2021-07-23T10:16:21Z</time>
      </trkpt>
      <trkpt lat="44.6227" lon="0.66179">
        <ele>144.9</ele>
        <time>2021-07-23T10:16:26Z</time>
      </trkpt>
      <trkpt lat="44.62301" lon="0.66149">
        <ele>141.6</ele>
        <time>2021-07-23T10:16:30Z</time>
      </trkpt>
      <trkpt lat="44.6234" lon="0.66112">
        <ele>135.7</ele>
        <time>2021-07-23T10:16:35Z</time>
      </trkpt>
      <trkpt lat="44.62357" lon="0.6609">
        <ele>132.3</ele>
        <time>2021-07-23T10:16:38Z</time>
      </trkpt>
      <trkpt lat="44.6237" lon="0.66079">
        <ele>130.5</ele>
        <time>2021-07-23T10:16:40Z</time>
      </trkpt>
      <trkpt lat="44.62384" lon="0.66075">
        <ele>129.2</ele>
        <time>2021-07-23T10:16:42Z</time>
      </trkpt>
      <trkpt lat="44.62392" lon="0.66076">
        <ele>128.6</ele>
        <time>2021-07-23T10:16:43Z</time>
      </trkpt>
      <trkpt lat="44.6241" lon="0.66078">
        <ele>127.5</ele>
        <time>2021-07-23T10:16:46Z</time>
      </trkpt>
      <trkpt lat="44.62416" lon="0.66082">
        <ele>127.1</ele>
        <time>2021-07-23T10:16:48Z</time>
      </trkpt>
      <trkpt lat="44.62417" lon="0.66085">
        <ele>127.1</ele>
        <time>2021-07-23T10:16:49Z</time>
      </trkpt>
      <trkpt lat="44.62416" lon="0.66089">
        <ele>127.2</ele>
        <time>2021-07-23T10:16:50Z</time>
      </trkpt>
      <trkpt lat="44.62411" lon="0.66097">
        <ele>127.2</ele>
        <time>2021-07-23T10:16:52Z</time>
      </trkpt>
      <trkpt lat="44.62406" lon="0.66116">
        <ele>127.4</ele>
        <time>2021-07-23T10:16:56Z</time>
      </trkpt>
      <trkpt lat="44.62408" lon="0.66121">
        <ele>126.9</ele>
        <time>2021-07-23T10:16:57Z</time>
      </trkpt>
      <trkpt lat="44.62414" lon="0.6613">
        <ele>126.4</ele>
        <time>2021-07-23T10:16:59Z</time>
      </trkpt>
      <trkpt lat="44.62437" lon="0.66138">
        <ele>125</ele>
        <time>2021-07-23T10:17:03Z</time>
      </trkpt>
      <trkpt lat="44.62479" lon="0.66149">
        <ele>122.9</ele>
        <time>2021-07-23T10:17:09Z</time>
      </trkpt>
      <trkpt lat="44.62517" lon="0.66163">
        <ele>120.5</ele>
        <time>2021-07-23T10:17:14Z</time>
      </trkpt>
      <trkpt lat="44.62567" lon="0.66182">
        <ele>116.9</ele>
        <time>2021-07-23T10:17:20Z</time>
      </trkpt>
      <trkpt lat="44.62601" lon="0.66199">
        <ele>114.7</ele>
        <time>2021-07-23T10:17:24Z</time>
      </trkpt>
      <trkpt lat="44.6264" lon="0.6621">
        <ele>113.3</ele>
        <time>2021-07-23T10:17:28Z</time>
      </trkpt>
      <trkpt lat="44.62658" lon="0.66203">
        <ele>113.1</ele>
        <time>2021-07-23T10:17:30Z</time>
      </trkpt>
      <trkpt lat="44.62687" lon="0.66175">
        <ele>112.7</ele>
        <time>2021-07-23T10:17:34Z</time>
      </trkpt>
      <trkpt lat="44.62726" lon="0.66141">
        <ele>112.2</ele>
        <time>2021-07-23T10:17:40Z</time>
      </trkpt>
      <trkpt lat="44.62753" lon="0.66118">
        <ele>111.6</ele>
        <time>2021-07-23T10:17:45Z</time>
      </trkpt>
      <trkpt lat="44.62767" lon="0.66107">
        <ele>111.5</ele>
        <time>2021-07-23T10:17:48Z</time>
      </trkpt>
      <trkpt lat="44.62776" lon="0.66102">
        <ele>111.4</ele>
        <time>2021-07-23T10:17:50Z</time>
      </trkpt>
      <trkpt lat="44.62799" lon="0.66093">
        <ele>111.1</ele>
        <time>2021-07-23T10:17:54Z</time>
      </trkpt>
      <trkpt lat="44.62824" lon="0.66084">
        <ele>110.9</ele>
        <time>2021-07-23T10:17:59Z</time>
      </trkpt>
      <trkpt lat="44.62837" lon="0.66081">
        <ele>110.9</ele>
        <time>2021-07-23T10:18:02Z</time>
      </trkpt>
      <trkpt lat="44.62846" lon="0.66078">
        <ele>110.8</ele>
        <time>2021-07-23T10:18:04Z</time>
      </trkpt>
      <trkpt lat="44.62864" lon="0.66072">
        <ele>110.8</ele>
        <time>2021-07-23T10:18:08Z</time>
      </trkpt>
      <trkpt lat="44.62874" lon="0.66069">
        <ele>110.8</ele>
        <time>2021-07-23T10:18:10Z</time>
      </trkpt>
      <trkpt lat="44.62907" lon="0.66058">
        <ele>110.4</ele>
        <time>2021-07-23T10:18:16Z</time>
      </trkpt>
      <trkpt lat="44.6294" lon="0.66049">
        <ele>109.6</ele>
        <time>2021-07-23T10:18:21Z</time>
      </trkpt>
      <trkpt lat="44.62984" lon="0.66032">
        <ele>108.9</ele>
        <time>2021-07-23T10:18:27Z</time>
      </trkpt>
      <trkpt lat="44.63017" lon="0.66018">
        <ele>108.7</ele>
        <time>2021-07-23T10:18:32Z</time>
      </trkpt>
      <trkpt lat="44.63069" lon="0.65995">
        <ele>107.9</ele>
        <time>2021-07-23T10:18:40Z</time>
      </trkpt>
      <trkpt lat="44.63082" lon="0.6599">
        <ele>107.6</ele>
        <time>2021-07-23T10:18:42Z</time>
      </trkpt>
      <trkpt lat="44.63093" lon="0.65978">
        <ele>107.4</ele>
        <time>2021-07-23T10:18:44Z</time>
      </trkpt>
      <trkpt lat="44.63097" lon="0.65962">
        <ele>107.6</ele>
        <time>2021-07-23T10:18:46Z</time>
      </trkpt>
      <trkpt lat="44.63098" lon="0.65955">
        <ele>107.7</ele>
        <time>2021-07-23T10:18:47Z</time>
      </trkpt>
      <trkpt lat="44.63101" lon="0.65907">
        <ele>108.2</ele>
        <time>2021-07-23T10:18:53Z</time>
      </trkpt>
      <trkpt lat="44.63103" lon="0.65879">
        <ele>108.7</ele>
        <time>2021-07-23T10:18:57Z</time>
      </trkpt>
      <trkpt lat="44.63108" lon="0.65835">
        <ele>109.2</ele>
        <time>2021-07-23T10:19:04Z</time>
      </trkpt>
      <trkpt lat="44.63111" lon="0.6579">
        <ele>110.1</ele>
        <time>2021-07-23T10:19:12Z</time>
      </trkpt>
      <trkpt lat="44.63117" lon="0.65759">
        <ele>110.6</ele>
        <time>2021-07-23T10:19:18Z</time>
      </trkpt>
      <trkpt lat="44.63122" lon="0.65757">
        <ele>110.5</ele>
        <time>2021-07-23T10:19:20Z</time>
      </trkpt>
      <trkpt lat="44.63126" lon="0.65758">
        <ele>110.4</ele>
        <time>2021-07-23T10:19:21Z</time>
      </trkpt>
      <trkpt lat="44.6315" lon="0.65775">
        <ele>109.9</ele>
        <time>2021-07-23T10:19:27Z</time>
      </trkpt>
      <trkpt lat="44.63185" lon="0.65795">
        <ele>109.4</ele>
        <time>2021-07-23T10:19:34Z</time>
      </trkpt>
      <trkpt lat="44.63224" lon="0.65816">
        <ele>109.1</ele>
        <time>2021-07-23T10:19:41Z</time>
      </trkpt>
      <trkpt lat="44.63277" lon="0.65846">
        <ele>108.3</ele>
        <time>2021-07-23T10:19:50Z</time>
      </trkpt>
      <trkpt lat="44.63299" lon="0.65857">
        <ele>108.3</ele>
        <time>2021-07-23T10:19:54Z</time>
      </trkpt>
      <trkpt lat="44.63314" lon="0.65866">
        <ele>108.2</ele>
        <time>2021-07-23T10:19:57Z</time>
      </trkpt>
      <trkpt lat="44.63358" lon="0.6589">
        <ele>108.2</ele>
        <time>2021-07-23T10:20:05Z</time>
      </trkpt>
      <trkpt lat="44.63405" lon="0.65916">
        <ele>108.4</ele>
        <time>2021-07-23T10:20:13Z</time>
      </trkpt>
      <trkpt lat="44.63438" lon="0.65936">
        <ele>108.6</ele>
        <time>2021-07-23T10:20:19Z</time>
      </trkpt>
      <trkpt lat="44.63483" lon="0.6596">
        <ele>108.8</ele>
        <time>2021-07-23T10:20:27Z</time>
      </trkpt>
      <trkpt lat="44.63536" lon="0.65988">
        <ele>109</ele>
        <time>2021-07-23T10:20:36Z</time>
      </trkpt>
      <trkpt lat="44.63588" lon="0.66018">
        <ele>108.8</ele>
        <time>2021-07-23T10:20:45Z</time>
      </trkpt>
      <trkpt lat="44.63594" lon="0.66021">
        <ele>108.8</ele>
        <time>2021-07-23T10:20:46Z</time>
      </trkpt>
      <trkpt lat="44.63635" lon="0.66044">
        <ele>108.7</ele>
        <time>2021-07-23T10:20:53Z</time>
      </trkpt>
      <trkpt lat="44.63668" lon="0.66062">
        <ele>108.4</ele>
        <time>2021-07-23T10:20:59Z</time>
      </trkpt>
      <trkpt lat="44.63711" lon="0.66086">
        <ele>107.8</ele>
        <time>2021-07-23T10:21:07Z</time>
      </trkpt>
      <trkpt lat="44.63746" lon="0.66105">
        <ele>107.1</ele>
        <time>2021-07-23T10:21:13Z</time>
      </trkpt>
      <trkpt lat="44.63783" lon="0.66127">
        <ele>106.5</ele>
        <time>2021-07-23T10:21:19Z</time>
      </trkpt>
      <trkpt lat="44.6383" lon="0.66151">
        <ele>106.1</ele>
        <time>2021-07-23T10:21:27Z</time>
      </trkpt>
      <trkpt lat="44.63841" lon="0.66156">
        <ele>106.1</ele>
        <time>2021-07-23T10:21:29Z</time>
      </trkpt>
      <trkpt lat="44.63857" lon="0.66166">
        <ele>106.2</ele>
        <time>2021-07-23T10:21:32Z</time>
      </trkpt>
      <trkpt lat="44.63862" lon="0.66169">
        <ele>106.2</ele>
        <time>2021-07-23T10:21:33Z</time>
      </trkpt>
      <trkpt lat="44.63872" lon="0.66176">
        <ele>106.1</ele>
        <time>2021-07-23T10:21:35Z</time>
      </trkpt>
      <trkpt lat="44.63877" lon="0.66189">
        <ele>106</ele>
        <time>2021-07-23T10:21:37Z</time>
      </trkpt>
      <trkpt lat="44.63876" lon="0.66218">
        <ele>105.6</ele>
        <time>2021-07-23T10:21:41Z</time>
      </trkpt>
      <trkpt lat="44.63881" lon="0.66229">
        <ele>105.9</ele>
        <time>2021-07-23T10:21:43Z</time>
      </trkpt>
      <trkpt lat="44.63885" lon="0.66233">
        <ele>106.4</ele>
        <time>2021-07-23T10:21:44Z</time>
      </trkpt>
      <trkpt lat="44.63904" lon="0.66251">
        <ele>106.7</ele>
        <time>2021-07-23T10:21:48Z</time>
      </trkpt>
      <trkpt lat="44.63914" lon="0.66261">
        <ele>106.9</ele>
        <time>2021-07-23T10:21:50Z</time>
      </trkpt>
      <trkpt lat="44.63955" lon="0.66303">
        <ele>106.2</ele>
        <time>2021-07-23T10:21:58Z</time>
      </trkpt>
      <trkpt lat="44.63983" lon="0.66331">
        <ele>105.9</ele>
        <time>2021-07-23T10:22:03Z</time>
      </trkpt>
      <trkpt lat="44.63988" lon="0.66337">
        <ele>105.8</ele>
        <time>2021-07-23T10:22:04Z</time>
      </trkpt>
      <trkpt lat="44.6402" lon="0.66366">
        <ele>105.4</ele>
        <time>2021-07-23T10:22:10Z</time>
      </trkpt>
      <trkpt lat="44.64047" lon="0.66379">
        <ele>105.1</ele>
        <time>2021-07-23T10:22:15Z</time>
      </trkpt>
      <trkpt lat="44.64097" lon="0.66401">
        <ele>104.5</ele>
        <time>2021-07-23T10:22:24Z</time>
      </trkpt>
      <trkpt lat="44.64134" lon="0.66416">
        <ele>104.1</ele>
        <time>2021-07-23T10:22:30Z</time>
      </trkpt>
      <trkpt lat="44.6415" lon="0.66423">
        <ele>103.9</ele>
        <time>2021-07-23T10:22:33Z</time>
      </trkpt>
      <trkpt lat="44.64161" lon="0.6643">
        <ele>103.8</ele>
        <time>2021-07-23T10:22:35Z</time>
      </trkpt>
      <trkpt lat="44.64171" lon="0.66438">
        <ele>103.7</ele>
        <time>2021-07-23T10:22:37Z</time>
      </trkpt>
      <trkpt lat="44.64185" lon="0.66456">
        <ele>103.5</ele>
        <time>2021-07-23T10:22:40Z</time>
      </trkpt>
      <trkpt lat="44.64206" lon="0.66493">
        <ele>104.2</ele>
        <time>2021-07-23T10:22:45Z</time>
      </trkpt>
      <trkpt lat="44.64211" lon="0.665">
        <ele>104.4</ele>
        <time>2021-07-23T10:22:46Z</time>
      </trkpt>
      <trkpt lat="44.64241" lon="0.6655">
        <ele>105.8</ele>
        <time>2021-07-23T10:22:53Z</time>
      </trkpt>
      <trkpt lat="44.6427" lon="0.66586">
        <ele>106.6</ele>
        <time>2021-07-23T10:22:59Z</time>
      </trkpt>
      <trkpt lat="44.64282" lon="0.66596">
        <ele>106.2</ele>
        <time>2021-07-23T10:23:01Z</time>
      </trkpt>
      <trkpt lat="44.643" lon="0.66608">
        <ele>104.7</ele>
        <time>2021-07-23T10:23:04Z</time>
      </trkpt>
      <trkpt lat="44.64337" lon="0.66632">
        <ele>101.2</ele>
        <time>2021-07-23T10:23:10Z</time>
      </trkpt>
      <trkpt lat="44.64375" lon="0.66657">
        <ele>97.3</ele>
        <time>2021-07-23T10:23:16Z</time>
      </trkpt>
      <trkpt lat="44.64406" lon="0.66676">
        <ele>96.4</ele>
        <time>2021-07-23T10:23:21Z</time>
      </trkpt>
      <trkpt lat="44.64432" lon="0.6669">
        <ele>96.8</ele>
        <time>2021-07-23T10:23:25Z</time>
      </trkpt>
      <trkpt lat="44.64438" lon="0.66693">
        <ele>96.8</ele>
        <time>2021-07-23T10:23:26Z</time>
      </trkpt>
      <trkpt lat="44.64476" lon="0.66713">
        <ele>97.5</ele>
        <time>2021-07-23T10:23:32Z</time>
      </trkpt>
      <trkpt lat="44.64522" lon="0.66733">
        <ele>98.3</ele>
        <time>2021-07-23T10:23:39Z</time>
      </trkpt>
      <trkpt lat="44.64547" lon="0.66741">
        <ele>98.3</ele>
        <time>2021-07-23T10:23:43Z</time>
      </trkpt>
      <trkpt lat="44.64558" lon="0.66745">
        <ele>98.1</ele>
        <time>2021-07-23T10:23:45Z</time>
      </trkpt>
      <trkpt lat="44.64583" lon="0.66751">
        <ele>97.6</ele>
        <time>2021-07-23T10:23:49Z</time>
      </trkpt>
      <trkpt lat="44.64589" lon="0.66753">
        <ele>97.6</ele>
        <time>2021-07-23T10:23:50Z</time>
      </trkpt>
      <trkpt lat="44.64627" lon="0.66778">
        <ele>96.2</ele>
        <time>2021-07-23T10:23:56Z</time>
      </trkpt>
      <trkpt lat="44.64638" lon="0.66789">
        <ele>95.8</ele>
        <time>2021-07-23T10:23:58Z</time>
      </trkpt>
      <trkpt lat="44.64655" lon="0.66802">
        <ele>95.4</ele>
        <time>2021-07-23T10:24:01Z</time>
      </trkpt>
      <trkpt lat="44.64695" lon="0.6683">
        <ele>95.7</ele>
        <time>2021-07-23T10:24:08Z</time>
      </trkpt>
      <trkpt lat="44.64704" lon="0.66839">
        <ele>96.1</ele>
        <time>2021-07-23T10:24:10Z</time>
      </trkpt>
      <trkpt lat="44.64707" lon="0.66846">
        <ele>96.1</ele>
        <time>2021-07-23T10:24:11Z</time>
      </trkpt>
      <trkpt lat="44.64707" lon="0.66852">
        <ele>96</ele>
        <time>2021-07-23T10:24:12Z</time>
      </trkpt>
      <trkpt lat="44.64705" lon="0.66857">
        <ele>96</ele>
        <time>2021-07-23T10:24:13Z</time>
      </trkpt>
      <trkpt lat="44.64702" lon="0.66862">
        <ele>95.7</ele>
        <time>2021-07-23T10:24:14Z</time>
      </trkpt>
      <trkpt lat="44.64687" lon="0.6689">
        <ele>93.8</ele>
        <time>2021-07-23T10:24:19Z</time>
      </trkpt>
      <trkpt lat="44.64665" lon="0.66935">
        <ele>91.5</ele>
        <time>2021-07-23T10:24:26Z</time>
      </trkpt>
      <trkpt lat="44.6464" lon="0.66987">
        <ele>91.3</ele>
        <time>2021-07-23T10:24:34Z</time>
      </trkpt>
      <trkpt lat="44.64637" lon="0.66993">
        <ele>91.2</ele>
        <time>2021-07-23T10:24:35Z</time>
      </trkpt>
      <trkpt lat="44.64621" lon="0.67015">
        <ele>90.8</ele>
        <time>2021-07-23T10:24:39Z</time>
      </trkpt>
      <trkpt lat="44.64617" lon="0.6702">
        <ele>90.7</ele>
        <time>2021-07-23T10:24:40Z</time>
      </trkpt>
      <trkpt lat="44.64612" lon="0.67032">
        <ele>90.3</ele>
        <time>2021-07-23T10:24:42Z</time>
      </trkpt>
      <trkpt lat="44.64613" lon="0.67038">
        <ele>90.1</ele>
        <time>2021-07-23T10:24:43Z</time>
      </trkpt>
      <trkpt lat="44.64616" lon="0.67044">
        <ele>90</ele>
        <time>2021-07-23T10:24:44Z</time>
      </trkpt>
      <trkpt lat="44.64623" lon="0.67053">
        <ele>89.9</ele>
        <time>2021-07-23T10:24:46Z</time>
      </trkpt>
      <trkpt lat="44.64643" lon="0.67075">
        <ele>89.6</ele>
        <time>2021-07-23T10:24:52Z</time>
      </trkpt>
      <trkpt lat="44.64654" lon="0.67081">
        <ele>89.5</ele>
        <time>2021-07-23T10:24:55Z</time>
      </trkpt>
      <trkpt lat="44.64671" lon="0.67086">
        <ele>89.2</ele>
        <time>2021-07-23T10:24:59Z</time>
      </trkpt>
      <trkpt lat="44.64704" lon="0.67098">
        <ele>88.6</ele>
        <time>2021-07-23T10:25:06Z</time>
      </trkpt>
      <trkpt lat="44.64741" lon="0.67109">
        <ele>87.4</ele>
        <time>2021-07-23T10:25:12Z</time>
      </trkpt>
      <trkpt lat="44.64797" lon="0.67129">
        <ele>85</ele>
        <time>2021-07-23T10:25:20Z</time>
      </trkpt>
      <trkpt lat="44.64804" lon="0.67132">
        <ele>84.8</ele>
        <time>2021-07-23T10:25:21Z</time>
      </trkpt>
      <trkpt lat="44.6486" lon="0.67151">
        <ele>82.3</ele>
        <time>2021-07-23T10:25:29Z</time>
      </trkpt>
      <trkpt lat="44.64895" lon="0.67168">
        <ele>80.4</ele>
        <time>2021-07-23T10:25:34Z</time>
      </trkpt>
      <trkpt lat="44.64911" lon="0.67173">
        <ele>79.9</ele>
        <time>2021-07-23T10:25:37Z</time>
      </trkpt>
      <trkpt lat="44.64916" lon="0.67172">
        <ele>79.7</ele>
        <time>2021-07-23T10:25:38Z</time>
      </trkpt>
      <trkpt lat="44.6492" lon="0.67168">
        <ele>79.7</ele>
        <time>2021-07-23T10:25:39Z</time>
      </trkpt>
      <trkpt lat="44.64924" lon="0.67156">
        <ele>79.7</ele>
        <time>2021-07-23T10:25:41Z</time>
      </trkpt>
      <trkpt lat="44.64936" lon="0.67117">
        <ele>80.4</ele>
        <time>2021-07-23T10:25:47Z</time>
      </trkpt>
      <trkpt lat="44.64937" lon="0.6711">
        <ele>80.5</ele>
        <time>2021-07-23T10:25:49Z</time>
      </trkpt>
      <trkpt lat="44.64936" lon="0.67109">
        <ele>80.5</ele>
        <time>2021-07-23T10:25:50Z</time>
      </trkpt>
      <trkpt lat="44.64934" lon="0.67115">
        <ele>80.4</ele>
        <time>2021-07-23T10:25:53Z</time>
      </trkpt>
      <trkpt lat="44.64934" lon="0.67119">
        <ele>80.3</ele>
        <time>2021-07-23T10:25:54Z</time>
      </trkpt>
      <trkpt lat="44.64926" lon="0.67143">
        <ele>79.9</ele>
        <time>2021-07-23T10:25:59Z</time>
      </trkpt>
      <trkpt lat="44.64924" lon="0.67149">
        <ele>79.9</ele>
        <time>2021-07-23T10:26:00Z</time>
      </trkpt>
      <trkpt lat="44.64926" lon="0.67158">
        <ele>79.7</ele>
        <time>2021-07-23T10:26:02Z</time>
      </trkpt>
      <trkpt lat="44.64933" lon="0.67158">
        <ele>79.6</ele>
        <time>2021-07-23T10:26:04Z</time>
      </trkpt>
      <trkpt lat="44.64938" lon="0.67156">
        <ele>79.5</ele>
        <time>2021-07-23T10:26:05Z</time>
      </trkpt>
      <trkpt lat="44.64976" lon="0.67141">
        <ele>79</ele>
        <time>2021-07-23T10:26:13Z</time>
      </trkpt>
      <trkpt lat="44.65021" lon="0.67124">
        <ele>77.1</ele>
        <time>2021-07-23T10:26:22Z</time>
      </trkpt>
      <trkpt lat="44.65058" lon="0.67109">
        <ele>76.1</ele>
        <time>2021-07-23T10:26:29Z</time>
      </trkpt>
      <trkpt lat="44.65115" lon="0.67085">
        <ele>75.2</ele>
        <time>2021-07-23T10:26:39Z</time>
      </trkpt>
      <trkpt lat="44.6512" lon="0.67082">
        <ele>75.1</ele>
        <time>2021-07-23T10:26:40Z</time>
      </trkpt>
      <trkpt lat="44.65151" lon="0.67076">
        <ele>74.7</ele>
        <time>2021-07-23T10:26:46Z</time>
      </trkpt>
      <trkpt lat="44.65175" lon="0.67083">
        <ele>74.8</ele>
        <time>2021-07-23T10:26:51Z</time>
      </trkpt>
      <trkpt lat="44.65214" lon="0.67094">
        <ele>75.5</ele>
        <time>2021-07-23T10:26:59Z</time>
      </trkpt>
      <trkpt lat="44.65223" lon="0.67091">
        <ele>75.7</ele>
        <time>2021-07-23T10:27:01Z</time>
      </trkpt>
      <trkpt lat="44.65226" lon="0.67086">
        <ele>75.8</ele>
        <time>2021-07-23T10:27:02Z</time>
      </trkpt>
      <trkpt lat="44.65236" lon="0.67052">
        <ele>76.3</ele>
        <time>2021-07-23T10:27:08Z</time>
      </trkpt>
      <trkpt lat="44.6524" lon="0.6704">
        <ele>76.4</ele>
        <time>2021-07-23T10:27:10Z</time>
      </trkpt>
      <trkpt lat="44.65251" lon="0.6701">
        <ele>76.4</ele>
        <time>2021-07-23T10:27:15Z</time>
      </trkpt>
      <trkpt lat="44.65262" lon="0.66986">
        <ele>76</ele>
        <time>2021-07-23T10:27:19Z</time>
      </trkpt>
      <trkpt lat="44.65268" lon="0.66975">
        <ele>75.8</ele>
        <time>2021-07-23T10:27:21Z</time>
      </trkpt>
      <trkpt lat="44.65275" lon="0.66966">
        <ele>75.6</ele>
        <time>2021-07-23T10:27:23Z</time>
      </trkpt>
      <trkpt lat="44.65284" lon="0.66962">
        <ele>75.5</ele>
        <time>2021-07-23T10:27:25Z</time>
      </trkpt>
      <trkpt lat="44.65292" lon="0.66964">
        <ele>75.4</ele>
        <time>2021-07-23T10:27:27Z</time>
      </trkpt>
      <trkpt lat="44.653" lon="0.66971">
        <ele>75.5</ele>
        <time>2021-07-23T10:27:29Z</time>
      </trkpt>
      <trkpt lat="44.65304" lon="0.66974">
        <ele>75.4</ele>
        <time>2021-07-23T10:27:30Z</time>
      </trkpt>
      <trkpt lat="44.65312" lon="0.66977">
        <ele>75.4</ele>
        <time>2021-07-23T10:27:32Z</time>
      </trkpt>
      <trkpt lat="44.65315" lon="0.66975">
        <ele>75.4</ele>
        <time>2021-07-23T10:27:33Z</time>
      </trkpt>
      <trkpt lat="44.65317" lon="0.66971">
        <ele>75.3</ele>
        <time>2021-07-23T10:27:34Z</time>
      </trkpt>
      <trkpt lat="44.6532" lon="0.66962">
        <ele>75.2</ele>
        <time>2021-07-23T10:27:36Z</time>
      </trkpt>
      <trkpt lat="44.65323" lon="0.66929">
        <ele>74.9</ele>
        <time>2021-07-23T10:27:42Z</time>
      </trkpt>
      <trkpt lat="44.65327" lon="0.66907">
        <ele>75</ele>
        <time>2021-07-23T10:27:46Z</time>
      </trkpt>
      <trkpt lat="44.6533" lon="0.66896">
        <ele>75.1</ele>
        <time>2021-07-23T10:27:48Z</time>
      </trkpt>
      <trkpt lat="44.65337" lon="0.66881">
        <ele>75.2</ele>
        <time>2021-07-23T10:27:51Z</time>
      </trkpt>
      <trkpt lat="44.65347" lon="0.66869">
        <ele>75.2</ele>
        <time>2021-07-23T10:27:54Z</time>
      </trkpt>
      <trkpt lat="44.65371" lon="0.66844">
        <ele>75</ele>
        <time>2021-07-23T10:28:01Z</time>
      </trkpt>
      <trkpt lat="44.65393" lon="0.66821">
        <ele>74.6</ele>
        <time>2021-07-23T10:28:08Z</time>
      </trkpt>
      <trkpt lat="44.65396" lon="0.66811">
        <ele>74.5</ele>
        <time>2021-07-23T10:28:10Z</time>
      </trkpt>
      <trkpt lat="44.65399" lon="0.668">
        <ele>74.3</ele>
        <time>2021-07-23T10:28:12Z</time>
      </trkpt>
      <trkpt lat="44.65397" lon="0.66777">
        <ele>74.1</ele>
        <time>2021-07-23T10:28:16Z</time>
      </trkpt>
      <trkpt lat="44.65395" lon="0.6675">
        <ele>74.2</ele>
        <time>2021-07-23T10:28:21Z</time>
      </trkpt>
      <trkpt lat="44.65405" lon="0.66743">
        <ele>74.1</ele>
        <time>2021-07-23T10:28:25Z</time>
      </trkpt>
      <trkpt lat="44.65417" lon="0.66755">
        <ele>73.7</ele>
        <time>2021-07-23T10:28:29Z</time>
      </trkpt>
      <trkpt lat="44.65439" lon="0.66767">
        <ele>73.4</ele>
        <time>2021-07-23T10:28:35Z</time>
      </trkpt>
      <trkpt lat="44.65459" lon="0.6679">
        <ele>73.6</ele>
        <time>2021-07-23T10:28:41Z</time>
      </trkpt>
      <trkpt lat="44.65469" lon="0.66799">
        <ele>73.7</ele>
        <time>2021-07-23T10:28:44Z</time>
      </trkpt>
      <trkpt lat="44.65481" lon="0.66806">
        <ele>73.7</ele>
        <time>2021-07-23T10:28:47Z</time>
      </trkpt>
      <trkpt lat="44.65485" lon="0.66808">
        <ele>73.8</ele>
        <time>2021-07-23T10:28:48Z</time>
      </trkpt>
      <trkpt lat="44.65503" lon="0.66818">
        <ele>74</ele>
        <time>2021-07-23T10:28:53Z</time>
      </trkpt>
      <trkpt lat="44.65528" lon="0.66824">
        <ele>74.2</ele>
        <time>2021-07-23T10:28:59Z</time>
      </trkpt>
      <trkpt lat="44.65545" lon="0.66824">
        <ele>74.3</ele>
        <time>2021-07-23T10:29:03Z</time>
      </trkpt>
      <trkpt lat="44.65558" lon="0.66824">
        <ele>74.3</ele>
        <time>2021-07-23T10:29:06Z</time>
      </trkpt>
      <trkpt lat="44.65565" lon="0.66829">
        <ele>74.4</ele>
        <time>2021-07-23T10:29:08Z</time>
      </trkpt>
      <trkpt lat="44.65572" lon="0.66836">
        <ele>74.6</ele>
        <time>2021-07-23T10:29:10Z</time>
      </trkpt>
      <trkpt lat="44.65579" lon="0.66841">
        <ele>74.6</ele>
        <time>2021-07-23T10:29:12Z</time>
      </trkpt>
      <trkpt lat="44.65583" lon="0.66841">
        <ele>74.6</ele>
        <time>2021-07-23T10:29:13Z</time>
      </trkpt>
      <trkpt lat="44.65591" lon="0.66836">
        <ele>74.6</ele>
        <time>2021-07-23T10:29:15Z</time>
      </trkpt>
      <trkpt lat="44.65597" lon="0.66826">
        <ele>74.5</ele>
        <time>2021-07-23T10:29:17Z</time>
      </trkpt>
      <trkpt lat="44.65603" lon="0.66803">
        <ele>74.2</ele>
        <time>2021-07-23T10:29:21Z</time>
      </trkpt>
      <trkpt lat="44.65607" lon="0.66792">
        <ele>74</ele>
        <time>2021-07-23T10:29:23Z</time>
      </trkpt>
      <trkpt lat="44.65612" lon="0.66775">
        <ele>73.8</ele>
        <time>2021-07-23T10:29:26Z</time>
      </trkpt>
      <trkpt lat="44.65618" lon="0.66767">
        <ele>73.6</ele>
        <time>2021-07-23T10:29:28Z</time>
      </trkpt>
      <trkpt lat="44.65629" lon="0.66764">
        <ele>73.6</ele>
        <time>2021-07-23T10:29:31Z</time>
      </trkpt>
      <trkpt lat="44.65637" lon="0.66769">
        <ele>73.7</ele>
        <time>2021-07-23T10:29:33Z</time>
      </trkpt>
      <trkpt lat="44.65644" lon="0.66778">
        <ele>73.9</ele>
        <time>2021-07-23T10:29:35Z</time>
      </trkpt>
      <trkpt lat="44.65654" lon="0.66803">
        <ele>74.5</ele>
        <time>2021-07-23T10:29:40Z</time>
      </trkpt>
      <trkpt lat="44.6566" lon="0.66811">
        <ele>74.7</ele>
        <time>2021-07-23T10:29:42Z</time>
      </trkpt>
      <trkpt lat="44.65671" lon="0.6682">
        <ele>74.9</ele>
        <time>2021-07-23T10:29:45Z</time>
      </trkpt>
      <trkpt lat="44.65687" lon="0.66827">
        <ele>75</ele>
        <time>2021-07-23T10:29:49Z</time>
      </trkpt>
      <trkpt lat="44.65696" lon="0.66829">
        <ele>75.1</ele>
        <time>2021-07-23T10:29:51Z</time>
      </trkpt>
      <trkpt lat="44.65705" lon="0.66828">
        <ele>75.1</ele>
        <time>2021-07-23T10:29:53Z</time>
      </trkpt>
      <trkpt lat="44.65713" lon="0.66824">
        <ele>75.1</ele>
        <time>2021-07-23T10:29:55Z</time>
      </trkpt>
      <trkpt lat="44.65717" lon="0.6682">
        <ele>75</ele>
        <time>2021-07-23T10:29:56Z</time>
      </trkpt>
      <trkpt lat="44.6572" lon="0.66815">
        <ele>74.9</ele>
        <time>2021-07-23T10:29:57Z</time>
      </trkpt>
      <trkpt lat="44.65726" lon="0.66803">
        <ele>74.7</ele>
        <time>2021-07-23T10:29:59Z</time>
      </trkpt>
      <trkpt lat="44.65728" lon="0.66797">
        <ele>74.6</ele>
        <time>2021-07-23T10:30:00Z</time>
      </trkpt>
      <trkpt lat="44.6573" lon="0.6679">
        <ele>74.5</ele>
        <time>2021-07-23T10:30:01Z</time>
      </trkpt>
      <trkpt lat="44.65731" lon="0.66776">
        <ele>74.4</ele>
        <time>2021-07-23T10:30:03Z</time>
      </trkpt>
      <trkpt lat="44.65731" lon="0.66769">
        <ele>74.4</ele>
        <time>2021-07-23T10:30:04Z</time>
      </trkpt>
      <trkpt lat="44.65732" lon="0.6674">
        <ele>74.4</ele>
        <time>2021-07-23T10:30:08Z</time>
      </trkpt>
      <trkpt lat="44.65733" lon="0.66733">
        <ele>74.5</ele>
        <time>2021-07-23T10:30:09Z</time>
      </trkpt>
      <trkpt lat="44.65736" lon="0.66726">
        <ele>74.6</ele>
        <time>2021-07-23T10:30:10Z</time>
      </trkpt>
      <trkpt lat="44.65748" lon="0.66702">
        <ele>74.8</ele>
        <time>2021-07-23T10:30:14Z</time>
      </trkpt>
      <trkpt lat="44.6575" lon="0.66695">
        <ele>74.8</ele>
        <time>2021-07-23T10:30:15Z</time>
      </trkpt>
      <trkpt lat="44.65755" lon="0.66683">
        <ele>74.8</ele>
        <time>2021-07-23T10:30:17Z</time>
      </trkpt>
      <trkpt lat="44.65762" lon="0.66655">
        <ele>74.6</ele>
        <time>2021-07-23T10:30:21Z</time>
      </trkpt>
      <trkpt lat="44.65767" lon="0.66619">
        <ele>74.3</ele>
        <time>2021-07-23T10:30:26Z</time>
      </trkpt>
      <trkpt lat="44.65766" lon="0.66612">
        <ele>74.1</ele>
        <time>2021-07-23T10:30:27Z</time>
      </trkpt>
      <trkpt lat="44.65765" lon="0.666">
        <ele>74</ele>
        <time>2021-07-23T10:30:29Z</time>
      </trkpt>
      <trkpt lat="44.65761" lon="0.66591">
        <ele>73.9</ele>
        <time>2021-07-23T10:30:31Z</time>
      </trkpt>
      <trkpt lat="44.65758" lon="0.66587">
        <ele>73.8</ele>
        <time>2021-07-23T10:30:32Z</time>
      </trkpt>
      <trkpt lat="44.6575" lon="0.6658">
        <ele>73.6</ele>
        <time>2021-07-23T10:30:34Z</time>
      </trkpt>
      <trkpt lat="44.65746" lon="0.66577">
        <ele>73.6</ele>
        <time>2021-07-23T10:30:35Z</time>
      </trkpt>
      <trkpt lat="44.65723" lon="0.66559">
        <ele>73.3</ele>
        <time>2021-07-23T10:30:41Z</time>
      </trkpt>
      <trkpt lat="44.65717" lon="0.66551">
        <ele>73.2</ele>
        <time>2021-07-23T10:30:43Z</time>
      </trkpt>
      <trkpt lat="44.65713" lon="0.6654">
        <ele>73.2</ele>
        <time>2021-07-23T10:30:45Z</time>
      </trkpt>
      <trkpt lat="44.65711" lon="0.66521">
        <ele>73.1</ele>
        <time>2021-07-23T10:30:48Z</time>
      </trkpt>
      <trkpt lat="44.65711" lon="0.66507">
        <ele>73</ele>
        <time>2021-07-23T10:30:50Z</time>
      </trkpt>
      <trkpt lat="44.6571" lon="0.66465">
        <ele>72.4</ele>
        <time>2021-07-23T10:30:56Z</time>
      </trkpt>
      <trkpt lat="44.6571" lon="0.66458">
        <ele>72.2</ele>
        <time>2021-07-23T10:30:57Z</time>
      </trkpt>
      <trkpt lat="44.65713" lon="0.66444">
        <ele>72.2</ele>
        <time>2021-07-23T10:30:59Z</time>
      </trkpt>
      <trkpt lat="44.65716" lon="0.66439">
        <ele>72.2</ele>
        <time>2021-07-23T10:31:00Z</time>
      </trkpt>
      <trkpt lat="44.6572" lon="0.66434">
        <ele>72.2</ele>
        <time>2021-07-23T10:31:01Z</time>
      </trkpt>
      <trkpt lat="44.65728" lon="0.66425">
        <ele>72.5</ele>
        <time>2021-07-23T10:31:03Z</time>
      </trkpt>
      <trkpt lat="44.65731" lon="0.6642">
        <ele>72.7</ele>
        <time>2021-07-23T10:31:04Z</time>
      </trkpt>
      <trkpt lat="44.65733" lon="0.66413">
        <ele>72.8</ele>
        <time>2021-07-23T10:31:05Z</time>
      </trkpt>
      <trkpt lat="44.65731" lon="0.664">
        <ele>73.1</ele>
        <time>2021-07-23T10:31:07Z</time>
      </trkpt>
      <trkpt lat="44.65725" lon="0.66389">
        <ele>73.4</ele>
        <time>2021-07-23T10:31:09Z</time>
      </trkpt>
      <trkpt lat="44.65717" lon="0.66379">
        <ele>73.5</ele>
        <time>2021-07-23T10:31:11Z</time>
      </trkpt>
      <trkpt lat="44.65687" lon="0.66354">
        <ele>73.5</ele>
        <time>2021-07-23T10:31:18Z</time>
      </trkpt>
      <trkpt lat="44.65674" lon="0.66344">
        <ele>73.4</ele>
        <time>2021-07-23T10:31:21Z</time>
      </trkpt>
      <trkpt lat="44.65668" lon="0.66333">
        <ele>73.3</ele>
        <time>2021-07-23T10:31:23Z</time>
      </trkpt>
      <trkpt lat="44.65668" lon="0.6632">
        <ele>73.4</ele>
        <time>2021-07-23T10:31:25Z</time>
      </trkpt>
      <trkpt lat="44.65671" lon="0.66314">
        <ele>73.4</ele>
        <time>2021-07-23T10:31:26Z</time>
      </trkpt>
      <trkpt lat="44.65674" lon="0.66308">
        <ele>73.4</ele>
        <time>2021-07-23T10:31:27Z</time>
      </trkpt>
      <trkpt lat="44.65689" lon="0.66287">
        <ele>73.5</ele>
        <time>2021-07-23T10:31:31Z</time>
      </trkpt>
      <trkpt lat="44.65701" lon="0.66262">
        <ele>73.7</ele>
        <time>2021-07-23T10:31:35Z</time>
      </trkpt>
      <trkpt lat="44.65704" lon="0.66248">
        <ele>73.8</ele>
        <time>2021-07-23T10:31:37Z</time>
      </trkpt>
      <trkpt lat="44.65704" lon="0.66234">
        <ele>73.9</ele>
        <time>2021-07-23T10:31:39Z</time>
      </trkpt>
      <trkpt lat="44.65701" lon="0.6622">
        <ele>74</ele>
        <time>2021-07-23T10:31:41Z</time>
      </trkpt>
      <trkpt lat="44.65684" lon="0.6617">
        <ele>74.3</ele>
        <time>2021-07-23T10:31:49Z</time>
      </trkpt>
      <trkpt lat="44.65681" lon="0.66164">
        <ele>74.3</ele>
        <time>2021-07-23T10:31:50Z</time>
      </trkpt>
      <trkpt lat="44.6567" lon="0.66148">
        <ele>74.1</ele>
        <time>2021-07-23T10:31:53Z</time>
      </trkpt>
      <trkpt lat="44.65666" lon="0.66145">
        <ele>74.1</ele>
        <time>2021-07-23T10:31:54Z</time>
      </trkpt>
      <trkpt lat="44.65639" lon="0.66132">
        <ele>73.8</ele>
        <time>2021-07-23T10:32:00Z</time>
      </trkpt>
      <trkpt lat="44.65635" lon="0.66129">
        <ele>73.7</ele>
        <time>2021-07-23T10:32:01Z</time>
      </trkpt>
      <trkpt lat="44.65626" lon="0.66115">
        <ele>73.5</ele>
        <time>2021-07-23T10:32:04Z</time>
      </trkpt>
      <trkpt lat="44.65622" lon="0.66114">
        <ele>73.5</ele>
        <time>2021-07-23T10:32:05Z</time>
      </trkpt>
      <trkpt lat="44.65613" lon="0.66113">
        <ele>73.4</ele>
        <time>2021-07-23T10:32:07Z</time>
      </trkpt>
      <trkpt lat="44.65587" lon="0.66111">
        <ele>73.1</ele>
        <time>2021-07-23T10:32:13Z</time>
      </trkpt>
      <trkpt lat="44.65573" lon="0.66111">
        <ele>73</ele>
        <time>2021-07-23T10:32:16Z</time>
      </trkpt>
      <trkpt lat="44.6556" lon="0.66109">
        <ele>73</ele>
        <time>2021-07-23T10:32:19Z</time>
      </trkpt>
      <trkpt lat="44.65529" lon="0.66105">
        <ele>73.2</ele>
        <time>2021-07-23T10:32:26Z</time>
      </trkpt>
      <trkpt lat="44.65524" lon="0.66104">
        <ele>73.2</ele>
        <time>2021-07-23T10:32:27Z</time>
      </trkpt>
      <trkpt lat="44.65501" lon="0.66102">
        <ele>73.5</ele>
        <time>2021-07-23T10:32:32Z</time>
      </trkpt>
      <trkpt lat="44.65464" lon="0.66099">
        <ele>74.1</ele>
        <time>2021-07-23T10:32:40Z</time>
      </trkpt>
      <trkpt lat="44.65423" lon="0.66094">
        <ele>74.9</ele>
        <time>2021-07-23T10:32:49Z</time>
      </trkpt>
      <trkpt lat="44.65378" lon="0.6609">
        <ele>76.2</ele>
        <time>2021-07-23T10:32:59Z</time>
      </trkpt>
      <trkpt lat="44.6534" lon="0.66085">
        <ele>76.9</ele>
        <time>2021-07-23T10:33:09Z</time>
      </trkpt>
      <trkpt lat="44.65319" lon="0.66082">
        <ele>77.3</ele>
        <time>2021-07-23T10:33:16Z</time>
      </trkpt>
      <trkpt lat="44.65305" lon="0.66083">
        <ele>77.5</ele>
        <time>2021-07-23T10:33:22Z</time>
      </trkpt>
      <trkpt lat="44.65302" lon="0.66097">
        <ele>77.7</ele>
        <time>2021-07-23T10:33:26Z</time>
      </trkpt>
      <trkpt lat="44.653" lon="0.66125">
        <ele>77.6</ele>
        <time>2021-07-23T10:33:32Z</time>
      </trkpt>
      <trkpt lat="44.65301" lon="0.66156">
        <ele>77.2</ele>
        <time>2021-07-23T10:33:38Z</time>
      </trkpt>
      <trkpt lat="44.65306" lon="0.66195">
        <ele>76.8</ele>
        <time>2021-07-23T10:33:45Z</time>
      </trkpt>
      <trkpt lat="44.65314" lon="0.66216">
        <ele>76.5</ele>
        <time>2021-07-23T10:33:50Z</time>
      </trkpt>
      <trkpt lat="44.65315" lon="0.66228">
        <ele>76.4</ele>
        <time>2021-07-23T10:33:53Z</time>
      </trkpt>
      <trkpt lat="44.65313" lon="0.66231">
        <ele>76.4</ele>
        <time>2021-07-23T10:33:54Z</time>
      </trkpt>
      <trkpt lat="44.65311" lon="0.66233">
        <ele>76.4</ele>
        <time>2021-07-23T10:33:55Z</time>
      </trkpt>
      <trkpt lat="44.65305" lon="0.66233">
        <ele>76.3</ele>
        <time>2021-07-23T10:33:57Z</time>
      </trkpt>
      <trkpt lat="44.65292" lon="0.66225">
        <ele>76.3</ele>
        <time>2021-07-23T10:34:01Z</time>
      </trkpt>
      <trkpt lat="44.65288" lon="0.66221">
        <ele>76.3</ele>
        <time>2021-07-23T10:34:02Z</time>
      </trkpt>
      <trkpt lat="44.65284" lon="0.66219">
        <ele>76.2</ele>
        <time>2021-07-23T10:34:03Z</time>
      </trkpt>
      <trkpt lat="44.65268" lon="0.66209">
        <ele>76.2</ele>
        <time>2021-07-23T10:34:07Z</time>
      </trkpt>
      <trkpt lat="44.65234" lon="0.66191">
        <ele>76.5</ele>
        <time>2021-07-23T10:34:15Z</time>
      </trkpt>
      <trkpt lat="44.65227" lon="0.66186">
        <ele>76.6</ele>
        <time>2021-07-23T10:34:17Z</time>
      </trkpt>
      <trkpt lat="44.65215" lon="0.66182">
        <ele>76.7</ele>
        <time>2021-07-23T10:34:20Z</time>
      </trkpt>
      <trkpt lat="44.65193" lon="0.66168">
        <ele>77</ele>
        <time>2021-07-23T10:34:26Z</time>
      </trkpt>
      <trkpt lat="44.65189" lon="0.66166">
        <ele>77.1</ele>
        <time>2021-07-23T10:34:27Z</time>
      </trkpt>
      <trkpt lat="44.65173" lon="0.66156">
        <ele>77.5</ele>
        <time>2021-07-23T10:34:31Z</time>
      </trkpt>
      <trkpt lat="44.65161" lon="0.66145">
        <ele>77.9</ele>
        <time>2021-07-23T10:34:34Z</time>
      </trkpt>
      <trkpt lat="44.65144" lon="0.6613">
        <ele>79.3</ele>
        <time>2021-07-23T10:34:39Z</time>
      </trkpt>
      <trkpt lat="44.65122" lon="0.66113">
        <ele>82.2</ele>
        <time>2021-07-23T10:34:46Z</time>
      </trkpt>
      <trkpt lat="44.65107" lon="0.66105">
        <ele>83.6</ele>
        <time>2021-07-23T10:34:52Z</time>
      </trkpt>
      <trkpt lat="44.65089" lon="0.66098">
        <ele>84.4</ele>
        <time>2021-07-23T10:34:59Z</time>
      </trkpt>
      <trkpt lat="44.65079" lon="0.66088">
        <ele>84.9</ele>
        <time>2021-07-23T10:35:03Z</time>
      </trkpt>
      <trkpt lat="44.65078" lon="0.66084">
        <ele>85</ele>
        <time>2021-07-23T10:35:04Z</time>
      </trkpt>
      <trkpt lat="44.6508" lon="0.66063">
        <ele>85.2</ele>
        <time>2021-07-23T10:35:09Z</time>
      </trkpt>
      <trkpt lat="44.65079" lon="0.66051">
        <ele>85.4</ele>
        <time>2021-07-23T10:35:11Z</time>
      </trkpt>
      <trkpt lat="44.65076" lon="0.66033">
        <ele>85.3</ele>
        <time>2021-07-23T10:35:13Z</time>
      </trkpt>
      <trkpt lat="44.65073" lon="0.65989">
        <ele>83.9</ele>
        <time>2021-07-23T10:35:17Z</time>
      </trkpt>
      <trkpt lat="44.65075" lon="0.65955">
        <ele>83.1</ele>
        <time>2021-07-23T10:35:20Z</time>
      </trkpt>
      <trkpt lat="44.65075" lon="0.65938">
        <ele>83</ele>
        <time>2021-07-23T10:35:22Z</time>
      </trkpt>
      <trkpt lat="44.6507" lon="0.65925">
        <ele>83.1</ele>
        <time>2021-07-23T10:35:24Z</time>
      </trkpt>
      <trkpt lat="44.65067" lon="0.6592">
        <ele>83.2</ele>
        <time>2021-07-23T10:35:25Z</time>
      </trkpt>
      <trkpt lat="44.65057" lon="0.65905">
        <ele>83.4</ele>
        <time>2021-07-23T10:35:29Z</time>
      </trkpt>
      <trkpt lat="44.65048" lon="0.65889">
        <ele>83.7</ele>
        <time>2021-07-23T10:35:34Z</time>
      </trkpt>
      <trkpt lat="44.65042" lon="0.65871">
        <ele>84.3</ele>
        <time>2021-07-23T10:35:39Z</time>
      </trkpt>
      <trkpt lat="44.65036" lon="0.65844">
        <ele>85.8</ele>
        <time>2021-07-23T10:35:47Z</time>
      </trkpt>
      <trkpt lat="44.65034" lon="0.65836">
        <ele>86.4</ele>
        <time>2021-07-23T10:35:52Z</time>
      </trkpt>
      <trkpt lat="44.65033" lon="0.65834">
        <ele>86.4</ele>
        <time>2021-07-23T10:35:53Z</time>
      </trkpt>
      <trkpt lat="44.65029" lon="0.65824">
        <ele>86.9</ele>
        <time>2021-07-23T10:35:56Z</time>
      </trkpt>
      <trkpt lat="44.65024" lon="0.65814">
        <ele>87.8</ele>
        <time>2021-07-23T10:35:59Z</time>
      </trkpt>
      <trkpt lat="44.6502" lon="0.65807">
        <ele>88.3</ele>
        <time>2021-07-23T10:36:01Z</time>
      </trkpt>
      <trkpt lat="44.65014" lon="0.65789">
        <ele>89.9</ele>
        <time>2021-07-23T10:36:06Z</time>
      </trkpt>
      <trkpt lat="44.6501" lon="0.65765">
        <ele>91.1</ele>
        <time>2021-07-23T10:36:12Z</time>
      </trkpt>
      <trkpt lat="44.65005" lon="0.65745">
        <ele>92.1</ele>
        <time>2021-07-23T10:36:17Z</time>
      </trkpt>
      <trkpt lat="44.64999" lon="0.65719">
        <ele>93.4</ele>
        <time>2021-07-23T10:36:23Z</time>
      </trkpt>
      <trkpt lat="44.64996" lon="0.65701">
        <ele>94.1</ele>
        <time>2021-07-23T10:36:27Z</time>
      </trkpt>
      <trkpt lat="44.64994" lon="0.65698">
        <ele>94.2</ele>
        <time>2021-07-23T10:36:28Z</time>
      </trkpt>
      <trkpt lat="44.64991" lon="0.65671">
        <ele>94.8</ele>
        <time>2021-07-23T10:36:33Z</time>
      </trkpt>
      <trkpt lat="44.64986" lon="0.65639">
        <ele>95.5</ele>
        <time>2021-07-23T10:36:39Z</time>
      </trkpt>
      <trkpt lat="44.64984" lon="0.65613">
        <ele>96</ele>
        <time>2021-07-23T10:36:45Z</time>
      </trkpt>
      <trkpt lat="44.64986" lon="0.65591">
        <ele>95.9</ele>
        <time>2021-07-23T10:36:50Z</time>
      </trkpt>
      <trkpt lat="44.64986" lon="0.65574">
        <ele>96</ele>
        <time>2021-07-23T10:36:54Z</time>
      </trkpt>
      <trkpt lat="44.64987" lon="0.65552">
        <ele>95.7</ele>
        <time>2021-07-23T10:36:59Z</time>
      </trkpt>
      <trkpt lat="44.64987" lon="0.65541">
        <ele>95.5</ele>
        <time>2021-07-23T10:37:02Z</time>
      </trkpt>
      <trkpt lat="44.64988" lon="0.65531">
        <ele>95.1</ele>
        <time>2021-07-23T10:37:04Z</time>
      </trkpt>
      <trkpt lat="44.64987" lon="0.65506">
        <ele>94</ele>
        <time>2021-07-23T10:37:09Z</time>
      </trkpt>
      <trkpt lat="44.64982" lon="0.65473">
        <ele>92.7</ele>
        <time>2021-07-23T10:37:15Z</time>
      </trkpt>
      <trkpt lat="44.64977" lon="0.65456">
        <ele>92.4</ele>
        <time>2021-07-23T10:37:18Z</time>
      </trkpt>
      <trkpt lat="44.64973" lon="0.65444">
        <ele>92.2</ele>
        <time>2021-07-23T10:37:20Z</time>
      </trkpt>
      <trkpt lat="44.64967" lon="0.6542">
        <ele>91.8</ele>
        <time>2021-07-23T10:37:24Z</time>
      </trkpt>
      <trkpt lat="44.64961" lon="0.65379">
        <ele>90.4</ele>
        <time>2021-07-23T10:37:29Z</time>
      </trkpt>
      <trkpt lat="44.64953" lon="0.65361">
        <ele>90.5</ele>
        <time>2021-07-23T10:37:33Z</time>
      </trkpt>
      <trkpt lat="44.64941" lon="0.6532">
        <ele>90.5</ele>
        <time>2021-07-23T10:37:38Z</time>
      </trkpt>
      <trkpt lat="44.64926" lon="0.65269">
        <ele>90.5</ele>
        <time>2021-07-23T10:37:45Z</time>
      </trkpt>
      <trkpt lat="44.64917" lon="0.65245">
        <ele>90.5</ele>
        <time>2021-07-23T10:37:49Z</time>
      </trkpt>
      <trkpt lat="44.64913" lon="0.65233">
        <ele>90.5</ele>
        <time>2021-07-23T10:37:51Z</time>
      </trkpt>
      <trkpt lat="44.64893" lon="0.65181">
        <ele>90.5</ele>
        <time>2021-07-23T10:37:59Z</time>
      </trkpt>
      <trkpt lat="44.64878" lon="0.65133">
        <ele>90.2</ele>
        <time>2021-07-23T10:38:06Z</time>
      </trkpt>
      <trkpt lat="44.64876" lon="0.65126">
        <ele>90.1</ele>
        <time>2021-07-23T10:38:07Z</time>
      </trkpt>
      <trkpt lat="44.6487" lon="0.65098">
        <ele>89.9</ele>
        <time>2021-07-23T10:38:11Z</time>
      </trkpt>
      <trkpt lat="44.64867" lon="0.65059">
        <ele>89.6</ele>
        <time>2021-07-23T10:38:17Z</time>
      </trkpt>
      <trkpt lat="44.64868" lon="0.65053">
        <ele>89.5</ele>
        <time>2021-07-23T10:38:18Z</time>
      </trkpt>
      <trkpt lat="44.64868" lon="0.65041">
        <ele>89.4</ele>
        <time>2021-07-23T10:38:20Z</time>
      </trkpt>
      <trkpt lat="44.64868" lon="0.65034">
        <ele>89.4</ele>
        <time>2021-07-23T10:38:21Z</time>
      </trkpt>
      <trkpt lat="44.64869" lon="0.64998">
        <ele>89.1</ele>
        <time>2021-07-23T10:38:27Z</time>
      </trkpt>
      <trkpt lat="44.64869" lon="0.64993">
        <ele>89.1</ele>
        <time>2021-07-23T10:38:28Z</time>
      </trkpt>
      <trkpt lat="44.64866" lon="0.64981">
        <ele>89.1</ele>
        <time>2021-07-23T10:38:30Z</time>
      </trkpt>
      <trkpt lat="44.64864" lon="0.64975">
        <ele>89.1</ele>
        <time>2021-07-23T10:38:31Z</time>
      </trkpt>
      <trkpt lat="44.64862" lon="0.64963">
        <ele>89.2</ele>
        <time>2021-07-23T10:38:33Z</time>
      </trkpt>
      <trkpt lat="44.64859" lon="0.64954">
        <ele>89.4</ele>
        <time>2021-07-23T10:38:35Z</time>
      </trkpt>
      <trkpt lat="44.6485" lon="0.64928">
        <ele>89.9</ele>
        <time>2021-07-23T10:38:40Z</time>
      </trkpt>
      <trkpt lat="44.64837" lon="0.64893">
        <ele>90.6</ele>
        <time>2021-07-23T10:38:46Z</time>
      </trkpt>
      <trkpt lat="44.64827" lon="0.64852">
        <ele>91.3</ele>
        <time>2021-07-23T10:38:52Z</time>
      </trkpt>
      <trkpt lat="44.64825" lon="0.64845">
        <ele>91.4</ele>
        <time>2021-07-23T10:38:53Z</time>
      </trkpt>
      <trkpt lat="44.64823" lon="0.64833">
        <ele>91.6</ele>
        <time>2021-07-23T10:38:55Z</time>
      </trkpt>
      <trkpt lat="44.6482" lon="0.64812">
        <ele>91.9</ele>
        <time>2021-07-23T10:38:58Z</time>
      </trkpt>
      <trkpt lat="44.64819" lon="0.64805">
        <ele>92.1</ele>
        <time>2021-07-23T10:38:59Z</time>
      </trkpt>
      <trkpt lat="44.64809" lon="0.64766">
        <ele>92.7</ele>
        <time>2021-07-23T10:39:05Z</time>
      </trkpt>
      <trkpt lat="44.64801" lon="0.64742">
        <ele>93</ele>
        <time>2021-07-23T10:39:10Z</time>
      </trkpt>
      <trkpt lat="44.64797" lon="0.64731">
        <ele>93</ele>
        <time>2021-07-23T10:39:12Z</time>
      </trkpt>
      <trkpt lat="44.64788" lon="0.64716">
        <ele>93.3</ele>
        <time>2021-07-23T10:39:15Z</time>
      </trkpt>
      <trkpt lat="44.64781" lon="0.64703">
        <ele>93.5</ele>
        <time>2021-07-23T10:39:18Z</time>
      </trkpt>
      <trkpt lat="44.64781" lon="0.64698">
        <ele>93.6</ele>
        <time>2021-07-23T10:39:19Z</time>
      </trkpt>
      <trkpt lat="44.64782" lon="0.64694">
        <ele>93.6</ele>
        <time>2021-07-23T10:39:20Z</time>
      </trkpt>
      <trkpt lat="44.64788" lon="0.64689">
        <ele>93.4</ele>
        <time>2021-07-23T10:39:22Z</time>
      </trkpt>
      <trkpt lat="44.64804" lon="0.64683">
        <ele>93</ele>
        <time>2021-07-23T10:39:26Z</time>
      </trkpt>
      <trkpt lat="44.64809" lon="0.64682">
        <ele>92.9</ele>
        <time>2021-07-23T10:39:27Z</time>
      </trkpt>
      <trkpt lat="44.64842" lon="0.64671">
        <ele>92.1</ele>
        <time>2021-07-23T10:39:34Z</time>
      </trkpt>
      <trkpt lat="44.64857" lon="0.64666">
        <ele>91.8</ele>
        <time>2021-07-23T10:39:37Z</time>
      </trkpt>
      <trkpt lat="44.64871" lon="0.64661">
        <ele>91.4</ele>
        <time>2021-07-23T10:39:40Z</time>
      </trkpt>
      <trkpt lat="44.64895" lon="0.64654">
        <ele>90.8</ele>
        <time>2021-07-23T10:39:46Z</time>
      </trkpt>
      <trkpt lat="44.64916" lon="0.6465">
        <ele>90.3</ele>
        <time>2021-07-23T10:39:51Z</time>
      </trkpt>
      <trkpt lat="44.64929" lon="0.64645">
        <ele>90</ele>
        <time>2021-07-23T10:39:54Z</time>
      </trkpt>
      <trkpt lat="44.64934" lon="0.6464">
        <ele>89.9</ele>
        <time>2021-07-23T10:39:56Z</time>
      </trkpt>
      <trkpt lat="44.64944" lon="0.64633">
        <ele>89.6</ele>
        <time>2021-07-23T10:40:00Z</time>
      </trkpt>
      <trkpt lat="44.64957" lon="0.64634">
        <ele>89.3</ele>
        <time>2021-07-23T10:40:04Z</time>
      </trkpt>
      <trkpt lat="44.64983" lon="0.64647">
        <ele>88.7</ele>
        <time>2021-07-23T10:40:09Z</time>
      </trkpt>
      <trkpt lat="44.64989" lon="0.6465">
        <ele>88.5</ele>
        <time>2021-07-23T10:40:10Z</time>
      </trkpt>
      <trkpt lat="44.65007" lon="0.64661">
        <ele>88</ele>
        <time>2021-07-23T10:40:13Z</time>
      </trkpt>
      <trkpt lat="44.65033" lon="0.64677">
        <ele>87.4</ele>
        <time>2021-07-23T10:40:18Z</time>
      </trkpt>
      <trkpt lat="44.65043" lon="0.64675">
        <ele>87.2</ele>
        <time>2021-07-23T10:40:20Z</time>
      </trkpt>
      <trkpt lat="44.65046" lon="0.6467">
        <ele>87.2</ele>
        <time>2021-07-23T10:40:21Z</time>
      </trkpt>
      <trkpt lat="44.65048" lon="0.64661">
        <ele>87.2</ele>
        <time>2021-07-23T10:40:23Z</time>
      </trkpt>
      <trkpt lat="44.65054" lon="0.64644">
        <ele>87.3</ele>
        <time>2021-07-23T10:40:26Z</time>
      </trkpt>
      <trkpt lat="44.65058" lon="0.6464">
        <ele>87.2</ele>
        <time>2021-07-23T10:40:27Z</time>
      </trkpt>
      <trkpt lat="44.65061" lon="0.64636">
        <ele>87.2</ele>
        <time>2021-07-23T10:40:28Z</time>
      </trkpt>
      <trkpt lat="44.65063" lon="0.64627">
        <ele>87.2</ele>
        <time>2021-07-23T10:40:30Z</time>
      </trkpt>
      <trkpt lat="44.65068" lon="0.64604">
        <ele>87.5</ele>
        <time>2021-07-23T10:40:34Z</time>
      </trkpt>
      <trkpt lat="44.6507" lon="0.64593">
        <ele>87.4</ele>
        <time>2021-07-23T10:40:36Z</time>
      </trkpt>
      <trkpt lat="44.65071" lon="0.64581">
        <ele>87.4</ele>
        <time>2021-07-23T10:40:38Z</time>
      </trkpt>
      <trkpt lat="44.65071" lon="0.64575">
        <ele>87.4</ele>
        <time>2021-07-23T10:40:39Z</time>
      </trkpt>
      <trkpt lat="44.65078" lon="0.64547">
        <ele>87.2</ele>
        <time>2021-07-23T10:40:43Z</time>
      </trkpt>
      <trkpt lat="44.65083" lon="0.64522">
        <ele>87.1</ele>
        <time>2021-07-23T10:40:46Z</time>
      </trkpt>
      <trkpt lat="44.65086" lon="0.64502">
        <ele>87.1</ele>
        <time>2021-07-23T10:40:48Z</time>
      </trkpt>
      <trkpt lat="44.65096" lon="0.64433">
        <ele>87.7</ele>
        <time>2021-07-23T10:40:54Z</time>
      </trkpt>
      <trkpt lat="44.65098" lon="0.64424">
        <ele>88</ele>
        <time>2021-07-23T10:40:55Z</time>
      </trkpt>
      <trkpt lat="44.65102" lon="0.6441">
        <ele>88.3</ele>
        <time>2021-07-23T10:40:57Z</time>
      </trkpt>
      <trkpt lat="44.65107" lon="0.64394">
        <ele>88.8</ele>
        <time>2021-07-23T10:41:01Z</time>
      </trkpt>
      <trkpt lat="44.65113" lon="0.64372">
        <ele>89.7</ele>
        <time>2021-07-23T10:41:08Z</time>
      </trkpt>
      <trkpt lat="44.6512" lon="0.6435">
        <ele>90.4</ele>
        <time>2021-07-23T10:41:14Z</time>
      </trkpt>
      <trkpt lat="44.65126" lon="0.6433">
        <ele>90.8</ele>
        <time>2021-07-23T10:41:19Z</time>
      </trkpt>
      <trkpt lat="44.6513" lon="0.64309">
        <ele>90.9</ele>
        <time>2021-07-23T10:41:24Z</time>
      </trkpt>
      <trkpt lat="44.65136" lon="0.64286">
        <ele>90.8</ele>
        <time>2021-07-23T10:41:29Z</time>
      </trkpt>
      <trkpt lat="44.65143" lon="0.64262">
        <ele>90.5</ele>
        <time>2021-07-23T10:41:34Z</time>
      </trkpt>
      <trkpt lat="44.65146" lon="0.64241">
        <ele>89.9</ele>
        <time>2021-07-23T10:41:38Z</time>
      </trkpt>
      <trkpt lat="44.6514" lon="0.64233">
        <ele>90.3</ele>
        <time>2021-07-23T10:41:41Z</time>
      </trkpt>
      <trkpt lat="44.65128" lon="0.64216">
        <ele>90.8</ele>
        <time>2021-07-23T10:41:46Z</time>
      </trkpt>
      <trkpt lat="44.65113" lon="0.64197">
        <ele>91.4</ele>
        <time>2021-07-23T10:41:52Z</time>
      </trkpt>
      <trkpt lat="44.65098" lon="0.64178">
        <ele>91.7</ele>
        <time>2021-07-23T10:41:58Z</time>
      </trkpt>
      <trkpt lat="44.65079" lon="0.64154">
        <ele>92.1</ele>
        <time>2021-07-23T10:42:05Z</time>
      </trkpt>
      <trkpt lat="44.65071" lon="0.64139">
        <ele>92.3</ele>
        <time>2021-07-23T10:42:09Z</time>
      </trkpt>
      <trkpt lat="44.65072" lon="0.64135">
        <ele>92.2</ele>
        <time>2021-07-23T10:42:10Z</time>
      </trkpt>
      <trkpt lat="44.65085" lon="0.64119">
        <ele>92</ele>
        <time>2021-07-23T10:42:15Z</time>
      </trkpt>
      <trkpt lat="44.65113" lon="0.64095">
        <ele>91.7</ele>
        <time>2021-07-23T10:42:23Z</time>
      </trkpt>
      <trkpt lat="44.65143" lon="0.6407">
        <ele>91.6</ele>
        <time>2021-07-23T10:42:31Z</time>
      </trkpt>
      <trkpt lat="44.65146" lon="0.64067">
        <ele>91.6</ele>
        <time>2021-07-23T10:42:32Z</time>
      </trkpt>
      <trkpt lat="44.65162" lon="0.64051">
        <ele>91.5</ele>
        <time>2021-07-23T10:42:36Z</time>
      </trkpt>
      <trkpt lat="44.65189" lon="0.64023">
        <ele>91</ele>
        <time>2021-07-23T10:42:43Z</time>
      </trkpt>
      <trkpt lat="44.65215" lon="0.63997">
        <ele>90.5</ele>
        <time>2021-07-23T10:42:49Z</time>
      </trkpt>
      <trkpt lat="44.65227" lon="0.63985">
        <ele>90.3</ele>
        <time>2021-07-23T10:42:52Z</time>
      </trkpt>
      <trkpt lat="44.65233" lon="0.63977">
        <ele>90.2</ele>
        <time>2021-07-23T10:42:54Z</time>
      </trkpt>
      <trkpt lat="44.65245" lon="0.63968">
        <ele>90</ele>
        <time>2021-07-23T10:42:57Z</time>
      </trkpt>
      <trkpt lat="44.65251" lon="0.6396">
        <ele>89.9</ele>
        <time>2021-07-23T10:42:59Z</time>
      </trkpt>
      <trkpt lat="44.65269" lon="0.63942">
        <ele>89.8</ele>
        <time>2021-07-23T10:43:04Z</time>
      </trkpt>
      <trkpt lat="44.65273" lon="0.63938">
        <ele>89.8</ele>
        <time>2021-07-23T10:43:05Z</time>
      </trkpt>
      <trkpt lat="44.65288" lon="0.63923">
        <ele>89.6</ele>
        <time>2021-07-23T10:43:09Z</time>
      </trkpt>
      <trkpt lat="44.65308" lon="0.63902">
        <ele>89.1</ele>
        <time>2021-07-23T10:43:14Z</time>
      </trkpt>
      <trkpt lat="44.65334" lon="0.63877">
        <ele>88.4</ele>
        <time>2021-07-23T10:43:19Z</time>
      </trkpt>
      <trkpt lat="44.6535" lon="0.63859">
        <ele>88.3</ele>
        <time>2021-07-23T10:43:23Z</time>
      </trkpt>
      <trkpt lat="44.65368" lon="0.6384">
        <ele>87.9</ele>
        <time>2021-07-23T10:43:28Z</time>
      </trkpt>
      <trkpt lat="44.65389" lon="0.63819">
        <ele>87.4</ele>
        <time>2021-07-23T10:43:33Z</time>
      </trkpt>
      <trkpt lat="44.65397" lon="0.63813">
        <ele>87.3</ele>
        <time>2021-07-23T10:43:35Z</time>
      </trkpt>
      <trkpt lat="44.65415" lon="0.63805">
        <ele>87</ele>
        <time>2021-07-23T10:43:40Z</time>
      </trkpt>
      <trkpt lat="44.65422" lon="0.63801">
        <ele>86.9</ele>
        <time>2021-07-23T10:43:42Z</time>
      </trkpt>
      <trkpt lat="44.65431" lon="0.63799">
        <ele>86.8</ele>
        <time>2021-07-23T10:43:44Z</time>
      </trkpt>
      <trkpt lat="44.65455" lon="0.63796">
        <ele>86.5</ele>
        <time>2021-07-23T10:43:49Z</time>
      </trkpt>
      <trkpt lat="44.65465" lon="0.63797">
        <ele>86.5</ele>
        <time>2021-07-23T10:43:51Z</time>
      </trkpt>
      <trkpt lat="44.65481" lon="0.63804">
        <ele>86.4</ele>
        <time>2021-07-23T10:43:54Z</time>
      </trkpt>
      <trkpt lat="44.65487" lon="0.63806">
        <ele>86.4</ele>
        <time>2021-07-23T10:43:55Z</time>
      </trkpt>
      <trkpt lat="44.65504" lon="0.63806">
        <ele>86.2</ele>
        <time>2021-07-23T10:43:58Z</time>
      </trkpt>
      <trkpt lat="44.65523" lon="0.63807">
        <ele>85.9</ele>
        <time>2021-07-23T10:44:01Z</time>
      </trkpt>
      <trkpt lat="44.65529" lon="0.63806">
        <ele>85.8</ele>
        <time>2021-07-23T10:44:02Z</time>
      </trkpt>
      <trkpt lat="44.65566" lon="0.63805">
        <ele>85.1</ele>
        <time>2021-07-23T10:44:08Z</time>
      </trkpt>
      <trkpt lat="44.65589" lon="0.63802">
        <ele>84.1</ele>
        <time>2021-07-23T10:44:12Z</time>
      </trkpt>
      <trkpt lat="44.65605" lon="0.63798">
        <ele>83.3</ele>
        <time>2021-07-23T10:44:15Z</time>
      </trkpt>
      <trkpt lat="44.6561" lon="0.63795">
        <ele>83</ele>
        <time>2021-07-23T10:44:16Z</time>
      </trkpt>
      <trkpt lat="44.65614" lon="0.63791">
        <ele>82.6</ele>
        <time>2021-07-23T10:44:17Z</time>
      </trkpt>
      <trkpt lat="44.65628" lon="0.63771">
        <ele>80.9</ele>
        <time>2021-07-23T10:44:20Z</time>
      </trkpt>
      <trkpt lat="44.65642" lon="0.63754">
        <ele>79.3</ele>
        <time>2021-07-23T10:44:23Z</time>
      </trkpt>
      <trkpt lat="44.65648" lon="0.63752">
        <ele>78.9</ele>
        <time>2021-07-23T10:44:24Z</time>
      </trkpt>
      <trkpt lat="44.65653" lon="0.63753">
        <ele>78.5</ele>
        <time>2021-07-23T10:44:25Z</time>
      </trkpt>
      <trkpt lat="44.65663" lon="0.63757">
        <ele>78.4</ele>
        <time>2021-07-23T10:44:27Z</time>
      </trkpt>
      <trkpt lat="44.65668" lon="0.63758">
        <ele>78.3</ele>
        <time>2021-07-23T10:44:28Z</time>
      </trkpt>
      <trkpt lat="44.65674" lon="0.63753">
        <ele>78.1</ele>
        <time>2021-07-23T10:44:30Z</time>
      </trkpt>
      <trkpt lat="44.65677" lon="0.63728">
        <ele>77.6</ele>
        <time>2021-07-23T10:44:34Z</time>
      </trkpt>
      <trkpt lat="44.65678" lon="0.63701">
        <ele>77</ele>
        <time>2021-07-23T10:44:38Z</time>
      </trkpt>
      <trkpt lat="44.65678" lon="0.63686">
        <ele>76.7</ele>
        <time>2021-07-23T10:44:40Z</time>
      </trkpt>
      <trkpt lat="44.65677" lon="0.63679">
        <ele>76.6</ele>
        <time>2021-07-23T10:44:41Z</time>
      </trkpt>
      <trkpt lat="44.65674" lon="0.63649">
        <ele>76</ele>
        <time>2021-07-23T10:44:45Z</time>
      </trkpt>
      <trkpt lat="44.65671" lon="0.63603">
        <ele>75.8</ele>
        <time>2021-07-23T10:44:51Z</time>
      </trkpt>
      <trkpt lat="44.6567" lon="0.63596">
        <ele>75.8</ele>
        <time>2021-07-23T10:44:52Z</time>
      </trkpt>
      <trkpt lat="44.65664" lon="0.63587">
        <ele>75.9</ele>
        <time>2021-07-23T10:44:54Z</time>
      </trkpt>
      <trkpt lat="44.65661" lon="0.63584">
        <ele>76</ele>
        <time>2021-07-23T10:44:55Z</time>
      </trkpt>
      <trkpt lat="44.65644" lon="0.63574">
        <ele>76.7</ele>
        <time>2021-07-23T10:44:59Z</time>
      </trkpt>
      <trkpt lat="44.65625" lon="0.63563">
        <ele>77.9</ele>
        <time>2021-07-23T10:45:05Z</time>
      </trkpt>
      <trkpt lat="44.65607" lon="0.63554">
        <ele>79.2</ele>
        <time>2021-07-23T10:45:12Z</time>
      </trkpt>
      <trkpt lat="44.65594" lon="0.63549">
        <ele>80.3</ele>
        <time>2021-07-23T10:45:18Z</time>
      </trkpt>
      <trkpt lat="44.6559" lon="0.63543">
        <ele>80.8</ele>
        <time>2021-07-23T10:45:21Z</time>
      </trkpt>
      <trkpt lat="44.65588" lon="0.63535">
        <ele>81.2</ele>
        <time>2021-07-23T10:45:24Z</time>
      </trkpt>
      <trkpt lat="44.65585" lon="0.63514">
        <ele>82.4</ele>
        <time>2021-07-23T10:45:30Z</time>
      </trkpt>
      <trkpt lat="44.65583" lon="0.635">
        <ele>83.3</ele>
        <time>2021-07-23T10:45:37Z</time>
      </trkpt>
      <trkpt lat="44.6558" lon="0.63487">
        <ele>84.1</ele>
        <time>2021-07-23T10:45:43Z</time>
      </trkpt>
      <trkpt lat="44.65578" lon="0.63472">
        <ele>84.9</ele>
        <time>2021-07-23T10:45:50Z</time>
      </trkpt>
      <trkpt lat="44.65574" lon="0.63456">
        <ele>85.5</ele>
        <time>2021-07-23T10:45:56Z</time>
      </trkpt>
      <trkpt lat="44.65569" lon="0.6343">
        <ele>85.9</ele>
        <time>2021-07-23T10:46:02Z</time>
      </trkpt>
      <trkpt lat="44.65566" lon="0.63404">
        <ele>86</ele>
        <time>2021-07-23T10:46:07Z</time>
      </trkpt>
      <trkpt lat="44.6556" lon="0.63364">
        <ele>86</ele>
        <time>2021-07-23T10:46:15Z</time>
      </trkpt>
      <trkpt lat="44.65559" lon="0.63337">
        <ele>85.6</ele>
        <time>2021-07-23T10:46:20Z</time>
      </trkpt>
      <trkpt lat="44.65557" lon="0.63318">
        <ele>85.1</ele>
        <time>2021-07-23T10:46:23Z</time>
      </trkpt>
      <trkpt lat="44.65556" lon="0.63305">
        <ele>84.7</ele>
        <time>2021-07-23T10:46:25Z</time>
      </trkpt>
      <trkpt lat="44.65559" lon="0.63268">
        <ele>83.8</ele>
        <time>2021-07-23T10:46:31Z</time>
      </trkpt>
      <trkpt lat="44.65561" lon="0.6323">
        <ele>82.9</ele>
        <time>2021-07-23T10:46:37Z</time>
      </trkpt>
      <trkpt lat="44.65561" lon="0.63192">
        <ele>82.4</ele>
        <time>2021-07-23T10:46:42Z</time>
      </trkpt>
      <trkpt lat="44.65561" lon="0.63176">
        <ele>82.2</ele>
        <time>2021-07-23T10:46:44Z</time>
      </trkpt>
      <trkpt lat="44.65557" lon="0.63132">
        <ele>82.6</ele>
        <time>2021-07-23T10:46:50Z</time>
      </trkpt>
      <trkpt lat="44.65549" lon="0.63086">
        <ele>83.7</ele>
        <time>2021-07-23T10:46:58Z</time>
      </trkpt>
      <trkpt lat="44.65545" lon="0.63043">
        <ele>83.9</ele>
        <time>2021-07-23T10:47:05Z</time>
      </trkpt>
      <trkpt lat="44.65547" lon="0.6298">
        <ele>84.2</ele>
        <time>2021-07-23T10:47:14Z</time>
      </trkpt>
      <trkpt lat="44.6555" lon="0.62927">
        <ele>84.4</ele>
        <time>2021-07-23T10:47:22Z</time>
      </trkpt>
      <trkpt lat="44.65556" lon="0.62849">
        <ele>83.9</ele>
        <time>2021-07-23T10:47:33Z</time>
      </trkpt>
      <trkpt lat="44.65562" lon="0.62801">
        <ele>83.7</ele>
        <time>2021-07-23T10:47:40Z</time>
      </trkpt>
      <trkpt lat="44.65566" lon="0.62761">
        <ele>83.8</ele>
        <time>2021-07-23T10:47:47Z</time>
      </trkpt>
      <trkpt lat="44.65569" lon="0.62735">
        <ele>83.8</ele>
        <time>2021-07-23T10:47:52Z</time>
      </trkpt>
      <trkpt lat="44.65573" lon="0.62705">
        <ele>83.6</ele>
        <time>2021-07-23T10:47:58Z</time>
      </trkpt>
      <trkpt lat="44.65577" lon="0.6267">
        <ele>83.5</ele>
        <time>2021-07-23T10:48:05Z</time>
      </trkpt>
      <trkpt lat="44.65579" lon="0.62645">
        <ele>83.6</ele>
        <time>2021-07-23T10:48:10Z</time>
      </trkpt>
      <trkpt lat="44.65581" lon="0.62622">
        <ele>83.8</ele>
        <time>2021-07-23T10:48:15Z</time>
      </trkpt>
      <trkpt lat="44.6558" lon="0.62589">
        <ele>84.4</ele>
        <time>2021-07-23T10:48:21Z</time>
      </trkpt>
      <trkpt lat="44.65581" lon="0.62563">
        <ele>84.2</ele>
        <time>2021-07-23T10:48:26Z</time>
      </trkpt>
      <trkpt lat="44.65581" lon="0.62533">
        <ele>82.3</ele>
        <time>2021-07-23T10:48:30Z</time>
      </trkpt>
      <trkpt lat="44.65581" lon="0.62523">
        <ele>81.4</ele>
        <time>2021-07-23T10:48:31Z</time>
      </trkpt>
      <trkpt lat="44.6558" lon="0.62505">
        <ele>79.4</ele>
        <time>2021-07-23T10:48:33Z</time>
      </trkpt>
      <trkpt lat="44.6558" lon="0.62497">
        <ele>78.4</ele>
        <time>2021-07-23T10:48:34Z</time>
      </trkpt>
      <trkpt lat="44.65579" lon="0.62468">
        <ele>75.4</ele>
        <time>2021-07-23T10:48:37Z</time>
      </trkpt>
      <trkpt lat="44.6558" lon="0.62459">
        <ele>74.5</ele>
        <time>2021-07-23T10:48:38Z</time>
      </trkpt>
      <trkpt lat="44.65581" lon="0.62422">
        <ele>72.7</ele>
        <time>2021-07-23T10:48:42Z</time>
      </trkpt>
      <trkpt lat="44.65582" lon="0.62403">
        <ele>72.5</ele>
        <time>2021-07-23T10:48:44Z</time>
      </trkpt>
      <trkpt lat="44.65578" lon="0.62387">
        <ele>72.3</ele>
        <time>2021-07-23T10:48:46Z</time>
      </trkpt>
      <trkpt lat="44.65575" lon="0.62379">
        <ele>72.3</ele>
        <time>2021-07-23T10:48:47Z</time>
      </trkpt>
      <trkpt lat="44.65569" lon="0.62358">
        <ele>72.3</ele>
        <time>2021-07-23T10:48:50Z</time>
      </trkpt>
      <trkpt lat="44.65562" lon="0.62324">
        <ele>72.6</ele>
        <time>2021-07-23T10:48:55Z</time>
      </trkpt>
      <trkpt lat="44.65554" lon="0.62301">
        <ele>72.9</ele>
        <time>2021-07-23T10:48:59Z</time>
      </trkpt>
      <trkpt lat="44.65547" lon="0.62267">
        <ele>73.5</ele>
        <time>2021-07-23T10:49:05Z</time>
      </trkpt>
      <trkpt lat="44.65539" lon="0.62228">
        <ele>74.2</ele>
        <time>2021-07-23T10:49:12Z</time>
      </trkpt>
      <trkpt lat="44.65535" lon="0.62211">
        <ele>74.5</ele>
        <time>2021-07-23T10:49:15Z</time>
      </trkpt>
      <trkpt lat="44.6553" lon="0.62189">
        <ele>74.8</ele>
        <time>2021-07-23T10:49:19Z</time>
      </trkpt>
      <trkpt lat="44.65523" lon="0.6216">
        <ele>75.3</ele>
        <time>2021-07-23T10:49:25Z</time>
      </trkpt>
      <trkpt lat="44.65515" lon="0.62126">
        <ele>75.6</ele>
        <time>2021-07-23T10:49:32Z</time>
      </trkpt>
      <trkpt lat="44.65506" lon="0.62095">
        <ele>76</ele>
        <time>2021-07-23T10:49:39Z</time>
      </trkpt>
      <trkpt lat="44.65498" lon="0.62063">
        <ele>76.2</ele>
        <time>2021-07-23T10:49:46Z</time>
      </trkpt>
      <trkpt lat="44.6549" lon="0.6203">
        <ele>76.4</ele>
        <time>2021-07-23T10:49:53Z</time>
      </trkpt>
      <trkpt lat="44.65482" lon="0.61993">
        <ele>76.7</ele>
        <time>2021-07-23T10:50:01Z</time>
      </trkpt>
      <trkpt lat="44.65476" lon="0.61957">
        <ele>77.2</ele>
        <time>2021-07-23T10:50:09Z</time>
      </trkpt>
      <trkpt lat="44.6547" lon="0.61921">
        <ele>77.8</ele>
        <time>2021-07-23T10:50:17Z</time>
      </trkpt>
      <trkpt lat="44.65469" lon="0.61899">
        <ele>78.2</ele>
        <time>2021-07-23T10:50:22Z</time>
      </trkpt>
      <trkpt lat="44.65471" lon="0.61896">
        <ele>78.1</ele>
        <time>2021-07-23T10:50:23Z</time>
      </trkpt>
      <trkpt lat="44.65474" lon="0.61895">
        <ele>78.1</ele>
        <time>2021-07-23T10:50:24Z</time>
      </trkpt>
      <trkpt lat="44.65484" lon="0.61893">
        <ele>77.9</ele>
        <time>2021-07-23T10:50:27Z</time>
      </trkpt>
      <trkpt lat="44.65511" lon="0.6188">
        <ele>77.8</ele>
        <time>2021-07-23T10:50:34Z</time>
      </trkpt>
      <trkpt lat="44.65545" lon="0.61863">
        <ele>78</ele>
        <time>2021-07-23T10:50:42Z</time>
      </trkpt>
      <trkpt lat="44.65585" lon="0.61841">
        <ele>79.3</ele>
        <time>2021-07-23T10:50:52Z</time>
      </trkpt>
      <trkpt lat="44.65592" lon="0.61839">
        <ele>79.5</ele>
        <time>2021-07-23T10:50:54Z</time>
      </trkpt>
      <trkpt lat="44.65598" lon="0.61846">
        <ele>79.8</ele>
        <time>2021-07-23T10:50:56Z</time>
      </trkpt>
      <trkpt lat="44.65604" lon="0.61851">
        <ele>79.8</ele>
        <time>2021-07-23T10:50:58Z</time>
      </trkpt>
      <trkpt lat="44.65607" lon="0.61849">
        <ele>79.8</ele>
        <time>2021-07-23T10:50:59Z</time>
      </trkpt>
      <trkpt lat="44.65633" lon="0.6183">
        <ele>80.1</ele>
        <time>2021-07-23T10:51:07Z</time>
      </trkpt>
      <trkpt lat="44.65644" lon="0.61813">
        <ele>80.3</ele>
        <time>2021-07-23T10:51:12Z</time>
      </trkpt>
      <trkpt lat="44.65646" lon="0.61782">
        <ele>80.9</ele>
        <time>2021-07-23T10:51:18Z</time>
      </trkpt>
      <trkpt lat="44.65647" lon="0.61749">
        <ele>81.7</ele>
        <time>2021-07-23T10:51:25Z</time>
      </trkpt>
      <trkpt lat="44.65656" lon="0.61732">
        <ele>82.1</ele>
        <time>2021-07-23T10:51:30Z</time>
      </trkpt>
      <trkpt lat="44.6568" lon="0.61703">
        <ele>82.8</ele>
        <time>2021-07-23T10:51:40Z</time>
      </trkpt>
      <trkpt lat="44.65697" lon="0.61683">
        <ele>83.4</ele>
        <time>2021-07-23T10:51:47Z</time>
      </trkpt>
      <trkpt lat="44.65719" lon="0.61654">
        <ele>84.6</ele>
        <time>2021-07-23T10:51:56Z</time>
      </trkpt>
      <trkpt lat="44.65732" lon="0.61632">
        <ele>85.7</ele>
        <time>2021-07-23T10:52:03Z</time>
      </trkpt>
      <trkpt lat="44.65743" lon="0.61615">
        <ele>86.5</ele>
        <time>2021-07-23T10:52:10Z</time>
      </trkpt>
      <trkpt lat="44.65754" lon="0.61597">
        <ele>87.3</ele>
        <time>2021-07-23T10:52:18Z</time>
      </trkpt>
      <trkpt lat="44.65769" lon="0.61572">
        <ele>88.4</ele>
        <time>2021-07-23T10:52:28Z</time>
      </trkpt>
      <trkpt lat="44.6578" lon="0.61555">
        <ele>89</ele>
        <time>2021-07-23T10:52:35Z</time>
      </trkpt>
      <trkpt lat="44.65794" lon="0.61535">
        <ele>89.4</ele>
        <time>2021-07-23T10:52:43Z</time>
      </trkpt>
      <trkpt lat="44.65807" lon="0.61517">
        <ele>89.6</ele>
        <time>2021-07-23T10:52:50Z</time>
      </trkpt>
      <trkpt lat="44.65818" lon="0.615">
        <ele>89.6</ele>
        <time>2021-07-23T10:52:56Z</time>
      </trkpt>
      <trkpt lat="44.65821" lon="0.61474">
        <ele>89.7</ele>
        <time>2021-07-23T10:53:02Z</time>
      </trkpt>
      <trkpt lat="44.65821" lon="0.61457">
        <ele>90</ele>
        <time>2021-07-23T10:53:07Z</time>
      </trkpt>
      <trkpt lat="44.65823" lon="0.61422">
        <ele>90.5</ele>
        <time>2021-07-23T10:53:15Z</time>
      </trkpt>
      <trkpt lat="44.65825" lon="0.61393">
        <ele>90.8</ele>
        <time>2021-07-23T10:53:22Z</time>
      </trkpt>
      <trkpt lat="44.65826" lon="0.61369">
        <ele>91.1</ele>
        <time>2021-07-23T10:53:28Z</time>
      </trkpt>
      <trkpt lat="44.65827" lon="0.61345">
        <ele>91.2</ele>
        <time>2021-07-23T10:53:34Z</time>
      </trkpt>
      <trkpt lat="44.6583" lon="0.6132">
        <ele>91.2</ele>
        <time>2021-07-23T10:53:40Z</time>
      </trkpt>
      <trkpt lat="44.65834" lon="0.61297">
        <ele>91.2</ele>
        <time>2021-07-23T10:53:46Z</time>
      </trkpt>
      <trkpt lat="44.65832" lon="0.61278">
        <ele>91.2</ele>
        <time>2021-07-23T10:53:52Z</time>
      </trkpt>
      <trkpt lat="44.65832" lon="0.61277">
        <ele>91.2</ele>
        <time>2021-07-23T10:53:54Z</time>
      </trkpt>
      <trkpt lat="44.65832" lon="0.61273">
        <ele>91.2</ele>
        <time>2021-07-23T10:55:08Z</time>
      </trkpt>
      <trkpt lat="44.65832" lon="0.61252">
        <ele>91.2</ele>
        <time>2021-07-23T10:55:13Z</time>
      </trkpt>
      <trkpt lat="44.65828" lon="0.61232">
        <ele>91.2</ele>
        <time>2021-07-23T10:55:19Z</time>
      </trkpt>
      <trkpt lat="44.65819" lon="0.61218">
        <ele>91.2</ele>
        <time>2021-07-23T10:55:24Z</time>
      </trkpt>
      <trkpt lat="44.65808" lon="0.61202">
        <ele>91.3</ele>
        <time>2021-07-23T10:55:29Z</time>
      </trkpt>
      <trkpt lat="44.65798" lon="0.61186">
        <ele>91.3</ele>
        <time>2021-07-23T10:55:34Z</time>
      </trkpt>
      <trkpt lat="44.65781" lon="0.61161">
        <ele>91.4</ele>
        <time>2021-07-23T10:55:41Z</time>
      </trkpt>
      <trkpt lat="44.65773" lon="0.61149">
        <ele>91.4</ele>
        <time>2021-07-23T10:55:44Z</time>
      </trkpt>
      <trkpt lat="44.65762" lon="0.61131">
        <ele>91.6</ele>
        <time>2021-07-23T10:55:48Z</time>
      </trkpt>
      <trkpt lat="44.6574" lon="0.61094">
        <ele>91.9</ele>
        <time>2021-07-23T10:55:56Z</time>
      </trkpt>
      <trkpt lat="44.65725" lon="0.61071">
        <ele>92.2</ele>
        <time>2021-07-23T10:56:02Z</time>
      </trkpt>
      <trkpt lat="44.65706" lon="0.61043">
        <ele>92.5</ele>
        <time>2021-07-23T10:56:09Z</time>
      </trkpt>
      <trkpt lat="44.65687" lon="0.6101">
        <ele>93.2</ele>
        <time>2021-07-23T10:56:16Z</time>
      </trkpt>
      <trkpt lat="44.65667" lon="0.60978">
        <ele>93.8</ele>
        <time>2021-07-23T10:56:23Z</time>
      </trkpt>
      <trkpt lat="44.65642" lon="0.6094">
        <ele>94.4</ele>
        <time>2021-07-23T10:56:31Z</time>
      </trkpt>
      <trkpt lat="44.65622" lon="0.60907">
        <ele>95</ele>
        <time>2021-07-23T10:56:38Z</time>
      </trkpt>
      <trkpt lat="44.65619" lon="0.60902">
        <ele>95</ele>
        <time>2021-07-23T10:56:39Z</time>
      </trkpt>
      <trkpt lat="44.65604" lon="0.60878">
        <ele>95.4</ele>
        <time>2021-07-23T10:56:44Z</time>
      </trkpt>
      <trkpt lat="44.65601" lon="0.60874">
        <ele>95.5</ele>
        <time>2021-07-23T10:56:45Z</time>
      </trkpt>
      <trkpt lat="44.65586" lon="0.60849">
        <ele>95.9</ele>
        <time>2021-07-23T10:56:50Z</time>
      </trkpt>
      <trkpt lat="44.65583" lon="0.60845">
        <ele>96</ele>
        <time>2021-07-23T10:56:51Z</time>
      </trkpt>
      <trkpt lat="44.65573" lon="0.6083">
        <ele>96.3</ele>
        <time>2021-07-23T10:56:55Z</time>
      </trkpt>
      <trkpt lat="44.6556" lon="0.60808">
        <ele>96.6</ele>
        <time>2021-07-23T10:57:01Z</time>
      </trkpt>
      <trkpt lat="44.65543" lon="0.60782">
        <ele>96.9</ele>
        <time>2021-07-23T10:57:07Z</time>
      </trkpt>
      <trkpt lat="44.65525" lon="0.60756">
        <ele>97</ele>
        <time>2021-07-23T10:57:13Z</time>
      </trkpt>
      <trkpt lat="44.65521" lon="0.60751">
        <ele>97.1</ele>
        <time>2021-07-23T10:57:14Z</time>
      </trkpt>
      <trkpt lat="44.65514" lon="0.60735">
        <ele>97.4</ele>
        <time>2021-07-23T10:57:17Z</time>
      </trkpt>
      <trkpt lat="44.65512" lon="0.60729">
        <ele>97.5</ele>
        <time>2021-07-23T10:57:18Z</time>
      </trkpt>
      <trkpt lat="44.65511" lon="0.60724">
        <ele>97.6</ele>
        <time>2021-07-23T10:57:19Z</time>
      </trkpt>
      <trkpt lat="44.65511" lon="0.60701">
        <ele>98.1</ele>
        <time>2021-07-23T10:57:23Z</time>
      </trkpt>
      <trkpt lat="44.65513" lon="0.60663">
        <ele>99</ele>
        <time>2021-07-23T10:57:30Z</time>
      </trkpt>
      <trkpt lat="44.65514" lon="0.60644">
        <ele>99.4</ele>
        <time>2021-07-23T10:57:35Z</time>
      </trkpt>
      <trkpt lat="44.65511" lon="0.6061">
        <ele>100.2</ele>
        <time>2021-07-23T10:57:42Z</time>
      </trkpt>
      <trkpt lat="44.65504" lon="0.60579">
        <ele>100.7</ele>
        <time>2021-07-23T10:57:48Z</time>
      </trkpt>
      <trkpt lat="44.65498" lon="0.60558">
        <ele>101</ele>
        <time>2021-07-23T10:57:52Z</time>
      </trkpt>
      <trkpt lat="44.65495" lon="0.60549">
        <ele>101.2</ele>
        <time>2021-07-23T10:57:54Z</time>
      </trkpt>
      <trkpt lat="44.65487" lon="0.60527">
        <ele>101.5</ele>
        <time>2021-07-23T10:57:59Z</time>
      </trkpt>
      <trkpt lat="44.6548" lon="0.60504">
        <ele>101.9</ele>
        <time>2021-07-23T10:58:04Z</time>
      </trkpt>
      <trkpt lat="44.65474" lon="0.60469">
        <ele>102.4</ele>
        <time>2021-07-23T10:58:10Z</time>
      </trkpt>
      <trkpt lat="44.65471" lon="0.60456">
        <ele>102.7</ele>
        <time>2021-07-23T10:58:12Z</time>
      </trkpt>
      <trkpt lat="44.6547" lon="0.60449">
        <ele>102.8</ele>
        <time>2021-07-23T10:58:13Z</time>
      </trkpt>
      <trkpt lat="44.65466" lon="0.60432">
        <ele>103</ele>
        <time>2021-07-23T10:58:16Z</time>
      </trkpt>
      <trkpt lat="44.65456" lon="0.60393">
        <ele>102.8</ele>
        <time>2021-07-23T10:58:22Z</time>
      </trkpt>
      <trkpt lat="44.65444" lon="0.60348">
        <ele>102.6</ele>
        <time>2021-07-23T10:58:29Z</time>
      </trkpt>
      <trkpt lat="44.65438" lon="0.60332">
        <ele>102.5</ele>
        <time>2021-07-23T10:58:32Z</time>
      </trkpt>
      <trkpt lat="44.65432" lon="0.60323">
        <ele>102.5</ele>
        <time>2021-07-23T10:58:34Z</time>
      </trkpt>
      <trkpt lat="44.65407" lon="0.6029">
        <ele>102.4</ele>
        <time>2021-07-23T10:58:41Z</time>
      </trkpt>
      <trkpt lat="44.65389" lon="0.60277">
        <ele>102.4</ele>
        <time>2021-07-23T10:58:45Z</time>
      </trkpt>
      <trkpt lat="44.65384" lon="0.60275">
        <ele>102.3</ele>
        <time>2021-07-23T10:58:46Z</time>
      </trkpt>
      <trkpt lat="44.65345" lon="0.60267">
        <ele>102</ele>
        <time>2021-07-23T10:58:53Z</time>
      </trkpt>
      <trkpt lat="44.65304" lon="0.60258">
        <ele>101.7</ele>
        <time>2021-07-23T10:59:00Z</time>
      </trkpt>
      <trkpt lat="44.65262" lon="0.60248">
        <ele>101.4</ele>
        <time>2021-07-23T10:59:08Z</time>
      </trkpt>
      <trkpt lat="44.65257" lon="0.60247">
        <ele>101.4</ele>
        <time>2021-07-23T10:59:09Z</time>
      </trkpt>
      <trkpt lat="44.65238" lon="0.60242">
        <ele>101.4</ele>
        <time>2021-07-23T10:59:13Z</time>
      </trkpt>
      <trkpt lat="44.65214" lon="0.60237">
        <ele>101.6</ele>
        <time>2021-07-23T10:59:18Z</time>
      </trkpt>
      <trkpt lat="44.65199" lon="0.60234">
        <ele>101.8</ele>
        <time>2021-07-23T10:59:21Z</time>
      </trkpt>
      <trkpt lat="44.65186" lon="0.6023">
        <ele>102</ele>
        <time>2021-07-23T10:59:24Z</time>
      </trkpt>
      <trkpt lat="44.65153" lon="0.60214">
        <ele>102.9</ele>
        <time>2021-07-23T10:59:31Z</time>
      </trkpt>
      <trkpt lat="44.65136" lon="0.60201">
        <ele>103.7</ele>
        <time>2021-07-23T10:59:35Z</time>
      </trkpt>
      <trkpt lat="44.6513" lon="0.60193">
        <ele>104</ele>
        <time>2021-07-23T10:59:37Z</time>
      </trkpt>
      <trkpt lat="44.65123" lon="0.60173">
        <ele>104.7</ele>
        <time>2021-07-23T10:59:42Z</time>
      </trkpt>
      <trkpt lat="44.65119" lon="0.60159">
        <ele>105</ele>
        <time>2021-07-23T10:59:46Z</time>
      </trkpt>
      <trkpt lat="44.65116" lon="0.60139">
        <ele>105.3</ele>
        <time>2021-07-23T10:59:53Z</time>
      </trkpt>
      <trkpt lat="44.6511" lon="0.60111">
        <ele>105.4</ele>
        <time>2021-07-23T10:59:59Z</time>
      </trkpt>
      <trkpt lat="44.65103" lon="0.6008">
        <ele>105.5</ele>
        <time>2021-07-23T11:00:07Z</time>
      </trkpt>
      <trkpt lat="44.65101" lon="0.6006">
        <ele>105.6</ele>
        <time>2021-07-23T11:00:12Z</time>
      </trkpt>
      <trkpt lat="44.65098" lon="0.60039">
        <ele>105.7</ele>
        <time>2021-07-23T11:00:18Z</time>
      </trkpt>
      <trkpt lat="44.65095" lon="0.60012">
        <ele>105.8</ele>
        <time>2021-07-23T11:00:24Z</time>
      </trkpt>
      <trkpt lat="44.65084" lon="0.6">
        <ele>105.8</ele>
        <time>2021-07-23T11:00:28Z</time>
      </trkpt>
      <trkpt lat="44.65066" lon="0.59996">
        <ele>105.8</ele>
        <time>2021-07-23T11:00:33Z</time>
      </trkpt>
      <trkpt lat="44.65057" lon="0.59981">
        <ele>105.9</ele>
        <time>2021-07-23T11:00:37Z</time>
      </trkpt>
      <trkpt lat="44.65061" lon="0.59962">
        <ele>106.4</ele>
        <time>2021-07-23T11:00:41Z</time>
      </trkpt>
      <trkpt lat="44.65072" lon="0.59912">
        <ele>107.4</ele>
        <time>2021-07-23T11:00:51Z</time>
      </trkpt>
      <trkpt lat="44.65081" lon="0.59871">
        <ele>108.1</ele>
        <time>2021-07-23T11:00:59Z</time>
      </trkpt>
      <trkpt lat="44.65091" lon="0.59835">
        <ele>108.8</ele>
        <time>2021-07-23T11:01:06Z</time>
      </trkpt>
      <trkpt lat="44.65097" lon="0.59812">
        <ele>109.6</ele>
        <time>2021-07-23T11:01:11Z</time>
      </trkpt>
      <trkpt lat="44.65097" lon="0.59791">
        <ele>110.4</ele>
        <time>2021-07-23T11:01:17Z</time>
      </trkpt>
      <trkpt lat="44.65093" lon="0.59776">
        <ele>110.3</ele>
        <time>2021-07-23T11:01:21Z</time>
      </trkpt>
      <trkpt lat="44.65078" lon="0.59765">
        <ele>110</ele>
        <time>2021-07-23T11:01:25Z</time>
      </trkpt>
      <trkpt lat="44.6505" lon="0.59754">
        <ele>109.5</ele>
        <time>2021-07-23T11:01:32Z</time>
      </trkpt>
      <trkpt lat="44.65029" lon="0.59746">
        <ele>109.2</ele>
        <time>2021-07-23T11:01:38Z</time>
      </trkpt>
      <trkpt lat="44.65004" lon="0.59736">
        <ele>108.8</ele>
        <time>2021-07-23T11:01:43Z</time>
      </trkpt>
      <trkpt lat="44.64989" lon="0.59728">
        <ele>108.5</ele>
        <time>2021-07-23T11:01:46Z</time>
      </trkpt>
      <trkpt lat="44.64987" lon="0.59723">
        <ele>108.4</ele>
        <time>2021-07-23T11:01:47Z</time>
      </trkpt>
      <trkpt lat="44.64987" lon="0.59714">
        <ele>108.3</ele>
        <time>2021-07-23T11:01:49Z</time>
      </trkpt>
      <trkpt lat="44.6499" lon="0.59713">
        <ele>108.2</ele>
        <time>2021-07-23T11:01:50Z</time>
      </trkpt>
      <trkpt lat="44.65002" lon="0.59714">
        <ele>107.9</ele>
        <time>2021-07-23T11:01:53Z</time>
      </trkpt>
      <trkpt lat="44.65006" lon="0.59712">
        <ele>107.8</ele>
        <time>2021-07-23T11:01:54Z</time>
      </trkpt>
      <trkpt lat="44.65014" lon="0.59709">
        <ele>107.6</ele>
        <time>2021-07-23T11:01:56Z</time>
      </trkpt>
      <trkpt lat="44.65023" lon="0.59711">
        <ele>107.4</ele>
        <time>2021-07-23T11:01:58Z</time>
      </trkpt>
      <trkpt lat="44.6506" lon="0.5973">
        <ele>108.7</ele>
        <time>2021-07-23T11:02:06Z</time>
      </trkpt>
      <trkpt lat="44.65078" lon="0.59741">
        <ele>109.4</ele>
        <time>2021-07-23T11:02:10Z</time>
      </trkpt>
      <trkpt lat="44.65086" lon="0.59747">
        <ele>109.7</ele>
        <time>2021-07-23T11:02:12Z</time>
      </trkpt>
      <trkpt lat="44.65091" lon="0.59749">
        <ele>109.9</ele>
        <time>2021-07-23T11:02:13Z</time>
      </trkpt>
      <trkpt lat="44.65105" lon="0.59754">
        <ele>110.6</ele>
        <time>2021-07-23T11:02:16Z</time>
      </trkpt>
      <trkpt lat="44.6511" lon="0.59756">
        <ele>110.7</ele>
        <time>2021-07-23T11:02:17Z</time>
      </trkpt>
      <trkpt lat="44.65136" lon="0.59767">
        <ele>110.2</ele>
        <time>2021-07-23T11:02:22Z</time>
      </trkpt>
      <trkpt lat="44.65141" lon="0.59769">
        <ele>110.1</ele>
        <time>2021-07-23T11:02:23Z</time>
      </trkpt>
      <trkpt lat="44.65162" lon="0.59779">
        <ele>109.7</ele>
        <time>2021-07-23T11:02:27Z</time>
      </trkpt>
      <trkpt lat="44.65183" lon="0.59788">
        <ele>109.1</ele>
        <time>2021-07-23T11:02:31Z</time>
      </trkpt>
      <trkpt lat="44.65189" lon="0.5979">
        <ele>108.9</ele>
        <time>2021-07-23T11:02:32Z</time>
      </trkpt>
      <trkpt lat="44.6522" lon="0.59797">
        <ele>108.2</ele>
        <time>2021-07-23T11:02:38Z</time>
      </trkpt>
      <trkpt lat="44.65225" lon="0.59798">
        <ele>107.9</ele>
        <time>2021-07-23T11:02:39Z</time>
      </trkpt>
      <trkpt lat="44.6524" lon="0.59801">
        <ele>106.7</ele>
        <time>2021-07-23T11:02:42Z</time>
      </trkpt>
      <trkpt lat="44.65244" lon="0.59801">
        <ele>106.5</ele>
        <time>2021-07-23T11:02:43Z</time>
      </trkpt>
      <trkpt lat="44.65255" lon="0.59802">
        <ele>105.3</ele>
        <time>2021-07-23T11:02:45Z</time>
      </trkpt>
      <trkpt lat="44.6526" lon="0.59802">
        <ele>104.7</ele>
        <time>2021-07-23T11:02:46Z</time>
      </trkpt>
      <trkpt lat="44.65265" lon="0.59801">
        <ele>104.4</ele>
        <time>2021-07-23T11:02:47Z</time>
      </trkpt>
      <trkpt lat="44.65279" lon="0.59803">
        <ele>102.7</ele>
        <time>2021-07-23T11:02:50Z</time>
      </trkpt>
      <trkpt lat="44.65299" lon="0.59804">
        <ele>101</ele>
        <time>2021-07-23T11:02:54Z</time>
      </trkpt>
      <trkpt lat="44.65341" lon="0.59799">
        <ele>97.8</ele>
        <time>2021-07-23T11:03:01Z</time>
      </trkpt>
      <trkpt lat="44.65371" lon="0.59793">
        <ele>96.7</ele>
        <time>2021-07-23T11:03:06Z</time>
      </trkpt>
      <trkpt lat="44.65397" lon="0.59786">
        <ele>96.3</ele>
        <time>2021-07-23T11:03:10Z</time>
      </trkpt>
      <trkpt lat="44.65416" lon="0.5978">
        <ele>96.4</ele>
        <time>2021-07-23T11:03:13Z</time>
      </trkpt>
      <trkpt lat="44.65457" lon="0.59762">
        <ele>96.8</ele>
        <time>2021-07-23T11:03:20Z</time>
      </trkpt>
      <trkpt lat="44.6549" lon="0.59745">
        <ele>96.4</ele>
        <time>2021-07-23T11:03:26Z</time>
      </trkpt>
      <trkpt lat="44.65496" lon="0.59742">
        <ele>96.3</ele>
        <time>2021-07-23T11:03:27Z</time>
      </trkpt>
      <trkpt lat="44.65528" lon="0.59726">
        <ele>95.2</ele>
        <time>2021-07-23T11:03:33Z</time>
      </trkpt>
      <trkpt lat="44.65563" lon="0.59707">
        <ele>93.6</ele>
        <time>2021-07-23T11:03:39Z</time>
      </trkpt>
      <trkpt lat="44.65609" lon="0.59687">
        <ele>91.8</ele>
        <time>2021-07-23T11:03:46Z</time>
      </trkpt>
      <trkpt lat="44.65647" lon="0.59666">
        <ele>90.5</ele>
        <time>2021-07-23T11:03:52Z</time>
      </trkpt>
      <trkpt lat="44.65686" lon="0.5965">
        <ele>89.4</ele>
        <time>2021-07-23T11:03:58Z</time>
      </trkpt>
      <trkpt lat="44.65709" lon="0.59637">
        <ele>89.5</ele>
        <time>2021-07-23T11:04:02Z</time>
      </trkpt>
      <trkpt lat="44.65714" lon="0.59627">
        <ele>89.5</ele>
        <time>2021-07-23T11:04:04Z</time>
      </trkpt>
      <trkpt lat="44.6571" lon="0.59617">
        <ele>89.4</ele>
        <time>2021-07-23T11:04:06Z</time>
      </trkpt>
      <trkpt lat="44.65705" lon="0.59613">
        <ele>89.3</ele>
        <time>2021-07-23T11:04:07Z</time>
      </trkpt>
      <trkpt lat="44.65672" lon="0.59586">
        <ele>88.9</ele>
        <time>2021-07-23T11:04:14Z</time>
      </trkpt>
      <trkpt lat="44.65645" lon="0.59561">
        <ele>88.7</ele>
        <time>2021-07-23T11:04:20Z</time>
      </trkpt>
      <trkpt lat="44.65617" lon="0.59527">
        <ele>88.6</ele>
        <time>2021-07-23T11:04:27Z</time>
      </trkpt>
      <trkpt lat="44.65586" lon="0.59486">
        <ele>89.1</ele>
        <time>2021-07-23T11:04:35Z</time>
      </trkpt>
      <trkpt lat="44.65565" lon="0.59457">
        <ele>89.6</ele>
        <time>2021-07-23T11:04:41Z</time>
      </trkpt>
      <trkpt lat="44.65544" lon="0.59424">
        <ele>90.3</ele>
        <time>2021-07-23T11:04:48Z</time>
      </trkpt>
      <trkpt lat="44.65538" lon="0.59413">
        <ele>90.5</ele>
        <time>2021-07-23T11:04:50Z</time>
      </trkpt>
      <trkpt lat="44.6553" lon="0.59389">
        <ele>90.7</ele>
        <time>2021-07-23T11:04:54Z</time>
      </trkpt>
      <trkpt lat="44.65528" lon="0.59383">
        <ele>90.8</ele>
        <time>2021-07-23T11:04:55Z</time>
      </trkpt>
      <trkpt lat="44.65525" lon="0.59357">
        <ele>90.9</ele>
        <time>2021-07-23T11:04:59Z</time>
      </trkpt>
      <trkpt lat="44.65524" lon="0.59308">
        <ele>91.3</ele>
        <time>2021-07-23T11:05:06Z</time>
      </trkpt>
      <trkpt lat="44.65526" lon="0.59286">
        <ele>91.4</ele>
        <time>2021-07-23T11:05:09Z</time>
      </trkpt>
      <trkpt lat="44.65532" lon="0.59259">
        <ele>91.6</ele>
        <time>2021-07-23T11:05:13Z</time>
      </trkpt>
      <trkpt lat="44.65533" lon="0.59252">
        <ele>91.6</ele>
        <time>2021-07-23T11:05:14Z</time>
      </trkpt>
      <trkpt lat="44.65537" lon="0.59224">
        <ele>91.8</ele>
        <time>2021-07-23T11:05:18Z</time>
      </trkpt>
      <trkpt lat="44.65538" lon="0.59217">
        <ele>91.9</ele>
        <time>2021-07-23T11:05:19Z</time>
      </trkpt>
      <trkpt lat="44.65546" lon="0.59178">
        <ele>92.2</ele>
        <time>2021-07-23T11:05:25Z</time>
      </trkpt>
      <trkpt lat="44.65548" lon="0.59165">
        <ele>92.3</ele>
        <time>2021-07-23T11:05:27Z</time>
      </trkpt>
      <trkpt lat="44.65551" lon="0.59151">
        <ele>92.3</ele>
        <time>2021-07-23T11:05:29Z</time>
      </trkpt>
      <trkpt lat="44.65552" lon="0.59145">
        <ele>92.3</ele>
        <time>2021-07-23T11:05:30Z</time>
      </trkpt>
      <trkpt lat="44.65557" lon="0.5911">
        <ele>92.4</ele>
        <time>2021-07-23T11:05:36Z</time>
      </trkpt>
      <trkpt lat="44.65563" lon="0.59074">
        <ele>92.5</ele>
        <time>2021-07-23T11:05:43Z</time>
      </trkpt>
      <trkpt lat="44.65567" lon="0.59056">
        <ele>92.5</ele>
        <time>2021-07-23T11:05:46Z</time>
      </trkpt>
      <trkpt lat="44.6557" lon="0.59041">
        <ele>92.5</ele>
        <time>2021-07-23T11:05:49Z</time>
      </trkpt>
      <trkpt lat="44.65575" lon="0.59018">
        <ele>92.6</ele>
        <time>2021-07-23T11:05:55Z</time>
      </trkpt>
      <trkpt lat="44.6558" lon="0.58998">
        <ele>92.4</ele>
        <time>2021-07-23T11:06:01Z</time>
      </trkpt>
      <trkpt lat="44.65578" lon="0.58983">
        <ele>93</ele>
        <time>2021-07-23T11:06:04Z</time>
      </trkpt>
      <trkpt lat="44.65576" lon="0.58978">
        <ele>93.2</ele>
        <time>2021-07-23T11:06:05Z</time>
      </trkpt>
      <trkpt lat="44.65572" lon="0.58968">
        <ele>93.7</ele>
        <time>2021-07-23T11:06:07Z</time>
      </trkpt>
      <trkpt lat="44.65566" lon="0.58953">
        <ele>94.5</ele>
        <time>2021-07-23T11:06:10Z</time>
      </trkpt>
      <trkpt lat="44.65565" lon="0.58947">
        <ele>94.7</ele>
        <time>2021-07-23T11:06:11Z</time>
      </trkpt>
      <trkpt lat="44.65563" lon="0.58936">
        <ele>95.2</ele>
        <time>2021-07-23T11:06:13Z</time>
      </trkpt>
      <trkpt lat="44.65563" lon="0.58924">
        <ele>95.7</ele>
        <time>2021-07-23T11:06:15Z</time>
      </trkpt>
      <trkpt lat="44.65562" lon="0.58912">
        <ele>96.2</ele>
        <time>2021-07-23T11:06:17Z</time>
      </trkpt>
      <trkpt lat="44.65564" lon="0.58889">
        <ele>96.7</ele>
        <time>2021-07-23T11:06:21Z</time>
      </trkpt>
      <trkpt lat="44.65562" lon="0.58853">
        <ele>97.9</ele>
        <time>2021-07-23T11:06:28Z</time>
      </trkpt>
      <trkpt lat="44.65555" lon="0.58815">
        <ele>99</ele>
        <time>2021-07-23T11:06:36Z</time>
      </trkpt>
      <trkpt lat="44.65545" lon="0.58791">
        <ele>100</ele>
        <time>2021-07-23T11:06:42Z</time>
      </trkpt>
      <trkpt lat="44.65531" lon="0.58771">
        <ele>100.8</ele>
        <time>2021-07-23T11:06:48Z</time>
      </trkpt>
      <trkpt lat="44.65516" lon="0.58754">
        <ele>101.6</ele>
        <time>2021-07-23T11:06:54Z</time>
      </trkpt>
      <trkpt lat="44.65495" lon="0.58737">
        <ele>102.7</ele>
        <time>2021-07-23T11:07:01Z</time>
      </trkpt>
      <trkpt lat="44.65474" lon="0.58725">
        <ele>103.6</ele>
        <time>2021-07-23T11:07:08Z</time>
      </trkpt>
      <trkpt lat="44.6545" lon="0.58722">
        <ele>104.6</ele>
        <time>2021-07-23T11:07:15Z</time>
      </trkpt>
      <trkpt lat="44.65431" lon="0.58733">
        <ele>105.5</ele>
        <time>2021-07-23T11:07:21Z</time>
      </trkpt>
      <trkpt lat="44.65414" lon="0.58754">
        <ele>106.3</ele>
        <time>2021-07-23T11:07:28Z</time>
      </trkpt>
      <trkpt lat="44.65405" lon="0.5878">
        <ele>107</ele>
        <time>2021-07-23T11:07:34Z</time>
      </trkpt>
      <trkpt lat="44.65403" lon="0.58809">
        <ele>107.7</ele>
        <time>2021-07-23T11:07:40Z</time>
      </trkpt>
      <trkpt lat="44.65401" lon="0.58844">
        <ele>108.7</ele>
        <time>2021-07-23T11:07:47Z</time>
      </trkpt>
      <trkpt lat="44.65398" lon="0.58879">
        <ele>109.8</ele>
        <time>2021-07-23T11:07:54Z</time>
      </trkpt>
      <trkpt lat="44.65391" lon="0.58907">
        <ele>110.8</ele>
        <time>2021-07-23T11:08:00Z</time>
      </trkpt>
      <trkpt lat="44.65382" lon="0.58935">
        <ele>111.8</ele>
        <time>2021-07-23T11:08:06Z</time>
      </trkpt>
      <trkpt lat="44.65367" lon="0.58964">
        <ele>113</ele>
        <time>2021-07-23T11:08:13Z</time>
      </trkpt>
      <trkpt lat="44.65352" lon="0.58987">
        <ele>114.1</ele>
        <time>2021-07-23T11:08:19Z</time>
      </trkpt>
      <trkpt lat="44.65334" lon="0.59005">
        <ele>115.1</ele>
        <time>2021-07-23T11:08:25Z</time>
      </trkpt>
      <trkpt lat="44.65318" lon="0.59018">
        <ele>115.9</ele>
        <time>2021-07-23T11:08:31Z</time>
      </trkpt>
      <trkpt lat="44.65295" lon="0.59028">
        <ele>117</ele>
        <time>2021-07-23T11:08:38Z</time>
      </trkpt>
      <trkpt lat="44.65272" lon="0.59038">
        <ele>118</ele>
        <time>2021-07-23T11:08:45Z</time>
      </trkpt>
      <trkpt lat="44.65257" lon="0.59042">
        <ele>118.7</ele>
        <time>2021-07-23T11:08:51Z</time>
      </trkpt>
      <trkpt lat="44.65248" lon="0.59047">
        <ele>119</ele>
        <time>2021-07-23T11:08:56Z</time>
      </trkpt>
      <trkpt lat="44.65236" lon="0.59054">
        <ele>119.3</ele>
        <time>2021-07-23T11:09:01Z</time>
      </trkpt>
      <trkpt lat="44.65216" lon="0.59063">
        <ele>120.3</ele>
        <time>2021-07-23T11:09:08Z</time>
      </trkpt>
      <trkpt lat="44.65194" lon="0.59074">
        <ele>121.5</ele>
        <time>2021-07-23T11:09:16Z</time>
      </trkpt>
      <trkpt lat="44.65177" lon="0.59081">
        <ele>122.4</ele>
        <time>2021-07-23T11:09:22Z</time>
      </trkpt>
      <trkpt lat="44.6516" lon="0.59088">
        <ele>123.3</ele>
        <time>2021-07-23T11:09:28Z</time>
      </trkpt>
      <trkpt lat="44.65144" lon="0.59096">
        <ele>124.1</ele>
        <time>2021-07-23T11:09:34Z</time>
      </trkpt>
      <trkpt lat="44.65121" lon="0.59105">
        <ele>124.9</ele>
        <time>2021-07-23T11:09:42Z</time>
      </trkpt>
      <trkpt lat="44.65105" lon="0.59111">
        <ele>125.5</ele>
        <time>2021-07-23T11:09:48Z</time>
      </trkpt>
      <trkpt lat="44.65089" lon="0.59115">
        <ele>126.3</ele>
        <time>2021-07-23T11:09:53Z</time>
      </trkpt>
      <trkpt lat="44.65069" lon="0.59122">
        <ele>127.3</ele>
        <time>2021-07-23T11:10:00Z</time>
      </trkpt>
      <trkpt lat="44.6505" lon="0.59128">
        <ele>128.2</ele>
        <time>2021-07-23T11:10:07Z</time>
      </trkpt>
      <trkpt lat="44.65028" lon="0.59135">
        <ele>129.2</ele>
        <time>2021-07-23T11:10:15Z</time>
      </trkpt>
      <trkpt lat="44.65008" lon="0.59142">
        <ele>130.1</ele>
        <time>2021-07-23T11:10:22Z</time>
      </trkpt>
      <trkpt lat="44.64989" lon="0.59149">
        <ele>130.6</ele>
        <time>2021-07-23T11:10:28Z</time>
      </trkpt>
      <trkpt lat="44.64964" lon="0.59157">
        <ele>130.6</ele>
        <time>2021-07-23T11:10:35Z</time>
      </trkpt>
      <trkpt lat="44.64933" lon="0.59166">
        <ele>130.2</ele>
        <time>2021-07-23T11:10:43Z</time>
      </trkpt>
      <trkpt lat="44.64916" lon="0.59166">
        <ele>129.9</ele>
        <time>2021-07-23T11:10:47Z</time>
      </trkpt>
      <trkpt lat="44.64883" lon="0.5917">
        <ele>129.2</ele>
        <time>2021-07-23T11:10:54Z</time>
      </trkpt>
      <trkpt lat="44.64857" lon="0.59174">
        <ele>128.5</ele>
        <time>2021-07-23T11:10:59Z</time>
      </trkpt>
      <trkpt lat="44.64821" lon="0.59184">
        <ele>127.8</ele>
        <time>2021-07-23T11:11:06Z</time>
      </trkpt>
      <trkpt lat="44.64793" lon="0.59194">
        <ele>127.5</ele>
        <time>2021-07-23T11:11:12Z</time>
      </trkpt>
      <trkpt lat="44.6476" lon="0.59204">
        <ele>127.1</ele>
        <time>2021-07-23T11:11:19Z</time>
      </trkpt>
      <trkpt lat="44.64717" lon="0.59218">
        <ele>127</ele>
        <time>2021-07-23T11:11:27Z</time>
      </trkpt>
      <trkpt lat="44.64689" lon="0.59227">
        <ele>126.8</ele>
        <time>2021-07-23T11:11:32Z</time>
      </trkpt>
      <trkpt lat="44.64644" lon="0.59244">
        <ele>126.8</ele>
        <time>2021-07-23T11:11:40Z</time>
      </trkpt>
      <trkpt lat="44.64607" lon="0.59258">
        <ele>126.7</ele>
        <time>2021-07-23T11:11:47Z</time>
      </trkpt>
      <trkpt lat="44.64577" lon="0.59274">
        <ele>126.5</ele>
        <time>2021-07-23T11:11:54Z</time>
      </trkpt>
      <trkpt lat="44.6454" lon="0.59291">
        <ele>126</ele>
        <time>2021-07-23T11:12:01Z</time>
      </trkpt>
      <trkpt lat="44.64512" lon="0.59307">
        <ele>125.9</ele>
        <time>2021-07-23T11:12:07Z</time>
      </trkpt>
      <trkpt lat="44.64477" lon="0.59313">
        <ele>126</ele>
        <time>2021-07-23T11:12:14Z</time>
      </trkpt>
      <trkpt lat="44.64433" lon="0.59314">
        <ele>126.4</ele>
        <time>2021-07-23T11:12:22Z</time>
      </trkpt>
      <trkpt lat="44.64428" lon="0.59313">
        <ele>126.4</ele>
        <time>2021-07-23T11:12:23Z</time>
      </trkpt>
      <trkpt lat="44.6442" lon="0.59306">
        <ele>125.9</ele>
        <time>2021-07-23T11:12:25Z</time>
      </trkpt>
      <trkpt lat="44.64406" lon="0.59278">
        <ele>123.6</ele>
        <time>2021-07-23T11:12:29Z</time>
      </trkpt>
      <trkpt lat="44.64401" lon="0.5927">
        <ele>122.8</ele>
        <time>2021-07-23T11:12:30Z</time>
      </trkpt>
      <trkpt lat="44.64389" lon="0.59252">
        <ele>121.6</ele>
        <time>2021-07-23T11:12:32Z</time>
      </trkpt>
      <trkpt lat="44.64382" lon="0.59229">
        <ele>120.6</ele>
        <time>2021-07-23T11:12:34Z</time>
      </trkpt>
      <trkpt lat="44.64381" lon="0.59216">
        <ele>120.1</ele>
        <time>2021-07-23T11:12:35Z</time>
      </trkpt>
      <trkpt lat="44.64382" lon="0.59204">
        <ele>119.6</ele>
        <time>2021-07-23T11:12:36Z</time>
      </trkpt>
      <trkpt lat="44.64385" lon="0.59165">
        <ele>118.2</ele>
        <time>2021-07-23T11:12:39Z</time>
      </trkpt>
      <trkpt lat="44.64391" lon="0.59085">
        <ele>115</ele>
        <time>2021-07-23T11:12:45Z</time>
      </trkpt>
      <trkpt lat="44.64393" lon="0.59058">
        <ele>113.7</ele>
        <time>2021-07-23T11:12:47Z</time>
      </trkpt>
      <trkpt lat="44.64397" lon="0.58974">
        <ele>110.7</ele>
        <time>2021-07-23T11:12:53Z</time>
      </trkpt>
      <trkpt lat="44.64398" lon="0.58946">
        <ele>109.7</ele>
        <time>2021-07-23T11:12:55Z</time>
      </trkpt>
      <trkpt lat="44.64398" lon="0.58932">
        <ele>109.2</ele>
        <time>2021-07-23T11:12:56Z</time>
      </trkpt>
      <trkpt lat="44.64395" lon="0.58905">
        <ele>108.1</ele>
        <time>2021-07-23T11:12:58Z</time>
      </trkpt>
      <trkpt lat="44.64392" lon="0.58892">
        <ele>107.4</ele>
        <time>2021-07-23T11:12:59Z</time>
      </trkpt>
      <trkpt lat="44.64389" lon="0.58879">
        <ele>106.8</ele>
        <time>2021-07-23T11:13:00Z</time>
      </trkpt>
      <trkpt lat="44.64379" lon="0.58854">
        <ele>105.6</ele>
        <time>2021-07-23T11:13:02Z</time>
      </trkpt>
      <trkpt lat="44.64372" lon="0.58844">
        <ele>104.9</ele>
        <time>2021-07-23T11:13:03Z</time>
      </trkpt>
      <trkpt lat="44.64365" lon="0.58834">
        <ele>104.3</ele>
        <time>2021-07-23T11:13:04Z</time>
      </trkpt>
      <trkpt lat="44.64347" lon="0.58818">
        <ele>103</ele>
        <time>2021-07-23T11:13:06Z</time>
      </trkpt>
      <trkpt lat="44.64337" lon="0.58812">
        <ele>102.3</ele>
        <time>2021-07-23T11:13:07Z</time>
      </trkpt>
      <trkpt lat="44.64318" lon="0.58804">
        <ele>101.1</ele>
        <time>2021-07-23T11:13:09Z</time>
      </trkpt>
      <trkpt lat="44.64298" lon="0.58804">
        <ele>100</ele>
        <time>2021-07-23T11:13:11Z</time>
      </trkpt>
      <trkpt lat="44.64287" lon="0.58807">
        <ele>99.5</ele>
        <time>2021-07-23T11:13:12Z</time>
      </trkpt>
      <trkpt lat="44.64278" lon="0.58813">
        <ele>98.9</ele>
        <time>2021-07-23T11:13:13Z</time>
      </trkpt>
      <trkpt lat="44.64262" lon="0.5883">
        <ele>97.8</ele>
        <time>2021-07-23T11:13:15Z</time>
      </trkpt>
      <trkpt lat="44.64228" lon="0.58884">
        <ele>94.9</ele>
        <time>2021-07-23T11:13:20Z</time>
      </trkpt>
      <trkpt lat="44.64197" lon="0.58923">
        <ele>92.7</ele>
        <time>2021-07-23T11:13:24Z</time>
      </trkpt>
      <trkpt lat="44.64177" lon="0.5893">
        <ele>91.5</ele>
        <time>2021-07-23T11:13:26Z</time>
      </trkpt>
      <trkpt lat="44.64156" lon="0.58925">
        <ele>90.2</ele>
        <time>2021-07-23T11:13:28Z</time>
      </trkpt>
      <trkpt lat="44.64146" lon="0.5892">
        <ele>89.5</ele>
        <time>2021-07-23T11:13:29Z</time>
      </trkpt>
      <trkpt lat="44.64136" lon="0.58913">
        <ele>88.8</ele>
        <time>2021-07-23T11:13:30Z</time>
      </trkpt>
      <trkpt lat="44.64109" lon="0.5889">
        <ele>87.1</ele>
        <time>2021-07-23T11:13:33Z</time>
      </trkpt>
      <trkpt lat="44.64061" lon="0.58844">
        <ele>85.7</ele>
        <time>2021-07-23T11:13:39Z</time>
      </trkpt>
      <trkpt lat="44.64029" lon="0.58813">
        <ele>86.1</ele>
        <time>2021-07-23T11:13:44Z</time>
      </trkpt>
      <trkpt lat="44.63997" lon="0.58782">
        <ele>86.6</ele>
        <time>2021-07-23T11:13:50Z</time>
      </trkpt>
      <trkpt lat="44.63962" lon="0.58748">
        <ele>87.6</ele>
        <time>2021-07-23T11:13:57Z</time>
      </trkpt>
      <trkpt lat="44.6393" lon="0.58718">
        <ele>88.3</ele>
        <time>2021-07-23T11:14:04Z</time>
      </trkpt>
      <trkpt lat="44.63909" lon="0.58698">
        <ele>88.9</ele>
        <time>2021-07-23T11:14:09Z</time>
      </trkpt>
      <trkpt lat="44.639" lon="0.58692">
        <ele>89</ele>
        <time>2021-07-23T11:14:11Z</time>
      </trkpt>
      <trkpt lat="44.63877" lon="0.58681">
        <ele>89.3</ele>
        <time>2021-07-23T11:14:16Z</time>
      </trkpt>
      <trkpt lat="44.63867" lon="0.58679">
        <ele>89.4</ele>
        <time>2021-07-23T11:14:18Z</time>
      </trkpt>
      <trkpt lat="44.63857" lon="0.58679">
        <ele>89.4</ele>
        <time>2021-07-23T11:14:20Z</time>
      </trkpt>
      <trkpt lat="44.63842" lon="0.58681">
        <ele>89.3</ele>
        <time>2021-07-23T11:14:23Z</time>
      </trkpt>
      <trkpt lat="44.63792" lon="0.58683">
        <ele>89.2</ele>
        <time>2021-07-23T11:14:32Z</time>
      </trkpt>
      <trkpt lat="44.63755" lon="0.58674">
        <ele>90.2</ele>
        <time>2021-07-23T11:14:39Z</time>
      </trkpt>
      <trkpt lat="44.63733" lon="0.58662">
        <ele>90.7</ele>
        <time>2021-07-23T11:14:44Z</time>
      </trkpt>
      <trkpt lat="44.63719" lon="0.58652">
        <ele>90.2</ele>
        <time>2021-07-23T11:14:47Z</time>
      </trkpt>
      <trkpt lat="44.63707" lon="0.58645">
        <ele>89.6</ele>
        <time>2021-07-23T11:14:49Z</time>
      </trkpt>
      <trkpt lat="44.6367" lon="0.58619">
        <ele>87.8</ele>
        <time>2021-07-23T11:14:55Z</time>
      </trkpt>
      <trkpt lat="44.63634" lon="0.58592">
        <ele>86.8</ele>
        <time>2021-07-23T11:15:01Z</time>
      </trkpt>
      <trkpt lat="44.63596" lon="0.58558">
        <ele>86.3</ele>
        <time>2021-07-23T11:15:08Z</time>
      </trkpt>
      <trkpt lat="44.63554" lon="0.58515">
        <ele>85.7</ele>
        <time>2021-07-23T11:15:16Z</time>
      </trkpt>
      <trkpt lat="44.63524" lon="0.58471">
        <ele>84.9</ele>
        <time>2021-07-23T11:15:22Z</time>
      </trkpt>
      <trkpt lat="44.63498" lon="0.58422">
        <ele>84.4</ele>
        <time>2021-07-23T11:15:28Z</time>
      </trkpt>
      <trkpt lat="44.63482" lon="0.58403">
        <ele>84.3</ele>
        <time>2021-07-23T11:15:31Z</time>
      </trkpt>
      <trkpt lat="44.6347" lon="0.58394">
        <ele>84.2</ele>
        <time>2021-07-23T11:15:33Z</time>
      </trkpt>
      <trkpt lat="44.63441" lon="0.58376">
        <ele>84.1</ele>
        <time>2021-07-23T11:15:38Z</time>
      </trkpt>
      <trkpt lat="44.63412" lon="0.58362">
        <ele>83.3</ele>
        <time>2021-07-23T11:15:43Z</time>
      </trkpt>
      <trkpt lat="44.63393" lon="0.5835">
        <ele>83</ele>
        <time>2021-07-23T11:15:47Z</time>
      </trkpt>
      <trkpt lat="44.63366" lon="0.58332">
        <ele>83.1</ele>
        <time>2021-07-23T11:15:52Z</time>
      </trkpt>
      <trkpt lat="44.63327" lon="0.58309">
        <ele>81.7</ele>
        <time>2021-07-23T11:15:59Z</time>
      </trkpt>
      <trkpt lat="44.6328" lon="0.58285">
        <ele>80.5</ele>
        <time>2021-07-23T11:16:07Z</time>
      </trkpt>
      <trkpt lat="44.6325" lon="0.58268">
        <ele>79.9</ele>
        <time>2021-07-23T11:16:13Z</time>
      </trkpt>
      <trkpt lat="44.63207" lon="0.58245">
        <ele>79.2</ele>
        <time>2021-07-23T11:16:21Z</time>
      </trkpt>
      <trkpt lat="44.63168" lon="0.58223">
        <ele>78.8</ele>
        <time>2021-07-23T11:16:28Z</time>
      </trkpt>
      <trkpt lat="44.63123" lon="0.58198">
        <ele>78.6</ele>
        <time>2021-07-23T11:16:36Z</time>
      </trkpt>
      <trkpt lat="44.63077" lon="0.58173">
        <ele>78.3</ele>
        <time>2021-07-23T11:16:44Z</time>
      </trkpt>
      <trkpt lat="44.63038" lon="0.58154">
        <ele>77.9</ele>
        <time>2021-07-23T11:16:51Z</time>
      </trkpt>
      <trkpt lat="44.63" lon="0.58148">
        <ele>77.5</ele>
        <time>2021-07-23T11:16:57Z</time>
      </trkpt>
      <trkpt lat="44.62964" lon="0.58144">
        <ele>77.1</ele>
        <time>2021-07-23T11:17:03Z</time>
      </trkpt>
      <trkpt lat="44.62924" lon="0.5813">
        <ele>76.9</ele>
        <time>2021-07-23T11:17:10Z</time>
      </trkpt>
      <trkpt lat="44.62893" lon="0.58111">
        <ele>77</ele>
        <time>2021-07-23T11:17:16Z</time>
      </trkpt>
      <trkpt lat="44.62888" lon="0.58108">
        <ele>77</ele>
        <time>2021-07-23T11:17:17Z</time>
      </trkpt>
      <trkpt lat="44.62879" lon="0.58109">
        <ele>77.1</ele>
        <time>2021-07-23T11:17:19Z</time>
      </trkpt>
      <trkpt lat="44.62873" lon="0.58108">
        <ele>77.2</ele>
        <time>2021-07-23T11:17:22Z</time>
      </trkpt>
      <trkpt lat="44.62871" lon="0.58106">
        <ele>77.2</ele>
        <time>2021-07-23T11:19:01Z</time>
      </trkpt>
      <trkpt lat="44.62869" lon="0.58101">
        <ele>77.3</ele>
        <time>2021-07-23T11:19:03Z</time>
      </trkpt>
      <trkpt lat="44.62855" lon="0.58089">
        <ele>77.6</ele>
        <time>2021-07-23T11:19:09Z</time>
      </trkpt>
      <trkpt lat="44.62844" lon="0.58083">
        <ele>77.6</ele>
        <time>2021-07-23T11:19:12Z</time>
      </trkpt>
      <trkpt lat="44.6284" lon="0.58082">
        <ele>77.6</ele>
        <time>2021-07-23T11:19:13Z</time>
      </trkpt>
      <trkpt lat="44.6281" lon="0.58074">
        <ele>77.6</ele>
        <time>2021-07-23T11:19:20Z</time>
      </trkpt>
      <trkpt lat="44.62806" lon="0.58072">
        <ele>77.6</ele>
        <time>2021-07-23T11:19:21Z</time>
      </trkpt>
      <trkpt lat="44.62801" lon="0.58063">
        <ele>77.6</ele>
        <time>2021-07-23T11:19:23Z</time>
      </trkpt>
      <trkpt lat="44.628" lon="0.58057">
        <ele>77.6</ele>
        <time>2021-07-23T11:19:24Z</time>
      </trkpt>
      <trkpt lat="44.62801" lon="0.58035">
        <ele>77.7</ele>
        <time>2021-07-23T11:19:28Z</time>
      </trkpt>
      <trkpt lat="44.62801" lon="0.58028">
        <ele>77.7</ele>
        <time>2021-07-23T11:19:29Z</time>
      </trkpt>
      <trkpt lat="44.62801" lon="0.58003">
        <ele>77.7</ele>
        <time>2021-07-23T11:19:33Z</time>
      </trkpt>
      <trkpt lat="44.62805" lon="0.5795">
        <ele>78.4</ele>
        <time>2021-07-23T11:19:41Z</time>
      </trkpt>
      <trkpt lat="44.62809" lon="0.57939">
        <ele>78.4</ele>
        <time>2021-07-23T11:19:43Z</time>
      </trkpt>
      <trkpt lat="44.62819" lon="0.57926">
        <ele>78.3</ele>
        <time>2021-07-23T11:19:46Z</time>
      </trkpt>
      <trkpt lat="44.62832" lon="0.57921">
        <ele>77.9</ele>
        <time>2021-07-23T11:19:49Z</time>
      </trkpt>
      <trkpt lat="44.62838" lon="0.57907">
        <ele>78.4</ele>
        <time>2021-07-23T11:19:52Z</time>
      </trkpt>
      <trkpt lat="44.62841" lon="0.57886">
        <ele>79.4</ele>
        <time>2021-07-23T11:19:57Z</time>
      </trkpt>
      <trkpt lat="44.62841" lon="0.57882">
        <ele>79.7</ele>
        <time>2021-07-23T11:19:58Z</time>
      </trkpt>
      <trkpt lat="44.6284" lon="0.57871">
        <ele>80.6</ele>
        <time>2021-07-23T11:20:01Z</time>
      </trkpt>
      <trkpt lat="44.62841" lon="0.57854">
        <ele>81.5</ele>
        <time>2021-07-23T11:20:06Z</time>
      </trkpt>
      <trkpt lat="44.62841" lon="0.57836">
        <ele>83.1</ele>
        <time>2021-07-23T11:20:11Z</time>
      </trkpt>
      <trkpt lat="44.62843" lon="0.57815">
        <ele>84.3</ele>
        <time>2021-07-23T11:20:16Z</time>
      </trkpt>
      <trkpt lat="44.62845" lon="0.57791">
        <ele>85.3</ele>
        <time>2021-07-23T11:20:22Z</time>
      </trkpt>
      <trkpt lat="44.62844" lon="0.57784">
        <ele>85.7</ele>
        <time>2021-07-23T11:20:24Z</time>
      </trkpt>
      <trkpt lat="44.62844" lon="0.57777">
        <ele>86.1</ele>
        <time>2021-07-23T11:20:26Z</time>
      </trkpt>
      <trkpt lat="44.62844" lon="0.57755">
        <ele>86.9</ele>
        <time>2021-07-23T11:20:32Z</time>
      </trkpt>
      <trkpt lat="44.62843" lon="0.57736">
        <ele>87.5</ele>
        <time>2021-07-23T11:20:37Z</time>
      </trkpt>
      <trkpt lat="44.62841" lon="0.57711">
        <ele>88.3</ele>
        <time>2021-07-23T11:20:44Z</time>
      </trkpt>
      <trkpt lat="44.62841" lon="0.57708">
        <ele>88.4</ele>
        <time>2021-07-23T11:20:45Z</time>
      </trkpt>
      <trkpt lat="44.6284" lon="0.57696">
        <ele>88.8</ele>
        <time>2021-07-23T11:20:48Z</time>
      </trkpt>
      <trkpt lat="44.62839" lon="0.57678">
        <ele>89.7</ele>
        <time>2021-07-23T11:20:54Z</time>
      </trkpt>
      <trkpt lat="44.62838" lon="0.57661">
        <ele>91</ele>
        <time>2021-07-23T11:21:00Z</time>
      </trkpt>
      <trkpt lat="44.62838" lon="0.57655">
        <ele>91.3</ele>
        <time>2021-07-23T11:21:02Z</time>
      </trkpt>
      <trkpt lat="44.62838" lon="0.57646">
        <ele>91.8</ele>
        <time>2021-07-23T11:21:05Z</time>
      </trkpt>
      <trkpt lat="44.62837" lon="0.57627">
        <ele>92.7</ele>
        <time>2021-07-23T11:21:11Z</time>
      </trkpt>
      <trkpt lat="44.62836" lon="0.57611">
        <ele>93.5</ele>
        <time>2021-07-23T11:21:16Z</time>
      </trkpt>
      <trkpt lat="44.62835" lon="0.57593">
        <ele>94.4</ele>
        <time>2021-07-23T11:21:22Z</time>
      </trkpt>
      <trkpt lat="44.62834" lon="0.57575">
        <ele>95.3</ele>
        <time>2021-07-23T11:21:28Z</time>
      </trkpt>
      <trkpt lat="44.62835" lon="0.57566">
        <ele>95.8</ele>
        <time>2021-07-23T11:21:32Z</time>
      </trkpt>
      <trkpt lat="44.62837" lon="0.57557">
        <ele>96.1</ele>
        <time>2021-07-23T11:21:37Z</time>
      </trkpt>
      <trkpt lat="44.62838" lon="0.57554">
        <ele>96.3</ele>
        <time>2021-07-23T11:21:39Z</time>
      </trkpt>
      <trkpt lat="44.62838" lon="0.57551">
        <ele>96.3</ele>
        <time>2021-07-23T11:21:40Z</time>
      </trkpt>
      <trkpt lat="44.62839" lon="0.57545">
        <ele>96.6</ele>
        <time>2021-07-23T11:21:43Z</time>
      </trkpt>
      <trkpt lat="44.62839" lon="0.57543">
        <ele>96.6</ele>
        <time>2021-07-23T11:21:44Z</time>
      </trkpt>
      <trkpt lat="44.62839" lon="0.57538">
        <ele>96.8</ele>
        <time>2021-07-23T11:21:46Z</time>
      </trkpt>
      <trkpt lat="44.62839" lon="0.57536">
        <ele>97</ele>
        <time>2021-07-23T11:21:47Z</time>
      </trkpt>
      <trkpt lat="44.62839" lon="0.5752">
        <ele>97.7</ele>
        <time>2021-07-23T11:21:53Z</time>
      </trkpt>
      <trkpt lat="44.62838" lon="0.575">
        <ele>98.7</ele>
        <time>2021-07-23T11:21:59Z</time>
      </trkpt>
      <trkpt lat="44.6284" lon="0.57479">
        <ele>99.5</ele>
        <time>2021-07-23T11:22:06Z</time>
      </trkpt>
      <trkpt lat="44.62839" lon="0.57455">
        <ele>100.4</ele>
        <time>2021-07-23T11:22:13Z</time>
      </trkpt>
      <trkpt lat="44.62839" lon="0.57439">
        <ele>100.8</ele>
        <time>2021-07-23T11:22:18Z</time>
      </trkpt>
      <trkpt lat="44.62838" lon="0.5742">
        <ele>101.6</ele>
        <time>2021-07-23T11:22:24Z</time>
      </trkpt>
      <trkpt lat="44.62833" lon="0.57399">
        <ele>102.4</ele>
        <time>2021-07-23T11:22:30Z</time>
      </trkpt>
      <trkpt lat="44.62824" lon="0.57378">
        <ele>103.3</ele>
        <time>2021-07-23T11:22:37Z</time>
      </trkpt>
      <trkpt lat="44.62824" lon="0.57362">
        <ele>104</ele>
        <time>2021-07-23T11:22:41Z</time>
      </trkpt>
      <trkpt lat="44.62823" lon="0.57339">
        <ele>104.9</ele>
        <time>2021-07-23T11:22:46Z</time>
      </trkpt>
      <trkpt lat="44.62822" lon="0.57307">
        <ele>105.2</ele>
        <time>2021-07-23T11:22:52Z</time>
      </trkpt>
      <trkpt lat="44.6282" lon="0.5728">
        <ele>104.9</ele>
        <time>2021-07-23T11:22:57Z</time>
      </trkpt>
      <trkpt lat="44.62818" lon="0.57254">
        <ele>104.3</ele>
        <time>2021-07-23T11:23:02Z</time>
      </trkpt>
      <trkpt lat="44.6282" lon="0.57234">
        <ele>103.4</ele>
        <time>2021-07-23T11:23:06Z</time>
      </trkpt>
      <trkpt lat="44.6283" lon="0.57229">
        <ele>103.5</ele>
        <time>2021-07-23T11:23:09Z</time>
      </trkpt>
      <trkpt lat="44.62835" lon="0.57228">
        <ele>103.5</ele>
        <time>2021-07-23T11:23:10Z</time>
      </trkpt>
      <trkpt lat="44.62848" lon="0.57224">
        <ele>103.5</ele>
        <time>2021-07-23T11:23:13Z</time>
      </trkpt>
      <trkpt lat="44.62858" lon="0.57222">
        <ele>103.5</ele>
        <time>2021-07-23T11:23:15Z</time>
      </trkpt>
      <trkpt lat="44.62864" lon="0.57222">
        <ele>103.5</ele>
        <time>2021-07-23T11:23:16Z</time>
      </trkpt>
      <trkpt lat="44.62876" lon="0.57222">
        <ele>103.6</ele>
        <time>2021-07-23T11:23:18Z</time>
      </trkpt>
      <trkpt lat="44.62883" lon="0.57221">
        <ele>103.6</ele>
        <time>2021-07-23T11:23:19Z</time>
      </trkpt>
      <trkpt lat="44.62889" lon="0.57218">
        <ele>103.6</ele>
        <time>2021-07-23T11:23:20Z</time>
      </trkpt>
      <trkpt lat="44.62899" lon="0.57212">
        <ele>103.6</ele>
        <time>2021-07-23T11:23:22Z</time>
      </trkpt>
      <trkpt lat="44.6293" lon="0.57195">
        <ele>103.7</ele>
        <time>2021-07-23T11:23:26Z</time>
      </trkpt>
      <trkpt lat="44.62972" lon="0.57168">
        <ele>103.9</ele>
        <time>2021-07-23T11:23:32Z</time>
      </trkpt>
      <trkpt lat="44.62978" lon="0.57153">
        <ele>103.9</ele>
        <time>2021-07-23T11:23:34Z</time>
      </trkpt>
      <trkpt lat="44.62976" lon="0.57135">
        <ele>103.3</ele>
        <time>2021-07-23T11:23:37Z</time>
      </trkpt>
      <trkpt lat="44.62969" lon="0.57096">
        <ele>101.8</ele>
        <time>2021-07-23T11:23:44Z</time>
      </trkpt>
      <trkpt lat="44.62967" lon="0.57085">
        <ele>101.2</ele>
        <time>2021-07-23T11:23:46Z</time>
      </trkpt>
      <trkpt lat="44.62965" lon="0.57073">
        <ele>100.5</ele>
        <time>2021-07-23T11:23:48Z</time>
      </trkpt>
      <trkpt lat="44.62964" lon="0.57067">
        <ele>100.2</ele>
        <time>2021-07-23T11:23:49Z</time>
      </trkpt>
      <trkpt lat="44.6296" lon="0.57034">
        <ele>98.3</ele>
        <time>2021-07-23T11:23:54Z</time>
      </trkpt>
      <trkpt lat="44.62959" lon="0.5701">
        <ele>97.2</ele>
        <time>2021-07-23T11:23:57Z</time>
      </trkpt>
      <trkpt lat="44.62957" lon="0.56991">
        <ele>96.5</ele>
        <time>2021-07-23T11:24:00Z</time>
      </trkpt>
      <trkpt lat="44.62954" lon="0.56953">
        <ele>95.6</ele>
        <time>2021-07-23T11:24:06Z</time>
      </trkpt>
      <trkpt lat="44.62955" lon="0.56947">
        <ele>95.4</ele>
        <time>2021-07-23T11:24:07Z</time>
      </trkpt>
      <trkpt lat="44.62956" lon="0.56943">
        <ele>95.3</ele>
        <time>2021-07-23T11:24:08Z</time>
      </trkpt>
      <trkpt lat="44.62962" lon="0.56938">
        <ele>95.2</ele>
        <time>2021-07-23T11:24:10Z</time>
      </trkpt>
      <trkpt lat="44.62981" lon="0.56934">
        <ele>94.8</ele>
        <time>2021-07-23T11:24:14Z</time>
      </trkpt>
      <trkpt lat="44.63012" lon="0.56925">
        <ele>93.8</ele>
        <time>2021-07-23T11:24:20Z</time>
      </trkpt>
      <trkpt lat="44.63029" lon="0.56919">
        <ele>93.2</ele>
        <time>2021-07-23T11:24:23Z</time>
      </trkpt>
      <trkpt lat="44.6304" lon="0.56914">
        <ele>92.8</ele>
        <time>2021-07-23T11:24:25Z</time>
      </trkpt>
      <trkpt lat="44.63091" lon="0.56904">
        <ele>91.6</ele>
        <time>2021-07-23T11:24:33Z</time>
      </trkpt>
      <trkpt lat="44.63137" lon="0.56903">
        <ele>90.7</ele>
        <time>2021-07-23T11:24:40Z</time>
      </trkpt>
      <trkpt lat="44.63168" lon="0.56904">
        <ele>90.9</ele>
        <time>2021-07-23T11:24:45Z</time>
      </trkpt>
      <trkpt lat="44.63179" lon="0.56906">
        <ele>91.3</ele>
        <time>2021-07-23T11:24:47Z</time>
      </trkpt>
      <trkpt lat="44.63194" lon="0.56912">
        <ele>91.8</ele>
        <time>2021-07-23T11:24:50Z</time>
      </trkpt>
      <trkpt lat="44.63206" lon="0.56921">
        <ele>92.2</ele>
        <time>2021-07-23T11:24:53Z</time>
      </trkpt>
      <trkpt lat="44.63216" lon="0.56932">
        <ele>92.9</ele>
        <time>2021-07-23T11:24:56Z</time>
      </trkpt>
      <trkpt lat="44.6324" lon="0.56951">
        <ele>94.1</ele>
        <time>2021-07-23T11:25:03Z</time>
      </trkpt>
      <trkpt lat="44.63266" lon="0.56971">
        <ele>95</ele>
        <time>2021-07-23T11:25:10Z</time>
      </trkpt>
      <trkpt lat="44.63285" lon="0.56988">
        <ele>95.9</ele>
        <time>2021-07-23T11:25:16Z</time>
      </trkpt>
      <trkpt lat="44.63305" lon="0.57004">
        <ele>96.6</ele>
        <time>2021-07-23T11:25:23Z</time>
      </trkpt>
      <trkpt lat="44.63331" lon="0.57016">
        <ele>97.1</ele>
        <time>2021-07-23T11:25:31Z</time>
      </trkpt>
      <trkpt lat="44.63351" lon="0.57019">
        <ele>97.1</ele>
        <time>2021-07-23T11:25:36Z</time>
      </trkpt>
      <trkpt lat="44.63383" lon="0.57017">
        <ele>97.1</ele>
        <time>2021-07-23T11:25:44Z</time>
      </trkpt>
      <trkpt lat="44.63409" lon="0.57014">
        <ele>97.4</ele>
        <time>2021-07-23T11:25:50Z</time>
      </trkpt>
      <trkpt lat="44.63436" lon="0.57014">
        <ele>97.9</ele>
        <time>2021-07-23T11:25:56Z</time>
      </trkpt>
      <trkpt lat="44.63442" lon="0.57014">
        <ele>98.1</ele>
        <time>2021-07-23T11:25:58Z</time>
      </trkpt>
      <trkpt lat="44.63446" lon="0.57007">
        <ele>99.1</ele>
        <time>2021-07-23T11:26:00Z</time>
      </trkpt>
      <trkpt lat="44.6344" lon="0.57">
        <ele>99.7</ele>
        <time>2021-07-23T11:26:03Z</time>
      </trkpt>
      <trkpt lat="44.63431" lon="0.56989">
        <ele>100.9</ele>
        <time>2021-07-23T11:26:08Z</time>
      </trkpt>
      <trkpt lat="44.6343" lon="0.56987">
        <ele>101.1</ele>
        <time>2021-07-23T11:26:09Z</time>
      </trkpt>
      <trkpt lat="44.63425" lon="0.56975">
        <ele>102.4</ele>
        <time>2021-07-23T11:26:15Z</time>
      </trkpt>
      <trkpt lat="44.63424" lon="0.56974">
        <ele>102.7</ele>
        <time>2021-07-23T11:26:16Z</time>
      </trkpt>
      <trkpt lat="44.63418" lon="0.56963">
        <ele>104.3</ele>
        <time>2021-07-23T11:26:22Z</time>
      </trkpt>
      <trkpt lat="44.6341" lon="0.56951">
        <ele>106.4</ele>
        <time>2021-07-23T11:26:30Z</time>
      </trkpt>
      <trkpt lat="44.63405" lon="0.5694">
        <ele>108</ele>
        <time>2021-07-23T11:26:37Z</time>
      </trkpt>
      <trkpt lat="44.63404" lon="0.56938">
        <ele>108.4</ele>
        <time>2021-07-23T11:26:40Z</time>
      </trkpt>
      <trkpt lat="44.63397" lon="0.56922">
        <ele>110.7</ele>
        <time>2021-07-23T11:26:53Z</time>
      </trkpt>
      <trkpt lat="44.63394" lon="0.56915">
        <ele>111.8</ele>
        <time>2021-07-23T11:26:59Z</time>
      </trkpt>
      <trkpt lat="44.63392" lon="0.56906">
        <ele>112.8</ele>
        <time>2021-07-23T11:27:05Z</time>
      </trkpt>
      <trkpt lat="44.6339" lon="0.56904">
        <ele>113.1</ele>
        <time>2021-07-23T11:27:07Z</time>
      </trkpt>
      <trkpt lat="44.63387" lon="0.56896">
        <ele>113.9</ele>
        <time>2021-07-23T11:27:13Z</time>
      </trkpt>
      <trkpt lat="44.63385" lon="0.56891">
        <ele>114.3</ele>
        <time>2021-07-23T11:27:16Z</time>
      </trkpt>
      <trkpt lat="44.63385" lon="0.56885">
        <ele>114.7</ele>
        <time>2021-07-23T11:27:19Z</time>
      </trkpt>
      <trkpt lat="44.63384" lon="0.56883">
        <ele>114.9</ele>
        <time>2021-07-23T11:27:20Z</time>
      </trkpt>
      <trkpt lat="44.63384" lon="0.56876">
        <ele>115.4</ele>
        <time>2021-07-23T11:27:24Z</time>
      </trkpt>
      <trkpt lat="44.63387" lon="0.56864">
        <ele>116.3</ele>
        <time>2021-07-23T11:27:30Z</time>
      </trkpt>
      <trkpt lat="44.63391" lon="0.56853">
        <ele>117.3</ele>
        <time>2021-07-23T11:27:37Z</time>
      </trkpt>
      <trkpt lat="44.63393" lon="0.56844">
        <ele>118</ele>
        <time>2021-07-23T11:27:43Z</time>
      </trkpt>
      <trkpt lat="44.63396" lon="0.56832">
        <ele>119.1</ele>
        <time>2021-07-23T11:27:50Z</time>
      </trkpt>
      <trkpt lat="44.63399" lon="0.56824">
        <ele>119.7</ele>
        <time>2021-07-23T11:27:55Z</time>
      </trkpt>
      <trkpt lat="44.63401" lon="0.56819">
        <ele>120.2</ele>
        <time>2021-07-23T11:27:59Z</time>
      </trkpt>
      <trkpt lat="44.63404" lon="0.56813">
        <ele>120.8</ele>
        <time>2021-07-23T11:28:03Z</time>
      </trkpt>
      <trkpt lat="44.63405" lon="0.56811">
        <ele>120.9</ele>
        <time>2021-07-23T11:28:04Z</time>
      </trkpt>
      <trkpt lat="44.63408" lon="0.56803">
        <ele>121.6</ele>
        <time>2021-07-23T11:28:10Z</time>
      </trkpt>
      <trkpt lat="44.6341" lon="0.56802">
        <ele>121.8</ele>
        <time>2021-07-23T11:28:11Z</time>
      </trkpt>
      <trkpt lat="44.63411" lon="0.568">
        <ele>122.1</ele>
        <time>2021-07-23T11:28:13Z</time>
      </trkpt>
      <trkpt lat="44.63415" lon="0.56789">
        <ele>123</ele>
        <time>2021-07-23T11:28:20Z</time>
      </trkpt>
      <trkpt lat="44.63421" lon="0.5678">
        <ele>123.9</ele>
        <time>2021-07-23T11:28:27Z</time>
      </trkpt>
      <trkpt lat="44.63422" lon="0.56779">
        <ele>124.1</ele>
        <time>2021-07-23T11:28:28Z</time>
      </trkpt>
      <trkpt lat="44.63425" lon="0.56773">
        <ele>124.6</ele>
        <time>2021-07-23T11:28:32Z</time>
      </trkpt>
      <trkpt lat="44.63428" lon="0.56766">
        <ele>125.2</ele>
        <time>2021-07-23T11:28:37Z</time>
      </trkpt>
      <trkpt lat="44.63429" lon="0.56761">
        <ele>125.6</ele>
        <time>2021-07-23T11:28:40Z</time>
      </trkpt>
      <trkpt lat="44.6343" lon="0.56759">
        <ele>125.8</ele>
        <time>2021-07-23T11:28:42Z</time>
      </trkpt>
      <trkpt lat="44.63433" lon="0.56755">
        <ele>126.3</ele>
        <time>2021-07-23T11:28:45Z</time>
      </trkpt>
      <trkpt lat="44.63436" lon="0.56749">
        <ele>126.7</ele>
        <time>2021-07-23T11:28:49Z</time>
      </trkpt>
      <trkpt lat="44.63437" lon="0.56747">
        <ele>126.7</ele>
        <time>2021-07-23T11:28:52Z</time>
      </trkpt>
      <trkpt lat="44.63438" lon="0.56743">
        <ele>126.9</ele>
        <time>2021-07-23T11:28:56Z</time>
      </trkpt>
      <trkpt lat="44.63445" lon="0.56733">
        <ele>127.1</ele>
        <time>2021-07-23T11:29:01Z</time>
      </trkpt>
      <trkpt lat="44.63454" lon="0.5672">
        <ele>127.2</ele>
        <time>2021-07-23T11:29:07Z</time>
      </trkpt>
      <trkpt lat="44.63471" lon="0.56706">
        <ele>127.1</ele>
        <time>2021-07-23T11:29:13Z</time>
      </trkpt>
      <trkpt lat="44.63487" lon="0.56695">
        <ele>127</ele>
        <time>2021-07-23T11:29:19Z</time>
      </trkpt>
      <trkpt lat="44.63503" lon="0.56687">
        <ele>127</ele>
        <time>2021-07-23T11:29:24Z</time>
      </trkpt>
      <trkpt lat="44.63523" lon="0.56669">
        <ele>126.5</ele>
        <time>2021-07-23T11:29:29Z</time>
      </trkpt>
      <trkpt lat="44.63558" lon="0.5664">
        <ele>125.7</ele>
        <time>2021-07-23T11:29:36Z</time>
      </trkpt>
      <trkpt lat="44.63563" lon="0.56636">
        <ele>125.7</ele>
        <time>2021-07-23T11:29:37Z</time>
      </trkpt>
      <trkpt lat="44.63587" lon="0.56624">
        <ele>126</ele>
        <time>2021-07-23T11:29:42Z</time>
      </trkpt>
      <trkpt lat="44.63601" lon="0.56617">
        <ele>126.4</ele>
        <time>2021-07-23T11:29:46Z</time>
      </trkpt>
      <trkpt lat="44.63617" lon="0.56609">
        <ele>126.9</ele>
        <time>2021-07-23T11:29:50Z</time>
      </trkpt>
      <trkpt lat="44.6363" lon="0.56603">
        <ele>127</ele>
        <time>2021-07-23T11:29:53Z</time>
      </trkpt>
      <trkpt lat="44.63637" lon="0.56598">
        <ele>127</ele>
        <time>2021-07-23T11:29:55Z</time>
      </trkpt>
      <trkpt lat="44.63661" lon="0.56576">
        <ele>126.9</ele>
        <time>2021-07-23T11:30:01Z</time>
      </trkpt>
      <trkpt lat="44.63668" lon="0.56565">
        <ele>126.9</ele>
        <time>2021-07-23T11:30:03Z</time>
      </trkpt>
      <trkpt lat="44.63675" lon="0.56549">
        <ele>127.1</ele>
        <time>2021-07-23T11:30:06Z</time>
      </trkpt>
      <trkpt lat="44.63677" lon="0.56543">
        <ele>127.1</ele>
        <time>2021-07-23T11:30:07Z</time>
      </trkpt>
      <trkpt lat="44.63681" lon="0.56531">
        <ele>127.1</ele>
        <time>2021-07-23T11:30:09Z</time>
      </trkpt>
      <trkpt lat="44.63683" lon="0.56519">
        <ele>127.1</ele>
        <time>2021-07-23T11:30:11Z</time>
      </trkpt>
      <trkpt lat="44.63687" lon="0.565">
        <ele>127</ele>
        <time>2021-07-23T11:30:14Z</time>
      </trkpt>
      <trkpt lat="44.63692" lon="0.56486">
        <ele>126.8</ele>
        <time>2021-07-23T11:30:16Z</time>
      </trkpt>
      <trkpt lat="44.63702" lon="0.56459">
        <ele>126.5</ele>
        <time>2021-07-23T11:30:20Z</time>
      </trkpt>
      <trkpt lat="44.63706" lon="0.56454">
        <ele>126.5</ele>
        <time>2021-07-23T11:30:21Z</time>
      </trkpt>
      <trkpt lat="44.63712" lon="0.5645">
        <ele>126.4</ele>
        <time>2021-07-23T11:30:22Z</time>
      </trkpt>
      <trkpt lat="44.63722" lon="0.56449">
        <ele>126.4</ele>
        <time>2021-07-23T11:30:24Z</time>
      </trkpt>
      <trkpt lat="44.63757" lon="0.56453">
        <ele>126.4</ele>
        <time>2021-07-23T11:30:31Z</time>
      </trkpt>
      <trkpt lat="44.63786" lon="0.56456">
        <ele>126.4</ele>
        <time>2021-07-23T11:30:37Z</time>
      </trkpt>
      <trkpt lat="44.63792" lon="0.56457">
        <ele>126.4</ele>
        <time>2021-07-23T11:30:38Z</time>
      </trkpt>
      <trkpt lat="44.63802" lon="0.56461">
        <ele>126.4</ele>
        <time>2021-07-23T11:30:40Z</time>
      </trkpt>
      <trkpt lat="44.63806" lon="0.56464">
        <ele>126.1</ele>
        <time>2021-07-23T11:30:41Z</time>
      </trkpt>
      <trkpt lat="44.63831" lon="0.56484">
        <ele>125.3</ele>
        <time>2021-07-23T11:30:46Z</time>
      </trkpt>
      <trkpt lat="44.63871" lon="0.56514">
        <ele>124</ele>
        <time>2021-07-23T11:30:54Z</time>
      </trkpt>
      <trkpt lat="44.63912" lon="0.56543">
        <ele>123.2</ele>
        <time>2021-07-23T11:31:02Z</time>
      </trkpt>
      <trkpt lat="44.63942" lon="0.56558">
        <ele>123.7</ele>
        <time>2021-07-23T11:31:08Z</time>
      </trkpt>
      <trkpt lat="44.63978" lon="0.56576">
        <ele>124.5</ele>
        <time>2021-07-23T11:31:16Z</time>
      </trkpt>
      <trkpt lat="44.64016" lon="0.5659">
        <ele>124.3</ele>
        <time>2021-07-23T11:31:24Z</time>
      </trkpt>
      <trkpt lat="44.64049" lon="0.56602">
        <ele>124</ele>
        <time>2021-07-23T11:31:30Z</time>
      </trkpt>
      <trkpt lat="44.64083" lon="0.56613">
        <ele>123.8</ele>
        <time>2021-07-23T11:31:36Z</time>
      </trkpt>
      <trkpt lat="44.6411" lon="0.56624">
        <ele>123.8</ele>
        <time>2021-07-23T11:31:42Z</time>
      </trkpt>
      <trkpt lat="44.64136" lon="0.56634">
        <ele>123.9</ele>
        <time>2021-07-23T11:31:48Z</time>
      </trkpt>
      <trkpt lat="44.64166" lon="0.56645">
        <ele>123.9</ele>
        <time>2021-07-23T11:31:54Z</time>
      </trkpt>
      <trkpt lat="44.64201" lon="0.56664">
        <ele>123.7</ele>
        <time>2021-07-23T11:32:01Z</time>
      </trkpt>
      <trkpt lat="44.64216" lon="0.56668">
        <ele>123.9</ele>
        <time>2021-07-23T11:32:04Z</time>
      </trkpt>
      <trkpt lat="44.6422" lon="0.56665">
        <ele>123.9</ele>
        <time>2021-07-23T11:32:05Z</time>
      </trkpt>
      <trkpt lat="44.64223" lon="0.5666">
        <ele>124</ele>
        <time>2021-07-23T11:32:06Z</time>
      </trkpt>
      <trkpt lat="44.64227" lon="0.56649">
        <ele>124.1</ele>
        <time>2021-07-23T11:32:08Z</time>
      </trkpt>
      <trkpt lat="44.64228" lon="0.56643">
        <ele>124.1</ele>
        <time>2021-07-23T11:32:09Z</time>
      </trkpt>
      <trkpt lat="44.6423" lon="0.56632">
        <ele>124.1</ele>
        <time>2021-07-23T11:32:11Z</time>
      </trkpt>
      <trkpt lat="44.64236" lon="0.56615">
        <ele>124</ele>
        <time>2021-07-23T11:32:14Z</time>
      </trkpt>
      <trkpt lat="44.64244" lon="0.56598">
        <ele>123.2</ele>
        <time>2021-07-23T11:32:17Z</time>
      </trkpt>
      <trkpt lat="44.64252" lon="0.56589">
        <ele>122.1</ele>
        <time>2021-07-23T11:32:19Z</time>
      </trkpt>
      <trkpt lat="44.64256" lon="0.56585">
        <ele>121.5</ele>
        <time>2021-07-23T11:32:20Z</time>
      </trkpt>
      <trkpt lat="44.64265" lon="0.56582">
        <ele>119.8</ele>
        <time>2021-07-23T11:32:22Z</time>
      </trkpt>
      <trkpt lat="44.64275" lon="0.56582">
        <ele>117.9</ele>
        <time>2021-07-23T11:32:24Z</time>
      </trkpt>
      <trkpt lat="44.64289" lon="0.56584">
        <ele>114.9</ele>
        <time>2021-07-23T11:32:27Z</time>
      </trkpt>
      <trkpt lat="44.64299" lon="0.56587">
        <ele>112.9</ele>
        <time>2021-07-23T11:32:29Z</time>
      </trkpt>
      <trkpt lat="44.6431" lon="0.56593">
        <ele>108.6</ele>
        <time>2021-07-23T11:32:32Z</time>
      </trkpt>
      <trkpt lat="44.64325" lon="0.56598">
        <ele>106.8</ele>
        <time>2021-07-23T11:32:36Z</time>
      </trkpt>
      <trkpt lat="44.64331" lon="0.56596">
        <ele>105.9</ele>
        <time>2021-07-23T11:32:38Z</time>
      </trkpt>
      <trkpt lat="44.64335" lon="0.56591">
        <ele>105.2</ele>
        <time>2021-07-23T11:32:39Z</time>
      </trkpt>
      <trkpt lat="44.64338" lon="0.56585">
        <ele>104.3</ele>
        <time>2021-07-23T11:32:40Z</time>
      </trkpt>
      <trkpt lat="44.64349" lon="0.56559">
        <ele>101.2</ele>
        <time>2021-07-23T11:32:43Z</time>
      </trkpt>
      <trkpt lat="44.64367" lon="0.56515">
        <ele>96.3</ele>
        <time>2021-07-23T11:32:47Z</time>
      </trkpt>
      <trkpt lat="44.64383" lon="0.56478">
        <ele>92.6</ele>
        <time>2021-07-23T11:32:50Z</time>
      </trkpt>
      <trkpt lat="44.64392" lon="0.56469">
        <ele>91.6</ele>
        <time>2021-07-23T11:32:51Z</time>
      </trkpt>
      <trkpt lat="44.64401" lon="0.56463">
        <ele>90.7</ele>
        <time>2021-07-23T11:32:52Z</time>
      </trkpt>
      <trkpt lat="44.64424" lon="0.56456">
        <ele>89.3</ele>
        <time>2021-07-23T11:32:54Z</time>
      </trkpt>
      <trkpt lat="44.64478" lon="0.56442">
        <ele>86.1</ele>
        <time>2021-07-23T11:32:59Z</time>
      </trkpt>
      <trkpt lat="44.64488" lon="0.56442">
        <ele>85.5</ele>
        <time>2021-07-23T11:33:00Z</time>
      </trkpt>
      <trkpt lat="44.64508" lon="0.56446">
        <ele>84</ele>
        <time>2021-07-23T11:33:02Z</time>
      </trkpt>
      <trkpt lat="44.64525" lon="0.56457">
        <ele>81.9</ele>
        <time>2021-07-23T11:33:04Z</time>
      </trkpt>
      <trkpt lat="44.64534" lon="0.56464">
        <ele>81.2</ele>
        <time>2021-07-23T11:33:05Z</time>
      </trkpt>
      <trkpt lat="44.64544" lon="0.5647">
        <ele>80.9</ele>
        <time>2021-07-23T11:33:06Z</time>
      </trkpt>
      <trkpt lat="44.64565" lon="0.56476">
        <ele>80.4</ele>
        <time>2021-07-23T11:33:08Z</time>
      </trkpt>
      <trkpt lat="44.64621" lon="0.56478">
        <ele>79.6</ele>
        <time>2021-07-23T11:33:13Z</time>
      </trkpt>
      <trkpt lat="44.64631" lon="0.56479">
        <ele>79.5</ele>
        <time>2021-07-23T11:33:14Z</time>
      </trkpt>
      <trkpt lat="44.64682" lon="0.56489">
        <ele>79.5</ele>
        <time>2021-07-23T11:33:19Z</time>
      </trkpt>
      <trkpt lat="44.64738" lon="0.56501">
        <ele>79.7</ele>
        <time>2021-07-23T11:33:25Z</time>
      </trkpt>
      <trkpt lat="44.64771" lon="0.56509">
        <ele>79.9</ele>
        <time>2021-07-23T11:33:29Z</time>
      </trkpt>
      <trkpt lat="44.64778" lon="0.56509">
        <ele>79.7</ele>
        <time>2021-07-23T11:33:30Z</time>
      </trkpt>
      <trkpt lat="44.64809" lon="0.56503">
        <ele>79.3</ele>
        <time>2021-07-23T11:33:35Z</time>
      </trkpt>
      <trkpt lat="44.64823" lon="0.56505">
        <ele>79.1</ele>
        <time>2021-07-23T11:33:38Z</time>
      </trkpt>
      <trkpt lat="44.64827" lon="0.56507">
        <ele>79</ele>
        <time>2021-07-23T11:33:39Z</time>
      </trkpt>
      <trkpt lat="44.64832" lon="0.56508">
        <ele>78.9</ele>
        <time>2021-07-23T11:33:40Z</time>
      </trkpt>
      <trkpt lat="44.64845" lon="0.56515">
        <ele>78.6</ele>
        <time>2021-07-23T11:33:43Z</time>
      </trkpt>
      <trkpt lat="44.64869" lon="0.56533">
        <ele>78.4</ele>
        <time>2021-07-23T11:33:49Z</time>
      </trkpt>
      <trkpt lat="44.64874" lon="0.56535">
        <ele>78.3</ele>
        <time>2021-07-23T11:33:50Z</time>
      </trkpt>
      <trkpt lat="44.64891" lon="0.56537">
        <ele>78.2</ele>
        <time>2021-07-23T11:33:54Z</time>
      </trkpt>
      <trkpt lat="44.649" lon="0.56535">
        <ele>78.2</ele>
        <time>2021-07-23T11:33:56Z</time>
      </trkpt>
      <trkpt lat="44.64907" lon="0.56533">
        <ele>78.2</ele>
        <time>2021-07-23T11:33:58Z</time>
      </trkpt>
      <trkpt lat="44.64927" lon="0.56527">
        <ele>78.6</ele>
        <time>2021-07-23T11:34:04Z</time>
      </trkpt>
      <trkpt lat="44.64944" lon="0.56524">
        <ele>78.9</ele>
        <time>2021-07-23T11:34:10Z</time>
      </trkpt>
      <trkpt lat="44.64962" lon="0.56529">
        <ele>79.1</ele>
        <time>2021-07-23T11:34:16Z</time>
      </trkpt>
      <trkpt lat="44.64977" lon="0.56528">
        <ele>78.9</ele>
        <time>2021-07-23T11:34:22Z</time>
      </trkpt>
      <trkpt lat="44.64996" lon="0.56526">
        <ele>79</ele>
        <time>2021-07-23T11:34:29Z</time>
      </trkpt>
      <trkpt lat="44.65013" lon="0.56522">
        <ele>79.7</ele>
        <time>2021-07-23T11:34:36Z</time>
      </trkpt>
      <trkpt lat="44.65029" lon="0.5652">
        <ele>80.4</ele>
        <time>2021-07-23T11:34:43Z</time>
      </trkpt>
      <trkpt lat="44.65039" lon="0.56519">
        <ele>80.9</ele>
        <time>2021-07-23T11:34:49Z</time>
      </trkpt>
      <trkpt lat="44.65053" lon="0.56516">
        <ele>82</ele>
        <time>2021-07-23T11:34:57Z</time>
      </trkpt>
      <trkpt lat="44.65066" lon="0.56515">
        <ele>83.2</ele>
        <time>2021-07-23T11:35:05Z</time>
      </trkpt>
      <trkpt lat="44.6508" lon="0.56513">
        <ele>84.9</ele>
        <time>2021-07-23T11:35:12Z</time>
      </trkpt>
      <trkpt lat="44.65088" lon="0.5651">
        <ele>85.8</ele>
        <time>2021-07-23T11:35:17Z</time>
      </trkpt>
      <trkpt lat="44.65098" lon="0.56507">
        <ele>87.4</ele>
        <time>2021-07-23T11:35:23Z</time>
      </trkpt>
      <trkpt lat="44.65106" lon="0.56504">
        <ele>89.3</ele>
        <time>2021-07-23T11:35:29Z</time>
      </trkpt>
      <trkpt lat="44.65113" lon="0.56502">
        <ele>90.9</ele>
        <time>2021-07-23T11:35:34Z</time>
      </trkpt>
      <trkpt lat="44.65115" lon="0.56501">
        <ele>91.6</ele>
        <time>2021-07-23T11:35:36Z</time>
      </trkpt>
      <trkpt lat="44.65116" lon="0.56501">
        <ele>92.3</ele>
        <time>2021-07-23T11:35:38Z</time>
      </trkpt>
      <trkpt lat="44.65119" lon="0.56499">
        <ele>93</ele>
        <time>2021-07-23T11:35:44Z</time>
      </trkpt>
      <trkpt lat="44.6512" lon="0.56499">
        <ele>92.9</ele>
        <time>2021-07-23T11:35:45Z</time>
      </trkpt>
      <trkpt lat="44.6513" lon="0.56499">
        <ele>95.2</ele>
        <time>2021-07-23T11:35:54Z</time>
      </trkpt>
      <trkpt lat="44.65139" lon="0.565">
        <ele>97.6</ele>
        <time>2021-07-23T11:36:01Z</time>
      </trkpt>
      <trkpt lat="44.65141" lon="0.565">
        <ele>98.4</ele>
        <time>2021-07-23T11:36:03Z</time>
      </trkpt>
      <trkpt lat="44.65145" lon="0.56501">
        <ele>99.3</ele>
        <time>2021-07-23T11:36:07Z</time>
      </trkpt>
      <trkpt lat="44.65152" lon="0.56501">
        <ele>101</ele>
        <time>2021-07-23T11:36:12Z</time>
      </trkpt>
      <trkpt lat="44.65157" lon="0.56501">
        <ele>102.6</ele>
        <time>2021-07-23T11:36:17Z</time>
      </trkpt>
      <trkpt lat="44.65164" lon="0.56503">
        <ele>104.3</ele>
        <time>2021-07-23T11:36:23Z</time>
      </trkpt>
      <trkpt lat="44.65167" lon="0.56502">
        <ele>105.3</ele>
        <time>2021-07-23T11:36:26Z</time>
      </trkpt>
      <trkpt lat="44.65171" lon="0.565">
        <ele>106.2</ele>
        <time>2021-07-23T11:36:29Z</time>
      </trkpt>
      <trkpt lat="44.65172" lon="0.565">
        <ele>107.1</ele>
        <time>2021-07-23T11:36:30Z</time>
      </trkpt>
      <trkpt lat="44.65178" lon="0.565">
        <ele>108.9</ele>
        <time>2021-07-23T11:36:35Z</time>
      </trkpt>
      <trkpt lat="44.65185" lon="0.56499">
        <ele>110.5</ele>
        <time>2021-07-23T11:36:42Z</time>
      </trkpt>
      <trkpt lat="44.65193" lon="0.565">
        <ele>113.2</ele>
        <time>2021-07-23T11:36:50Z</time>
      </trkpt>
      <trkpt lat="44.65194" lon="0.565">
        <ele>113.1</ele>
        <time>2021-07-23T11:36:51Z</time>
      </trkpt>
      <trkpt lat="44.65197" lon="0.565">
        <ele>113.9</ele>
        <time>2021-07-23T11:36:55Z</time>
      </trkpt>
      <trkpt lat="44.65203" lon="0.56501">
        <ele>115.4</ele>
        <time>2021-07-23T11:37:00Z</time>
      </trkpt>
      <trkpt lat="44.65219" lon="0.56502">
        <ele>118.8</ele>
        <time>2021-07-23T11:37:26Z</time>
      </trkpt>
      <trkpt lat="44.65222" lon="0.56502">
        <ele>119.3</ele>
        <time>2021-07-23T11:37:29Z</time>
      </trkpt>
      <trkpt lat="44.65227" lon="0.56504">
        <ele>120.5</ele>
        <time>2021-07-23T11:37:35Z</time>
      </trkpt>
      <trkpt lat="44.65229" lon="0.56504">
        <ele>120.8</ele>
        <time>2021-07-23T11:37:38Z</time>
      </trkpt>
      <trkpt lat="44.65234" lon="0.56503">
        <ele>121.2</ele>
        <time>2021-07-23T11:37:45Z</time>
      </trkpt>
      <trkpt lat="44.65234" lon="0.56504">
        <ele>121.1</ele>
        <time>2021-07-23T11:37:46Z</time>
      </trkpt>
      <trkpt lat="44.65235" lon="0.56504">
        <ele>121</ele>
        <time>2021-07-23T11:37:47Z</time>
      </trkpt>
      <trkpt lat="44.65235" lon="0.56507">
        <ele>120.9</ele>
        <time>2021-07-23T11:37:49Z</time>
      </trkpt>
      <trkpt lat="44.65235" lon="0.56507">
        <ele>120.9</ele>
        <time>2021-07-23T11:37:51Z</time>
      </trkpt>
      <trkpt lat="44.65237" lon="0.56515">
        <ele>121.3</ele>
        <time>2021-07-23T11:38:00Z</time>
      </trkpt>
      <trkpt lat="44.65233" lon="0.56528">
        <ele>121</ele>
        <time>2021-07-23T11:38:06Z</time>
      </trkpt>
      <trkpt lat="44.65228" lon="0.56541">
        <ele>120</ele>
        <time>2021-07-23T11:38:10Z</time>
      </trkpt>
      <trkpt lat="44.65228" lon="0.56562">
        <ele>120.1</ele>
        <time>2021-07-23T11:38:14Z</time>
      </trkpt>
      <trkpt lat="44.65235" lon="0.56582">
        <ele>120.7</ele>
        <time>2021-07-23T11:38:18Z</time>
      </trkpt>
      <trkpt lat="44.65246" lon="0.56602">
        <ele>121.5</ele>
        <time>2021-07-23T11:38:23Z</time>
      </trkpt>
      <trkpt lat="44.65262" lon="0.56624">
        <ele>121.3</ele>
        <time>2021-07-23T11:38:29Z</time>
      </trkpt>
      <trkpt lat="44.65265" lon="0.56636">
        <ele>120.7</ele>
        <time>2021-07-23T11:38:32Z</time>
      </trkpt>
      <trkpt lat="44.65265" lon="0.56641">
        <ele>120.5</ele>
        <time>2021-07-23T11:38:33Z</time>
      </trkpt>
      <trkpt lat="44.65262" lon="0.56648">
        <ele>120.2</ele>
        <time>2021-07-23T11:38:34Z</time>
      </trkpt>
      <trkpt lat="44.65255" lon="0.56658">
        <ele>119.8</ele>
        <time>2021-07-23T11:38:36Z</time>
      </trkpt>
      <trkpt lat="44.65242" lon="0.56675">
        <ele>119.2</ele>
        <time>2021-07-23T11:38:40Z</time>
      </trkpt>
      <trkpt lat="44.65228" lon="0.5669">
        <ele>118.2</ele>
        <time>2021-07-23T11:38:44Z</time>
      </trkpt>
      <trkpt lat="44.65221" lon="0.56697">
        <ele>117.7</ele>
        <time>2021-07-23T11:38:46Z</time>
      </trkpt>
      <trkpt lat="44.65202" lon="0.5671">
        <ele>116.3</ele>
        <time>2021-07-23T11:38:50Z</time>
      </trkpt>
      <trkpt lat="44.65179" lon="0.56733">
        <ele>114</ele>
        <time>2021-07-23T11:38:55Z</time>
      </trkpt>
      <trkpt lat="44.6517" lon="0.56746">
        <ele>113</ele>
        <time>2021-07-23T11:38:57Z</time>
      </trkpt>
      <trkpt lat="44.65164" lon="0.56762">
        <ele>111.9</ele>
        <time>2021-07-23T11:38:59Z</time>
      </trkpt>
      <trkpt lat="44.65159" lon="0.56778">
        <ele>111.1</ele>
        <time>2021-07-23T11:39:01Z</time>
      </trkpt>
      <trkpt lat="44.65157" lon="0.56792">
        <ele>110.5</ele>
        <time>2021-07-23T11:39:03Z</time>
      </trkpt>
      <trkpt lat="44.65156" lon="0.56802">
        <ele>110.1</ele>
        <time>2021-07-23T11:39:05Z</time>
      </trkpt>
      <trkpt lat="44.65157" lon="0.56804">
        <ele>110</ele>
        <time>2021-07-23T11:39:06Z</time>
      </trkpt>
      <trkpt lat="44.6516" lon="0.56804">
        <ele>110.1</ele>
        <time>2021-07-23T11:39:08Z</time>
      </trkpt>
      <trkpt lat="44.65161" lon="0.56802">
        <ele>110.2</ele>
        <time>2021-07-23T11:39:09Z</time>
      </trkpt>
      <trkpt lat="44.65167" lon="0.56788">
        <ele>110.9</ele>
        <time>2021-07-23T11:39:15Z</time>
      </trkpt>
      <trkpt lat="44.65172" lon="0.56773">
        <ele>111.7</ele>
        <time>2021-07-23T11:39:21Z</time>
      </trkpt>
      <trkpt lat="44.65175" lon="0.56766">
        <ele>112.1</ele>
        <time>2021-07-23T11:39:24Z</time>
      </trkpt>
      <trkpt lat="44.65179" lon="0.56763">
        <ele>112.4</ele>
        <time>2021-07-23T11:39:26Z</time>
      </trkpt>
      <trkpt lat="44.65186" lon="0.5675">
        <ele>113.4</ele>
        <time>2021-07-23T11:39:32Z</time>
      </trkpt>
      <trkpt lat="44.65192" lon="0.56745">
        <ele>114</ele>
        <time>2021-07-23T11:39:36Z</time>
      </trkpt>
      <trkpt lat="44.65205" lon="0.56734">
        <ele>115.3</ele>
        <time>2021-07-23T11:39:43Z</time>
      </trkpt>
      <trkpt lat="44.6521" lon="0.56731">
        <ele>115.8</ele>
        <time>2021-07-23T11:39:46Z</time>
      </trkpt>
      <trkpt lat="44.65213" lon="0.56728">
        <ele>116.1</ele>
        <time>2021-07-23T11:39:48Z</time>
      </trkpt>
      <trkpt lat="44.65215" lon="0.56727">
        <ele>116.2</ele>
        <time>2021-07-23T11:39:49Z</time>
      </trkpt>
      <trkpt lat="44.65219" lon="0.56722">
        <ele>116.7</ele>
        <time>2021-07-23T11:39:52Z</time>
      </trkpt>
      <trkpt lat="44.65233" lon="0.56713">
        <ele>117.7</ele>
        <time>2021-07-23T11:39:59Z</time>
      </trkpt>
      <trkpt lat="44.65245" lon="0.56705">
        <ele>118.5</ele>
        <time>2021-07-23T11:40:04Z</time>
      </trkpt>
      <trkpt lat="44.65258" lon="0.56694">
        <ele>119.3</ele>
        <time>2021-07-23T11:40:10Z</time>
      </trkpt>
      <trkpt lat="44.65265" lon="0.56683">
        <ele>119.6</ele>
        <time>2021-07-23T11:40:14Z</time>
      </trkpt>
      <trkpt lat="44.65271" lon="0.56667">
        <ele>120</ele>
        <time>2021-07-23T11:40:18Z</time>
      </trkpt>
      <trkpt lat="44.6528" lon="0.56642">
        <ele>120.7</ele>
        <time>2021-07-23T11:40:24Z</time>
      </trkpt>
      <trkpt lat="44.65284" lon="0.56616">
        <ele>121.9</ele>
        <time>2021-07-23T11:40:30Z</time>
      </trkpt>
      <trkpt lat="44.65284" lon="0.56597">
        <ele>123</ele>
        <time>2021-07-23T11:40:35Z</time>
      </trkpt>
      <trkpt lat="44.65289" lon="0.5658">
        <ele>124.1</ele>
        <time>2021-07-23T11:40:40Z</time>
      </trkpt>
      <trkpt lat="44.65295" lon="0.56559">
        <ele>125.4</ele>
        <time>2021-07-23T11:40:46Z</time>
      </trkpt>
      <trkpt lat="44.65304" lon="0.56532">
        <ele>127</ele>
        <time>2021-07-23T11:40:54Z</time>
      </trkpt>
      <trkpt lat="44.65315" lon="0.56505">
        <ele>128.6</ele>
        <time>2021-07-23T11:41:02Z</time>
      </trkpt>
      <trkpt lat="44.65325" lon="0.56483">
        <ele>129.8</ele>
        <time>2021-07-23T11:41:09Z</time>
      </trkpt>
      <trkpt lat="44.65335" lon="0.56457">
        <ele>130.9</ele>
        <time>2021-07-23T11:41:16Z</time>
      </trkpt>
      <trkpt lat="44.65345" lon="0.56429">
        <ele>131.7</ele>
        <time>2021-07-23T11:41:23Z</time>
      </trkpt>
      <trkpt lat="44.65354" lon="0.56404">
        <ele>131.9</ele>
        <time>2021-07-23T11:41:29Z</time>
      </trkpt>
      <trkpt lat="44.65363" lon="0.56387">
        <ele>131.9</ele>
        <time>2021-07-23T11:41:33Z</time>
      </trkpt>
      <trkpt lat="44.65369" lon="0.56379">
        <ele>131.8</ele>
        <time>2021-07-23T11:41:35Z</time>
      </trkpt>
      <trkpt lat="44.65376" lon="0.56371">
        <ele>131.8</ele>
        <time>2021-07-23T11:41:37Z</time>
      </trkpt>
      <trkpt lat="44.65384" lon="0.56365">
        <ele>131.8</ele>
        <time>2021-07-23T11:41:39Z</time>
      </trkpt>
      <trkpt lat="44.65388" lon="0.56362">
        <ele>131.8</ele>
        <time>2021-07-23T11:41:40Z</time>
      </trkpt>
      <trkpt lat="44.65419" lon="0.56343">
        <ele>131.5</ele>
        <time>2021-07-23T11:41:47Z</time>
      </trkpt>
      <trkpt lat="44.65447" lon="0.56314">
        <ele>130.6</ele>
        <time>2021-07-23T11:41:53Z</time>
      </trkpt>
      <trkpt lat="44.65476" lon="0.56274">
        <ele>130.4</ele>
        <time>2021-07-23T11:42:00Z</time>
      </trkpt>
      <trkpt lat="44.65496" lon="0.56236">
        <ele>130.5</ele>
        <time>2021-07-23T11:42:06Z</time>
      </trkpt>
      <trkpt lat="44.65508" lon="0.56212">
        <ele>130.5</ele>
        <time>2021-07-23T11:42:10Z</time>
      </trkpt>
      <trkpt lat="44.65513" lon="0.56201">
        <ele>130.6</ele>
        <time>2021-07-23T11:42:12Z</time>
      </trkpt>
      <trkpt lat="44.65523" lon="0.56179">
        <ele>130.7</ele>
        <time>2021-07-23T11:42:17Z</time>
      </trkpt>
      <trkpt lat="44.65526" lon="0.56174">
        <ele>130.7</ele>
        <time>2021-07-23T11:42:18Z</time>
      </trkpt>
      <trkpt lat="44.65533" lon="0.56152">
        <ele>130.9</ele>
        <time>2021-07-23T11:42:22Z</time>
      </trkpt>
      <trkpt lat="44.65552" lon="0.56116">
        <ele>131.1</ele>
        <time>2021-07-23T11:42:29Z</time>
      </trkpt>
      <trkpt lat="44.65576" lon="0.56078">
        <ele>130.6</ele>
        <time>2021-07-23T11:42:36Z</time>
      </trkpt>
      <trkpt lat="44.65593" lon="0.56052">
        <ele>130.3</ele>
        <time>2021-07-23T11:42:41Z</time>
      </trkpt>
      <trkpt lat="44.65597" lon="0.56048">
        <ele>130.2</ele>
        <time>2021-07-23T11:42:42Z</time>
      </trkpt>
      <trkpt lat="44.65607" lon="0.56035">
        <ele>130.3</ele>
        <time>2021-07-23T11:42:45Z</time>
      </trkpt>
      <trkpt lat="44.65615" lon="0.56019">
        <ele>130.5</ele>
        <time>2021-07-23T11:42:48Z</time>
      </trkpt>
      <trkpt lat="44.65617" lon="0.56013">
        <ele>130.7</ele>
        <time>2021-07-23T11:42:49Z</time>
      </trkpt>
      <trkpt lat="44.65624" lon="0.55996">
        <ele>131.2</ele>
        <time>2021-07-23T11:42:52Z</time>
      </trkpt>
      <trkpt lat="44.65638" lon="0.55966">
        <ele>131.8</ele>
        <time>2021-07-23T11:42:58Z</time>
      </trkpt>
      <trkpt lat="44.65643" lon="0.55956">
        <ele>131.8</ele>
        <time>2021-07-23T11:43:00Z</time>
      </trkpt>
      <trkpt lat="44.6565" lon="0.55938">
        <ele>131.8</ele>
        <time>2021-07-23T11:43:03Z</time>
      </trkpt>
      <trkpt lat="44.65653" lon="0.55925">
        <ele>131.8</ele>
        <time>2021-07-23T11:43:05Z</time>
      </trkpt>
      <trkpt lat="44.65657" lon="0.55905">
        <ele>131.8</ele>
        <time>2021-07-23T11:43:08Z</time>
      </trkpt>
      <trkpt lat="44.65658" lon="0.55897">
        <ele>131.8</ele>
        <time>2021-07-23T11:43:09Z</time>
      </trkpt>
      <trkpt lat="44.65665" lon="0.55833">
        <ele>132</ele>
        <time>2021-07-23T11:43:18Z</time>
      </trkpt>
      <trkpt lat="44.65666" lon="0.5582">
        <ele>132</ele>
        <time>2021-07-23T11:43:20Z</time>
      </trkpt>
      <trkpt lat="44.65667" lon="0.55813">
        <ele>131.9</ele>
        <time>2021-07-23T11:43:22Z</time>
      </trkpt>
      <trkpt lat="44.65668" lon="0.55813">
        <ele>131.9</ele>
        <time>2021-07-23T11:43:24Z</time>
      </trkpt>
    </trkseg>
  </trk>
</gpx>